<
# Wetter Temperatur Luftdruck Luftfeuchtigkeit Sichtweite Windgeschwindigkeit Windrichtung Zeit
1 Clear 14 977 63 10000 1.79 87 07:39 02.10.2022
2 Clear 18 987 56 10000 0.58 179 02:55 02.10.2022
3 Clear 20 987 52 10000 8.23 230 00:46 02.10.2022
4 Clear 21 996 46 10000 8.23 230 00:21 02.10.2022
5 Clear 24 997 33 10000 8.23 220 22:43 01.10.2022
6 Clear 23 996 34 10000 3.42 238 20:36 01.10.2022
7 Clouds 25 993 35 10000 3.41 248 18:40 01.10.2022
8 Clouds 22 994 40 10000 2.26 245 16:36 01.10.2022
9 Clouds 17 992 50 10000 1.69 244 14:41 01.10.2022
10 Clouds 14 973 71 8000 0.2 256 13:31 01.10.2022
11 Clouds 14 985 57 10000 1.57 64 12:33 01.10.2022
12 Clouds 14 975 63 10000 1.33 69 11:21 01.10.2022
13 Clouds 15 984 58 10000 1.33 69 10:32 01.10.2022
14 Clouds 15 984 59 10000 1.62 75 09:28 01.10.2022
15 Clouds 15 975 65 10000 1.62 75 08:58 01.10.2022
16 Clouds 16 985 62 10000 1.34 91 05:28 01.10.2022
17 Clouds 17 985 61 10000 1.13 100 03:32 01.10.2022
18 Clouds 22 1000 41 10000 2.65 219 00:29 01.10.2022
19 Clouds 23 996 38 10000 3.27 227 22:48 30.09.2022
20 Haze 24 1018 33 5000 3.6 210 21:31 30.09.2022
21 Haze 24 1017 33 5000 2.06 240 20:44 30.09.2022
22 Haze 24 1017 34 5000 2.06 240 20:18 30.09.2022
23 Haze 20 1001 47 5000 2.57 190 17:38 30.09.2022
24 Haze 16 986 61 4000 1.54 300 15:58 30.09.2022
25 Mist 12 989 85 1000 0.53 144 13:34 30.09.2022
26 Clear 12 981 76 10000 1.23 87 11:58 30.09.2022
27 Clear 12 980 78 10000 1.37 97 11:28 30.09.2022
28 Clear 12 980 77 10000 0.76 90 08:37 30.09.2022
29 Clouds 13 989 74 10000 0.57 166 06:27 30.09.2022
30 Clouds 15 988 66 10000 0.76 228 02:42 30.09.2022
31 Clear 17 993 60 10000 4.12 240 23:35 29.09.2022
32 Clear 21 1018 48 7000 4.12 240 21:29 29.09.2022
33 Haze 22 1018 42 5000 3.09 230 20:57 29.09.2022
34 Haze 21 1001 44 4000 2.57 270 18:45 29.09.2022
35 Haze 20 1002 48 4000 4.12 210 17:32 29.09.2022
36 Haze 18 992 53 3500 0 0 16:28 29.09.2022
37 Haze 16 1002 60 3000 0 0 15:36 29.09.2022
38 Mist 16 998 62 1500 0 0 14:35 29.09.2022
39 Clouds 11 991 83 10000 0.77 82 10:33 29.09.2022
40 Clouds 12 978 74 10000 0.47 184 07:26 29.09.2022
41 Clouds 15 987 62 10000 0.89 240 02:52 29.09.2022
42 Clear 18 992 52 10000 4.12 240 23:56 28.09.2022
43 Clear 20 991 48 10000 4.12 260 22:58 28.09.2022
44 Clouds 21 991 43 6000 5.14 200 21:30 28.09.2022
45 Clouds 21 991 43 6000 5.14 200 21:30 28.09.2022
46 Clouds 21 991 43 6000 5.14 200 21:30 28.09.2022
47 Clouds 20 988 45 6000 3.09 180 20:26 28.09.2022
48 Clear 19 988 47 10000 1.54 140 18:42 28.09.2022
49 Clear 16 1005 56 10000 1.54 270 15:34 28.09.2022
50 Clear 10 1021 64 10000 0 0 13:27 28.09.2022
51 Clear 10 1000 64 10000 1.23 77 11:23 28.09.2022
52 Clear 11 1000 64 10000 1.09 87 09:18 28.09.2022
53 Clouds 13 1000 63 10000 1.16 113 07:39 28.09.2022
54 Clouds 15 989 60 10000 0.76 122 04:34 28.09.2022
55 Clear 17 988 51 10000 3.09 230 01:36 28.09.2022
56 Clear 21 1002 37 10000 3.6 220 23:27 27.09.2022
57 Clouds 21 1002 37 10000 4.12 200 21:47 27.09.2022
58 Clear 21 1004 36 10000 0 0 20:44 27.09.2022
59 Clear 20 985 35 10000 4.12 260 19:49 27.09.2022
60 Clear 20 994 37 10000 3.09 230 18:49 27.09.2022
61 Clear 19 984 46 10000 4.12 220 17:46 27.09.2022
62 Clear 15 985 54 10000 2.06 140 15:59 27.09.2022
63 Clear 13 1004 63 10000 0 0 14:59 27.09.2022
64 Clear 9 1000 74 10000 2.06 50 13:28 27.09.2022
65 Clouds 9 999 71 10000 0.64 87 12:22 27.09.2022
66 Clouds 10 999 70 10000 0.41 192 09:46 27.09.2022
67 Clouds 11 999 71 10000 0.36 209 07:28 27.09.2022
68 Clouds 14 987 60 10000 0.99 226 02:51 27.09.2022
69 Clouds 15 993 59 10000 4.12 230 01:35 27.09.2022
70 Clouds 17 987 50 10000 7.2 200 23:38 26.09.2022
71 Clouds 16 987 49 10000 7.2 200 23:18 26.09.2022
72 Clouds 16 987 52 8000 4.12 280 20:47 26.09.2022
73 Clouds 16 993 53 8000 4.12 150 19:34 26.09.2022
74 Clouds 16 993 56 8000 4.12 210 18:34 26.09.2022
75 Clouds 14 994 64 8000 4.12 200 16:58 26.09.2022
76 Haze 11 989 71 5000 4.12 60 14:46 26.09.2022
77 Clouds 10 992 74 10000 0.39 103 11:36 26.09.2022
78 Clouds 9 1001 74 10000 0.22 164 10:41 26.09.2022
79 Clouds 9 1001 73 10000 0.37 121 10:21 26.09.2022
80 Clouds 10 992 73 10000 0.37 121 09:56 26.09.2022
81 Clouds 9 1001 73 10000 0.69 215 09:24 26.09.2022
82 Clouds 10 1001 71 10000 0.82 223 08:57 26.09.2022
83 Clear 13 1001 63 10000 0.79 221 02:59 26.09.2022
84 Clear 14 1005 59 10000 4.12 250 01:31 26.09.2022
85 Clouds 17 993 45 8000 8.75 220 23:20 25.09.2022
86 Clouds 17 988 47 7000 7.2 210 21:44 25.09.2022
87 Clouds 17 989 45 7000 4.12 200 20:54 25.09.2022
88 Clouds 17 1004 45 7000 4.12 200 20:31 25.09.2022
89 Clouds 15 992 54 8000 3.09 300 18:44 25.09.2022
90 Clouds 15 993 55 8000 3.09 300 18:21 25.09.2022
91 Clouds 13 1008 63 7000 2.06 30 16:55 25.09.2022
92 Clouds 12 1009 66 7000 2.06 120 15:46 25.09.2022
93 Clouds 10 1026 75 7000 0 0 14:31 25.09.2022
94 Clouds 9 1026 77 10000 0 0 13:45 25.09.2022
95 Clouds 10 1027 80 10000 0.24 187 10:37 25.09.2022
96 Clouds 11 1003 76 10000 0.19 192 08:25 25.09.2022
97 Clouds 11 1027 78 10000 1.15 240 06:28 25.09.2022
98 Clouds 12 1003 77 10000 1.04 225 03:40 25.09.2022
99 Haze 12 1024 81 5000 6.17 190 23:36 24.09.2022
100 Haze 12 1006 80 2500 6.17 180 21:19 24.09.2022
101 Haze 12 1006 83 3000 5.14 230 19:24 24.09.2022
102 Mist 11 1023 89 3000 6.17 230 18:25 24.09.2022
103 Mist 12 1023 85 1500 5.14 240 16:37 24.09.2022
104 Mist 12 1022 87 1500 3.09 220 15:23 24.09.2022
105 Mist 11 1022 85 2500 3.09 220 14:18 24.09.2022
106 Rain 12 1023 77 10000 0.7 333 12:59 24.09.2022
107 Clouds 12 1022 75 10000 0.95 329 12:20 24.09.2022
108 Clouds 12 1020 69 10000 0.41 351 09:57 24.09.2022
109 Clouds 12 1021 70 10000 0.72 280 08:50 24.09.2022
110 Clouds 12 1022 70 10000 0.59 260 07:39 24.09.2022
111 Clouds 13 1022 67 10000 0.81 236 04:50 24.09.2022
112 Clouds 14 1022 66 10000 0.83 263 03:43 24.09.2022
113 Clouds 19 1018 42 8000 4.12 220 22:39 23.09.2022
114 Clouds 18 1018 37 8000 1.03 130 21:31 23.09.2022
115 Clouds 19 1019 36 8000 1.03 130 20:57 23.09.2022
116 Clouds 18 1019 36 8000 1.03 130 20:23 23.09.2022
117 Clouds 17 1020 40 10000 2.06 220 18:51 23.09.2022
118 Clear 14 1021 48 10000 2.57 320 15:23 23.09.2022
119 Clouds 11 1021 46 10000 0.35 83 10:55 23.09.2022
120 Clouds 11 1020 44 10000 0.36 72 09:34 23.09.2022
121 Clouds 14 1021 39 10000 0.58 81 05:59 23.09.2022
122 Clear 19 1019 25 10000 3.09 230 00:36 23.09.2022
123 Clear 20 1019 20 10000 7.2 210 23:22 22.09.2022
124 Clear 21 1019 18 10000 6.17 220 22:27 22.09.2022
125 Clear 20 1018 21 10000 5.14 230 21:18 22.09.2022
126 Clear 20 1019 23 10000 4.12 220 19:56 22.09.2022
127 Clear 15 1023 30 10000 3.09 120 17:26 22.09.2022
128 Clear 6 1031 50 10000 1.8 76 12:52 22.09.2022
129 Clear 6 1031 52 10000 1.75 78 10:33 22.09.2022
130 Clear 6 1032 53 10000 1.46 82 08:56 22.09.2022
131 Clear 8 1032 49 10000 1.17 108 06:57 22.09.2022
132 Clear 9 1033 46 10000 0.49 127 04:36 22.09.2022
133 Clear 14 1029 28 10000 8.23 220 23:31 21.09.2022
134 Clouds 14 1029 26 10000 5.14 200 21:50 21.09.2022
135 Clouds 14 1030 29 10000 4.12 150 20:34 21.09.2022
136 Clear 11 1031 45 10000 4.12 230 17:50 21.09.2022
137 Clear 10 1030 51 10000 2.06 220 16:53 21.09.2022
138 Clear 6 1032 69 10000 3.09 40 14:37 21.09.2022
139 Clouds 4 1035 74 10000 0.77 84 12:58 21.09.2022
140 Clouds 5 1034 75 10000 0.51 112 11:30 21.09.2022
141 Clouds 6 1033 72 10000 0.4 81 10:29 21.09.2022
142 Clouds 6 1032 72 10000 0.5 224 09:21 21.09.2022
143 Clouds 7 1032 72 10000 0.43 209 07:57 21.09.2022
144 Clouds 8 1031 62 10000 1.83 230 02:49 21.09.2022
145 Clouds 8 1031 63 10000 2.24 235 02:28 21.09.2022
146 Clouds 10 1028 60 10000 7.2 220 00:44 21.09.2022
147 Clouds 10 1027 59 8000 4.12 190 23:18 20.09.2022
148 Clouds 11 1027 56 10000 3.09 180 20:52 20.09.2022
149 Clouds 10 1027 59 10000 3.6 170 19:37 20.09.2022
150 Clouds 9 1027 66 10000 4.12 200 16:28 20.09.2022
151 Clouds 9 1027 69 8000 2.57 210 14:46 20.09.2022
152 Clouds 8 1026 73 8000 0 0 13:28 20.09.2022
153 Clouds 10 1025 64 10000 1.07 285 10:33 20.09.2022
154 Clouds 10 1024 63 10000 0.95 279 08:28 20.09.2022
155 Clouds 10 1024 63 10000 1.21 262 05:48 20.09.2022
156 Clouds 11 1023 61 10000 1.29 256 04:27 20.09.2022
157 Clouds 15 1019 47 10000 6.17 200 22:59 19.09.2022
158 Clouds 15 1019 46 10000 6.17 200 22:18 19.09.2022
159 Clouds 15 1020 48 8000 4.12 170 20:57 19.09.2022
160 Clouds 15 1019 49 8000 4.12 170 20:38 19.09.2022
161 Clouds 12 1022 59 7000 4.12 190 17:46 19.09.2022
162 Clouds 10 1024 68 7000 2.06 280 15:37 19.09.2022
163 Clouds 6 1025 78 8000 3.09 70 13:33 19.09.2022
164 Clouds 8 1027 74 10000 0.36 59 11:29 19.09.2022
165 Clear 10 1027 76 10000 0.33 278 08:51 19.09.2022
166 Clouds 10 1027 75 10000 0.15 109 08:18 19.09.2022
167 Clouds 11 1027 69 10000 1.69 236 01:58 19.09.2022
168 Clouds 11 1024 64 8000 7.2 230 23:22 18.09.2022
169 Clouds 12 1024 62 7000 7.2 220 21:45 18.09.2022
170 Clouds 12 1024 61 6000 6.17 170 20:33 18.09.2022
171 Clouds 12 1024 67 6000 2.06 240 18:34 18.09.2022
172 Clouds 11 1025 72 6000 4.12 220 17:39 18.09.2022
173 Haze 10 1024 80 5000 2.06 230 15:53 18.09.2022
174 Haze 10 1024 81 5000 0 0 14:23 18.09.2022
175 Clouds 9 1025 83 10000 0.18 266 12:35 18.09.2022
176 Clouds 9 1025 83 7672 0.29 243 11:39 18.09.2022
177 Clouds 10 1026 80 5544 2.43 235 05:24 18.09.2022
178 Clouds 12 1024 68 10000 1.63 243 01:27 18.09.2022
179 Clouds 14 1022 57 10000 6.17 240 00:27 18.09.2022
180 Clouds 14 1021 58 7000 4.12 200 21:52 17.09.2022
181 Clouds 13 1023 68 6192 1.52 239 19:51 17.09.2022
182 Haze 11 1022 79 3000 2.06 170 18:59 17.09.2022
183 Drizzle 10 1022 87 1000 4.12 230 16:52 17.09.2022
184 Mist 10 1021 85 1000 2.06 230 13:57 17.09.2022
185 Clouds 10 1021 80 10000 0.65 279 11:55 17.09.2022
186 Clouds 10 1020 77 10000 1.04 278 09:37 17.09.2022
187 Clouds 11 1021 75 10000 0.98 262 06:27 17.09.2022
188 Rain 12 1021 73 10000 1.02 251 02:34 17.09.2022
189 Clouds 16 1018 59 6000 9.26 220 22:56 16.09.2022
190 Clouds 18 1015 50 6000 8.23 250 21:29 16.09.2022
191 Clouds 18 1016 53 6000 8.23 240 20:24 16.09.2022
192 Clouds 17 1017 54 7000 4.12 210 17:50 16.09.2022
193 Clouds 14 1017 65 7000 3.09 240 15:43 16.09.2022
194 Clouds 11 1017 71 8000 3.09 30 14:28 16.09.2022
195 Clouds 12 1019 62 10000 0.35 352 11:45 16.09.2022
196 Rain 13 1019 63 10000 0.05 215 08:53 16.09.2022
197 Clouds 14 1019 56 10000 0.27 348 07:19 16.09.2022
198 Clouds 14 1019 59 10000 0.27 348 06:47 16.09.2022
199 Clouds 16 1019 57 10000 0.63 263 02:52 16.09.2022
200 Clear 21 1019 34 10000 0 0 23:48 15.09.2022
201 Clear 23 1014 27 10000 7.72 230 21:19 15.09.2022
202 Clear 23 1015 26 10000 3.09 270 19:57 15.09.2022
203 Clear 20 1018 30 10000 4.12 220 18:30 15.09.2022
204 Clouds 22 1014 28 10000 2.08 252 17:33 15.09.2022
205 Clear 19 1016 37 10000 3.09 170 16:51 15.09.2022
206 Clouds 16 1015 34 10000 0.68 244 14:41 15.09.2022
207 Clouds 10 1018 33 10000 2.02 78 12:29 15.09.2022
208 Clouds 11 1021 42 10000 1.46 85 10:21 15.09.2022
209 Clouds 12 1022 40 10000 1.04 70 07:51 15.09.2022
210 Clouds 15 1022 41 10000 0.86 84 03:56 15.09.2022
211 Clouds 18 1023 43 10000 0.93 208 01:20 15.09.2022
212 Clear 22 1019 25 10000 2.57 240 21:39 14.09.2022
213 Clouds 20 1021 29 6000 2.57 180 19:34 14.09.2022
214 Clear 17 1024 39 10000 0 0 18:32 14.09.2022
215 Clear 15 1022 48 10000 0 0 16:46 14.09.2022
216 Clear 14 1023 48 10000 0 0 15:38 14.09.2022
217 Clear 8 1023 68 10000 1.32 75 13:54 14.09.2022
218 Clear 8 1030 62 10000 1.76 87 11:30 14.09.2022
219 Clear 8 1029 63 10000 1.57 78 09:48 14.09.2022
220 Clear 9 1031 67 10000 0.81 83 07:29 14.09.2022
221 Clear 9 1030 64 10000 0.81 83 06:34 14.09.2022
222 Clear 11 1030 66 10000 0.6 215 04:24 14.09.2022
223 Clouds 13 1028 56 10000 1.18 200 01:46 14.09.2022
224 Clouds 14 1027 54 10000 1.69 222 01:27 14.09.2022
225 Clouds 15 1025 47 8000 0 0 00:42 14.09.2022
226 Clouds 15 1025 46 7000 0 0 23:54 13.09.2022
227 Clouds 16 1025 46 7000 0 0 23:36 13.09.2022
228 Clouds 16 1025 46 7000 0 0 23:18 13.09.2022
229 Clouds 15 1026 53 7000 2.06 180 21:45 13.09.2022
230 Clouds 13 1026 60 6000 0 0 19:38 13.09.2022
231 Mist 12 1027 69 3000 0 0 17:44 13.09.2022
232 Mist 9 1028 82 1500 1.54 210 15:55 13.09.2022
233 Mist 8 1027 87 1500 2.06 190 14:36 13.09.2022
234 Clouds 9 1027 84 10000 0.84 238 12:32 13.09.2022
235 Clouds 10 1026 82 10000 0.95 254 08:43 13.09.2022
236 Clouds 11 1026 77 10000 1.53 241 05:45 13.09.2022
237 Clouds 14 1020 58 10000 3.09 250 00:19 13.09.2022
238 Clouds 16 1020 46 6000 3.09 230 22:49 12.09.2022
239 Clouds 17 1020 45 6000 3.09 220 21:37 12.09.2022
240 Clouds 17 1021 45 7000 3.09 250 20:25 12.09.2022
241 Clear 15 1022 52 6000 1.54 250 18:44 12.09.2022
242 Clear 13 1022 58 6000 0 0 16:32 12.09.2022
243 Clear 13 1022 58 6000 0 0 16:32 12.09.2022
244 Clear 13 1022 58 6000 0 0 16:32 12.09.2022
245 Clear 7 1023 72 10000 0.49 49 13:57 12.09.2022
246 Clear 6 1028 70 10000 0.84 91 11:29 12.09.2022
247 Clear 7 1028 72 10000 0.71 96 09:45 12.09.2022
248 Clear 9 1029 73 10000 0.36 221 04:50 12.09.2022
249 Clear 9 1029 72 10000 0.64 228 04:20 12.09.2022
250 Clouds 14 1026 57 10000 0 0 23:23 11.09.2022
251 Clouds 14 1026 57 10000 0 0 22:18 11.09.2022
252 Clouds 13 1026 61 7000 0 0 20:48 11.09.2022
253 Clouds 13 1027 67 7000 0 0 19:56 11.09.2022
254 Clouds 11 1027 75 7000 0 0 19:22 11.09.2022
255 Haze 10 1028 79 4000 2.06 180 18:21 11.09.2022
256 Mist 9 1028 87 2000 2.06 240 16:36 11.09.2022
257 Drizzle 9 1027 88 1500 2.06 190 14:39 11.09.2022
258 Clouds 9 1028 85 10000 0.6 244 12:42 11.09.2022
259 Clouds 10 1026 82 10000 0.81 248 08:59 11.09.2022
260 Clear 10 1026 79 10000 0.86 252 07:18 11.09.2022
261 Clear 15 1021 62 10000 2.57 270 00:50 11.09.2022
262 Clear 18 1019 49 8000 3.6 250 22:56 10.09.2022
263 Clear 19 1018 40 10000 2.57 240 21:33 10.09.2022
264 Clear 20 1017 31 8000 2.57 240 19:48 10.09.2022
265 Clear 20 1017 33 8000 2.57 240 19:29 10.09.2022
266 Clear 20 1016 32 8000 2.57 180 18:54 10.09.2022
267 Clear 16 1017 39 10000 0 0 16:51 10.09.2022
268 Clear 10 1019 59 10000 0.37 266 14:43 10.09.2022
269 Clear 7 1023 53 10000 2.55 73 12:53 10.09.2022
270 Clear 7 1023 54 10000 2.52 76 11:19 10.09.2022
271 Clear 8 1022 54 10000 2.53 77 09:50 10.09.2022
272 Clear 9 1023 54 10000 2.56 79 08:37 10.09.2022
273 Clear 9 1024 56 10000 2.75 85 07:22 10.09.2022
274 Clear 17 1021 39 10000 1.54 210 00:51 10.09.2022
275 Clear 18 1019 35 10000 2.06 240 23:33 09.09.2022
276 Clear 17 1021 36 8000 2.57 240 22:19 09.09.2022
277 Clear 18 1018 35 8000 2.06 240 20:47 09.09.2022
278 Clear 16 1019 39 10000 2.06 270 19:25 09.09.2022
279 Clear 14 1019 46 10000 1.54 180 18:53 09.09.2022
280 Clear 7 1020 70 10000 0 0 16:28 09.09.2022
281 Clear 1 1020 46 10000 1.79 80 13:50 09.09.2022
282 Clear 4 1028 73 10000 2.29 79 12:32 09.09.2022
283 Clear 5 1027 73 10000 1.8 79 09:55 09.09.2022
284 Clear 6 1028 74 10000 1.45 81 05:38 09.09.2022
285 Clear 7 1029 73 10000 1 95 03:20 09.09.2022
286 Clouds 9 1025 68 8000 0 0 21:53 08.09.2022
287 Clouds 8 1026 73 7000 2.06 360 20:56 08.09.2022
288 Clouds 6 1023 81 7000 2.06 360 20:32 08.09.2022
289 Clouds 5 1025 84 6000 0 0 19:57 08.09.2022
290 Clouds 6 1027 80 5000 2.57 300 18:26 08.09.2022
291 Clouds 5 1027 86 3000 2.57 270 16:21 08.09.2022
292 Mist 6 1025 82 1500 1.56 246 14:40 08.09.2022
293 Clouds 6 1027 82 4296 1.98 242 13:27 08.09.2022
294 Clouds 7 1024 76 3282 2.52 248 12:24 08.09.2022
295 Clouds 8 1023 80 3803 2.27 251 10:57 08.09.2022
296 Clouds 9 1023 74 2415 1.15 238 08:51 08.09.2022
297 Clouds 9 1023 73 1838 2.23 236 06:42 08.09.2022
298 Clouds 11 1023 64 7976 2.76 239 02:37 08.09.2022
299 Clouds 11 1023 65 6612 2.8 236 02:18 08.09.2022
300 Clouds 13 1018 49 8000 2.57 270 00:56 08.09.2022
301 Clouds 15 1018 42 10000 3.09 270 22:54 07.09.2022
302 Clouds 14 1020 47 10000 1.54 300 21:42 07.09.2022
303 Clouds 15 1022 46 10000 1.26 206 20:49 07.09.2022
304 Clouds 11 1019 61 10000 0 0 19:42 07.09.2022
305 Clouds 10 1021 73 8000 1.54 240 18:27 07.09.2022
306 Haze 8 1021 85 1500 1.9 256 14:26 07.09.2022
307 Clouds 11 1021 75 10000 0.98 323 10:48 07.09.2022
308 Clear 11 1019 74 10000 0.54 307 09:39 07.09.2022
309 Clear 11 1022 76 10000 0.95 263 07:23 07.09.2022
310 Clear 15 1018 54 10000 1.56 247 03:33 07.09.2022
311 Clear 20 1017 48 10000 2.92 238 23:38 06.09.2022
312 Clear 23 1015 30 10000 3.72 238 21:42 06.09.2022
313 Clear 24 1016 28 10000 3.5 241 20:45 06.09.2022
314 Clear 23 1017 28 10000 0 0 18:49 06.09.2022
315 Clear 23 1017 30 10000 0 0 18:22 06.09.2022
316 Clear 22 1016 31 10000 0 0 17:22 06.09.2022
317 Clear 21 1016 31 10000 0 0 16:37 06.09.2022
318 Clear 18 1017 33 10000 0 0 15:22 06.09.2022
319 Clear 16 1016 28 10000 1.31 78 13:45 06.09.2022
320 Clear 16 1016 28 10000 1.31 78 13:45 06.09.2022
321 Clear 15 1018 33 10000 2.54 71 13:24 06.09.2022
322 Clear 15 1015 35 10000 2.65 74 11:59 06.09.2022
323 Clear 15 1017 35 10000 2.71 70 10:41 06.09.2022
324 Clear 16 1018 37 10000 0.9 88 08:50 06.09.2022
325 Clear 16 1018 38 10000 1.88 76 07:49 06.09.2022
326 Clear 18 1020 38 10000 0.92 94 03:31 06.09.2022
327 Clear 25 1015 22 10000 0 0 23:27 05.09.2022
328 Clear 26 1015 17 10000 0 0 22:21 05.09.2022
329 Clear 26 1016 16 8000 0 0 20:35 05.09.2022
330 Clear 25 1015 21 7000 0 0 19:20 05.09.2022
331 Clear 25 1015 21 10000 0 0 18:45 05.09.2022
332 Clear 25 1015 22 10000 0 0 18:21 05.09.2022
333 Clear 21 1016 27 10000 0 0 16:43 05.09.2022
334 Clear 17 1017 35 10000 0 0 15:47 05.09.2022
335 Clear 14 1019 32 10000 3.04 71 13:26 05.09.2022
336 Clear 14 1018 30 10000 3 73 12:27 05.09.2022
337 Clear 15 1018 33 10000 2.06 84 09:44 05.09.2022
338 Clear 16 1019 37 10000 2.45 72 06:41 05.09.2022
339 Clear 18 1019 34 10000 0.96 113 02:19 05.09.2022
340 Clear 24 1016 25 10000 2.1 239 23:18 04.09.2022
341 Clear 24 1015 20 10000 0 0 22:27 04.09.2022
342 Clear 23 1016 24 10000 2.06 270 20:50 04.09.2022
343 Clear 22 1017 28 10000 2.63 242 19:32 04.09.2022
344 Clear 22 1016 27 10000 2.06 210 17:55 04.09.2022
345 Clear 20 1016 28 10000 0 0 16:44 04.09.2022
346 Clear 13 1019 43 10000 0.53 96 14:30 04.09.2022
347 Clear 11 1022 33 10000 2.28 74 13:28 04.09.2022
348 Clear 12 1020 29 10000 2.24 74 11:54 04.09.2022
349 Clear 13 1019 34 10000 2.04 80 10:28 04.09.2022
350 Clear 14 1020 37 10000 1.53 88 08:20 04.09.2022
351 Clear 14 1022 40 10000 1.36 86 05:19 04.09.2022
352 Clear 21 1020 31 10000 2.57 240 00:47 04.09.2022
353 Clear 23 1017 21 7000 3.09 240 22:22 03.09.2022
354 Clear 23 1017 19 8000 2.06 240 21:23 03.09.2022
355 Clear 22 1019 23 7000 0 0 19:39 03.09.2022
356 Clear 20 1020 27 10000 0 0 17:26 03.09.2022
357 Clear 18 1020 33 10000 0 0 16:27 03.09.2022
358 Clear 12 1020 38 10000 0.25 87 14:45 03.09.2022
359 Clear 10 1022 42 10000 2.18 69 14:22 03.09.2022
360 Clear 12 1022 28 10000 2.47 75 12:24 03.09.2022
361 Clear 12 1021 35 10000 2.38 77 10:41 03.09.2022
362 Clear 12 1022 40 10000 2.06 83 08:28 03.09.2022
363 Clear 13 1022 41 10000 2.17 81 06:58 03.09.2022
364 Clear 14 1023 44 10000 2.03 76 04:34 03.09.2022
365 Haze 20 1019 38 5000 0 0 00:29 03.09.2022
366 Haze 21 1019 28 5000 2.57 240 22:57 02.09.2022
367 Haze 21 1018 28 5000 0 0 20:59 02.09.2022
368 Haze 20 1018 29 5000 0 0 20:28 02.09.2022
369 Haze 21 1016 33 5000 0 0 19:22 02.09.2022
370 Clear 20 1017 34 7000 1.54 280 18:28 02.09.2022
371 Clear 18 1018 37 7000 0 0 17:53 02.09.2022
372 Clear 16 1018 42 6000 0 0 16:47 02.09.2022
373 Mist 8 1022 68 4000 0.74 107 14:33 02.09.2022
374 Clear 8 1026 68 10000 2.15 87 12:36 02.09.2022
375 Clear 7 1027 69 10000 1.83 80 10:19 02.09.2022
376 Clear 7 1027 68 10000 1.83 80 09:39 02.09.2022
377 Clear 8 1028 69 10000 1.09 94 07:32 02.09.2022
378 Clear 8 1028 68 10000 0.94 99 06:38 02.09.2022
379 Clouds 10 1030 67 10000 0.75 215 02:52 02.09.2022
380 Clouds 13 1026 54 7000 0 0 22:30 01.09.2022
381 Clouds 13 1026 57 7000 0 0 21:43 01.09.2022
382 Clouds 13 1027 56 7000 0 0 21:25 01.09.2022
383 Clouds 12 1027 59 7000 0 0 20:43 01.09.2022
384 Clouds 13 1026 57 8000 0 0 18:54 01.09.2022
385 Clouds 12 1026 63 8000 2.06 280 17:21 01.09.2022
386 Clouds 10 1027 74 7000 0 0 15:56 01.09.2022
387 Clouds 9 1026 76 7000 0.12 79 14:22 01.09.2022
388 Clouds 10 1027 78 10000 0.31 16 12:58 01.09.2022
389 Clouds 10 1027 78 10000 0.35 282 11:52 01.09.2022
390 Clouds 10 1027 78 10000 0.35 282 11:31 01.09.2022
391 Clouds 10 1026 77 10000 0.7 223 10:19 01.09.2022
392 Clouds 10 1026 76 10000 0.94 234 07:51 01.09.2022
393 Clouds 10 1026 75 8929 0.98 232 06:21 01.09.2022
394 Clouds 11 1027 75 10000 1.53 235 01:32 01.09.2022
395 Haze 11 1024 77 4000 1.54 210 23:29 31.08.2022
396 Mist 10 1024 84 2000 1.54 240 21:30 31.08.2022
397 Drizzle 10 1023 91 1500 1.54 210 19:46 31.08.2022
398 Drizzle 8 1020 93 1500 2.57 240 17:52 31.08.2022
399 Haze 9 1019 93 2500 0 0 15:44 31.08.2022
400 Clouds 10 1024 85 10000 0.55 274 13:57 31.08.2022
401 Clouds 11 1021 76 10000 0.46 332 12:20 31.08.2022
402 Clouds 11 1022 79 10000 0.4 311 10:30 31.08.2022
403 Clouds 11 1023 79 10000 0.74 247 08:34 31.08.2022
404 Clouds 11 1024 79 10000 1.11 247 03:46 31.08.2022
405 Clouds 21 1014 46 10000 2.51 241 22:58 30.08.2022
406 Clear 20 1016 45 10000 2.84 243 21:33 30.08.2022
407 Clear 21 1016 44 10000 2.98 239 20:47 30.08.2022
408 Clear 20 1017 50 10000 2.06 247 17:25 30.08.2022
409 Fog 12 1017 76 50 0.31 222 14:42 30.08.2022
410 Clouds 8 1015 37 10000 2.14 65 13:24 30.08.2022
411 Clouds 11 1022 82 10000 1.54 82 11:21 30.08.2022
412 Clouds 12 1020 65 10000 1.54 82 10:35 30.08.2022
413 Clear 14 1019 54 10000 0.75 76 06:50 30.08.2022
414 Clear 18 1018 52 10000 0.31 155 01:45 30.08.2022
415 Clear 18 1018 52 10000 0.31 155 01:45 30.08.2022
416 Clear 18 1018 52 10000 0.31 155 01:45 30.08.2022
417 Clear 23 1017 35 7000 0 0 22:47 29.08.2022
418 Clear 23 1015 34 7000 0 0 22:20 29.08.2022
419 Clear 23 1015 29 6000 3.6 270 21:23 29.08.2022
420 Clear 24 1015 26 7000 0 0 19:48 29.08.2022
421 Clear 22 1014 20 10000 0 0 17:43 29.08.2022
422 Clear 22 1015 22 10000 0 0 17:24 29.08.2022
423 Clear 18 1014 33 10000 0 0 15:42 29.08.2022
424 Clear 14 1014 33 10000 1.25 83 14:43 29.08.2022
425 Clear 13 1019 24 10000 3.21 76 12:42 29.08.2022
426 Clear 13 1019 26 10000 3.42 77 10:51 29.08.2022
427 Clear 14 1018 27 10000 3.33 81 09:41 29.08.2022
428 Clear 16 1016 26 10000 3.82 81 08:28 29.08.2022
429 Clear 20 1019 28 10000 3.59 85 02:48 29.08.2022
430 Clear 25 1015 21 10000 0 0 23:52 28.08.2022
431 Clear 26 1015 20 10000 2.06 240 22:36 28.08.2022
432 Clear 26 1017 20 10000 0 0 21:40 28.08.2022
433 Clear 25 1017 20 10000 0 0 20:43 28.08.2022
434 Clear 24 1015 24 10000 0 0 18:51 28.08.2022
435 Clear 24 1016 25 10000 0 0 18:20 28.08.2022
436 Clear 19 1017 33 10000 0 0 16:57 28.08.2022
437 Clear 16 1018 35 10000 1.16 94 15:50 28.08.2022
438 Clear 16 1018 30 10000 3.5 79 13:47 28.08.2022
439 Clear 13 1018 42 10000 3.52 83 12:31 28.08.2022
440 Clear 12 1018 43 10000 3.12 80 10:40 28.08.2022
441 Clear 13 1018 44 10000 2.53 82 09:40 28.08.2022
442 Clear 12 1022 51 10000 2.35 79 08:32 28.08.2022
443 Clear 11 1027 59 10000 2.07 80 07:34 28.08.2022
444 Clear 15 1024 40 10000 0.61 110 01:31 28.08.2022
445 Clear 18 1023 32 10000 2.06 270 00:22 28.08.2022
446 Haze 19 1021 42 3000 0 0 22:31 27.08.2022
447 Haze 19 1020 44 3000 1.54 240 20:53 27.08.2022
448 Haze 19 1021 48 3000 1.54 360 19:39 27.08.2022
449 Haze 14 1023 60 4000 2.06 270 16:42 27.08.2022
450 Haze 13 1025 71 4000 1.54 30 15:39 27.08.2022
451 Mist 10 1026 82 3000 1.06 222 14:35 27.08.2022
452 Clouds 10 1027 78 10000 0.61 68 12:22 27.08.2022
453 Clouds 11 1026 73 10000 0.4 73 11:24 27.08.2022
454 Clouds 11 1027 76 10000 0.28 174 09:40 27.08.2022
455 Clouds 11 1027 76 10000 0.28 174 09:40 27.08.2022
456 Clouds 12 1026 75 10000 0.93 231 06:55 27.08.2022
457 Clouds 14 1023 67 10000 1.32 237 02:31 27.08.2022
458 Haze 15 1020 61 4000 0 0 23:53 26.08.2022
459 Haze 16 1020 58 4000 0 0 22:24 26.08.2022
460 Clouds 18 1019 45 6000 0 0 20:25 26.08.2022
461 Clouds 16 1019 49 8000 0 0 18:59 26.08.2022
462 Clouds 15 1019 49 8000 1.54 210 16:42 26.08.2022
463 Clouds 14 1018 53 8000 1.54 330 15:27 26.08.2022
464 Clouds 13 1020 49 10000 0.29 54 13:44 26.08.2022
465 Clouds 11 1021 46 10000 0.69 89 12:35 26.08.2022
466 Clouds 13 1019 50 10000 1 74 11:22 26.08.2022
467 Clouds 14 1016 44 10000 1.09 82 10:25 26.08.2022
468 Clear 13 1021 49 10000 0.87 79 05:26 26.08.2022
469 Clear 17 1020 44 10000 0.48 170 01:18 26.08.2022
470 Haze 22 1017 31 5000 2.57 270 23:29 25.08.2022
471 Haze 21 1018 34 5000 1.54 180 20:59 25.08.2022
472 Haze 21 1017 32 5000 3.09 180 19:55 25.08.2022
473 Haze 21 1017 35 5000 0 0 18:47 25.08.2022
474 Haze 19 1019 40 5000 0 0 17:32 25.08.2022
475 Haze 16 1019 44 5000 0 0 16:49 25.08.2022
476 Clouds 12 1020 62 6000 0 0 15:37 25.08.2022
477 Clouds 11 1022 61 7000 0.49 99 14:30 25.08.2022
478 Clear 9 1025 61 10000 2.36 70 11:34 25.08.2022
479 Clear 4 1018 38 10000 2.19 78 10:46 25.08.2022
480 Clear 10 1026 69 10000 1.49 81 08:41 25.08.2022
481 Clear 12 1027 65 10000 1.21 78 04:40 25.08.2022
482 Clouds 17 1020 44 6000 2.57 210 23:56 24.08.2022
483 Clouds 18 1019 44 6000 2.57 210 23:25 24.08.2022
484 Haze 19 1018 48 2000 2.57 270 22:18 24.08.2022
485 Haze 20 1017 44 2000 2.06 260 21:32 24.08.2022
486 Haze 20 1018 46 3000 0 0 20:23 24.08.2022
487 Haze 17 1018 53 3000 0 0 17:38 24.08.2022
488 Haze 14 1018 63 3000 0 0 16:22 24.08.2022
489 Haze 13 1019 72 3000 0 0 15:40 24.08.2022
490 Clouds 16 1018 54 10000 1.24 83 12:52 24.08.2022
491 Clouds 16 1018 56 10000 1.24 90 11:22 24.08.2022
492 Clouds 16 1018 56 10000 1.24 90 11:22 24.08.2022
493 Clouds 14 1021 67 10000 1.29 78 09:19 24.08.2022
494 Clouds 15 1022 65 10000 1.25 85 07:33 24.08.2022
495 Clouds 15 1024 69 10000 0.16 215 01:43 24.08.2022
496 Haze 20 1019 54 3000 2.57 250 22:51 23.08.2022
497 Haze 21 1018 48 3000 2.57 250 22:21 23.08.2022
498 Haze 22 1017 47 2000 1.54 270 21:21 23.08.2022
499 Haze 21 1017 50 2000 3.09 240 19:43 23.08.2022
500 Haze 18 1020 65 2000 0 0 18:30 23.08.2022
501 Haze 17 1020 69 2000 0 0 17:43 23.08.2022
502 Haze 14 1021 65 2000 0 0 16:33 23.08.2022
503 Haze 12 1021 72 2000 0.47 127 14:55 23.08.2022
504 Clouds 10 1027 79 10000 1.92 75 13:25 23.08.2022
505 Clouds 12 1023 70 10000 1.74 74 11:19 23.08.2022
506 Clouds 12 1023 71 10000 1.74 74 10:33 23.08.2022
507 Clouds 11 1026 78 10000 1.32 80 09:46 23.08.2022
508 Clouds 11 1026 82 10000 1.08 85 08:47 23.08.2022
509 Clear 11 1027 85 10000 0.92 86 08:19 23.08.2022
510 Clear 12 1023 71 10000 0.92 86 07:33 23.08.2022
511 Clear 12 1023 70 10000 1.18 82 06:26 23.08.2022
512 Haze 12 1021 79 4000 0 0 01:55 23.08.2022
513 Haze 15 1018 66 4000 0 0 00:27 23.08.2022
514 Haze 16 1017 62 4000 0 0 23:32 22.08.2022
515 Haze 18 1017 64 4000 0 0 22:29 22.08.2022
516 Mist 17 1018 67 5000 0 0 20:58 22.08.2022
517 Mist 16 1018 70 3000 0 0 19:47 22.08.2022
518 Mist 13 1019 73 3000 0 0 18:38 22.08.2022
519 Mist 13 1019 73 3000 0 0 18:38 22.08.2022
520 Mist 13 1019 72 1500 0 0 16:26 22.08.2022
521 Fog 12 1018 73 200 0 0 15:36 22.08.2022
522 Clear 10 1023 79 10000 1.23 78 12:57 22.08.2022
523 Clear 11 1023 81 10000 1.14 75 10:20 22.08.2022
524 Clear 12 1021 65 10000 0.75 79 07:40 22.08.2022
525 Clear 16 1020 61 10000 0.57 120 02:55 22.08.2022
526 Clear 19 1016 51 6000 0 0 00:37 22.08.2022
527 Clear 21 1014 48 6000 4.12 240 23:58 21.08.2022
528 Haze 22 1014 42 5000 3.09 260 21:57 21.08.2022
529 Haze 22 1014 43 5000 3.09 260 21:21 21.08.2022
530 Haze 22 1014 43 5000 2.06 240 20:26 21.08.2022
531 Haze 22 1015 44 5000 2.06 230 19:18 21.08.2022
532 Clear 18 1015 50 10000 0 0 16:54 21.08.2022
533 Clear 16 1017 56 10000 0 0 15:53 21.08.2022
534 Clear 15 1017 52 10000 0 0 15:18 21.08.2022
535 Clouds 15 1018 45 10000 2.5 79 13:51 21.08.2022
536 Clouds 12 1021 47 10000 2.7 75 12:57 21.08.2022
537 Clouds 12 1021 47 10000 2.7 75 12:57 21.08.2022
538 Clouds 13 1020 54 10000 2.29 82 10:48 21.08.2022
539 Clouds 14 1020 48 10000 2.35 78 09:24 21.08.2022
540 Clouds 14 1020 48 10000 2.35 78 08:56 21.08.2022
541 Clouds 16 1018 47 10000 2.35 78 08:38 21.08.2022
542 Clouds 15 1019 51 10000 1.82 84 07:26 21.08.2022
543 Clouds 18 1019 42 10000 1.29 85 02:52 21.08.2022
544 Clear 22 1017 31 10000 2.06 250 23:44 20.08.2022
545 Clear 23 1016 38 10000 2.06 270 22:23 20.08.2022
546 Clear 23 1016 37 10000 0 0 21:26 20.08.2022
547 Clear 22 1018 40 6000 0 0 19:58 20.08.2022
548 Clear 22 1017 44 6000 0 0 19:39 20.08.2022
549 Clear 22 1017 44 6000 0 0 19:39 20.08.2022
550 Clear 21 1019 45 10000 1.48 234 18:27 20.08.2022
551 Clear 20 1018 45 10000 0 0 17:38 20.08.2022
552 Clear 19 1018 48 10000 1.54 240 16:35 20.08.2022
553 Clear 11 1019 56 10000 1.89 79 14:55 20.08.2022
554 Clear 10 1025 46 10000 3.37 76 12:46 20.08.2022
555 Clear 11 1024 46 10000 2.99 79 11:47 20.08.2022
556 Clear 14 1018 39 10000 3.04 77 09:29 20.08.2022
557 Clouds 11 1024 54 10000 3.05 79 08:25 20.08.2022
558 Clouds 15 1021 51 10000 2.31 84 05:48 20.08.2022
559 Clouds 20 1020 39 8000 0 0 00:58 20.08.2022
560 Clouds 21 1020 36 8000 0 0 00:30 20.08.2022
561 Clouds 24 1018 38 8000 2.06 270 22:50 19.08.2022
562 Clear 23 1016 35 10000 0 0 21:34 19.08.2022
563 Clear 23 1017 41 10000 2.06 270 19:41 19.08.2022
564 Clear 13 1019 41 10000 0 0 16:32 19.08.2022
565 Clear 9 1018 54 10000 1.62 86 14:37 19.08.2022
566 Clear 13 1018 41 10000 3 79 12:45 19.08.2022
567 Clear 2 1018 35 10000 2.99 78 10:41 19.08.2022
568 Clear 3 1018 37 10000 2.56 79 09:39 19.08.2022
569 Clear 10 1028 65 10000 1.42 77 04:59 19.08.2022
570 Clear 14 1025 38 8000 0 0 00:45 19.08.2022
571 Clear 15 1025 33 8000 0 0 00:20 19.08.2022
572 Haze 15 1025 46 5000 3.09 240 22:59 18.08.2022
573 Haze 15 1025 44 5000 3.09 240 22:30 18.08.2022
574 Haze 15 1025 46 5000 0 0 21:53 18.08.2022
575 Haze 15 1025 47 5000 0 0 21:18 18.08.2022
576 Haze 12 1027 57 5000 0 0 19:54 18.08.2022
577 Haze 12 1027 57 5000 0 0 19:21 18.08.2022
578 Haze 10 1029 71 4000 0 0 17:41 18.08.2022
579 Haze 9 1030 73 4000 0 0 16:19 18.08.2022
580 Mist 4 1030 84 4000 1.56 89 14:22 18.08.2022
581 Clear 5 1034 77 10000 1.56 89 13:44 18.08.2022
582 Clear 5 1034 77 10000 1.56 89 13:44 18.08.2022
583 Clear 5 1035 78 10000 1.74 81 12:30 18.08.2022
584 Clear 6 1035 76 10000 1.37 90 11:21 18.08.2022
585 Clear 6 1035 78 10000 1.41 94 09:43 18.08.2022
586 Clear 7 1035 76 10000 2.01 83 07:53 18.08.2022
587 Clear 8 1035 77 10000 2.05 86 06:37 18.08.2022
588 Clouds 10 1033 70 10000 0.66 94 02:22 18.08.2022
589 Clouds 12 1030 67 10000 2.01 229 22:50 17.08.2022
590 Haze 11 1027 72 4000 1.54 230 20:37 17.08.2022
591 Haze 11 1026 74 3000 0 0 19:59 17.08.2022
592 Haze 11 1027 76 3000 0 0 18:37 17.08.2022
593 Mist 10 1026 80 1500 2.06 230 17:21 17.08.2022
594 Fog 9 1026 88 800 0 0 16:20 17.08.2022
595 Fog 8 1024 90 800 0 0 14:41 17.08.2022
596 Clouds 9 1026 86 10000 0.76 122 12:30 17.08.2022
597 Clouds 9 1026 86 10000 0.8 221 11:25 17.08.2022
598 Clouds 9 1026 86 10000 1.1 230 09:22 17.08.2022
599 Rain 10 1025 80 10000 1.06 325 06:34 17.08.2022
600 Clouds 9 1023 83 10000 2.06 258 01:23 17.08.2022
601 Clouds 11 1019 75 10000 0 0 23:32 16.08.2022
602 Rain 13 1019 65 10000 0 0 21:33 16.08.2022
603 Rain 13 1020 66 10000 1.54 180 20:22 16.08.2022
604 Clouds 12 1021 65 10000 0 0 19:27 16.08.2022
605 Clouds 11 1023 70 10000 0 0 17:56 16.08.2022
606 Clouds 11 1023 70 10000 0 0 17:56 16.08.2022
607 Clouds 11 1023 70 10000 1.54 220 16:55 16.08.2022
608 Clouds 10 1024 75 10000 0 0 15:45 16.08.2022
609 Clouds 10 1024 73 10000 0 0 14:54 16.08.2022
610 Clouds 10 1024 72 10000 0 0 14:36 16.08.2022
611 Clouds 10 1027 78 10000 0.58 164 12:39 16.08.2022
612 Clouds 10 1028 73 10000 1.15 71 10:23 16.08.2022
613 Clouds 10 1028 73 10000 0.66 132 08:55 16.08.2022
614 Clouds 10 1029 69 10000 1.4 58 08:26 16.08.2022
615 Clouds 10 1029 72 10000 1.37 66 07:20 16.08.2022
616 Clouds 12 1028 62 10000 0.38 167 01:20 16.08.2022
617 Clouds 13 1026 54 10000 0 0 22:26 15.08.2022
618 Clouds 13 1027 54 10000 0 0 21:51 15.08.2022
619 Clouds 12 1027 59 10000 0 0 20:35 15.08.2022
620 Clouds 11 1027 62 10000 1.54 260 19:59 15.08.2022
621 Clouds 11 1030 69 10000 1.04 230 18:00 15.08.2022
622 Clouds 8 1029 80 8000 2.06 10 16:25 15.08.2022
623 Clouds 7 1029 84 7000 0 0 15:54 15.08.2022
624 Clouds 6 1031 82 10000 0.45 91 13:54 15.08.2022
625 Clouds 6 1030 81 6303 0.72 106 11:25 15.08.2022
626 Clouds 6 1029 81 4672 0.45 130 09:42 15.08.2022
627 Rain 6 1029 80 3848 0.98 220 07:44 15.08.2022
628 Rain 7 1029 81 2454 2.83 257 04:34 15.08.2022
629 Clouds 12 1024 64 8000 2.57 290 00:33 15.08.2022
630 Clouds 12 1022 61 6000 0 0 22:30 14.08.2022
631 Clouds 12 1022 63 6000 0 0 21:37 14.08.2022
632 Rain 11 1024 72 6000 2.57 220 19:48 14.08.2022
633 Haze 11 1024 68 5000 1.54 260 18:57 14.08.2022
634 Haze 11 1024 66 5000 1.54 260 18:18 14.08.2022
635 Haze 11 1023 62 5000 1.54 230 16:52 14.08.2022
636 Clouds 8 1023 68 6000 1.54 330 15:48 14.08.2022
637 Clouds 6 1023 71 6000 1.54 350 14:24 14.08.2022
638 Clouds 7 1027 68 10000 1.53 24 13:49 14.08.2022
639 Clouds 7 1025 61 10000 0.91 10 13:19 14.08.2022
640 Clouds 8 1026 67 10000 0.58 350 11:56 14.08.2022
641 Clear 7 1027 65 10000 0.68 17 10:49 14.08.2022
642 Clear 8 1025 58 10000 0.67 5 08:50 14.08.2022
643 Clouds 9 1025 61 10000 0.31 292 06:21 14.08.2022
644 Clouds 11 1024 58 10000 0.8 245 02:48 14.08.2022
645 Clear 15 1023 41 7000 2.06 240 23:53 13.08.2022
646 Clear 17 1021 37 6000 2.06 240 22:52 13.08.2022
647 Clear 17 1021 37 8000 1.54 300 20:58 13.08.2022
648 Clear 17 1021 37 8000 1.54 300 20:31 13.08.2022
649 Clear 15 1022 48 8000 0 0 19:37 13.08.2022
650 Haze 12 1022 57 5000 3.09 220 17:42 13.08.2022
651 Clouds 12 1022 47 10000 0.63 29 15:26 13.08.2022
652 Clear 4 1025 79 10000 1.69 56 14:28 13.08.2022
653 Clouds 8 1029 62 10000 1.78 60 13:39 13.08.2022
654 Clouds 6 1029 66 10000 0.62 131 11:52 13.08.2022
655 Clouds 8 1028 66 10000 0.79 56 10:31 13.08.2022
656 Clouds 7 1029 66 10000 1.48 76 08:45 13.08.2022
657 Clouds 8 1029 68 10000 0.5 96 05:34 13.08.2022
658 Clouds 12 1024 55 7000 1.54 240 23:58 12.08.2022
659 Clouds 14 1024 48 7000 1.54 250 21:46 12.08.2022
660 Clouds 13 1025 54 8000 3.09 180 20:53 12.08.2022
661 Clouds 12 1024 57 7000 2.8 262 19:40 12.08.2022
662 Haze 12 1024 60 5000 1.49 263 18:48 12.08.2022
663 Haze 10 1026 74 5000 2.48 256 17:25 12.08.2022
664 Mist 8 1025 84 4000 1.03 0 15:52 12.08.2022
665 Mist 8 1025 85 2000 0 0 14:41 12.08.2022
666 Clouds 9 1025 80 10000 0.72 271 12:55 12.08.2022
667 Clouds 8 1025 85 10000 0.22 318 10:45 12.08.2022
668 Clouds 9 1026 82 10000 0.61 269 08:31 12.08.2022
669 Clouds 9 1026 83 10000 0.64 258 06:56 12.08.2022
670 Clear 11 1023 73 10000 0.82 268 03:20 12.08.2022
671 Clear 14 1017 57 7000 0 0 00:27 12.08.2022
672 Clear 16 1016 50 7000 3.09 240 23:35 11.08.2022
673 Clear 19 1015 35 7000 3.09 240 22:28 11.08.2022
674 Clear 19 1017 31 7000 2.06 270 21:43 11.08.2022
675 Clear 18 1017 34 7000 1.54 250 20:59 11.08.2022
676 Clouds 19 1015 33 7000 1.54 250 20:20 11.08.2022
677 Clouds 17 1017 37 7000 1.54 200 19:32 11.08.2022
678 Clouds 16 1016 38 9000 2.06 240 18:36 11.08.2022
679 Clear 14 1017 46 10000 0 0 16:38 11.08.2022
680 Clear 10 1020 57 10000 0 0 15:25 11.08.2022
681 Clouds 2 1016 33 10000 2.41 67 13:37 11.08.2022
682 Clouds 8 1019 69 10000 1.99 79 10:58 11.08.2022
683 Clouds 10 1020 55 10000 1.14 87 07:47 11.08.2022
684 Clouds 13 1020 45 10000 0.63 83 03:57 11.08.2022
685 Clear 14 1019 38 10000 0.49 75 01:33 11.08.2022
686 Clear 19 1020 27 10000 3.6 210 22:36 10.08.2022
687 Clear 19 1018 30 10000 3.6 240 21:34 10.08.2022
688 Clear 19 1019 33 10000 2.43 241 20:55 10.08.2022
689 Clouds 18 1020 29 7000 2.06 240 19:32 10.08.2022
690 Clouds 18 1019 28 7000 2.57 110 18:42 10.08.2022
691 Clear 16 1019 34 10000 2.57 280 16:55 10.08.2022
692 Clouds 14 1017 26 10000 2.5 59 13:36 10.08.2022
693 Clouds 14 1017 26 10000 2.5 59 13:36 10.08.2022
694 Clouds 14 1017 30 10000 1.57 70 12:46 10.08.2022
695 Clouds 13 1016 33 10000 2.04 68 09:55 10.08.2022
696 Clouds 13 1017 32 10000 2.29 67 08:35 10.08.2022
697 Clouds 14 1020 30 10000 2.53 68 07:21 10.08.2022
698 Clouds 16 1018 34 10000 2.61 74 03:35 10.08.2022
699 Clear 21 1018 21 10000 0 0 23:58 09.08.2022
700 Clear 21 1019 22 10000 0 0 23:25 09.08.2022
701 Clear 21 1020 21 10000 2.06 230 21:37 09.08.2022
702 Clear 21 1019 22 10000 0 0 20:40 09.08.2022
703 Clear 18 1020 29 10000 0 0 18:45 09.08.2022
704 Clear 17 1021 30 10000 0 0 17:31 09.08.2022
705 Clear 16 1021 25 10000 0.71 226 16:42 09.08.2022
706 Clear 15 1021 24 10000 1.16 85 15:59 09.08.2022
707 Clear 7 1024 43 10000 0 0 14:28 09.08.2022
708 Clear 8 1020 45 10000 3.19 78 10:39 09.08.2022
709 Clear 7 1025 51 10000 3.19 76 08:51 09.08.2022
710 Clear 7 1025 65 10000 2.59 81 07:54 09.08.2022
711 Clear 8 1024 63 10000 2.46 85 04:31 09.08.2022
712 Clear 14 1024 44 10000 0 0 23:46 08.08.2022
713 Clear 14 1024 39 10000 1.54 0 22:57 08.08.2022
714 Clear 14 1024 40 10000 1.54 0 22:35 08.08.2022
715 Clear 15 1021 38 10000 1.54 180 21:30 08.08.2022
716 Clear 13 1024 48 10000 1.54 230 19:57 08.08.2022
717 Clear 12 1024 49 10000 1.54 230 19:22 08.08.2022
718 Clear 10 1026 59 10000 0 0 17:34 08.08.2022
719 Clear 5 1027 74 10000 0 0 15:46 08.08.2022
720 Clear 3 1026 82 10000 0 0 14:33 08.08.2022
721 Clear 4 1026 76 10000 1.93 88 12:29 08.08.2022
722 Clear 5 1026 82 10000 1.69 88 10:23 08.08.2022
723 Clear 7 1027 74 10000 2.97 79 06:56 08.08.2022
724 Clouds 8 1023 77 10000 2.34 79 03:39 08.08.2022
725 Clouds 11 1025 59 10000 1.54 210 22:52 07.08.2022
726 Clouds 11 1021 62 10000 0 0 21:41 07.08.2022
727 Clouds 12 1024 58 10000 1.54 0 20:54 07.08.2022
728 Clouds 12 1024 58 10000 1.54 0 20:18 07.08.2022
729 Clouds 11 1024 64 10000 1.54 180 19:50 07.08.2022
730 Clouds 10 1025 69 10000 2.06 240 18:40 07.08.2022
731 Clouds 9 1026 71 10000 2.06 0 17:18 07.08.2022
732 Clear 9 1025 65 10000 2.06 330 16:38 07.08.2022
733 Clouds 6 1026 81 10000 1.54 350 15:25 07.08.2022
734 Clouds 6 1028 79 10000 1.66 62 13:44 07.08.2022
735 Clouds 6 1027 77 10000 1.51 67 12:19 07.08.2022
736 Clouds 7 1026 80 10000 0.85 59 10:37 07.08.2022
737 Clouds 8 1027 80 10000 1.1 334 08:26 07.08.2022
738 Rain 8 1027 78 5546 2.04 29 04:26 07.08.2022
739 Rain 10 1024 81 1611 3.45 258 01:58 07.08.2022
740 Rain 12 1020 65 7000 1.03 0 22:30 06.08.2022
741 Clouds 12 1019 63 7000 1.54 200 21:43 06.08.2022
742 Haze 12 1021 65 5000 1.03 100 19:42 06.08.2022
743 Haze 11 1022 68 5000 1.03 0 18:33 06.08.2022
744 Haze 10 1022 68 5000 1.03 0 17:39 06.08.2022
745 Rain 9 1021 74 6000 0 0 15:21 06.08.2022
746 Rain 9 1024 81 10000 0.48 356 13:50 06.08.2022
747 Clouds 9 1022 64 10000 0.84 274 12:21 06.08.2022
748 Rain 8 1022 59 10000 0.68 327 10:37 06.08.2022
749 Clouds 8 1022 62 10000 0.56 326 09:21 06.08.2022
750 Clouds 10 1022 55 10000 0.74 256 03:56 06.08.2022
751 Clear 14 1019 42 10000 1.54 230 00:27 06.08.2022
752 Clouds 16 1017 35 8000 1.03 250 22:34 05.08.2022
753 Haze 15 1018 39 5000 2.06 270 20:30 05.08.2022
754 Haze 13 1019 47 5000 1.03 270 18:55 05.08.2022
755 Haze 13 1017 46 5000 1.03 270 18:36 05.08.2022
756 Clear 9 1018 54 10000 1.54 230 16:52 05.08.2022
757 Clear 8 1021 61 10000 0 0 15:24 05.08.2022
758 Clear 8 1018 65 10000 1.03 70 14:34 05.08.2022
759 Clear 5 1026 61 10000 0.65 106 13:26 05.08.2022
760 Clear 6 1026 63 10000 0.65 106 12:59 05.08.2022
761 Clear 6 1026 59 10000 0.48 81 11:20 05.08.2022
762 Clear 7 1027 59 10000 0.76 92 08:46 05.08.2022
763 Clouds 7 1027 59 10000 0.82 93 07:34 05.08.2022
764 Clear 9 1027 59 10000 0.35 121 04:19 05.08.2022
765 Haze 15 1022 44 5000 2.57 240 23:18 04.08.2022
766 Haze 15 1021 45 5000 1.54 0 21:28 04.08.2022
767 Haze 14 1022 50 5000 1.54 220 20:57 04.08.2022
768 Haze 14 1022 51 5000 1.54 220 20:37 04.08.2022
769 Haze 12 1022 57 5000 1.54 260 18:59 04.08.2022
770 Haze 12 1024 59 5000 1.54 260 18:34 04.08.2022
771 Haze 4 1023 93 5000 0 0 15:53 04.08.2022
772 Clear 5 1032 71 10000 0.85 104 13:32 04.08.2022
773 Clear 6 1031 73 10000 1 90 11:40 04.08.2022
774 Clear 6 1031 73 10000 0.59 103 10:22 04.08.2022
775 Clear 6 1031 73 10000 0.59 103 10:22 04.08.2022
776 Clouds 8 1030 71 10000 0.47 158 07:47 04.08.2022
777 Clouds 10 1031 68 10000 1.11 209 02:50 04.08.2022
778 Rain 11 1027 62 5000 2.06 240 00:52 04.08.2022
779 Haze 11 1026 60 5000 2.06 210 23:41 03.08.2022
780 Haze 13 1024 60 4000 2.57 230 21:34 03.08.2022
781 Haze 13 1023 58 4000 2.06 0 20:21 03.08.2022
782 Haze 13 1023 60 4000 2.06 240 19:24 03.08.2022
783 Mist 9 1027 82 3000 1.03 280 16:53 03.08.2022
784 Mist 8 1027 83 3000 1.03 280 16:23 03.08.2022
785 Clear 7 1026 73 10000 1.16 49 13:53 03.08.2022
786 Clear 6 1025 71 10000 1.07 92 10:57 03.08.2022
787 Clear 8 1025 69 10000 0.64 123 07:32 03.08.2022
788 Clear 10 1024 69 10000 0.44 139 04:22 03.08.2022
789 Clear 10 1024 70 10000 0.49 186 03:23 03.08.2022
790 Haze 13 1019 57 4000 1.54 0 00:54 03.08.2022
791 Haze 15 1017 51 2000 2.57 260 22:43 02.08.2022
792 Haze 15 1018 52 3000 2.06 0 21:52 02.08.2022
793 Haze 15 1017 53 3000 1.54 210 20:32 02.08.2022
794 Haze 11 1017 71 3000 2.06 240 18:34 02.08.2022
795 Haze 10 1020 69 3000 0 0 15:27 02.08.2022
796 Clear 10 1024 74 10000 0.83 82 11:30 02.08.2022
797 Clear 9 1022 79 10000 0.51 83 08:59 02.08.2022
798 Clouds 9 1022 79 10000 0.32 221 07:52 02.08.2022
799 Clouds 9 1022 79 10000 0.19 201 06:41 02.08.2022
800 Clouds 10 1023 80 10000 0.43 222 04:31 02.08.2022
801 Haze 12 1019 71 3000 2.57 260 23:35 01.08.2022
802 Haze 14 1016 61 3000 2.57 230 22:22 01.08.2022
803 Haze 13 1018 62 3000 2.06 0 20:47 01.08.2022
804 Haze 14 1019 63 3000 1.54 0 19:23 01.08.2022
805 Haze 11 1018 67 3000 0 0 17:57 01.08.2022
806 Haze 11 1020 68 3000 0 0 16:52 01.08.2022
807 Haze 10 1020 69 3000 0 0 15:52 01.08.2022
808 Haze 10 1020 70 3000 0 0 15:30 01.08.2022
809 Clouds 8 1024 70 10000 0.53 73 13:48 01.08.2022
810 Clouds 9 1021 53 10000 0.46 64 11:50 01.08.2022
811 Clouds 9 1021 53 10000 0.46 64 11:50 01.08.2022
812 Clouds 8 1024 63 10000 0.47 76 09:39 01.08.2022
813 Clouds 9 1024 61 10000 0.67 68 08:22 01.08.2022
814 Clouds 10 1024 65 10000 0.72 105 04:47 01.08.2022
815 Clouds 12 1024 69 10000 0.23 173 02:32 01.08.2022
816 Haze 16 1021 50 5000 2.06 250 23:54 31.07.2022
817 Haze 17 1019 39 5000 1.54 270 22:36 31.07.2022
818 Haze 17 1019 39 5000 1.54 270 22:36 31.07.2022
819 Haze 16 1019 39 5000 1.54 280 20:50 31.07.2022
820 Clouds 16 1020 38 10000 1.96 248 19:40 31.07.2022
821 Clouds 12 1019 62 6000 0 0 17:44 31.07.2022
822 Haze 9 1020 59 5000 0 0 15:35 31.07.2022
823 Clear 12 1019 52 10000 1.65 76 13:41 31.07.2022
824 Clear 7 1018 48 10000 1.68 71 11:52 31.07.2022
825 Clear 10 1026 76 10000 1.73 80 09:28 31.07.2022
826 Clouds 10 1027 77 10000 0.79 87 06:43 31.07.2022
827 Clouds 11 1025 76 10000 0.57 103 02:57 31.07.2022
828 Mist 10 1019 81 3000 1.54 240 23:30 30.07.2022
829 Haze 14 1018 63 4000 1.03 210 22:19 30.07.2022
830 Haze 13 1020 68 4000 2.06 220 21:47 30.07.2022
831 Haze 13 1017 61 4000 1.03 0 20:56 30.07.2022
832 Haze 12 1016 63 4000 1.03 280 19:58 30.07.2022
833 Mist 13 1016 65 3000 1.03 180 18:51 30.07.2022
834 Mist 12 1017 68 3000 1.03 190 17:41 30.07.2022
835 Mist 11 1017 72 4000 0 0 15:38 30.07.2022
836 Mist 6 1016 100 4000 1.54 60 14:53 30.07.2022
837 Clouds 15 1016 50 10000 1.8 95 12:55 30.07.2022
838 Clouds 10 1020 60 10000 0.3 88 11:55 30.07.2022
839 Clouds 10 1020 57 10000 0.59 101 10:28 30.07.2022
840 Clouds 10 1018 50 10000 0.59 101 09:46 30.07.2022
841 Clouds 10 1021 57 10000 1.03 81 07:54 30.07.2022
842 Clouds 13 1014 61 10000 1.14 72 02:36 30.07.2022
843 Clouds 14 1014 54 10000 0.47 42 01:46 30.07.2022
844 Clouds 21 1013 27 7000 2.57 250 22:25 29.07.2022
845 Clouds 21 1013 24 10000 2.06 260 20:59 29.07.2022
846 Clear 20 1014 25 10000 0 0 19:48 29.07.2022
847 Clear 19 1013 32 10000 0 0 17:52 29.07.2022
848 Clouds 17 1014 26 10000 2.88 79 15:21 29.07.2022
849 Clear 14 1016 29 10000 3.96 77 12:59 29.07.2022
850 Clear 15 1015 26 10000 3.78 77 10:35 29.07.2022
851 Clear 15 1016 28 10000 3.62 75 08:49 29.07.2022
852 Clear 14 1017 29 10000 2.86 71 07:40 29.07.2022
853 Clear 12 1020 61 10000 2.35 76 01:47 29.07.2022
854 Clear 15 1023 49 6000 1.03 190 22:41 28.07.2022
855 Haze 15 1022 47 5000 0 0 20:59 28.07.2022
856 Haze 15 1024 50 5000 0 0 20:30 28.07.2022
857 Haze 14 1025 54 5000 1.54 240 19:42 28.07.2022
858 Haze 14 1025 55 4000 0 0 18:48 28.07.2022
859 Haze 13 1025 65 4000 1.03 230 17:43 28.07.2022
860 Haze 8 1024 87 4000 1.03 120 16:42 28.07.2022
861 Haze 7 1028 83 4000 1.03 150 15:29 28.07.2022
862 Clouds 7 1027 88 10000 1.02 100 12:58 28.07.2022
863 Clouds 8 1027 86 10000 0.34 114 10:36 28.07.2022
864 Clouds 9 1026 81 10000 0.38 67 06:25 28.07.2022
865 Clouds 10 1025 79 10000 0.21 145 05:27 28.07.2022
866 Clouds 11 1024 69 8000 2.06 150 00:45 28.07.2022
867 Haze 12 1024 72 4000 2.57 200 22:34 27.07.2022
868 Haze 12 1026 72 4000 0 0 21:27 27.07.2022
869 Haze 11 1024 78 4000 2.06 200 19:37 27.07.2022
870 Haze 11 1025 81 4000 1.54 220 17:39 27.07.2022
871 Mist 11 1024 79 3500 0 0 15:52 27.07.2022
872 Clouds 10 1024 84 6000 0 0 14:57 27.07.2022
873 Clouds 9 1024 88 6000 0 0 14:34 27.07.2022
874 Clouds 10 1024 86 10000 0.3 211 12:49 27.07.2022
875 Clouds 10 1024 79 10000 0.26 276 07:53 27.07.2022
876 Clouds 10 1024 78 10000 0.9 280 06:21 27.07.2022
877 Clouds 12 1023 71 10000 1 236 01:35 27.07.2022
878 Clouds 15 1023 51 6000 2.06 230 22:26 26.07.2022
879 Clouds 15 1023 51 8000 2.57 260 21:20 26.07.2022
880 Clouds 14 1025 55 10000 1.89 254 20:28 26.07.2022
881 Haze 13 1024 58 5000 0 0 18:43 26.07.2022
882 Clouds 12 1024 66 6000 1.54 220 17:58 26.07.2022
883 Clouds 11 1024 69 6000 0 0 16:31 26.07.2022
884 Haze 9 1023 73 4000 0 0 15:30 26.07.2022
885 Clouds 7 1021 83 10000 0.62 12 13:38 26.07.2022
886 Clouds 7 1027 75 10000 0.63 10 11:38 26.07.2022
887 Clouds 8 1026 75 10000 0.45 306 08:57 26.07.2022
888 Clouds 9 1024 73 10000 0.58 289 05:53 26.07.2022
889 Clouds 12 1018 70 10000 1.54 230 00:44 26.07.2022
890 Haze 13 1017 67 3000 1.54 240 23:32 25.07.2022
891 Haze 14 1017 64 3000 2.06 210 22:26 25.07.2022
892 Mist 13 1018 67 2000 2.06 240 21:43 25.07.2022
893 Haze 14 1016 65 2000 2.57 230 20:41 25.07.2022
894 Mist 13 1018 70 2000 2.06 240 19:46 25.07.2022
895 Mist 13 1016 68 2500 2.57 210 18:19 25.07.2022
896 Mist 13 1016 70 2000 1.03 180 17:27 25.07.2022
897 Mist 13 1016 70 2000 1.03 180 17:27 25.07.2022
898 Fog 9 1017 91 300 0 0 14:59 25.07.2022
899 Clouds 12 1019 75 10000 0.28 340 12:22 25.07.2022
900 Clouds 10 1017 93 10000 0.17 76 09:58 25.07.2022
901 Clouds 11 1017 80 10000 0.45 310 04:38 25.07.2022
902 Haze 13 1019 72 4000 2.57 240 23:54 24.07.2022
903 Haze 15 1016 60 4000 2.57 240 23:18 24.07.2022
904 Haze 17 1014 54 4000 2.05 240 22:29 24.07.2022
905 Haze 18 1016 50 5000 2.57 240 21:23 24.07.2022
906 Haze 17 1018 52 5000 1.54 260 20:50 24.07.2022
907 Haze 16 1018 52 5000 1.54 260 20:26 24.07.2022
908 Haze 15 1020 60 4000 1.54 180 18:48 24.07.2022
909 Haze 13 1020 63 5000 0 0 16:32 24.07.2022
910 Haze 11 1020 70 5000 0 0 15:50 24.07.2022
911 Haze 9 1018 73 5000 1.03 60 14:35 24.07.2022
912 Clouds 10 1021 60 10000 0.66 67 12:55 24.07.2022
913 Clouds 9 1023 71 10000 0.94 60 11:40 24.07.2022
914 Rain 9 1023 71 10000 0.48 60 11:18 24.07.2022
915 Clouds 10 1021 63 10000 0.79 81 08:48 24.07.2022
916 Clouds 10 1023 67 10000 0.37 67 07:52 24.07.2022
917 Clouds 10 1023 70 10000 0.28 16 06:27 24.07.2022
918 Clear 14 1020 64 10000 0.42 221 01:50 24.07.2022
919 Haze 19 1017 41 5000 2.06 240 22:25 23.07.2022
920 Haze 18 1018 45 5000 1.54 0 20:31 23.07.2022
921 Clouds 17 1019 48 10000 1.34 252 18:51 23.07.2022
922 Clear 15 1020 49 10000 0 0 17:41 23.07.2022
923 Clear 15 1020 49 10000 0 0 17:41 23.07.2022
924 Clear 15 1020 52 10000 0 0 17:23 23.07.2022
925 Clear 9 1018 72 10000 2.06 60 15:32 23.07.2022
926 Clear 9 1018 71 10000 0 0 14:59 23.07.2022
927 Clear 10 1018 69 10000 0 0 14:35 23.07.2022
928 Clear 9 1024 71 10000 2.03 59 13:39 23.07.2022
929 Clear 9 1023 68 10000 0.49 98 11:19 23.07.2022
930 Clear 9 1023 70 10000 1.07 77 10:23 23.07.2022
931 Clear 11 1020 59 10000 0.76 85 08:55 23.07.2022
932 Clear 13 1022 54 10000 0.66 171 03:40 23.07.2022
933 Clear 14 1020 51 10000 0.36 86 01:58 23.07.2022
934 Clear 20 1016 32 8000 0 0 23:19 22.07.2022
935 Clear 20 1015 32 10000 1.54 0 20:57 22.07.2022
936 Clear 19 1015 33 10000 0 0 19:47 22.07.2022
937 Clear 20 1015 31 10000 1.32 241 18:29 22.07.2022
938 Clear 17 1016 38 10000 1.03 240 17:28 22.07.2022
939 Clear 10 1015 57 10000 1.54 30 14:57 22.07.2022
940 Clear 11 1018 53 10000 2.48 75 11:49 22.07.2022
941 Clear 4 1017 39 10000 2.39 76 09:43 22.07.2022
942 Clear 10 1024 55 10000 2.02 81 09:18 22.07.2022
943 Clear 12 1019 52 10000 1.69 80 07:21 22.07.2022
944 Clear 12 1019 58 10000 1.55 85 03:59 22.07.2022
945 Haze 18 1017 37 4000 1.54 290 22:53 21.07.2022
946 Haze 19 1017 38 4000 1.54 0 21:34 21.07.2022
947 Clear 18 1019 39 10000 1.77 229 19:31 21.07.2022
948 Haze 16 1019 39 5000 2.06 340 18:28 21.07.2022
949 Clouds 15 1016 47 6000 2.06 220 17:20 21.07.2022
950 Clear 10 1016 62 6000 1.54 0 15:39 21.07.2022
951 Clear 10 1018 56 8000 1.54 300 14:44 21.07.2022
952 Clear 12 1018 52 10000 3.07 78 12:54 21.07.2022
953 Clear 11 1017 47 10000 3.01 77 11:23 21.07.2022
954 Clear 12 1017 48 10000 3.11 71 09:44 21.07.2022
955 Clear 11 1019 60 10000 2.88 71 08:53 21.07.2022
956 Clear 9 1020 67 10000 2.15 77 07:50 21.07.2022
957 Clear 10 1019 67 10000 1.56 88 06:25 21.07.2022
958 Clear 14 1017 52 10000 2.05 75 01:54 21.07.2022
959 Clear 18 1017 37 8000 2.06 240 22:24 20.07.2022
960 Clear 19 1014 37 8000 3.09 240 21:49 20.07.2022
961 Clear 19 1016 34 10000 1.54 0 20:45 20.07.2022
962 Clear 18 1017 36 10000 0 0 19:46 20.07.2022
963 Clear 16 1018 37 10000 1.54 290 18:53 20.07.2022
964 Clear 16 1019 38 10000 1.54 290 18:30 20.07.2022
965 Clear 14 1017 45 10000 1.54 230 16:49 20.07.2022
966 Clear 10 1018 54 10000 1.54 30 15:32 20.07.2022
967 Clear 9 1015 57 10000 0 0 14:35 20.07.2022
968 Clear 11 1015 39 10000 3.09 71 12:41 20.07.2022
969 Clear 12 1014 35 10000 3.14 71 10:29 20.07.2022
970 Clear 13 1018 45 10000 2.6 70 05:52 20.07.2022
971 Clear 16 1018 40 10000 0 0 00:58 20.07.2022
972 Clear 17 1018 39 10000 0 0 00:40 20.07.2022
973 Clear 19 1017 27 10000 2.06 240 22:35 19.07.2022
974 Clear 20 1018 29 10000 1.03 250 21:54 19.07.2022
975 Clear 20 1017 27 10000 1.54 270 20:49 19.07.2022
976 Clear 18 1019 28 10000 1.54 230 19:22 19.07.2022
977 Clear 18 1018 28 10000 1.03 210 18:35 19.07.2022
978 Clear 17 1018 30 10000 0 0 17:53 19.07.2022
979 Clear 13 1021 38 10000 2.96 75 15:27 19.07.2022
980 Clear 10 1021 36 10000 3.53 74 13:33 19.07.2022
981 Clear 10 1019 37 10000 3.51 76 11:32 19.07.2022
982 Clear 11 1022 39 10000 3.47 74 09:52 19.07.2022
983 Clear 11 1020 36 10000 3.43 73 08:47 19.07.2022
984 Clear 11 1021 38 10000 3.36 73 07:46 19.07.2022
985 Clear 12 1021 38 10000 3.42 75 07:18 19.07.2022
986 Clear 11 1024 42 10000 3.21 73 05:18 19.07.2022
987 Clear 11 1026 46 10000 2.91 72 02:38 19.07.2022
988 Clear 16 1023 36 10000 1.54 260 23:57 18.07.2022
989 Clear 17 1023 28 10000 1.54 260 23:20 18.07.2022
990 Clear 17 1023 26 10000 1.54 220 22:27 18.07.2022
991 Clear 16 1023 28 10000 1.54 240 21:24 18.07.2022
992 Clear 15 1023 31 10000 0 0 20:34 18.07.2022
993 Clear 14 1024 34 10000 1.54 220 18:50 18.07.2022
994 Clouds 11 1024 44 10000 0 0 16:45 18.07.2022
995 Clouds 6 1022 58 10000 0 0 15:34 18.07.2022
996 Clouds 9 1026 48 10000 2.23 76 13:32 18.07.2022
997 Clouds 9 1024 45 10000 3.1 66 11:44 18.07.2022
998 Clear 9 1024 49 10000 2.6 70 09:56 18.07.2022
999 Clouds 9 1026 49 10000 2.91 62 08:19 18.07.2022
1000 Clouds 10 1026 51 10000 2.23 69 05:35 18.07.2022
1001 Clouds 11 1023 49 10000 0 0 23:19 17.07.2022
1002 Clouds 11 1023 50 10000 1.03 200 22:32 17.07.2022
1003 Clouds 10 1023 48 10000 1.54 270 21:40 17.07.2022
1004 Clouds 11 1023 48 10000 1.03 200 20:46 17.07.2022
1005 Clouds 10 1023 44 10000 1.03 200 20:18 17.07.2022
1006 Clouds 10 1024 51 10000 1.54 220 19:25 17.07.2022
1007 Clouds 8 1025 48 10000 0 0 17:55 17.07.2022
1008 Clouds 9 1024 44 10000 0 0 17:36 17.07.2022
1009 Clouds 8 1023 50 10000 1.54 30 16:45 17.07.2022
1010 Clouds 8 1023 54 10000 1.54 30 16:22 17.07.2022
1011 Clouds 6 1027 45 10000 1.69 49 13:58 17.07.2022
1012 Clouds 5 1029 56 10000 1.34 58 13:24 17.07.2022
1013 Clouds 6 1028 54 10000 1.46 68 10:23 17.07.2022
1014 Clouds 6 1029 48 10000 2.35 90 07:55 17.07.2022
1015 Clouds 5 1030 48 10000 2.98 81 02:36 17.07.2022
1016 Clear 9 1026 46 10000 1.54 240 00:33 17.07.2022
1017 Clouds 11 1025 43 10000 1.54 260 23:18 16.07.2022
1018 Clouds 10 1026 50 10000 0 0 20:53 16.07.2022
1019 Clouds 8 1031 57 10000 1.54 160 18:59 16.07.2022
1020 Clouds 8 1030 63 10000 0 0 17:48 16.07.2022
1021 Clear 6 1031 71 10000 0 0 16:23 16.07.2022
1022 Clouds 1 1033 66 10000 2.5 77 13:36 16.07.2022
1023 Clouds 3 1030 64 10000 1.82 68 10:35 16.07.2022
1024 Clouds 4 1029 81 3281 2.43 77 09:29 16.07.2022
1025 Clouds 4 1029 82 3281 2.43 77 08:42 16.07.2022
1026 Clouds 4 1029 82 4116 1.87 84 07:41 16.07.2022
1027 Rain 5 1026 73 10000 0.36 23 03:39 16.07.2022
1028 Clouds 6 1024 77 10000 1.29 34 01:39 16.07.2022
1029 Clouds 8 1022 70 10000 0 0 23:21 15.07.2022
1030 Clouds 8 1022 73 8000 2.06 280 22:37 15.07.2022
1031 Rain 8 1021 76 6000 0 0 20:47 15.07.2022
1032 Mist 8 1020 79 4000 1.03 180 19:51 15.07.2022
1033 Rain 8 1020 77 4000 1.54 250 18:32 15.07.2022
1034 Snow 7 1020 78 8000 1.03 100 17:25 15.07.2022
1035 Clouds 5 1018 81 8000 0 0 14:35 15.07.2022
1036 Clouds 5 1021 79 10000 0.89 74 12:43 15.07.2022
1037 Rain 5 1019 79 10000 1.63 80 10:53 15.07.2022
1038 Rain 5 1020 75 10000 1.51 76 07:55 15.07.2022
1039 Clouds 6 1022 81 10000 1.85 73 05:55 15.07.2022
1040 Clouds 7 1020 79 10000 2.57 210 00:51 15.07.2022
1041 Clouds 8 1018 74 10000 2.57 50 23:25 14.07.2022
1042 Clouds 9 1017 66 8000 2.57 0 22:42 14.07.2022
1043 Clouds 9 1016 64 10000 2.06 330 21:42 14.07.2022
1044 Clouds 9 1016 64 10000 2.06 330 21:24 14.07.2022
1045 Clouds 10 1015 57 10000 1.54 350 20:43 14.07.2022
1046 Clouds 10 1015 57 10000 1.54 350 20:43 14.07.2022
1047 Clouds 10 1015 57 10000 1.54 350 20:19 14.07.2022
1048 Clouds 9 1016 57 10000 2.06 20 18:38 14.07.2022
1049 Clouds 5 1018 89 8000 2.06 0 16:21 14.07.2022
1050 Clouds 5 1020 86 7000 0.51 0 15:26 14.07.2022
1051 Clouds 6 1022 82 2435 0.97 75 13:52 14.07.2022
1052 Rain 5 1021 82 2549 1.2 197 12:40 14.07.2022
1053 Rain 5 1023 80 167 3.61 251 11:41 14.07.2022
1054 Rain 6 1023 83 640 3.67 264 11:21 14.07.2022
1055 Rain 7 1018 86 1286 2.54 289 09:49 14.07.2022
1056 Clouds 9 1018 81 10000 1.34 10 05:20 14.07.2022
1057 Rain 10 1019 67 10000 0.38 186 01:22 14.07.2022
1058 Clouds 9 1017 68 8000 0 0 00:52 14.07.2022
1059 Rain 10 1017 65 8000 3.6 180 22:32 13.07.2022
1060 Clouds 10 1017 63 8000 3.6 180 21:54 13.07.2022
1061 Clouds 10 1016 63 6000 3.09 200 20:45 13.07.2022
1062 Clouds 12 1013 55 8000 4.63 190 19:19 13.07.2022
1063 Clouds 11 1015 57 10000 1.03 0 17:42 13.07.2022
1064 Clouds 11 1014 55 10000 1.03 0 16:29 13.07.2022
1065 Clouds 8 1015 65 10000 1.03 0 15:24 13.07.2022
1066 Clouds 7 1018 58 10000 2.5 57 12:55 13.07.2022
1067 Clouds 6 1022 66 10000 2.44 57 10:45 13.07.2022
1068 Clouds 3 1014 44 10000 2.38 60 09:58 13.07.2022
1069 Clouds 3 1015 44 10000 2.28 61 09:21 13.07.2022
1070 Clouds 8 1024 65 10000 2.36 60 06:19 13.07.2022
1071 Clouds 11 1022 59 10000 1.39 65 01:27 13.07.2022
1072 Clear 15 1019 45 10000 1.03 0 23:42 12.07.2022
1073 Clear 16 1019 43 10000 1.54 240 21:55 12.07.2022
1074 Clear 15 1020 42 10000 1.54 240 21:29 12.07.2022
1075 Clouds 14 1020 44 10000 1.03 150 20:41 12.07.2022
1076 Clouds 13 1021 50 10000 1.54 280 19:26 12.07.2022
1077 Clouds 12 1022 49 10000 0 0 17:49 12.07.2022
1078 Clouds 9 1024 66 10000 1.03 0 15:57 12.07.2022
1079 Clouds 6 1025 70 10000 0 0 14:30 12.07.2022
1080 Clouds 6 1028 55 10000 1.98 65 12:29 12.07.2022
1081 Clouds 6 1028 64 10000 1.82 71 11:22 12.07.2022
1082 Clouds 6 1030 65 10000 1.8 75 09:42 12.07.2022
1083 Clouds 6 1030 58 10000 2.08 81 08:23 12.07.2022
1084 Clouds 6 1032 59 10000 2.79 75 06:49 12.07.2022
1085 Clear 6 1032 58 10000 2.7 78 05:42 12.07.2022
1086 Clouds 6 1030 64 10000 2.83 78 02:32 12.07.2022
1087 Clouds 11 1029 66 10000 0 0 23:28 11.07.2022
1088 Clouds 11 1029 64 10000 1.03 0 22:30 11.07.2022
1089 Clouds 10 1029 71 10000 1.03 0 20:41 11.07.2022
1090 Clouds 10 1029 70 8000 0.51 0 19:44 11.07.2022
1091 Clouds 9 1030 77 7000 1.54 0 18:32 11.07.2022
1092 Clouds 9 1030 77 7000 1.54 0 18:32 11.07.2022
1093 Mist 9 1030 83 5000 0 0 17:49 11.07.2022
1094 Clouds 7 1029 85 4000 1.03 0 16:20 11.07.2022
1095 Haze 8 1027 79 5000 0 0 14:41 11.07.2022
1096 Clouds 7 1026 86 6199 0.14 261 11:58 11.07.2022
1097 Clouds 7 1025 86 6184 0.41 286 10:35 11.07.2022
1098 Rain 6 1025 85 6329 0.8 243 09:43 11.07.2022
1099 Clouds 7 1025 85 9396 0.53 216 08:34 11.07.2022
1100 Rain 7 1024 84 6161 1.33 41 05:52 11.07.2022
1101 Clouds 7 1022 84 5000 0 0 00:22 11.07.2022
1102 Rain 7 1021 84 6000 0 0 23:28 10.07.2022
1103 Rain 7 1020 82 5000 3.6 230 21:55 10.07.2022
1104 Rain 9 1020 78 10000 1.54 0 20:54 10.07.2022
1105 Rain 10 1017 76 10000 0 0 19:50 10.07.2022
1106 Rain 9 1017 84 10000 1.54 0 18:50 10.07.2022
1107 Rain 9 1020 82 6000 1.03 0 17:41 10.07.2022
1108 Clouds 8 1022 81 9827 1.31 18 16:58 10.07.2022
1109 Clouds 9 1022 79 7674 1.59 15 16:20 10.07.2022
1110 Clouds 7 1022 83 8405 2.05 54 14:33 10.07.2022
1111 Clouds 7 1021 84 10000 2.59 61 12:33 10.07.2022
1112 Clouds 7 1021 85 10000 2.37 60 11:34 10.07.2022
1113 Clouds 7 1021 84 10000 1.9 37 09:28 10.07.2022
1114 Clouds 7 1022 83 10000 1.9 37 08:38 10.07.2022
1115 Rain 7 1022 83 10000 2.05 42 05:36 10.07.2022
1116 Clouds 9 1017 69 10000 4.12 350 23:32 09.07.2022
1117 Clouds 8 1016 77 10000 3.09 360 22:26 09.07.2022
1118 Clouds 8 1016 77 10000 3.09 360 22:26 09.07.2022
1119 Rain 8 1017 79 3000 2.06 290 21:31 09.07.2022
1120 Haze 10 1015 64 5000 2.06 210 19:19 09.07.2022
1121 Clouds 11 1013 61 7000 2.57 0 18:23 09.07.2022
1122 Clouds 11 1011 64 7000 2.06 0 17:18 09.07.2022
1123 Haze 9 1015 78 4000 0 0 15:56 09.07.2022
1124 Haze 9 1012 77 4000 0 0 15:36 09.07.2022
1125 Clear 8 1014 80 10000 1.54 25 13:54 09.07.2022
1126 Clear 8 1014 81 10000 0.85 19 13:28 09.07.2022
1127 Clear 9 1012 80 10000 1.64 34 11:40 09.07.2022
1128 Clear 9 1013 81 10000 0.96 11 10:25 09.07.2022
1129 Clear 9 1014 81 10000 1.17 37 09:23 09.07.2022
1130 Clear 10 1015 82 10000 0.75 37 07:43 09.07.2022
1131 Clear 10 1016 80 10000 0.79 53 04:38 09.07.2022
1132 Clear 13 1015 68 8000 2.57 250 23:33 08.07.2022
1133 Clear 14 1016 64 8000 2.57 250 22:18 08.07.2022
1134 Clear 17 1013 53 8000 3.6 250 21:21 08.07.2022
1135 Clear 16 1015 56 8000 2.06 240 20:35 08.07.2022
1136 Clear 16 1016 58 10000 2.57 0 18:45 08.07.2022
1137 Clear 15 1015 61 10000 1.54 0 17:45 08.07.2022
1138 Clouds 13 1016 64 10000 2.06 0 16:24 08.07.2022
1139 Haze 10 1015 81 8000 2.57 30 14:50 08.07.2022
1140 Clouds 10 1018 58 10000 2.49 35 12:31 08.07.2022
1141 Clouds 10 1013 59 10000 1.97 13 10:46 08.07.2022
1142 Clouds 8 1013 62 10000 1.91 80 09:42 08.07.2022
1143 Clouds 4 1013 30 10000 2.06 74 06:55 08.07.2022
1144 Clouds 11 1014 26 10000 2.29 68 05:33 08.07.2022
1145 Clear 12 1014 55 10000 2.09 69 00:30 08.07.2022
1146 Clear 17 1013 42 10000 1.54 270 22:47 07.07.2022
1147 Clear 16 1013 40 10000 1.03 280 21:41 07.07.2022
1148 Clear 16 1013 40 10000 1.54 250 19:34 07.07.2022
1149 Clear 11 1017 62 10000 1.03 240 17:43 07.07.2022
1150 Clear 14 1014 45 10000 1.46 70 15:58 07.07.2022
1151 Clouds -1 1018 37 10000 3.12 71 13:32 07.07.2022
1152 Clouds 0 1018 37 10000 2.95 75 12:40 07.07.2022
1153 Clouds 0 1018 38 10000 2.77 75 12:21 07.07.2022
1154 Clouds -1 1018 38 10000 2.77 75 11:32 07.07.2022
1155 Clear 1 1018 38 10000 2.47 73 10:45 07.07.2022
1156 Clear 1 1019 38 10000 2.53 74 10:26 07.07.2022
1157 Clouds 6 1029 67 10000 2.4 75 08:21 07.07.2022
1158 Clouds 6 1025 81 10000 2.62 79 05:23 07.07.2022
1159 Clouds 9 1024 72 10000 1.25 97 23:54 06.07.2022
1160 Clouds 8 1024 74 10000 1.25 97 23:36 06.07.2022
1161 Clouds 8 1024 73 10000 0.91 141 23:18 06.07.2022
1162 Clouds 8 1023 75 7000 0.91 141 22:46 06.07.2022
1163 Clouds 8 1022 75 7000 0.26 354 22:28 06.07.2022
1164 Clouds 9 1021 67 6000 2.06 210 19:45 06.07.2022
1165 Clouds 8 1021 69 6000 1.54 180 18:41 06.07.2022
1166 Haze 6 1021 78 5000 1.03 0 16:45 06.07.2022
1167 Clouds 7 1022 67 10000 2.06 350 15:39 06.07.2022
1168 Clouds 5 1022 76 10000 1.34 51 12:44 06.07.2022
1169 Clouds 5 1021 73 10000 0.35 24 11:49 06.07.2022
1170 Clouds 5 1020 73 10000 0.65 7 10:33 06.07.2022
1171 Clear 6 1020 71 10000 1.26 35 08:43 06.07.2022
1172 Clouds 6 1021 73 10000 0.45 317 07:39 06.07.2022
1173 Clouds 7 1021 64 10000 1.61 45 05:37 06.07.2022
1174 Clear 14 1020 38 7000 2.06 270 22:49 05.07.2022
1175 Clear 14 1020 37 7000 2.06 270 22:28 05.07.2022
1176 Clear 14 1021 37 10000 1.54 260 20:42 05.07.2022
1177 Clear 13 1022 40 10000 1.54 240 19:44 05.07.2022
1178 Clear 13 1022 39 10000 1.54 240 19:26 05.07.2022
1179 Clear 11 1023 44 10000 0 0 17:48 05.07.2022
1180 Clear 8 1024 51 10000 0 0 16:57 05.07.2022
1181 Clear 4 1025 70 10000 0 0 15:38 05.07.2022
1182 Clear 3 1026 72 10000 0 0 14:33 05.07.2022
1183 Clear 4 1030 61 10000 1.78 69 12:52 05.07.2022
1184 Clear 5 1028 55 10000 1.73 66 12:19 05.07.2022
1185 Clear 5 1028 54 10000 1.73 64 10:44 05.07.2022
1186 Clear 6 1031 57 10000 1.38 85 09:28 05.07.2022
1187 Clear 6 1031 56 10000 0.8 96 08:18 05.07.2022
1188 Clear 7 1029 54 10000 0.85 93 05:45 05.07.2022
1189 Clear 8 1028 50 10000 0.86 91 04:26 05.07.2022
1190 Haze 12 1025 48 5000 0 0 00:38 05.07.2022
1191 Haze 13 1025 41 5000 0 0 23:34 04.07.2022
1192 Clear 13 1028 45 10000 1.55 235 22:50 04.07.2022
1193 Clear 13 1025 41 6000 0 0 21:48 04.07.2022
1194 Clear 13 1025 42 10000 1.54 0 20:54 04.07.2022
1195 Clear 13 1025 42 10000 1.54 0 20:34 04.07.2022
1196 Clear 12 1025 42 10000 1.54 0 19:55 04.07.2022
1197 Clear 12 1026 42 10000 1.54 0 19:36 04.07.2022
1198 Clear 11 1027 47 10000 0 0 18:18 04.07.2022
1199 Clear 5 1027 61 10000 0 0 15:58 04.07.2022
1200 Clear 4 1028 69 10000 0 0 15:33 04.07.2022
1201 Clear 5 1029 51 10000 1.8 79 13:29 04.07.2022
1202 Clear 5 1028 59 10000 1.8 79 12:30 04.07.2022
1203 Clear 7 1027 52 10000 1.61 67 10:34 04.07.2022
1204 Clear 7 1028 53 10000 1.54 63 09:52 04.07.2022
1205 Clouds 7 1028 60 10000 1.1 57 08:24 04.07.2022
1206 Clouds 8 1027 55 10000 0.94 19 04:57 04.07.2022
1207 Clouds 7 1022 73 10000 0 0 00:39 04.07.2022
1208 Clouds 8 1021 68 10000 1.03 0 22:59 03.07.2022
1209 Clouds 9 1023 68 10000 0 0 20:58 03.07.2022
1210 Clouds 9 1023 68 10000 0 0 20:31 03.07.2022
1211 Clouds 8 1021 68 10000 0 0 19:28 03.07.2022
1212 Clouds 8 1023 73 10000 1.03 0 18:43 03.07.2022
1213 Clouds 7 1024 71 10000 1.03 0 17:44 03.07.2022
1214 Clouds 6 1020 74 10000 1.03 0 15:55 03.07.2022
1215 Clouds 5 1022 79 10000 0 0 14:59 03.07.2022
1216 Clouds 5 1019 80 10000 0 0 14:20 03.07.2022
1217 Clouds 6 1021 74 10000 0.77 71 13:48 03.07.2022
1218 Clouds 6 1020 71 10000 0.78 76 12:33 03.07.2022
1219 Clouds 6 1020 73 10000 1.22 68 11:29 03.07.2022
1220 Clouds 6 1020 72 10000 1.22 68 10:39 03.07.2022
1221 Clouds 6 1020 73 10000 0.87 79 09:55 03.07.2022
1222 Clouds 6 1022 66 10000 1.97 72 07:35 03.07.2022
1223 Clouds 7 1023 70 10000 3.22 77 04:22 03.07.2022
1224 Clear 10 1021 62 10000 1.03 230 00:22 03.07.2022
1225 Clouds 12 1022 52 10000 2.57 0 22:34 02.07.2022
1226 Clouds 12 1023 55 10000 2.06 250 21:28 02.07.2022
1227 Clear 10 1024 64 10000 2.06 150 19:52 02.07.2022
1228 Clear 10 1023 60 10000 2.06 150 19:23 02.07.2022
1229 Clear 9 1024 65 10000 0 0 17:51 02.07.2022
1230 Clear 9 1025 63 10000 0 0 17:33 02.07.2022
1231 Clouds 4 1023 78 10000 0 0 14:52 02.07.2022
1232 Clouds 4 1023 76 10000 2.5 63 12:22 02.07.2022
1233 Clouds 4 1023 73 10000 2.78 61 11:27 02.07.2022
1234 Clouds 4 1024 73 10000 2.78 61 10:43 02.07.2022
1235 Clouds 4 1024 78 10000 2.92 72 09:25 02.07.2022
1236 Clouds 5 1024 76 10000 2.92 72 08:36 02.07.2022
1237 Clouds 5 1024 75 10000 2.81 78 08:18 02.07.2022
1238 Clouds 7 1021 81 10000 2.6 61 02:51 02.07.2022
1239 Clouds 8 1019 69 10000 0 0 00:26 02.07.2022
1240 Clouds 9 1021 77 10000 3.09 20 22:58 01.07.2022
1241 Clouds 7 1019 79 10000 3.09 40 21:49 01.07.2022
1242 Clouds 7 1019 81 10000 3.09 40 21:29 01.07.2022
1243 Clouds 6 1019 83 5000 3.09 50 20:56 01.07.2022
1244 Clouds 7 1020 85 4000 2.57 70 19:47 01.07.2022
1245 Clouds 7 1021 85 6000 2.06 100 17:58 01.07.2022
1246 Rain 7 1020 82 5000 3.09 120 16:24 01.07.2022
1247 Rain 9 1022 75 7095 2.31 285 13:55 01.07.2022
1248 Clouds 11 1022 49 10000 2.73 268 12:59 01.07.2022
1249 Clouds 12 1020 64 10000 2.68 1 10:46 01.07.2022
1250 Clouds 12 1020 63 10000 1.95 340 10:18 01.07.2022
1251 Clear 12 1021 70 10000 1.04 339 05:27 01.07.2022
1252 Clouds 15 1020 50 10000 0.57 2 01:27 01.07.2022
1253 Clear 18 1017 29 10000 1.54 160 23:26 30.06.2022
1254 Clouds 18 1017 30 8000 2.06 200 22:44 30.06.2022
1255 Clouds 18 1017 30 8000 2.06 200 22:26 30.06.2022
1256 Clouds 19 1017 33 8000 1.03 0 21:48 30.06.2022
1257 Clouds 17 1018 36 8000 2.57 250 20:30 30.06.2022
1258 Clouds 16 1019 40 8000 2.06 170 19:55 30.06.2022
1259 Clouds 16 1017 41 8000 2.06 170 19:32 30.06.2022
1260 Clouds 15 1017 39 8000 1.54 230 18:43 30.06.2022
1261 Clouds 14 1017 44 10000 1.03 350 17:49 30.06.2022
1262 Clouds 7 1016 29 10000 0.58 301 16:55 30.06.2022
1263 Clouds 7 1018 70 10000 0 0 15:44 30.06.2022
1264 Clouds 10 1024 51 10000 2.32 64 13:50 30.06.2022
1265 Clouds 9 1025 58 10000 2.1 66 12:36 30.06.2022
1266 Clouds 10 1025 54 10000 1.76 70 11:59 30.06.2022
1267 Clouds 10 1025 54 10000 1.1 64 09:55 30.06.2022
1268 Clouds 10 1025 51 10000 1.1 64 09:37 30.06.2022
1269 Clouds 10 1027 57 10000 1.77 47 08:19 30.06.2022
1270 Clouds 10 1027 57 10000 1.59 50 07:40 30.06.2022
1271 Clouds 13 1027 56 10000 0.72 65 02:49 30.06.2022
1272 Clouds 16 1024 36 6000 2.06 210 23:38 29.06.2022
1273 Clouds 17 1024 25 10000 2.06 180 22:41 29.06.2022
1274 Clouds 16 1024 34 9000 2.57 0 21:58 29.06.2022
1275 Clouds 17 1024 33 9000 2.57 240 20:34 29.06.2022
1276 Clouds 16 1024 32 10000 0 0 19:55 29.06.2022
1277 Clear 12 1025 44 10000 1.54 260 17:55 29.06.2022
1278 Clear 10 1025 53 10000 0 0 16:51 29.06.2022
1279 Clear 8 1025 61 10000 1.54 30 15:33 29.06.2022
1280 Clouds 1 1021 43 10000 1.24 45 13:36 29.06.2022
1281 Clouds 8 1027 57 10000 0.45 78 12:24 29.06.2022
1282 Clouds 9 1028 54 10000 0.83 48 09:43 29.06.2022
1283 Clouds 8 1028 56 10000 0.94 46 09:21 29.06.2022
1284 Clouds 9 1028 54 10000 1.23 49 06:28 29.06.2022
1285 Clouds 11 1029 46 10000 1.21 60 02:59 29.06.2022
1286 Clouds 14 1026 41 8000 0 0 00:52 29.06.2022
1287 Clouds 14 1026 41 8000 0 0 00:33 29.06.2022
1288 Clouds 18 1023 23 10000 0 0 22:49 28.06.2022
1289 Clear 17 1024 31 10000 0 0 21:57 28.06.2022
1290 Clear 17 1024 31 10000 0 0 21:38 28.06.2022
1291 Clear 15 1027 39 10000 0 0 20:57 28.06.2022
1292 Clouds 13 1029 41 10000 0 0 19:50 28.06.2022
1293 Clouds 13 1029 42 10000 0 0 19:24 28.06.2022
1294 Clear 12 1026 48 10000 2.06 0 18:38 28.06.2022
1295 Clear 10 1030 49 10000 0 0 16:47 28.06.2022
1296 Clear 6 1031 70 10000 0 0 15:54 28.06.2022
1297 Clear 5 1032 71 10000 0 0 14:48 28.06.2022
1298 Clear 4 1032 73 10000 0 0 14:18 28.06.2022
1299 Clouds 7 1036 60 10000 2.25 82 13:45 28.06.2022
1300 Clouds 7 1035 56 10000 3.06 75 11:58 28.06.2022
1301 Clouds 7 1036 67 10000 2.52 77 09:52 28.06.2022
1302 Clear 8 1035 56 10000 2.84 74 08:55 28.06.2022
1303 Clouds 8 1035 60 10000 2.8 78 08:26 28.06.2022
1304 Clouds 8 1036 64 10000 1.61 83 07:20 28.06.2022
1305 Clouds 11 1034 68 10000 1.42 343 02:42 28.06.2022
1306 Clouds 11 1024 58 8000 1.03 0 23:49 27.06.2022
1307 Clouds 12 1024 57 8000 1.03 0 23:25 27.06.2022
1308 Clouds 12 1027 54 10000 4.63 210 21:53 27.06.2022
1309 Clouds 12 1026 53 10000 4.63 210 21:21 27.06.2022
1310 Clouds 13 1025 46 10000 2.57 210 19:54 27.06.2022
1311 Clear 12 1025 49 10000 2.57 240 18:45 27.06.2022
1312 Clear 13 1024 44 10000 1.54 220 17:33 27.06.2022
1313 Clear 9 1026 53 10000 0.88 350 15:44 27.06.2022
1314 Clear 4 1023 65 10000 0 0 14:18 27.06.2022
1315 Clouds 4 1020 57 10000 2.12 68 12:58 27.06.2022
1316 Clouds 6 1027 55 10000 1.65 63 11:30 27.06.2022
1317 Clouds 6 1027 58 10000 1.39 77 09:45 27.06.2022
1318 Clouds 7 1026 59 10000 1.22 77 08:43 27.06.2022
1319 Clouds 7 1027 58 10000 1.08 94 07:39 27.06.2022
1320 Clouds 8 1027 62 10000 1.05 70 05:22 27.06.2022
1321 Clouds 10 1026 63 10000 0.69 216 01:22 27.06.2022
1322 Clouds 12 1021 60 6000 0 0 22:59 26.06.2022
1323 Clouds 12 1022 61 7000 1.54 240 21:38 26.06.2022
1324 Clouds 12 1022 59 7000 1.54 190 20:28 26.06.2022
1325 Clouds 10 1023 63 6000 0 0 18:33 26.06.2022
1326 Clouds 10 1023 65 7000 0 0 17:40 26.06.2022
1327 Clouds 6 1024 78 7000 0 0 15:36 26.06.2022
1328 Clouds 6 1023 75 7000 0 0 14:22 26.06.2022
1329 Clouds 7 1026 63 10000 0.07 336 13:24 26.06.2022
1330 Clouds 7 1025 60 10000 0.69 38 11:41 26.06.2022
1331 Clouds 7 1024 57 10000 1.01 47 10:42 26.06.2022
1332 Clouds 8 1024 57 10000 1 20 09:58 26.06.2022
1333 Clouds 8 1024 56 10000 0.31 359 07:47 26.06.2022
1334 Clouds 9 1024 56 10000 0.84 50 06:19 26.06.2022
1335 Clear 13 1019 52 10000 0 0 00:37 26.06.2022
1336 Clear 13 1019 52 10000 0 0 00:37 26.06.2022
1337 Clear 13 1018 52 10000 0 0 00:18 26.06.2022
1338 Clear 15 1018 46 10000 0 0 23:31 25.06.2022
1339 Clear 15 1018 41 10000 1.54 250 22:46 25.06.2022
1340 Clear 15 1018 42 10000 1.54 250 22:24 25.06.2022
1341 Clouds 15 1019 44 10000 1.54 220 21:21 25.06.2022
1342 Clear 15 1019 41 10000 1.54 0 20:36 25.06.2022
1343 Clear 14 1016 38 10000 2.06 0 19:59 25.06.2022
1344 Clouds 14 1021 42 10000 0.57 273 18:22 25.06.2022
1345 Clear 13 1019 47 10000 0.51 0 17:26 25.06.2022
1346 Clear 10 1019 60 10000 0 0 16:26 25.06.2022
1347 Clear 6 1020 72 10000 1.54 30 14:31 25.06.2022
1348 Clouds 8 1023 67 10000 1.92 67 12:46 25.06.2022
1349 Clouds 8 1023 68 10000 1.6 71 11:55 25.06.2022
1350 Clouds 9 1023 69 10000 1.31 51 09:24 25.06.2022
1351 Clouds 9 1023 69 10000 1.31 51 09:24 25.06.2022
1352 Clouds 10 1023 68 10000 1.31 51 08:49 25.06.2022
1353 Clouds 10 1023 69 10000 1.25 56 08:20 25.06.2022
1354 Clouds 10 1025 65 10000 1.19 69 06:34 25.06.2022
1355 Clouds 10 1023 70 9000 0 0 00:45 25.06.2022
1356 Clouds 11 1024 64 9000 0 0 23:54 24.06.2022
1357 Clouds 11 1023 59 10000 0 0 22:25 24.06.2022
1358 Clouds 11 1023 57 10000 1.54 230 21:22 24.06.2022
1359 Clouds 12 1022 55 10000 0 0 20:23 24.06.2022
1360 Clouds 13 1025 48 10000 0.96 239 19:24 24.06.2022
1361 Clouds 12 1023 53 10000 0 0 18:51 24.06.2022
1362 Clouds 12 1023 53 10000 0 0 18:31 24.06.2022
1363 Clouds 11 1023 55 10000 0 0 17:49 24.06.2022
1364 Clouds 11 1026 52 10000 0.56 283 16:45 24.06.2022
1365 Clouds 11 1026 52 10000 0.56 283 16:45 24.06.2022
1366 Clear 6 1023 72 10000 1.54 50 14:30 24.06.2022
1367 Clouds 8 1026 59 10000 2.49 72 13:58 24.06.2022
1368 Clouds 8 1027 61 10000 2.51 70 12:49 24.06.2022
1369 Clouds 8 1026 65 10000 2.64 73 11:40 24.06.2022
1370 Clouds 9 1026 62 10000 2.42 72 10:34 24.06.2022
1371 Clouds 9 1025 65 10000 2.14 77 09:41 24.06.2022
1372 Clouds 9 1026 65 10000 2.15 70 08:53 24.06.2022
1373 Clouds 9 1026 65 10000 2.15 70 08:53 24.06.2022
1374 Clouds 9 1026 61 10000 1.89 74 07:39 24.06.2022
1375 Clouds 9 1026 62 10000 1.46 70 06:42 24.06.2022
1376 Clouds 10 1026 59 10000 1.92 79 06:18 24.06.2022
1377 Clouds 10 1026 69 10000 1.8 73 03:47 24.06.2022
1378 Clouds 12 1017 62 10000 0 0 23:19 23.06.2022
1379 Clouds 12 1017 62 10000 2.06 120 22:40 23.06.2022
1380 Clouds 11 1017 76 10000 0 0 20:59 23.06.2022
1381 Clouds 11 1017 76 10000 0 0 20:35 23.06.2022
1382 Rain 11 1017 76 10000 0 0 19:40 23.06.2022
1383 Clouds 9 1017 93 10000 2.57 80 17:53 23.06.2022
1384 Clouds 9 1017 93 10000 2.57 80 17:33 23.06.2022
1385 Clouds 9 1021 87 8000 2.06 0 15:57 23.06.2022
1386 Clouds 9 1021 86 8000 2.06 0 15:24 23.06.2022
1387 Clouds 10 1021 81 10000 1.51 272 13:45 23.06.2022
1388 Rain 10 1020 80 9720 0.36 74 11:27 23.06.2022
1389 Clouds 10 1021 80 9720 0.36 74 10:40 23.06.2022
1390 Rain 11 1019 69 10000 0.33 160 09:18 23.06.2022
1391 Rain 11 1018 65 10000 1.87 295 03:40 23.06.2022
1392 Clouds 12 1014 58 7000 3.6 310 00:27 23.06.2022
1393 Clouds 13 1012 54 8000 2.06 290 23:41 22.06.2022
1394 Rain 13 1014 54 8000 0 0 22:48 22.06.2022
1395 Rain 13 1014 54 8000 0 0 22:48 22.06.2022
1396 Clouds 13 1014 52 8000 2.06 270 21:22 22.06.2022
1397 Clouds 13 1015 54 6000 2.06 0 20:45 22.06.2022
1398 Clouds 12 1016 54 8000 2.06 200 19:58 22.06.2022
1399 Clouds 11 1016 59 7000 1.54 220 18:50 22.06.2022
1400 Clouds 10 1017 62 7000 0 0 17:29 22.06.2022
1401 Clouds 9 1017 64 8000 0 0 16:33 22.06.2022
1402 Clouds 8 1016 69 7000 0 0 15:27 22.06.2022
1403 Clouds 7 1016 76 7000 0 0 14:31 22.06.2022
1404 Clouds 8 1019 68 10000 1.43 314 13:44 22.06.2022
1405 Clouds 8 1019 67 10000 0.33 130 13:23 22.06.2022
1406 Clouds 8 1018 65 10000 0.33 159 11:50 22.06.2022
1407 Clouds 8 1018 65 10000 0.33 159 11:50 22.06.2022
1408 Clouds 8 1018 62 10000 1 226 10:57 22.06.2022
1409 Rain 8 1019 65 10000 0.63 90 10:19 22.06.2022
1410 Rain 8 1019 67 10000 0.52 306 08:37 22.06.2022
1411 Clouds 9 1018 66 10000 0.71 228 05:38 22.06.2022
1412 Clouds 11 1020 64 10000 0.57 205 01:49 22.06.2022
1413 Haze 10 1018 65 4000 2.06 200 00:36 22.06.2022
1414 Haze 11 1017 62 4000 2.06 230 22:37 21.06.2022
1415 Haze 11 1016 58 4000 1.03 100 20:39 21.06.2022
1416 Haze 10 1018 61 4000 0 0 18:51 21.06.2022
1417 Haze 9 1018 63 4000 0 0 17:40 21.06.2022
1418 Haze 6 1019 70 4000 1.03 120 14:42 21.06.2022
1419 Clouds 7 1022 59 10000 0.18 266 11:55 21.06.2022
1420 Clouds 7 1022 58 10000 0.05 270 10:20 21.06.2022
1421 Clouds 8 1022 58 10000 0.31 219 08:50 21.06.2022
1422 Clouds 7 1023 57 10000 0.43 278 07:35 21.06.2022
1423 Clouds 9 1023 58 10000 0.14 18 03:21 21.06.2022
1424 Haze 12 1019 49 4000 1.54 230 23:27 20.06.2022
1425 Haze 12 1018 47 4000 2.57 230 21:58 20.06.2022
1426 Haze 12 1018 47 4000 2.57 230 21:31 20.06.2022
1427 Haze 12 1018 46 4000 1.54 210 19:57 20.06.2022
1428 Haze 12 1019 48 4000 0 0 18:54 20.06.2022
1429 Haze 12 1019 46 4000 0 0 18:24 20.06.2022
1430 Haze 11 1019 49 4000 1.03 0 17:41 20.06.2022
1431 Haze 10 1019 55 4000 0 0 16:21 20.06.2022
1432 Haze 8 1019 58 4000 0.51 360 14:29 20.06.2022
1433 Clouds 9 1021 49 10000 0.81 23 11:46 20.06.2022
1434 Clouds 9 1022 47 10000 0.44 332 09:55 20.06.2022
1435 Clouds 9 1022 55 10000 0.32 338 08:45 20.06.2022
1436 Clouds 10 1022 52 10000 0.52 92 07:35 20.06.2022
1437 Clouds 11 1025 50 10000 0.08 266 03:52 20.06.2022
1438 Haze 12 1021 47 4000 0 0 00:52 20.06.2022
1439 Haze 14 1021 41 4000 1.54 250 23:48 19.06.2022
1440 Haze 14 1021 37 4000 1.54 260 22:19 19.06.2022
1441 Haze 15 1021 34 5000 0 0 21:42 19.06.2022
1442 Haze 15 1021 34 5000 1.54 260 20:48 19.06.2022
1443 Haze 14 1022 36 5000 0 0 19:49 19.06.2022
1444 Haze 14 1022 36 5000 0 0 19:24 19.06.2022
1445 Clouds 13 1023 39 10000 0 0 18:31 19.06.2022
1446 Clouds 12 1023 44 9000 1.03 190 17:42 19.06.2022
1447 Clouds 10 1023 48 10000 0 0 16:47 19.06.2022
1448 Clouds 10 1023 48 10000 0 0 16:23 19.06.2022
1449 Clouds 9 1023 51 10000 0 0 15:29 19.06.2022
1450 Clouds 8 1023 55 7000 0 0 14:42 19.06.2022
1451 Clouds 9 1026 45 10000 0.61 49 13:52 19.06.2022
1452 Clouds 9 1026 48 10000 0.44 213 12:22 19.06.2022
1453 Clouds 9 1026 51 10000 0.36 33 10:53 19.06.2022
1454 Clouds 10 1026 51 10000 0.04 25 09:21 19.06.2022
1455 Clouds 10 1026 46 10000 0.1 277 08:32 19.06.2022
1456 Clouds 10 1026 45 10000 0.13 239 07:26 19.06.2022
1457 Clouds 12 1025 48 10000 0.25 74 04:27 19.06.2022
1458 Clouds 13 1024 47 10000 1 314 01:28 19.06.2022
1459 Haze 13 1020 43 4000 0 0 00:23 19.06.2022
1460 Haze 14 1020 38 4000 1.54 220 23:35 18.06.2022
1461 Haze 15 1020 34 5000 0 0 22:33 18.06.2022
1462 Haze 12 1020 44 5000 2.57 210 20:54 18.06.2022
1463 Haze 12 1020 44 5000 2.57 210 20:24 18.06.2022
1464 Clouds 10 1017 51 7000 1.54 200 19:21 18.06.2022
1465 Clouds 9 1018 53 7000 0 0 18:42 18.06.2022
1466 Clouds 9 1018 53 7000 0 0 17:29 18.06.2022
1467 Clouds 8 1019 53 7000 0 0 16:18 18.06.2022
1468 Clouds 8 1025 49 10000 1 73 15:18 18.06.2022
1469 Haze 2 1019 77 5000 0 0 14:41 18.06.2022
1470 Clouds 8 1018 49 10000 1.11 96 12:46 18.06.2022
1471 Clouds 9 1017 48 10000 0.87 59 11:29 18.06.2022
1472 Clouds 10 1026 54 10000 0.72 71 10:23 18.06.2022
1473 Clouds 10 1027 50 10000 0.83 73 09:19 18.06.2022
1474 Clouds 10 1027 49 10000 0.45 64 07:58 18.06.2022
1475 Clouds 9 1027 47 10000 0.49 101 06:24 18.06.2022
1476 Clouds 10 1028 49 10000 1.29 85 02:53 18.06.2022
1477 Clouds 12 1024 46 10000 0.77 89 01:23 18.06.2022
1478 Clouds 13 1023 47 7000 0 0 00:39 18.06.2022
1479 Clouds 15 1021 40 6000 0.51 0 23:42 17.06.2022
1480 Haze 15 1021 39 5000 1.54 0 22:49 17.06.2022
1481 Clouds 13 1026 46 6000 2.06 230 20:33 17.06.2022
1482 Clouds 12 1027 48 6000 1.54 0 19:24 17.06.2022
1483 Clouds 11 1025 55 6000 1.54 0 18:24 17.06.2022
1484 Clouds 10 1028 57 6000 1.03 240 17:22 17.06.2022
1485 Haze 8 1028 60 5000 1.03 220 16:37 17.06.2022
1486 Haze 8 1027 57 5000 0 0 15:41 17.06.2022
1487 Clouds 2 1025 79 6000 1.54 20 14:37 17.06.2022
1488 Clouds 4 1029 70 6000 1.54 20 14:18 17.06.2022
1489 Clouds 6 1033 56 10000 1.13 96 13:41 17.06.2022
1490 Clouds 6 1033 58 10000 1.21 108 12:42 17.06.2022
1491 Clouds 6 1034 61 10000 0.93 101 11:56 17.06.2022
1492 Clouds 6 1033 61 10000 0.93 101 11:34 17.06.2022
1493 Clouds 7 1034 61 10000 1.37 53 09:49 17.06.2022
1494 Clouds 7 1034 62 10000 0.86 204 08:27 17.06.2022
1495 Clouds 9 1034 62 10000 0.33 226 06:51 17.06.2022
1496 Clouds 9 1034 61 10000 0.78 215 04:49 17.06.2022
1497 Clouds 10 1033 58 10000 1.19 225 02:41 17.06.2022
1498 Clouds 11 1027 58 6000 1.03 180 00:26 17.06.2022
1499 Haze 13 1026 54 5000 1.54 0 22:43 16.06.2022
1500 Haze 13 1027 55 5000 0.51 0 21:23 16.06.2022
1501 Haze 13 1027 55 5000 1.54 290 20:56 16.06.2022
1502 Haze 12 1027 55 5000 1.54 290 20:36 16.06.2022
1503 Haze 12 1027 55 5000 1.54 290 20:36 16.06.2022
1504 Haze 12 1026 62 5000 1.54 320 19:53 16.06.2022
1505 Haze 12 1027 66 5000 2.06 300 18:27 16.06.2022
1506 Haze 10 1027 71 5000 1.03 0 17:43 16.06.2022
1507 Haze 11 1028 70 5000 0 0 16:39 16.06.2022
1508 Haze 9 1027 75 5000 0 0 15:22 16.06.2022
1509 Haze 9 1027 76 4000 0 0 14:46 16.06.2022
1510 Clouds 9 1029 68 10000 0.63 194 13:32 16.06.2022
1511 Clouds 10 1029 70 10000 1.15 238 12:36 16.06.2022
1512 Clouds 9 1028 65 10000 0.69 261 11:52 16.06.2022
1513 Clouds 9 1028 62 10000 0.02 57 10:56 16.06.2022
1514 Clouds 9 1028 62 10000 0.59 234 10:27 16.06.2022
1515 Clouds 9 1028 62 10000 0.55 230 09:21 16.06.2022
1516 Clouds 9 1028 63 10000 0.55 230 08:30 16.06.2022
1517 Clouds 9 1028 63 10000 0.79 250 07:26 16.06.2022
1518 Clear 9 1027 66 10000 0.91 245 04:50 16.06.2022
1519 Clouds 11 1027 60 10000 1.11 229 02:21 16.06.2022
1520 Clouds 11 1027 60 10000 1.11 229 01:42 16.06.2022
1521 Clouds 12 1026 60 10000 1.68 228 01:21 16.06.2022
1522 Clouds 12 1026 60 10000 1.68 228 01:21 16.06.2022
1523 Haze 12 1022 54 5000 2.57 240 23:47 15.06.2022
1524 Haze 12 1022 54 5000 2.57 240 23:47 15.06.2022
1525 Haze 13 1022 50 5000 2.57 270 22:38 15.06.2022
1526 Haze 13 1021 53 5000 1.54 290 21:22 15.06.2022
1527 Haze 13 1022 53 5000 2.06 180 20:45 15.06.2022
1528 Haze 13 1022 55 5000 2.06 180 20:27 15.06.2022
1529 Haze 12 1022 57 5000 2.06 240 19:30 15.06.2022
1530 Haze 10 1023 62 5000 0 0 17:56 15.06.2022
1531 Haze 10 1023 60 5000 0 0 17:32 15.06.2022
1532 Clear 5 1023 71 6000 0.51 0 15:38 15.06.2022
1533 Clouds 4 1023 72 7000 0 0 14:23 15.06.2022
1534 Clouds 6 1027 58 10000 0.23 84 12:54 15.06.2022
1535 Clouds 6 1027 58 10000 0.15 209 12:28 15.06.2022
1536 Clouds 6 1026 60 10000 0.17 233 10:24 15.06.2022
1537 Clouds 7 1026 58 10000 0.17 233 09:45 15.06.2022
1538 Clouds 7 1026 60 10000 0.25 244 08:50 15.06.2022
1539 Clouds 8 1027 61 10000 0.3 247 06:36 15.06.2022
1540 Clouds 9 1027 66 10000 0.34 251 04:46 15.06.2022
1541 Clear 10 1026 61 10000 0.6 234 01:55 15.06.2022
1542 Haze 10 1023 69 4000 0 0 00:51 15.06.2022
1543 Haze 11 1019 58 3000 1.54 250 23:40 14.06.2022
1544 Haze 11 1019 58 3000 1.54 250 23:21 14.06.2022
1545 Haze 11 1019 58 3000 1.03 0 22:23 14.06.2022
1546 Haze 10 1019 61 3000 1.54 290 21:40 14.06.2022
1547 Haze 10 1019 61 2000 0 0 20:56 14.06.2022
1548 Haze 10 1019 61 2000 0 0 20:31 14.06.2022
1549 Haze 9 1023 71 1500 1.54 240 19:22 14.06.2022
1550 Haze 8 1024 75 1000 1.03 0 18:25 14.06.2022
1551 Mist 6 1021 84 1000 1.54 190 16:48 14.06.2022
1552 Mist 7 1024 79 1000 1.03 0 15:50 14.06.2022
1553 Mist 7 1024 80 1000 1.03 0 15:28 14.06.2022
1554 Fog 7 1024 81 800 0 0 14:40 14.06.2022
1555 Clouds 8 1026 72 10000 0.38 272 13:46 14.06.2022
1556 Clouds 8 1025 72 10000 0.82 280 12:48 14.06.2022
1557 Clouds 8 1025 73 10000 0.69 293 11:41 14.06.2022
1558 Clouds 8 1024 72 10000 0.32 291 10:49 14.06.2022
1559 Clouds 8 1024 72 10000 0.32 291 10:49 14.06.2022
1560 Clouds 8 1024 73 10000 0.66 259 10:24 14.06.2022
1561 Clouds 9 1025 74 10000 0.9 271 08:49 14.06.2022
1562 Clouds 9 1024 72 10000 0.7 260 07:50 14.06.2022
1563 Clouds 10 1023 66 10000 0.96 264 05:46 14.06.2022
1564 Clouds 11 1022 62 10000 0.77 274 03:20 14.06.2022
1565 Clouds 11 1022 62 10000 0.63 283 01:31 14.06.2022
1566 Haze 14 1018 47 5000 1.54 230 23:48 13.06.2022
1567 Haze 16 1017 45 4000 1.54 280 22:27 13.06.2022
1568 Haze 16 1017 44 4000 1.03 0 21:54 13.06.2022
1569 Haze 18 912 41 4000 3.09 240 20:43 13.06.2022
1570 Clouds 20 932 33 6000 1.54 230 19:39 13.06.2022
1571 Clouds 18 912 35 6000 1.03 0 18:36 13.06.2022
1572 Clouds 16 1017 33 6000 1.03 0 17:48 13.06.2022
1573 Clear 16 1019 25 10000 0 0 16:54 13.06.2022
1574 Clouds 2 1015 26 10000 0.47 52 15:53 13.06.2022
1575 Clouds 6 1015 58 10000 0.9 75 14:47 13.06.2022
1576 Clouds 6 1015 58 10000 1.31 74 13:59 13.06.2022
1577 Clouds 7 1015 58 10000 1.68 77 12:59 13.06.2022
1578 Clouds 10 1015 58 10000 1.48 71 11:45 13.06.2022
1579 Clouds 11 1015 59 10000 1.44 77 10:34 13.06.2022
1580 Clouds 11 1015 59 10000 1.27 74 09:42 13.06.2022
1581 Clear 11 1015 59 10000 1 76 08:27 13.06.2022
1582 Clear 12 1016 58 10000 0.91 79 06:34 13.06.2022
1583 Clear 10 1017 61 10000 0.61 98 04:23 13.06.2022
1584 Clear 14 1021 50 10000 0.76 87 01:44 13.06.2022
1585 Clear 14 1022 53 10000 0.44 193 01:18 13.06.2022
1586 Haze 20 1018 34 5000 1.03 0 23:37 12.06.2022
1587 Haze 21 915 31 4000 0 0 22:29 12.06.2022
1588 Haze 20 915 32 4000 1.03 0 21:41 12.06.2022
1589 Haze 20 916 35 4000 1.54 250 20:49 12.06.2022
1590 Haze 19 858 38 4000 1.03 270 19:43 12.06.2022
1591 Haze 17 858 41 5000 2.06 230 18:46 12.06.2022
1592 Haze 16 858 50 5000 0 0 17:20 12.06.2022
1593 Clear 2 1018 21 10000 0.34 215 15:34 12.06.2022
1594 Clear 9 1018 55 10000 1.51 74 14:48 12.06.2022
1595 Clouds 6 1018 52 10000 1.95 76 14:18 12.06.2022
1596 Clouds 9 1018 51 10000 1.98 75 13:43 12.06.2022
1597 Clouds 11 1023 39 10000 1.92 79 11:58 12.06.2022
1598 Clouds 10 1017 51 10000 1.86 82 10:46 12.06.2022
1599 Clouds 10 1017 50 10000 2 74 09:36 12.06.2022
1600 Clouds 11 1017 51 10000 2.02 80 08:49 12.06.2022
1601 Clouds 7 1018 52 10000 1.37 83 07:49 12.06.2022
1602 Clouds 12 1024 40 10000 1.46 85 06:21 12.06.2022
1603 Clear 13 1024 42 10000 1.2 83 03:38 12.06.2022
1604 Clear 15 1024 41 10000 0.39 115 01:49 12.06.2022
1605 Clear 16 1023 40 10000 0.84 101 01:23 12.06.2022
1606 Clear 17 1020 38 7000 0 0 00:43 12.06.2022
1607 Clear 18 1020 37 7000 0 0 00:18 12.06.2022
1608 Clear 21 916 29 7000 2.57 260 22:58 11.06.2022
1609 Clear 21 916 28 7000 2.57 260 22:31 11.06.2022
1610 Clear 22 914 25 7000 2.57 250 21:18 11.06.2022
1611 Clear 21 915 27 10000 0 0 20:26 11.06.2022
1612 Clear 20 916 29 10000 1.54 250 19:33 11.06.2022
1613 Clear 20 917 29 10000 1.54 240 18:42 11.06.2022
1614 Clear 19 915 29 10000 1.54 240 18:24 11.06.2022
1615 Clear 18 858 32 10000 0 0 17:38 11.06.2022
1616 Clear 19 917 30 10000 0 0 17:19 11.06.2022
1617 Clear 18 905 37 10000 0 0 16:42 11.06.2022
1618 Clear 20 849 35 10000 0.73 116 15:47 11.06.2022
1619 Clear 7 1018 53 10000 1.54 50 14:23 11.06.2022
1620 Clear 6 1018 47 10000 3.34 73 13:47 11.06.2022
1621 Clear 14 1020 28 10000 2.98 77 11:46 11.06.2022
1622 Clear 11 1018 31 10000 2.89 77 10:30 11.06.2022
1623 Clear 11 1018 30 10000 2.93 74 09:40 11.06.2022
1624 Clear 13 1021 30 10000 2.75 75 08:21 11.06.2022
1625 Clear 13 1018 29 10000 2.38 79 06:32 11.06.2022
1626 Clear 14 1020 32 10000 2.38 77 05:26 11.06.2022
1627 Clear 15 1022 39 10000 2.38 76 02:42 11.06.2022
1628 Clouds 15 1022 39 10000 1.97 91 01:41 11.06.2022
1629 Clouds 18 1019 34 8000 1.03 100 00:37 11.06.2022
1630 Clear 21 915 28 10000 1.03 190 22:55 10.06.2022
1631 Clear 22 915 27 10000 1.03 190 22:20 10.06.2022
1632 Clear 22 936 26 10000 1.54 0 21:22 10.06.2022
1633 Clear 21 934 27 10000 1.54 0 20:36 10.06.2022
1634 Clear 21 934 26 10000 1.54 0 20:18 10.06.2022
1635 Clear 20 935 28 10000 0 0 19:19 10.06.2022
1636 Clear 20 927 33 10000 1.03 0 18:20 10.06.2022
1637 Clear 19 932 33 10000 0 0 17:41 10.06.2022
1638 Clear 17 932 36 10000 0 0 16:59 10.06.2022
1639 Clear 13 1019 37 10000 0 0 16:23 10.06.2022
1640 Clouds 13 1018 21 10000 1.19 79 15:37 10.06.2022
1641 Clouds 9 1019 56 10000 2.29 75 13:55 10.06.2022
1642 Clouds 6 1018 55 10000 2.21 78 12:48 10.06.2022
1643 Clouds 7 1018 56 10000 2.22 79 11:41 10.06.2022
1644 Clouds 6 1018 56 10000 2.08 82 10:45 10.06.2022
1645 Clouds 7 1019 55 10000 2.09 78 09:48 10.06.2022
1646 Clouds 9 1019 55 10000 2.16 76 08:33 10.06.2022
1647 Clouds 9 1020 56 10000 2.31 77 07:24 10.06.2022
1648 Clouds 9 1020 56 10000 2.31 77 06:43 10.06.2022
1649 Clouds 9 1020 56 10000 1.87 78 06:25 10.06.2022
1650 Clouds 10 1021 56 10000 1.65 91 03:55 10.06.2022
1651 Clouds 12 1028 64 10000 1.26 96 01:41 10.06.2022
1652 Haze 14 1025 61 4000 0 0 00:32 10.06.2022
1653 Haze 15 1025 58 4000 0 0 23:38 09.06.2022
1654 Haze 16 1025 56 4000 2.06 250 22:18 09.06.2022
1655 Haze 15 1022 52 4000 1.54 270 21:33 09.06.2022
1656 Haze 17 860 46 5000 2.06 260 20:54 09.06.2022
1657 Haze 14 1022 51 5000 2.06 260 20:21 09.06.2022
1658 Haze 13 1023 58 5000 1.54 0 19:19 09.06.2022
1659 Haze 10 1023 70 5000 1.03 310 18:28 09.06.2022
1660 Haze 7 1024 78 3000 1.54 230 16:51 09.06.2022
1661 Clear 7 1023 59 10000 0.38 180 15:48 09.06.2022
1662 Mist 3 1024 90 2000 0 0 14:35 09.06.2022
1663 Clouds 5 1023 49 10000 1.72 83 13:54 09.06.2022
1664 Clouds 11 1023 61 10000 1.3 89 13:28 09.06.2022
1665 Clouds 9 1031 65 10000 0.97 93 11:54 09.06.2022
1666 Clouds 4 1022 53 10000 1.78 64 11:18 09.06.2022
1667 Clouds 8 1031 67 10000 1.08 70 09:44 09.06.2022
1668 Clouds 9 1031 67 10000 0.53 109 09:23 09.06.2022
1669 Clouds 10 1030 65 10000 0.33 137 07:45 09.06.2022
1670 Clouds 10 1030 65 10000 0.33 137 07:45 09.06.2022
1671 Clouds 10 1030 68 10000 0.43 219 06:33 09.06.2022
1672 Clear 12 1028 64 10000 0.74 222 02:52 09.06.2022
1673 Haze 15 1024 56 5000 1.54 220 23:39 08.06.2022
1674 Haze 15 1023 51 5000 1.54 270 22:58 08.06.2022
1675 Haze 16 1023 48 5000 1.54 270 22:27 08.06.2022
1676 Clouds 16 1023 48 6000 2.57 240 21:54 08.06.2022
1677 Clouds 16 1024 47 6000 2.57 240 21:21 08.06.2022
1678 Clouds 16 1024 49 6000 2.06 0 20:20 08.06.2022
1679 Haze 16 1023 50 5000 2.06 240 19:38 08.06.2022
1680 Haze 14 1024 54 5000 0 0 18:43 08.06.2022
1681 Clear 12 1025 58 6000 0 0 17:18 08.06.2022
1682 Clear 9 1025 75 10000 0 0 15:44 08.06.2022
1683 Clouds 8 1028 59 10000 0.65 90 13:51 08.06.2022
1684 Clouds 9 1026 58 10000 0.95 64 12:20 08.06.2022
1685 Clouds 10 1026 60 10000 0.95 64 11:33 08.06.2022
1686 Clouds 11 1025 59 10000 0.54 70 09:59 08.06.2022
1687 Clouds 10 1025 57 10000 0.5 52 09:21 08.06.2022
1688 Clouds 10 1025 58 10000 1.14 66 08:26 08.06.2022
1689 Clear 11 1025 61 10000 0.42 69 05:51 08.06.2022
1690 Clear 12 1024 67 10000 0.46 96 03:55 08.06.2022
1691 Clear 15 1019 55 7000 1.54 210 00:38 08.06.2022
1692 Haze 18 1018 52 5000 1.03 250 23:28 07.06.2022
1693 Haze 18 1018 47 5000 1.03 300 22:45 07.06.2022
1694 Haze 18 1018 48 5000 1.03 300 22:23 07.06.2022
1695 Haze 17 1018 49 4000 2.06 220 21:33 07.06.2022
1696 Haze 17 1018 50 5000 1.54 150 20:58 07.06.2022
1697 Haze 17 1018 49 5000 1.54 150 20:32 07.06.2022
1698 Clouds 15 1016 46 10000 1.87 245 19:38 07.06.2022
1699 Clear 15 1020 52 10000 1.54 220 18:23 07.06.2022
1700 Clear 13 1021 58 10000 0 0 17:26 07.06.2022
1701 Clear 10 1018 65 10000 0 0 16:43 07.06.2022
1702 Clouds 6 1017 77 10000 1.03 350 15:47 07.06.2022
1703 Clouds 8 1021 69 10000 1.03 350 15:26 07.06.2022
1704 Clouds 8 1021 69 10000 1.03 350 15:26 07.06.2022
1705 Clouds 10 1017 56 10000 0.42 97 14:47 07.06.2022
1706 Clouds 9 1023 58 10000 0.71 94 14:29 07.06.2022
1707 Clouds 7 1017 57 10000 0.84 91 13:30 07.06.2022
1708 Clouds 7 1016 58 10000 1.19 72 12:45 07.06.2022
1709 Clouds 7 1016 57 10000 1.36 74 11:47 07.06.2022
1710 Clouds 7 1016 55 10000 1.6 73 10:26 07.06.2022
1711 Clouds 11 1017 56 10000 1.87 69 08:49 07.06.2022
1712 Clouds 9 1017 55 10000 1.74 74 07:33 07.06.2022
1713 Clear 11 1025 56 10000 1.74 77 05:58 07.06.2022
1714 Clear 13 1025 56 10000 1.36 81 03:31 07.06.2022
1715 Clear 13 1025 56 10000 1.36 81 03:31 07.06.2022
1716 Clear 16 1022 49 10000 0 0 00:45 07.06.2022
1717 Clear 18 1021 42 10000 1.54 250 23:41 06.06.2022
1718 Clear 19 1021 38 10000 1.54 230 22:47 06.06.2022
1719 Clear 19 869 41 10000 1.65 238 21:56 06.06.2022
1720 Clear 19 869 39 10000 1.83 241 20:42 06.06.2022
1721 Clear 18 916 42 10000 1.54 220 19:24 06.06.2022
1722 Clear 17 859 44 10000 1.54 260 18:47 06.06.2022
1723 Clear 14 1024 49 10000 1.54 210 17:55 06.06.2022
1724 Clear 11 1022 58 10000 0 0 16:55 06.06.2022
1725 Clear 5 1022 75 10000 1.54 10 15:45 06.06.2022
1726 Clear 8 1018 68 10000 0 0 14:59 06.06.2022
1727 Clear 9 1028 58 10000 2.93 75 13:43 06.06.2022
1728 Clear 9 1022 63 10000 2.82 76 13:20 06.06.2022
1729 Clear 9 1029 58 10000 2.82 76 12:34 06.06.2022
1730 Clear 9 1028 56 10000 2.68 79 11:47 06.06.2022
1731 Clear 9 1023 61 10000 2.4 78 09:53 06.06.2022
1732 Clear 10 1023 62 10000 2.24 79 08:57 06.06.2022
1733 Clear 9 1024 63 10000 2.06 79 08:28 06.06.2022
1734 Clear 10 1023 63 10000 1.57 88 07:19 06.06.2022
1735 Clear 12 1023 60 10000 1.1 101 04:39 06.06.2022
1736 Clouds 13 1022 53 10000 1.18 102 01:57 06.06.2022
1737 Clear 15 1022 46 10000 1.03 0 00:57 06.06.2022
1738 Clear 15 1021 44 10000 1.03 0 00:34 06.06.2022
1739 Clear 16 1023 40 10000 3.09 240 23:20 05.06.2022
1740 Clouds 17 1023 34 10000 2.06 220 22:26 05.06.2022
1741 Clouds 17 1022 36 10000 2.57 170 20:29 05.06.2022
1742 Clouds 16 1023 39 10000 1.54 170 19:26 05.06.2022
1743 Clouds 16 1024 40 10000 3.09 260 18:20 05.06.2022
1744 Clouds 16 1024 40 10000 1.03 290 17:39 05.06.2022
1745 Clouds 15 1021 42 10000 1.03 290 17:21 05.06.2022
1746 Clouds 14 1024 53 10000 1.03 0 16:47 05.06.2022
1747 Clouds 13 1021 59 10000 1.54 190 15:41 05.06.2022
1748 Rain 12 1022 66 10000 2.06 120 14:21 05.06.2022
1749 Rain 11 1020 70 10000 1.08 68 12:23 05.06.2022
1750 Clouds 12 1019 69 10000 0.56 99 10:51 05.06.2022
1751 Clouds 12 1018 71 10000 1.33 247 10:24 05.06.2022
1752 Clouds 12 1018 72 10000 1.33 247 09:44 05.06.2022
1753 Clouds 12 1019 73 10000 0.18 279 08:25 05.06.2022
1754 Clouds 12 1018 70 10000 0.53 347 06:47 05.06.2022
1755 Clouds 13 1017 69 10000 0.72 77 05:20 05.06.2022
1756 Clouds 14 1016 56 10000 0.57 239 02:57 05.06.2022
1757 Clouds 15 1016 54 10000 0.31 156 01:24 05.06.2022
1758 Clouds 15 1016 54 10000 0.31 156 01:24 05.06.2022
1759 Rain 14 1015 70 10000 3.09 80 23:43 04.06.2022
1760 Clouds 15 1014 60 10000 1.03 10 21:31 04.06.2022
1761 Clouds 15 1015 69 10000 1.54 0 19:46 04.06.2022
1762 Clouds 13 1019 70 10000 2.57 250 17:28 04.06.2022
1763 Clouds 13 1015 73 10000 1.03 350 16:22 04.06.2022
1764 Clouds 12 1013 73 10000 2.06 20 15:51 04.06.2022
1765 Clouds 11 1015 77 10000 1.54 340 14:22 04.06.2022
1766 Clouds 11 1013 76 10000 2.14 72 11:45 04.06.2022
1767 Rain 10 1015 80 10000 2.03 60 10:56 04.06.2022
1768 Clouds 10 1016 81 10000 1.93 60 10:20 04.06.2022
1769 Rain 10 1015 79 10000 1.93 60 09:41 04.06.2022
1770 Clouds 10 1015 79 10000 1.96 87 08:40 04.06.2022
1771 Rain 11 1015 78 10000 2.17 91 07:27 04.06.2022
1772 Clouds 11 1017 80 6190 1.44 64 04:33 04.06.2022
1773 Clouds 11 1017 80 6190 1.44 64 04:33 04.06.2022
1774 Clouds 11 1017 80 6190 1.44 64 04:33 04.06.2022
1775 Rain 9 1015 89 6000 1.54 50 00:37 04.06.2022
1776 Rain 11 1018 81 7000 1.54 180 23:31 03.06.2022
1777 Clouds 10 1017 81 8000 0 0 22:28 03.06.2022
1778 Clouds 10 1019 81 4000 2.57 150 20:42 03.06.2022
1779 Clouds 10 1019 81 4000 2.57 150 20:42 03.06.2022
1780 Rain 10 1018 80 4000 2.57 150 20:18 03.06.2022
1781 Rain 13 1017 54 10000 1.54 170 17:32 03.06.2022
1782 Rain 12 1017 56 10000 1.03 170 16:34 03.06.2022
1783 Clouds 11 1016 64 10000 1.03 150 14:52 03.06.2022
1784 Rain 11 1016 61 10000 1.23 38 12:52 03.06.2022
1785 Clouds 10 1015 66 10000 0.71 16 10:36 03.06.2022
1786 Clouds 10 1015 67 10000 0.76 319 09:30 03.06.2022
1787 Clouds 10 1016 68 10000 0.49 43 07:54 03.06.2022
1788 Clouds 10 1017 69 10000 0.19 76 07:20 03.06.2022
1789 Clouds 10 1016 68 10000 0.19 76 06:30 03.06.2022
1790 Clouds 11 1017 67 10000 0.54 55 04:40 03.06.2022
1791 Haze 11 1018 63 5000 1.03 350 00:22 03.06.2022
1792 Haze 13 1018 57 5000 1.54 210 22:35 02.06.2022
1793 Haze 13 1019 56 5000 0 0 21:29 02.06.2022
1794 Haze 12 1022 63 5000 2.06 220 20:22 02.06.2022
1795 Clouds 12 1023 61 6000 1.54 300 19:41 02.06.2022
1796 Clouds 12 1023 61 6000 1.54 300 19:41 02.06.2022
1797 Clouds 12 1023 63 6000 1.54 300 19:19 02.06.2022
1798 Haze 10 1021 70 4000 1.03 270 16:46 02.06.2022
1799 Haze 9 1024 75 4000 1.03 270 16:20 02.06.2022
1800 Clouds 8 1022 78 10000 0.73 158 13:47 02.06.2022
1801 Clouds 8 1022 75 10000 0.74 226 13:26 02.06.2022
1802 Clouds 9 1021 78 6310 1.2 248 11:22 02.06.2022
1803 Clouds 8 1021 78 5965 0.89 258 10:19 02.06.2022
1804 Clouds 8 1022 77 4380 0.53 227 09:27 02.06.2022
1805 Rain 8 1021 77 5211 0.99 210 08:26 02.06.2022
1806 Rain 8 1020 74 2910 1.21 236 06:59 02.06.2022
1807 Rain 8 1021 62 10000 1.21 239 04:40 02.06.2022
1808 Clouds 10 1019 55 10000 1.57 233 02:30 02.06.2022
1809 Clouds 11 1018 48 7000 2.57 240 23:43 01.06.2022
1810 Clouds 11 1018 48 7000 2.57 240 23:43 01.06.2022
1811 Clouds 11 1018 48 7000 2.57 240 23:43 01.06.2022
1812 Clouds 11 1018 48 7000 2.57 240 23:43 01.06.2022
1813 Clouds 11 1018 48 7000 2.57 240 23:43 01.06.2022
1814 Clouds 11 1018 48 7000 2.57 240 23:43 01.06.2022
1815 Clouds 13 1017 42 6000 2.57 260 22:23 01.06.2022
1816 Haze 12 1020 44 5000 2.57 240 21:32 01.06.2022
1817 Haze 12 1020 43 5000 2.06 0 20:40 01.06.2022
1818 Haze 11 1021 44 5000 2.43 248 19:53 01.06.2022
1819 Haze 10 1022 45 5000 1.54 270 18:58 01.06.2022
1820 Haze 7 1019 50 5000 1.03 280 17:44 01.06.2022
1821 Clouds 7 1019 52 7000 0 0 16:33 01.06.2022
1822 Clouds 1 1018 72 10000 0 0 14:52 01.06.2022
1823 Clouds 7 1018 45 10000 1.67 61 13:45 01.06.2022
1824 Clear 2 1017 44 10000 1.56 74 12:25 01.06.2022
1825 Clear 6 1025 48 10000 1.36 75 09:40 01.06.2022
1826 Clear 6 1026 47 10000 0.98 68 08:38 01.06.2022
1827 Clear 7 1025 46 10000 0.13 43 07:22 01.06.2022
1828 Clear 7 1026 47 10000 0.21 309 05:22 01.06.2022
1829 Clouds 12 1020 32 6000 1.03 240 00:20 01.06.2022
1830 Clouds 12 1019 30 6000 2.06 260 23:26 31.05.2022
1831 Clouds 14 1019 28 6000 3.09 250 22:36 31.05.2022
1832 Haze 13 1018 29 5000 2.57 240 21:45 31.05.2022
1833 Haze 13 1018 31 5000 1.54 0 20:45 31.05.2022
1834 Haze 13 1018 31 5000 1.54 0 20:45 31.05.2022
1835 Haze 12 1019 34 5000 2.06 240 19:57 31.05.2022
1836 Haze 11 1020 36 5000 1.03 0 18:50 31.05.2022
1837 Clouds 10 1020 39 6000 1.54 280 17:50 31.05.2022
1838 Clouds 8 1020 45 6000 0 0 16:53 31.05.2022
1839 Clouds 5 1020 53 10000 1.03 50 15:40 31.05.2022
1840 Clear 5 1023 48 10000 0.9 64 13:45 31.05.2022
1841 Clouds 5 1023 46 10000 0.77 81 12:20 31.05.2022
1842 Clouds 6 1023 44 10000 0.61 87 10:53 31.05.2022
1843 Clear 7 1023 44 10000 0.49 67 08:49 31.05.2022
1844 Clouds 7 1023 43 10000 0.61 79 07:24 31.05.2022
1845 Clouds 8 1024 42 10000 0.31 113 05:19 31.05.2022
1846 Clouds 13 1020 39 6000 1.03 0 00:36 31.05.2022
1847 Clear 14 1022 32 10000 2.06 226 23:26 30.05.2022
1848 Clear 15 1019 29 6000 3.09 240 22:53 30.05.2022
1849 Haze 15 1020 29 5000 2.06 230 21:52 30.05.2022
1850 Haze 15 1020 29 5000 2.06 230 21:32 30.05.2022
1851 Clear 14 1020 33 10000 1.03 170 19:57 30.05.2022
1852 Clear 12 1021 39 6000 2.06 210 18:39 30.05.2022
1853 Clear 10 1021 43 7000 0 0 17:35 30.05.2022
1854 Clear 9 1022 46 7000 0 0 16:41 30.05.2022
1855 Clear 7 1018 42 10000 1.03 40 14:35 30.05.2022
1856 Clear 5 1025 52 10000 0.81 88 12:24 30.05.2022
1857 Clear 6 1025 50 10000 1.25 88 10:41 30.05.2022
1858 Clear 6 1025 49 10000 0.91 92 09:21 30.05.2022
1859 Clear 7 1025 50 10000 0.84 98 07:18 30.05.2022
1860 Clear 8 1026 48 10000 0.84 108 05:48 30.05.2022
1861 Clouds 11 1024 44 10000 0.9 203 01:42 30.05.2022
1862 Haze 14 1020 34 5000 3.09 250 22:57 29.05.2022
1863 Haze 14 1020 35 5000 3.09 250 22:36 29.05.2022
1864 Haze 14 1020 34 4000 0 0 20:54 29.05.2022
1865 Haze 13 1020 45 4000 2.06 0 19:32 29.05.2022
1866 Haze 12 1020 52 5000 2.06 230 18:53 29.05.2022
1867 Haze 10 1021 57 5000 0 0 17:31 29.05.2022
1868 Haze 7 1021 72 5000 0 0 15:48 29.05.2022
1869 Mist 6 1021 72 4000 0 0 14:58 29.05.2022
1870 Clouds 8 1024 51 10000 0.16 341 13:53 29.05.2022
1871 Clouds 7 1025 52 10000 0.21 53 11:42 29.05.2022
1872 Clouds 8 1023 51 10000 0.19 8 10:39 29.05.2022
1873 Clouds 8 1024 50 10000 0.16 115 09:18 29.05.2022
1874 Clouds 9 1024 64 10000 0.68 231 06:18 29.05.2022
1875 Clouds 10 1024 61 10000 0.87 235 04:45 29.05.2022
1876 Clouds 11 1024 55 10000 1.15 242 03:53 29.05.2022
1877 Haze 12 1020 54 1300 1.54 260 23:50 28.05.2022
1878 Haze 12 1020 58 1300 1.54 260 23:26 28.05.2022
1879 Haze 12 1019 62 1300 0 0 22:39 28.05.2022
1880 Haze 12 1019 62 1500 0 0 21:38 28.05.2022
1881 Haze 13 1019 65 2000 1.03 20 19:49 28.05.2022
1882 Haze 13 1019 67 2000 0 0 18:54 28.05.2022
1883 Haze 11 1019 68 2000 0 0 17:37 28.05.2022
1884 Haze 11 1019 72 2000 1.54 180 16:43 28.05.2022
1885 Mist 10 1020 75 3000 0 0 15:43 28.05.2022
1886 Haze 9 1019 77 3000 0 0 14:26 28.05.2022
1887 Clouds 11 1021 58 10000 0.44 309 12:57 28.05.2022
1888 Clouds 11 1021 54 10000 0.44 309 12:35 28.05.2022
1889 Clouds 11 1021 62 10000 0.57 260 11:22 28.05.2022
1890 Clouds 11 1022 58 10000 0.42 276 09:59 28.05.2022
1891 Clouds 11 1021 57 10000 0.45 287 09:21 28.05.2022
1892 Clouds 11 1023 61 10000 0.08 311 07:23 28.05.2022
1893 Clouds 11 1023 59 10000 0.65 261 05:36 28.05.2022
1894 Clouds 12 1024 64 10000 0.29 288 02:52 28.05.2022
1895 Haze 12 1020 66 3000 1.03 30 00:33 28.05.2022
1896 Haze 13 1019 62 4000 1.54 350 23:20 27.05.2022
1897 Haze 13 1020 58 3000 1.03 0 21:46 27.05.2022
1898 Haze 13 1020 58 4000 1.03 180 20:56 27.05.2022
1899 Haze 13 1020 58 4000 1.03 180 20:25 27.05.2022
1900 Haze 13 1021 61 4000 1.03 330 19:43 27.05.2022
1901 Haze 13 1021 62 4000 1.03 330 19:24 27.05.2022
1902 Haze 9 1019 71 3000 1.03 0 17:58 27.05.2022
1903 Haze 11 1022 72 3000 0 0 16:39 27.05.2022
1904 Haze 7 1019 84 4000 0 0 15:33 27.05.2022
1905 Haze 9 1022 74 4000 0 0 14:26 27.05.2022
1906 Clouds 11 1025 64 10000 0.33 49 13:18 27.05.2022
1907 Clouds 11 1025 68 10000 0.29 21 11:34 27.05.2022
1908 Clouds 11 1026 67 10000 0.39 48 10:57 27.05.2022
1909 Clouds 10 1026 63 10000 0.39 48 10:31 27.05.2022
1910 Clouds 10 1025 61 10000 0.22 14 09:37 27.05.2022
1911 Clouds 11 1026 64 10000 0.3 349 07:55 27.05.2022
1912 Clouds 11 1027 62 10000 0.08 347 05:47 27.05.2022
1913 Clouds 13 1026 60 10000 0.3 269 02:47 27.05.2022
1914 Haze 14 1022 63 4000 0 0 00:29 27.05.2022
1915 Haze 15 1021 62 4000 3.09 230 22:43 26.05.2022
1916 Haze 17 1020 55 4000 2.57 230 21:40 26.05.2022
1917 Haze 17 1020 54 5000 2.06 220 20:59 26.05.2022
1918 Clouds 17 1021 52 10000 1.68 258 19:24 26.05.2022
1919 Clouds 17 1021 52 10000 1.68 258 19:24 26.05.2022
1920 Clouds 16 1020 53 6000 0.51 20 18:18 26.05.2022
1921 Clouds 11 1018 62 8000 0 0 16:42 26.05.2022
1922 Clouds 7 1018 76 8000 1.03 20 15:46 26.05.2022
1923 Clouds 6 1018 80 7000 1.54 20 14:46 26.05.2022
1924 Clouds 11 1023 53 10000 0.36 72 12:50 26.05.2022
1925 Clouds 11 1023 56 10000 0.39 72 11:29 26.05.2022
1926 Clouds 11 1022 53 10000 0.43 82 10:19 26.05.2022
1927 Clouds 11 1023 54 10000 0.43 82 09:33 26.05.2022
1928 Clouds 11 1023 59 10000 0.22 53 08:35 26.05.2022
1929 Clouds 13 1024 58 10000 0.07 15 05:22 26.05.2022
1930 Clear 18 1021 52 10000 0 0 00:57 26.05.2022
1931 Clouds 19 1020 42 10000 1.54 0 23:40 25.05.2022
1932 Clear 20 873 40 10000 1.54 0 22:22 25.05.2022
1933 Clouds 20 874 42 8000 2.57 0 21:33 25.05.2022
1934 Haze 19 874 46 5000 2.06 190 20:38 25.05.2022
1935 Haze 19 874 47 5000 1.54 210 19:29 25.05.2022
1936 Clouds 16 1021 58 6000 0 0 17:43 25.05.2022
1937 Clouds 14 1022 59 10000 0 0 16:38 25.05.2022
1938 Clouds 13 1023 63 10000 0 0 15:54 25.05.2022
1939 Clouds 11 1023 65 10000 0 0 14:54 25.05.2022
1940 Clouds 12 1023 67 10000 0 0 14:33 25.05.2022
1941 Clouds 12 1025 57 10000 0.65 28 13:56 25.05.2022
1942 Clouds 12 1025 58 10000 0.44 50 12:39 25.05.2022
1943 Clouds 13 1025 55 10000 0.11 91 10:49 25.05.2022
1944 Clouds 13 1025 55 10000 0.37 70 10:18 25.05.2022
1945 Clouds 14 1026 54 10000 0.37 252 08:41 25.05.2022
1946 Clouds 14 1026 57 10000 0.26 342 07:23 25.05.2022
1947 Clouds 15 1026 60 10000 0.9 263 04:23 25.05.2022
1948 Clouds 17 1023 54 8000 1.03 0 00:23 25.05.2022
1949 Clouds 17 1022 53 6000 0 0 23:47 24.05.2022
1950 Clouds 18 1022 49 8000 0.51 0 22:33 24.05.2022
1951 Clouds 18 1021 46 8000 1.03 0 21:41 24.05.2022
1952 Clouds 19 875 44 8000 1.03 0 21:21 24.05.2022
1953 Clouds 19 875 45 10000 1.54 0 20:23 24.05.2022
1954 Clouds 18 875 46 10000 0 0 18:56 24.05.2022
1955 Clouds 14 1023 61 10000 1.03 80 16:58 24.05.2022
1956 Clouds 14 1023 62 10000 1.03 80 16:28 24.05.2022
1957 Clouds 14 1020 61 10000 1.03 250 15:18 24.05.2022
1958 Clouds 12 1022 64 10000 0 0 14:25 24.05.2022
1959 Clouds 13 1025 61 10000 0.3 63 13:18 24.05.2022
1960 Clouds 13 1024 56 10000 0.19 306 11:49 24.05.2022
1961 Clouds 13 1024 55 10000 0.96 40 09:47 24.05.2022
1962 Clouds 14 1024 58 10000 0.17 76 08:51 24.05.2022
1963 Clouds 14 1024 54 10000 0.59 303 06:58 24.05.2022
1964 Clouds 14 1025 56 10000 0.43 293 04:59 24.05.2022
1965 Clouds 15 1025 48 10000 0.65 269 02:42 24.05.2022
1966 Clouds 16 1024 49 10000 0.47 295 01:43 24.05.2022
1967 Clouds 16 1021 46 10000 0.51 0 23:43 23.05.2022
1968 Clouds 17 1018 39 8000 1.03 0 21:59 23.05.2022
1969 Clouds 18 1018 38 8000 1.03 0 21:41 23.05.2022
1970 Clouds 18 1018 36 8000 1.54 180 20:45 23.05.2022
1971 Clouds 18 1018 36 8000 2.06 210 19:41 23.05.2022
1972 Clouds 18 1018 38 10000 1.02 267 19:00 23.05.2022
1973 Clouds 18 1019 40 8000 2.06 300 18:37 23.05.2022
1974 Clouds 16 1022 47 8000 1.03 0 17:55 23.05.2022
1975 Clouds 15 1019 51 10000 0.8 87 15:53 23.05.2022
1976 Clouds 14 1020 55 10000 0.55 73 13:44 23.05.2022
1977 Clouds 14 1020 55 10000 2.07 91 11:40 23.05.2022
1978 Clouds 14 1019 56 10000 0.88 130 10:44 23.05.2022
1979 Rain 14 1019 54 10000 0.88 80 09:45 23.05.2022
1980 Clouds 14 1019 55 10000 0.78 71 08:44 23.05.2022
1981 Clouds 15 1020 56 10000 0.95 173 06:48 23.05.2022
1982 Clouds 14 1022 57 10000 0.52 46 06:24 23.05.2022
1983 Clouds 16 1021 56 10000 0.81 207 02:55 23.05.2022
1984 Clouds 16 1023 54 10000 0.88 183 01:50 23.05.2022
1985 Clouds 16 1023 55 10000 0.9 221 01:23 23.05.2022
1986 Clouds 16 1024 49 6000 1.03 0 22:48 22.05.2022
1987 Clouds 17 1020 46 6000 1.03 0 22:22 22.05.2022
1988 Clouds 16 1026 49 8000 2.06 0 21:51 22.05.2022
1989 Clouds 17 1021 47 8000 1.03 0 20:43 22.05.2022
1990 Clouds 18 940 45 8000 1.03 0 20:20 22.05.2022
1991 Clouds 18 941 46 10000 5.66 250 18:58 22.05.2022
1992 Clouds 18 941 45 10000 5.66 250 18:37 22.05.2022
1993 Clouds 15 1027 49 10000 5.66 250 18:19 22.05.2022
1994 Clouds 14 1027 52 10000 0 0 16:51 22.05.2022
1995 Clouds 12 1027 52 10000 0 0 15:24 22.05.2022
1996 Clouds 11 1026 53 10000 2.06 50 14:44 22.05.2022
1997 Clouds 12 1028 47 10000 0.22 174 12:54 22.05.2022
1998 Clouds 12 1028 47 10000 0.22 174 12:31 22.05.2022
1999 Clouds 13 1027 47 10000 0.6 304 10:45 22.05.2022
2000 Clouds 13 1027 48 10000 0.23 29 09:29 22.05.2022
2001 Clouds 13 1027 44 10000 0.96 270 07:49 22.05.2022
2002 Clouds 13 1028 49 10000 0.33 347 07:20 22.05.2022
2003 Clouds 14 1027 51 10000 0.16 312 04:19 22.05.2022
2004 Clear 17 1025 49 10000 1.54 220 00:59 22.05.2022
2005 Clear 18 1024 44 10000 2.06 270 23:57 21.05.2022
2006 Clear 19 917 41 10000 2.06 270 23:29 21.05.2022
2007 Clear 19 916 40 10000 1.54 0 21:59 21.05.2022
2008 Clear 19 916 40 10000 1.54 0 21:38 21.05.2022
2009 Clear 19 859 42 10000 1.54 220 20:47 21.05.2022
2010 Clear 19 859 43 10000 2.06 210 19:55 21.05.2022
2011 Clear 19 859 45 10000 2.06 210 19:20 21.05.2022
2012 Clear 14 1023 57 10000 0.51 120 17:29 21.05.2022
2013 Clear 6 1022 72 10000 2.06 40 14:58 21.05.2022
2014 Clear 8 1026 67 10000 2.06 40 14:19 21.05.2022
2015 Clear 9 1029 57 10000 1.41 91 13:34 21.05.2022
2016 Clear 10 1029 59 10000 0.7 129 12:39 21.05.2022
2017 Clear 10 1029 59 10000 0.86 104 11:45 21.05.2022
2018 Clear 11 1028 59 10000 1.1 70 10:22 21.05.2022
2019 Clear 11 1028 60 10000 0.65 83 08:59 21.05.2022
2020 Clear 11 1029 61 10000 0.65 83 08:39 21.05.2022
2021 Clear 13 1028 64 10000 0.68 136 06:21 21.05.2022
2022 Clouds 14 1028 69 10000 0.6 176 01:59 21.05.2022
2023 Clouds 17 1025 57 10000 3.09 240 23:36 20.05.2022
2024 Clouds 18 1024 49 8000 2.06 230 22:40 20.05.2022
2025 Clouds 18 1024 47 8000 2.06 230 22:18 20.05.2022
2026 Clouds 18 1024 44 8000 2.57 210 21:19 20.05.2022
2027 Clouds 18 1024 46 7000 2.57 210 20:47 20.05.2022
2028 Clouds 17 1025 47 8000 2.06 230 19:47 20.05.2022
2029 Haze 16 1025 51 5000 1.54 190 18:53 20.05.2022
2030 Haze 15 1026 52 5000 1.54 190 18:23 20.05.2022
2031 Clouds 13 1026 63 7000 1.03 300 16:27 20.05.2022
2032 Rain 13 1025 62 7000 0.51 310 15:54 20.05.2022
2033 Rain 12 1025 64 7000 0.51 310 15:20 20.05.2022
2034 Clouds 12 1025 65 7000 1.03 150 14:27 20.05.2022
2035 Clouds 13 1027 56 10000 0.44 308 12:37 20.05.2022
2036 Rain 13 1027 54 10000 0.57 317 10:47 20.05.2022
2037 Rain 13 1026 53 10000 0.73 295 09:27 20.05.2022
2038 Clouds 13 1026 54 10000 0.63 295 08:24 20.05.2022
2039 Clouds 14 1026 53 10000 0.67 288 06:42 20.05.2022
2040 Clouds 14 1026 52 10000 0.62 314 05:40 20.05.2022
2041 Clouds 14 1026 57 10000 0.93 296 02:41 20.05.2022
2042 Clouds 16 1025 45 10000 1.69 239 23:47 19.05.2022
2043 Clouds 17 1022 43 7000 1.54 210 22:36 19.05.2022
2044 Clouds 17 1023 45 7000 1.54 230 21:50 19.05.2022
2045 Clouds 17 1023 46 7000 1.54 230 21:24 19.05.2022
2046 Clouds 16 1023 48 6000 2.06 210 20:47 19.05.2022
2047 Clouds 15 1024 53 6000 1.54 240 19:54 19.05.2022
2048 Clouds 15 1019 45 10000 2.64 252 19:00 19.05.2022
2049 Haze 12 1021 65 5000 2.06 230 17:44 19.05.2022
2050 Mist 7 1020 84 3000 1.54 210 15:51 19.05.2022
2051 Haze 8 1018 76 4000 1.54 310 14:47 19.05.2022
2052 Haze 7 1018 76 4000 1.54 310 14:20 19.05.2022
2053 Clouds 11 1024 66 10000 0.94 24 11:55 19.05.2022
2054 Clouds 13 1023 62 10000 0.86 110 10:31 19.05.2022
2055 Clouds 12 1024 61 10000 1.75 54 08:44 19.05.2022
2056 Clouds 12 1026 67 10000 1.43 261 07:18 19.05.2022
2057 Clouds 13 1024 58 10000 0.49 158 03:52 19.05.2022
2058 Haze 17 1018 46 4000 1.03 290 00:58 19.05.2022
2059 Haze 20 915 41 3000 1.03 250 23:40 18.05.2022
2060 Haze 21 912 35 4000 2.06 250 22:43 18.05.2022
2061 Haze 22 914 34 4000 2.06 230 21:45 18.05.2022
2062 Haze 22 912 34 4000 2.06 230 21:23 18.05.2022
2063 Haze 21 1014 30 4000 0 0 20:21 18.05.2022
2064 Haze 19 857 36 5000 1.54 200 18:56 18.05.2022
2065 Clear 18 795 40 6000 1.03 270 17:57 18.05.2022
2066 Clear 18 946 40 6000 1.03 270 17:36 18.05.2022
2067 Clear 18 795 40 6000 1.03 270 17:18 18.05.2022
2068 Clear 21 573 41 10000 0.29 245 15:58 18.05.2022
2069 Clear 21 875 41 10000 0.29 245 15:35 18.05.2022
2070 Clear 2 1017 20 10000 1.9 81 14:21 18.05.2022
2071 Clear 9 1016 52 10000 1.9 81 12:55 18.05.2022
2072 Clear 12 1016 20 10000 1.65 79 12:25 18.05.2022
2073 Clear 10 1016 51 10000 1.65 79 11:33 18.05.2022
2074 Clear 9 1016 51 10000 1.79 79 10:48 18.05.2022
2075 Clear 11 1017 50 10000 1.31 87 08:25 18.05.2022
2076 Clear 9 1017 51 10000 1.24 71 07:27 18.05.2022
2077 Clear 10 1017 48 10000 1.68 83 03:59 18.05.2022
2078 Haze 18 873 48 4000 1.03 0 00:51 18.05.2022
2079 Haze 20 876 40 4000 1.54 260 23:41 17.05.2022
2080 Haze 22 876 33 4000 1.54 210 21:23 17.05.2022
2081 Haze 21 876 34 4000 2.06 270 20:44 17.05.2022
2082 Haze 21 795 34 5000 1.54 270 19:45 17.05.2022
2083 Haze 20 946 34 5000 1.54 270 19:24 17.05.2022
2084 Clear 19 930 34 8000 1.54 0 17:49 17.05.2022
2085 Clear 18 864 38 10000 0 0 16:57 17.05.2022
2086 Clear 21 940 38 10000 0.87 218 15:59 17.05.2022
2087 Clear 20 1009 40 10000 1.02 80 14:56 17.05.2022
2088 Clear 15 1018 18 10000 1.84 74 14:29 17.05.2022
2089 Clear 9 1018 50 10000 2.22 77 13:24 17.05.2022
2090 Clear 10 1018 52 10000 1.69 87 10:42 17.05.2022
2091 Clear 12 1018 51 10000 1.35 89 08:53 17.05.2022
2092 Clear 9 1018 52 10000 1.58 93 07:56 17.05.2022
2093 Clear 13 1018 49 10000 1.89 83 06:26 17.05.2022
2094 Clear 15 1024 50 10000 0.71 166 01:34 17.05.2022
2095 Haze 19 974 42 5000 2.06 270 23:59 16.05.2022
2096 Haze 20 874 37 5000 2.57 250 22:40 16.05.2022
2097 Haze 20 874 36 5000 2.06 260 21:31 16.05.2022
2098 Haze 20 874 35 5000 2.06 250 20:43 16.05.2022
2099 Clear 19 892 36 10000 1.03 270 18:53 16.05.2022
2100 Clear 17 947 38 10000 1.03 200 17:26 16.05.2022
2101 Clear 18 573 41 10000 0.89 236 15:36 16.05.2022
2102 Clear 11 1018 48 10000 1.55 84 13:48 16.05.2022
2103 Clouds 11 1010 48 10000 1.15 86 12:44 16.05.2022
2104 Clouds 11 1011 50 10000 1.28 77 10:38 16.05.2022
2105 Clear 13 1017 41 10000 0.77 94 08:32 16.05.2022
2106 Clouds 14 1018 40 10000 0.81 105 06:30 16.05.2022
2107 Clouds 18 804 41 10000 0.45 214 01:44 16.05.2022
2108 Clouds 22 935 26 8000 2.06 220 22:52 15.05.2022
2109 Clouds 22 971 25 8000 2.06 220 22:25 15.05.2022
2110 Clouds 22 872 27 8000 2.57 240 21:38 15.05.2022
2111 Clouds 23 927 28 7000 2.06 230 20:53 15.05.2022
2112 Clear 20 946 34 10000 1.03 0 18:53 15.05.2022
2113 Clear 19 795 36 10000 1.03 0 17:45 15.05.2022
2114 Clear 9 1016 57 10000 1.03 50 15:26 15.05.2022
2115 Clouds 15 1008 46 10000 1.97 69 13:47 15.05.2022
2116 Clear 7 1016 51 10000 1.55 76 12:21 15.05.2022
2117 Clear 13 1008 46 10000 1.56 70 11:29 15.05.2022
2118 Clear 13 1008 46 10000 1.61 71 10:20 15.05.2022
2119 Clouds 14 1008 48 10000 1.11 69 07:36 15.05.2022
2120 Clouds 15 1009 48 10000 0.77 79 06:57 15.05.2022
2121 Clouds 13 1023 50 10000 0.28 38 04:26 15.05.2022
2122 Haze 17 1019 49 4000 0 0 00:47 15.05.2022
2123 Haze 18 1019 46 4000 1.54 300 23:38 14.05.2022
2124 Haze 19 873 45 5000 1.54 0 22:41 14.05.2022
2125 Haze 19 873 44 3000 1.54 190 21:27 14.05.2022
2126 Haze 19 872 43 3000 1.54 10 20:30 14.05.2022
2127 Haze 18 873 45 4000 2.57 0 19:21 14.05.2022
2128 Clouds 18 803 46 10000 1.06 228 18:59 14.05.2022
2129 Haze 17 936 47 5000 0 0 17:53 14.05.2022
2130 Clouds 13 1020 60 6000 0 0 16:23 14.05.2022
2131 Clouds 8 1017 74 6000 0 0 14:50 14.05.2022
2132 Clouds 9 1017 67 6000 0 0 14:26 14.05.2022
2133 Clouds 9 1015 52 10000 0.44 76 11:51 14.05.2022
2134 Clouds 12 1022 57 10000 0.56 71 10:45 14.05.2022
2135 Clouds 11 1015 52 10000 0.88 74 10:19 14.05.2022
2136 Clouds 11 1015 52 10000 0.88 74 09:46 14.05.2022
2137 Clouds 12 1022 58 10000 0.46 95 07:59 14.05.2022
2138 Clear 14 1022 58 10000 0.76 78 05:21 14.05.2022
2139 Clear 15 1022 55 10000 0.63 234 01:57 14.05.2022
2140 Clear 20 971 42 7000 1.54 220 23:28 13.05.2022
2141 Haze 20 873 41 4000 2.57 210 22:56 13.05.2022
2142 Haze 20 971 42 4000 2.57 210 22:22 13.05.2022
2143 Haze 20 872 41 4000 2.06 240 21:24 13.05.2022
2144 Haze 19 971 41 4000 2.06 0 20:43 13.05.2022
2145 Haze 19 873 42 4000 2.06 0 20:22 13.05.2022
2146 Haze 19 972 44 4000 0 0 19:19 13.05.2022
2147 Haze 18 796 48 4000 2.06 240 17:50 13.05.2022
2148 Haze 16 1018 51 4000 2.06 240 17:24 13.05.2022
2149 Haze 10 1018 73 4000 0 0 15:53 13.05.2022
2150 Haze 9 1017 75 5000 0 0 14:47 13.05.2022
2151 Clouds 12 1022 63 10000 0.23 130 12:54 13.05.2022
2152 Clouds 12 1022 62 10000 0.27 216 12:25 13.05.2022
2153 Clouds 12 1022 70 10000 0.27 198 10:35 13.05.2022
2154 Clouds 13 1022 62 10000 0.14 78 09:29 13.05.2022
2155 Clouds 14 1021 60 10000 0.53 261 08:20 13.05.2022
2156 Clouds 14 1021 60 10000 0.53 261 07:30 13.05.2022
2157 Clouds 15 1022 62 10000 0.93 215 05:46 13.05.2022
2158 Clouds 16 1022 62 10000 0.98 224 01:48 13.05.2022
2159 Haze 17 1018 60 3000 2.06 240 23:43 12.05.2022
2160 Haze 17 1018 56 3000 2.06 220 22:42 12.05.2022
2161 Haze 18 1018 51 3000 0 0 21:36 12.05.2022
2162 Haze 19 876 48 3000 1.54 210 20:22 12.05.2022
2163 Haze 17 1020 57 3000 0 0 18:30 12.05.2022
2164 Haze 15 1019 60 4000 1.54 310 16:52 12.05.2022
2165 Haze 14 1018 64 4500 0 0 15:30 12.05.2022
2166 Clouds 15 1020 56 10000 0.78 273 13:58 12.05.2022
2167 Clouds 14 1021 60 10000 0.53 306 13:21 12.05.2022
2168 Clouds 15 1020 57 10000 0.59 296 10:35 12.05.2022
2169 Clouds 15 1020 58 10000 0.43 260 08:58 12.05.2022
2170 Clouds 15 1021 59 10000 0.43 260 08:39 12.05.2022
2171 Clouds 15 1021 58 10000 0.64 271 07:36 12.05.2022
2172 Clouds 16 1021 61 10000 0.63 245 05:30 12.05.2022
2173 Clouds 19 952 50 10000 0.36 273 02:21 12.05.2022
2174 Haze 20 875 46 4000 1.03 270 23:55 11.05.2022
2175 Haze 20 972 42 4000 1.03 270 22:29 11.05.2022
2176 Haze 20 972 41 4000 1.03 180 21:29 11.05.2022
2177 Haze 21 875 40 4000 1.03 240 20:48 11.05.2022
2178 Clouds 20 796 43 6000 1.03 180 17:54 11.05.2022
2179 Clouds 19 796 42 7000 1.54 240 16:49 11.05.2022
2180 Clouds 21 875 42 10000 0.34 275 14:50 11.05.2022
2181 Clouds 15 1016 53 10000 0.27 57 14:26 11.05.2022
2182 Clouds 15 1016 52 10000 0.27 57 13:44 11.05.2022
2183 Clouds 15 1015 52 10000 0.66 62 11:50 11.05.2022
2184 Clouds 15 1021 52 10000 0.37 23 09:39 11.05.2022
2185 Clouds 16 1022 54 10000 0.51 55 07:52 11.05.2022
2186 Rain 19 764 42 10000 0.31 321 04:43 11.05.2022
2187 Haze 21 873 41 4000 2.57 240 23:48 10.05.2022
2188 Haze 22 872 36 4000 2.07 240 22:30 10.05.2022
2189 Clouds 22 971 34 6000 2.57 230 21:43 10.05.2022
2190 Haze 22 872 33 4000 2.06 250 20:48 10.05.2022
2191 Clouds 21 972 35 6000 2.06 240 19:25 10.05.2022
2192 Clouds 19 795 43 8000 1.03 0 17:44 10.05.2022
2193 Clear 17 796 45 10000 1.03 0 16:39 10.05.2022
2194 Clouds 12 1016 52 10000 1.01 73 13:54 10.05.2022
2195 Clouds 12 1017 52 10000 0.37 169 12:36 10.05.2022
2196 Clouds 13 1016 51 10000 0.79 70 11:49 10.05.2022
2197 Clouds 13 1016 50 10000 0.38 116 11:18 10.05.2022
2198 Clouds 13 1016 53 10000 0.28 84 09:52 10.05.2022
2199 Clouds 13 1017 53 10000 0.4 94 09:18 10.05.2022
2200 Clouds 13 1017 50 10000 0.44 83 06:35 10.05.2022
2201 Clouds 16 1017 45 10000 0.17 171 02:48 10.05.2022
2202 Haze 19 973 45 5000 0 0 00:23 10.05.2022
2203 Haze 20 874 40 5000 1.03 0 22:42 09.05.2022
2204 Haze 19 973 40 5000 0 0 21:48 09.05.2022
2205 Haze 19 875 42 5000 2.06 270 20:22 09.05.2022
2206 Haze 17 948 48 5000 1.54 210 18:35 09.05.2022
2207 Haze 13 1021 57 5000 0 0 17:33 09.05.2022
2208 Clear 12 1020 50 10000 1.27 237 16:21 09.05.2022
2209 Haze 9 1021 74 5000 2.06 340 15:47 09.05.2022
2210 Haze 6 1022 89 5000 0 0 14:46 09.05.2022
2211 Clouds 12 1021 54 10000 0.13 273 13:59 09.05.2022
2212 Clouds 12 1021 52 10000 0.13 273 13:32 09.05.2022
2213 Clouds 10 1028 68 10000 0.37 96 11:54 09.05.2022
2214 Clouds 10 1027 68 10000 0.29 45 10:50 09.05.2022
2215 Clouds 13 1020 52 10000 1.48 233 10:29 09.05.2022
2216 Clouds 12 1028 67 10000 1.38 235 07:57 09.05.2022
2217 Clouds 12 1029 69 10000 0.57 74 06:42 09.05.2022
2218 Clouds 13 1029 67 10000 1.13 243 02:37 09.05.2022
2219 Clouds 13 1029 67 10000 1.13 243 02:37 09.05.2022
2220 Clouds 13 1029 67 10000 1.13 243 02:37 09.05.2022
2221 Clouds 13 1029 67 10000 1.13 243 02:37 09.05.2022
2222 Mist 11 1023 73 4000 1.54 210 23:29 08.05.2022
2223 Mist 11 1023 79 4000 1.54 230 22:47 08.05.2022
2224 Mist 11 1022 74 4500 0 0 21:47 08.05.2022
2225 Mist 11 1022 79 4000 0 0 20:31 08.05.2022
2226 Mist 11 1022 79 4000 2.06 240 19:37 08.05.2022
2227 Mist 10 1022 84 4000 0 0 18:49 08.05.2022
2228 Fog 10 1023 89 800 0 0 17:52 08.05.2022
2229 Drizzle 11 1026 83 700 0 0 16:30 08.05.2022
2230 Fog 11 1026 84 800 1.54 240 15:25 08.05.2022
2231 Fog 10 1026 81 800 0 0 14:23 08.05.2022
2232 Clouds 12 1026 75 10000 0.55 277 11:53 08.05.2022
2233 Clouds 12 1026 75 10000 0.48 249 10:27 08.05.2022
2234 Clouds 13 1026 68 10000 0.48 249 09:55 08.05.2022
2235 Clouds 12 1026 69 10000 0.75 259 08:37 08.05.2022
2236 Clouds 13 1026 67 10000 0.91 252 06:31 08.05.2022
2237 Clouds 14 1022 59 10000 1.19 224 03:23 08.05.2022
2238 Clear 16 1020 53 10000 0.99 237 01:25 08.05.2022
2239 Haze 20 1017 37 5000 1.54 240 00:20 08.05.2022
2240 Clear 21 1016 32 7000 1.31 234 23:41 07.05.2022
2241 Haze 22 1016 32 5000 1.03 300 22:46 07.05.2022
2242 Haze 22 1015 30 5000 1.54 0 21:57 07.05.2022
2243 Haze 22 1015 30 5000 1.54 0 21:31 07.05.2022
2244 Haze 21 1015 35 5000 1.54 240 20:25 07.05.2022
2245 Haze 18 1017 39 5000 2.06 230 18:59 07.05.2022
2246 Clear 14 1017 49 10000 2.06 230 16:51 07.05.2022
2247 Clear 10 1016 61 10000 0 0 15:18 07.05.2022
2248 Clear 13 1015 52 10000 1.16 62 12:23 07.05.2022
2249 Clear 14 1015 51 10000 0.71 75 10:18 07.05.2022
2250 Clear 12 1016 50 10000 0.64 111 08:34 07.05.2022
2251 Clear 12 1016 49 10000 0.28 69 07:37 07.05.2022
2252 Clear 13 1017 50 10000 0.41 81 06:42 07.05.2022
2253 Clear 19 697 43 10000 0.58 186 04:21 07.05.2022
2254 Clear 21 914 38 10000 0 0 00:49 07.05.2022
2255 Clear 22 913 30 7000 2.06 0 22:41 06.05.2022
2256 Clear 22 913 31 7000 2.06 0 22:21 06.05.2022
2257 Haze 23 1017 29 5000 1.54 0 21:32 06.05.2022
2258 Clear 21 796 39 7000 2.06 250 19:49 06.05.2022
2259 Clear 21 796 39 7000 2.06 250 19:27 06.05.2022
2260 Clear 20 796 39 10000 1.03 0 18:43 06.05.2022
2261 Clear 18 858 45 10000 1.54 200 17:37 06.05.2022
2262 Clear 18 697 41 10000 1.12 244 15:54 06.05.2022
2263 Clear 17 697 48 10000 1.12 244 15:30 06.05.2022
2264 Clear 9 1018 48 10000 0 0 14:22 06.05.2022
2265 Clouds 13 1017 60 10000 0.99 82 12:52 06.05.2022
2266 Clouds 13 1017 63 10000 0.99 92 11:58 06.05.2022
2267 Clouds 10 1017 62 10000 0.7 108 11:27 06.05.2022
2268 Clouds 13 1017 64 10000 0.73 91 09:48 06.05.2022
2269 Clear 13 1017 62 10000 0.67 74 09:18 06.05.2022
2270 Clear 14 1017 61 10000 0.73 100 07:55 06.05.2022
2271 Clear 14 1018 62 10000 0.45 158 06:27 06.05.2022
2272 Clear 14 1019 59 10000 0.5 199 03:44 06.05.2022
2273 Clear 12 1019 59 10000 0.54 198 02:38 06.05.2022
2274 Haze 18 796 54 3000 2.06 240 23:24 05.05.2022
2275 Clear 19 697 41 10000 2.63 240 21:51 05.05.2022
2276 Haze 18 892 52 3000 2.06 210 20:37 05.05.2022
2277 Clear 20 1018 32 10000 2.74 242 19:19 05.05.2022
2278 Clear 21 875 41 10000 1.88 246 16:42 05.05.2022
2279 Clear 11 1019 60 10000 1.5 243 15:31 05.05.2022
2280 Clouds 14 1017 60 10000 0.47 113 13:30 05.05.2022
2281 Clouds 14 1017 58 10000 0.47 113 12:56 05.05.2022
2282 Clouds 15 1017 56 10000 0.51 103 11:35 05.05.2022
2283 Clouds 12 1016 57 10000 0.44 101 09:41 05.05.2022
2284 Clouds 12 1016 57 10000 0.44 101 09:41 05.05.2022
2285 Clouds 14 1022 56 10000 0.55 93 08:40 05.05.2022
2286 Clouds 15 1022 50 10000 0.25 254 06:28 05.05.2022
2287 Clouds 19 803 45 10000 1.2 241 02:25 05.05.2022
2288 Clouds 20 803 43 10000 1.02 240 01:41 05.05.2022
2289 Clouds 21 971 39 7000 1.54 200 00:49 05.05.2022
2290 Clear 23 872 34 10000 3.09 220 23:18 04.05.2022
2291 Clouds 25 1016 23 7000 2.57 0 21:59 04.05.2022
2292 Clouds 26 1016 23 7000 2.57 0 21:34 04.05.2022
2293 Clouds 25 1016 21 7000 2.57 240 20:52 04.05.2022
2294 Clouds 25 1016 22 7000 2.57 240 20:18 04.05.2022
2295 Haze 24 1015 26 5000 2.57 200 19:35 04.05.2022
2296 Clouds 23 1017 27 6000 2.57 240 18:42 04.05.2022
2297 Clouds 23 1015 25 6000 2.57 240 18:18 04.05.2022
2298 Clear 19 1015 30 10000 0 0 16:36 04.05.2022
2299 Clear 12 1015 52 10000 0 0 15:32 04.05.2022
2300 Clouds 6 1014 16 10000 0.98 63 14:38 04.05.2022
2301 Clouds 11 1014 46 10000 1.33 78 14:19 04.05.2022
2302 Clouds 11 1013 46 10000 1.27 83 12:36 04.05.2022
2303 Clouds 11 1012 47 10000 0.98 49 11:28 04.05.2022
2304 Clouds 12 1012 45 10000 1 45 09:57 04.05.2022
2305 Clouds 15 1018 39 10000 1.18 56 09:20 04.05.2022
2306 Clouds 14 1012 43 10000 0.79 67 07:33 04.05.2022
2307 Clouds 17 1019 40 10000 0.75 107 04:45 04.05.2022
2308 Clouds 18 1019 40 10000 0.53 125 02:33 04.05.2022
2309 Clear 25 1016 20 7000 1.03 210 22:59 03.05.2022
2310 Clear 24 1017 23 7000 1.03 350 21:50 03.05.2022
2311 Clear 24 1017 23 7000 1.03 350 21:23 03.05.2022
2312 Clear 24 1016 22 7000 1.54 230 20:39 03.05.2022
2313 Clear 23 1017 27 8000 1.54 0 19:32 03.05.2022
2314 Clear 21 1018 30 8000 1.54 230 18:43 03.05.2022
2315 Clear 20 859 37 9000 1.54 190 17:21 03.05.2022
2316 Clear 15 858 52 10000 0 0 15:51 03.05.2022
2317 Clear 9 1017 47 10000 0.94 89 14:23 03.05.2022
2318 Clear 9 1017 49 10000 1.35 89 12:35 03.05.2022
2319 Clear 10 1017 48 10000 0.55 82 11:35 03.05.2022
2320 Clear 10 1017 48 10000 0.79 76 10:26 03.05.2022
2321 Clear 13 1024 47 10000 0.49 127 08:19 03.05.2022
2322 Clear 13 1024 47 10000 0.51 127 08:19 03.05.2022
2323 Clear 14 1024 45 10000 0.93 113 06:45 03.05.2022
2324 Clear 16 1024 49 10000 0.45 140 02:39 03.05.2022
2325 Clear 20 915 35 7000 1.54 230 23:19 02.05.2022
2326 Clear 21 915 36 7000 1.03 330 22:28 02.05.2022
2327 Clear 21 915 36 6000 1.54 270 21:37 02.05.2022
2328 Clear 19 915 42 7000 1.54 320 19:26 02.05.2022
2329 Clear 18 917 46 8000 1.03 170 18:26 02.05.2022
2330 Clear 17 859 47 8000 1.54 150 17:39 02.05.2022
2331 Clear 14 1020 50 10000 0.51 0 16:42 02.05.2022
2332 Clear 12 1023 61 10000 0 0 15:41 02.05.2022
2333 Clear 8 1019 74 10000 1.03 50 14:45 02.05.2022
2334 Clouds 12 1018 51 10000 0.35 122 13:42 02.05.2022
2335 Clouds 11 1024 60 10000 0.66 188 11:41 02.05.2022
2336 Clouds 12 1024 59 10000 0.72 204 09:42 02.05.2022
2337 Clouds 13 1023 62 10000 0.72 231 08:29 02.05.2022
2338 Clouds 13 1023 62 10000 0.16 177 06:53 02.05.2022
2339 Clear 16 1021 49 10000 1.35 231 00:46 02.05.2022
2340 Clear 17 1020 47 10000 2.33 230 00:22 02.05.2022
2341 Clear 20 912 37 8000 2.57 210 22:54 01.05.2022
2342 Clear 20 912 34 8000 2.06 210 21:43 01.05.2022
2343 Haze 20 912 36 5000 2.06 0 20:36 01.05.2022
2344 Clear 19 913 38 7000 2.06 280 19:22 01.05.2022
2345 Clear 19 913 41 7000 1.03 180 18:52 01.05.2022
2346 Clear 17 913 43 10000 0 0 17:49 01.05.2022
2347 Clear 14 1016 48 8000 0 0 16:37 01.05.2022
2348 Clear 10 1015 66 10000 0 0 15:51 01.05.2022
2349 Clear 8 1015 70 10000 1.54 50 14:45 01.05.2022
2350 Clear 11 1021 53 10000 0.3 100 12:40 01.05.2022
2351 Clear 12 1021 50 10000 0.29 207 10:22 01.05.2022
2352 Clear 13 1021 51 10000 0.16 97 08:50 01.05.2022
2353 Clear 13 1022 50 10000 0.2 170 06:50 01.05.2022
2354 Clear 16 1022 46 10000 0.5 258 02:31 01.05.2022
2355 Clear 21 913 32 7000 2.06 260 22:51 30.04.2022
2356 Haze 21 914 34 5000 2.06 270 21:33 30.04.2022
2357 Haze 20 914 37 5000 0 0 20:19 30.04.2022
2358 Clear 20 858 37 6000 1.54 0 19:25 30.04.2022
2359 Clear 18 858 46 8000 1.54 0 17:31 30.04.2022
2360 Clear 10 1018 70 10000 0 0 15:53 30.04.2022
2361 Clear 10 1018 71 10000 0 0 15:18 30.04.2022
2362 Clear 13 1017 52 10000 0.64 104 13:59 30.04.2022
2363 Clear 13 1024 57 10000 0.74 117 11:58 30.04.2022
2364 Clear 12 1024 56 10000 0.74 117 11:31 30.04.2022
2365 Clear 14 1016 50 10000 0.54 117 10:23 30.04.2022
2366 Clear 13 1024 62 10000 0.28 4 07:47 30.04.2022
2367 Clouds 14 1024 64 10000 0.64 211 04:58 30.04.2022
2368 Clouds 20 914 41 7000 2.57 180 00:25 30.04.2022
2369 Haze 23 913 33 5000 2.06 270 22:56 29.04.2022
2370 Haze 23 912 33 5000 2.06 270 22:21 29.04.2022
2371 Haze 25 1015 25 4000 1.54 210 21:26 29.04.2022
2372 Haze 23 1015 31 4000 1.54 0 20:24 29.04.2022
2373 Haze 21 1016 36 4000 0 0 19:28 29.04.2022
2374 Clear 18 857 48 8000 0 0 17:37 29.04.2022
2375 Clear 17 1017 49 10000 0 0 16:42 29.04.2022
2376 Fog 18 1016 41 2000 0.51 0 14:37 29.04.2022
2377 Clouds 18 1015 42 10000 1.14 90 13:51 29.04.2022
2378 Clouds 18 1015 42 10000 1.55 79 12:38 29.04.2022
2379 Clouds 18 1015 42 10000 1.96 81 10:44 29.04.2022
2380 Clouds 18 1016 43 10000 1.97 80 07:57 29.04.2022
2381 Clouds 19 1016 43 10000 1.79 78 07:26 29.04.2022
2382 Clouds 19 1017 43 10000 1.79 78 06:32 29.04.2022
2383 Clear 17 1020 52 10000 0.83 143 02:23 29.04.2022
2384 Clear 19 1018 46 10000 1.54 190 00:18 29.04.2022
2385 Clear 20 1017 41 10000 2.06 200 23:26 28.04.2022
2386 Clear 20 1018 42 10000 1.54 220 22:33 28.04.2022
2387 Haze 20 1017 42 5000 1.54 240 21:43 28.04.2022
2388 Haze 20 1017 43 5000 1.54 0 20:48 28.04.2022
2389 Clear 19 1018 44 10000 2.06 220 19:55 28.04.2022
2390 Clear 19 1018 44 10000 2.06 220 19:25 28.04.2022
2391 Clear 18 1018 48 10000 0 0 18:52 28.04.2022
2392 Clear 15 1019 60 10000 1.03 300 17:54 28.04.2022
2393 Haze 15 1020 63 4000 1.03 110 16:52 28.04.2022
2394 Haze 14 1021 63 4000 1.03 110 16:20 28.04.2022
2395 Mist 14 1021 69 2000 0 0 15:49 28.04.2022
2396 Mist 14 1021 69 2000 0 0 15:49 28.04.2022
2397 Mist 8 1021 81 2000 2.06 40 14:58 28.04.2022
2398 Clear 12 1019 57 10000 2.13 76 13:37 28.04.2022
2399 Clear 10 1028 72 10000 2.17 82 12:30 28.04.2022
2400 Clear 10 1028 72 10000 2.17 82 12:30 28.04.2022
2401 Clear 11 1027 71 10000 1.98 84 11:37 28.04.2022
2402 Clear 9 1027 72 10000 1.84 91 10:26 28.04.2022
2403 Clear 9 1027 72 10000 1.84 91 09:50 28.04.2022
2404 Clear 10 1029 73 10000 1.9 85 07:41 28.04.2022
2405 Clear 11 1029 74 10000 2.05 77 06:43 28.04.2022
2406 Clear 11 1028 74 10000 1.91 79 05:52 28.04.2022
2407 Clear 12 1028 74 10000 1.53 85 04:43 28.04.2022
2408 Clear 13 1027 72 10000 1.18 84 02:41 28.04.2022
2409 Clouds 13 1024 77 7000 2.06 210 23:32 27.04.2022
2410 Clouds 13 1024 72 7000 2.57 210 22:20 27.04.2022
2411 Clouds 13 1023 75 7000 3.09 230 21:43 27.04.2022
2412 Clouds 13 1023 73 7000 2.06 250 20:45 27.04.2022
2413 Clouds 15 1025 66 10000 3.03 240 19:55 27.04.2022
2414 Clouds 15 1025 67 10000 2.97 240 19:34 27.04.2022
2415 Haze 13 1023 76 5000 2.06 150 18:41 27.04.2022
2416 Haze 13 1023 78 5000 2.06 150 18:20 27.04.2022
2417 Clouds 14 1025 74 10000 1.05 261 16:18 27.04.2022
2418 Clouds 12 1025 78 10000 1.5 67 13:18 27.04.2022
2419 Clouds 13 1024 79 10000 0.82 61 11:25 27.04.2022
2420 Clouds 13 1024 78 10000 0.82 61 10:45 27.04.2022
2421 Clouds 14 1024 78 10000 0.59 26 08:28 27.04.2022
2422 Clouds 14 1025 79 10000 1.93 356 06:41 27.04.2022
2423 Rain 11 1019 92 1670 1.88 191 02:35 27.04.2022
2424 Rain 12 1017 91 791 4.54 247 01:23 27.04.2022
2425 Clouds 13 1018 81 4000 2.57 240 00:27 27.04.2022
2426 Clouds 16 1017 62 8000 4.12 300 23:24 26.04.2022
2427 Clouds 17 1015 57 7000 1.54 310 22:45 26.04.2022
2428 Clouds 17 1015 54 7000 1.54 310 22:19 26.04.2022
2429 Clouds 17 1015 53 7000 2.57 210 21:24 26.04.2022
2430 Clouds 18 1016 47 10000 5.14 290 20:38 26.04.2022
2431 Rain 18 1013 45 10000 4.63 300 19:45 26.04.2022
2432 Clouds 19 1015 44 10000 4.63 300 19:26 26.04.2022
2433 Clouds 18 1015 49 10000 2.06 0 18:39 26.04.2022
2434 Clouds 17 1016 56 10000 3.6 40 17:41 26.04.2022
2435 Clouds 14 1018 73 10000 0.51 90 15:41 26.04.2022
2436 Clouds 14 1019 78 10000 1.94 274 13:51 26.04.2022
2437 Clouds 14 1020 77 10000 1.72 295 12:57 26.04.2022
2438 Clouds 14 1019 77 10000 1.11 297 11:24 26.04.2022
2439 Clouds 14 1019 79 10000 1.11 297 10:30 26.04.2022
2440 Clouds 14 1019 75 10000 1.08 291 08:34 26.04.2022
2441 Clouds 15 1021 70 10000 0.83 269 04:59 26.04.2022
2442 Clouds 15 1021 73 10000 1.31 253 04:22 26.04.2022
2443 Clouds 18 1017 56 10000 2.57 190 00:51 26.04.2022
2444 Clouds 19 1017 52 10000 3.6 210 23:50 25.04.2022
2445 Clouds 21 1014 41 10000 2.06 300 21:53 25.04.2022
2446 Clouds 21 1014 40 10000 2.06 300 21:26 25.04.2022
2447 Clouds 21 1015 40 10000 2.57 0 19:53 25.04.2022
2448 Clouds 19 1017 46 10000 2.57 0 18:34 25.04.2022
2449 Clear 18 1019 50 10000 2.54 282 17:39 25.04.2022
2450 Clouds 16 1019 65 10000 0 0 16:35 25.04.2022
2451 Clouds 14 1020 71 10000 1.03 0 15:21 25.04.2022
2452 Clouds 12 1020 81 10000 1.03 20 14:32 25.04.2022
2453 Clouds 13 1021 70 10000 0.75 268 12:47 25.04.2022
2454 Clouds 14 1021 69 10000 0.7 349 10:42 25.04.2022
2455 Clouds 15 1021 69 10000 0.45 16 09:41 25.04.2022
2456 Rain 15 1021 67 10000 0.6 301 07:38 25.04.2022
2457 Rain 16 1021 64 10000 1.81 251 05:54 25.04.2022
2458 Clouds 17 1020 59 10000 1.77 241 01:28 25.04.2022
2459 Clouds 19 1018 55 10000 3.09 230 23:54 24.04.2022
2460 Clouds 19 1018 55 10000 3.09 230 23:54 24.04.2022
2461 Clouds 19 1018 51 10000 3.09 230 23:24 24.04.2022
2462 Clouds 20 1017 49 10000 3.6 240 22:39 24.04.2022
2463 Clouds 20 1017 47 10000 4.12 240 21:55 24.04.2022
2464 Clouds 20 1017 47 10000 4.12 240 21:21 24.04.2022
2465 Clouds 20 1017 44 10000 3.6 240 20:44 24.04.2022
2466 Clouds 20 1018 46 10000 2.57 230 19:57 24.04.2022
2467 Clear 19 1018 46 10000 2.06 250 18:37 24.04.2022
2468 Clear 18 1018 52 10000 2.06 230 17:42 24.04.2022
2469 Clear 18 1018 53 10000 2.06 230 17:20 24.04.2022
2470 Clear 17 1018 57 10000 0 0 16:51 24.04.2022
2471 Clear 17 1018 55 10000 0 0 16:23 24.04.2022
2472 Clear 14 1018 61 10000 1.54 150 15:39 24.04.2022
2473 Clear 12 1017 66 10000 1.54 30 14:31 24.04.2022
2474 Clear 13 1020 57 10000 0.55 308 13:26 24.04.2022
2475 Clear 13 1020 56 10000 0.55 308 12:46 24.04.2022
2476 Clear 14 1020 57 10000 0.69 341 11:46 24.04.2022
2477 Clear 14 1019 57 10000 0.58 354 10:37 24.04.2022
2478 Clear 14 1020 63 10000 0.55 348 09:42 24.04.2022
2479 Clouds 14 1020 64 10000 0.45 320 07:42 24.04.2022
2480 Clouds 16 1020 63 10000 0.52 321 05:38 24.04.2022
2481 Clouds 20 862 46 10000 0.65 241 01:51 24.04.2022
2482 Clear 21 912 42 10000 3.09 250 00:45 24.04.2022
2483 Clouds 21 911 38 8000 3.6 260 23:46 23.04.2022
2484 Clouds 22 911 38 8000 3.6 260 23:25 23.04.2022
2485 Clouds 22 912 35 8000 2.57 0 21:56 23.04.2022
2486 Clouds 22 912 35 8000 2.57 0 21:36 23.04.2022
2487 Clouds 21 914 39 6000 2.57 240 20:58 23.04.2022
2488 Haze 20 914 44 5000 3.09 230 19:55 23.04.2022
2489 Haze 20 856 43 5000 3.09 230 19:20 23.04.2022
2490 Clear 20 857 45 8000 2.06 230 18:53 23.04.2022
2491 Clear 19 913 48 8000 2.06 230 18:28 23.04.2022
2492 Clear 19 857 46 10000 2.06 0 17:43 23.04.2022
2493 Clear 18 857 49 10000 1.03 350 16:43 23.04.2022
2494 Clear 13 1019 67 10000 0 0 15:32 23.04.2022
2495 Clear 12 1022 59 10000 0.85 32 12:54 23.04.2022
2496 Clear 13 1021 57 10000 0.45 354 10:52 23.04.2022
2497 Clear 14 1021 57 10000 0.39 53 09:38 23.04.2022
2498 Clear 14 1022 61 10000 0.8 68 07:38 23.04.2022
2499 Clear 15 1022 63 10000 0.4 153 03:54 23.04.2022
2500 Clouds 18 1023 53 10000 0.56 194 01:32 23.04.2022
2501 Clouds 20 915 41 10000 3.09 230 23:32 22.04.2022
2502 Clouds 21 914 37 10000 3.09 240 22:28 22.04.2022
2503 Clouds 21 914 37 10000 2.06 200 21:44 22.04.2022
2504 Clouds 20 915 39 8000 1.54 20 20:55 22.04.2022
2505 Clouds 20 915 40 8000 1.54 20 20:28 22.04.2022
2506 Clouds 19 916 43 8000 2.06 190 19:22 22.04.2022
2507 Clouds 18 916 45 8000 2.06 200 18:46 22.04.2022
2508 Clouds 16 1023 53 8000 0 0 17:50 22.04.2022
2509 Clouds 16 1023 64 8000 0 0 16:52 22.04.2022
2510 Clouds 14 1024 68 10000 0 0 15:47 22.04.2022
2511 Rain 14 1023 70 10000 0 0 15:21 22.04.2022
2512 Rain 14 1026 67 10000 0.68 347 13:54 22.04.2022
2513 Clouds 13 1027 73 10000 1.75 28 12:59 22.04.2022
2514 Rain 14 1025 59 10000 2.64 54 12:28 22.04.2022
2515 Rain 14 1026 66 10000 1.25 101 11:22 22.04.2022
2516 Rain 14 1026 66 10000 1.25 101 10:51 22.04.2022
2517 Rain 14 1026 66 10000 1.25 101 10:31 22.04.2022
2518 Rain 15 1026 65 10000 1.07 166 09:53 22.04.2022
2519 Clouds 15 1025 65 10000 0.97 197 08:56 22.04.2022
2520 Clouds 15 1026 53 10000 0.82 291 07:44 22.04.2022
2521 Clouds 16 1027 52 10000 1.42 233 04:24 22.04.2022
2522 Haze 18 1024 52 5000 0 0 00:52 22.04.2022
2523 Clouds 19 917 47 8000 2.06 250 23:26 21.04.2022
2524 Clouds 20 917 45 8000 2.57 250 22:29 21.04.2022
2525 Rain 19 917 44 8000 1.54 270 20:46 21.04.2022
2526 Clouds 19 917 44 8000 1.54 270 20:26 21.04.2022
2527 Clouds 18 918 48 10000 1.54 210 18:47 21.04.2022
2528 Clouds 18 919 49 10000 1.54 210 18:19 21.04.2022
2529 Clouds 17 918 49 6000 1.03 110 16:47 21.04.2022
2530 Clouds 14 1025 54 10000 0 0 15:22 21.04.2022
2531 Clouds 14 1025 57 10000 0 0 14:50 21.04.2022
2532 Clouds 14 1027 51 10000 0.42 25 13:44 21.04.2022
2533 Clouds 13 1027 46 10000 0.52 39 13:18 21.04.2022
2534 Clear 13 1027 52 10000 0.42 46 11:19 21.04.2022
2535 Clear 13 1027 58 10000 0.17 25 08:57 21.04.2022
2536 Clear 14 1027 57 10000 0.38 71 07:55 21.04.2022
2537 Clear 14 1027 53 10000 0.38 233 06:21 21.04.2022
2538 Clear 16 1027 56 10000 0.14 191 03:35 21.04.2022
2539 Clear 17 1027 55 10000 1.07 235 02:48 21.04.2022
2540 Clouds 18 1026 50 10000 0.67 212 01:50 21.04.2022
2541 Clouds 20 917 40 8000 2.57 0 23:53 20.04.2022
2542 Clouds 20 916 39 8000 2.57 0 23:23 20.04.2022
2543 Clouds 21 916 36 7000 2.06 240 22:51 20.04.2022
2544 Clouds 21 916 36 7000 2.06 240 22:32 20.04.2022
2545 Clouds 21 916 37 7000 2.57 200 21:33 20.04.2022
2546 Clouds 20 917 41 6000 2.06 0 20:42 20.04.2022
2547 Clear 20 917 44 6000 1.54 180 19:53 20.04.2022
2548 Clear 19 917 45 6000 1.54 180 19:25 20.04.2022
2549 Clear 19 918 48 7000 2.57 240 18:26 20.04.2022
2550 Clear 16 1025 55 7000 1.03 0 16:57 20.04.2022
2551 Clear 16 1025 55 7000 1.03 0 16:38 20.04.2022
2552 Clear 11 1024 71 8000 1.54 30 14:48 20.04.2022
2553 Clouds 13 1026 59 10000 0.13 276 11:56 20.04.2022
2554 Clouds 13 1026 59 10000 0.27 316 11:29 20.04.2022
2555 Clouds 13 1026 64 10000 0.12 86 10:27 20.04.2022
2556 Clouds 13 1026 62 10000 0.39 127 09:26 20.04.2022
2557 Clouds 14 1026 57 10000 1.09 244 08:24 20.04.2022
2558 Clouds 14 1025 61 10000 1.13 242 07:42 20.04.2022
2559 Clouds 14 1025 61 10000 1.13 242 07:42 20.04.2022
2560 Clouds 15 1024 60 10000 0.73 268 04:37 20.04.2022
2561 Clouds 18 1021 48 7000 2.06 240 00:38 20.04.2022
2562 Clouds 19 915 45 7000 2.06 240 00:20 20.04.2022
2563 Clouds 21 913 38 8000 2.91 242 22:28 19.04.2022
2564 Clouds 21 913 39 7000 2.57 230 21:57 19.04.2022
2565 Clouds 21 913 39 7000 2.57 230 21:34 19.04.2022
2566 Haze 20 915 40 5000 1.54 270 20:50 19.04.2022
2567 Haze 20 915 40 5000 1.54 270 20:32 19.04.2022
2568 Clouds 19 914 41 8000 3.09 240 19:24 19.04.2022
2569 Clouds 17 914 48 8000 1.54 270 17:59 19.04.2022
2570 Clouds 17 858 50 10000 0 0 16:44 19.04.2022
2571 Clouds 15 1020 55 10000 0 0 16:24 19.04.2022
2572 Clouds 12 1020 61 10000 0 0 14:51 19.04.2022
2573 Clouds 12 1021 61 10000 0 0 14:31 19.04.2022
2574 Clouds 13 1023 50 10000 0.37 329 12:52 19.04.2022
2575 Clouds 13 1022 50 10000 0.47 261 12:26 19.04.2022
2576 Clouds 13 1022 48 10000 0.46 275 11:22 19.04.2022
2577 Clouds 13 1022 48 10000 0.26 256 09:25 19.04.2022
2578 Clouds 15 1022 51 10000 0.51 226 06:34 19.04.2022
2579 Clouds 15 1021 53 10000 1.02 246 04:19 19.04.2022
2580 Clouds 20 913 43 7000 1.54 230 00:56 19.04.2022
2581 Clear 21 913 40 10000 3.09 240 23:38 18.04.2022
2582 Clouds 22 912 35 7000 3.09 270 21:48 18.04.2022
2583 Clouds 22 912 35 7000 3.09 270 21:24 18.04.2022
2584 Clouds 21 862 37 10000 3.07 243 20:38 18.04.2022
2585 Haze 21 912 36 5000 2.57 250 19:59 18.04.2022
2586 Haze 21 912 36 5000 2.57 250 19:28 18.04.2022
2587 Clouds 20 857 39 8000 2.06 210 18:34 18.04.2022
2588 Clear 19 857 42 10000 1.54 0 17:39 18.04.2022
2589 Clear 19 857 42 10000 1.54 0 17:19 18.04.2022
2590 Clear 18 857 45 10000 1.54 240 16:35 18.04.2022
2591 Clear 18 857 45 10000 1.54 240 16:35 18.04.2022
2592 Clear 15 913 50 10000 0 0 15:28 18.04.2022
2593 Clear 5 1015 35 10000 0.22 82 13:44 18.04.2022
2594 Clear 5 1014 40 10000 0.35 47 12:40 18.04.2022
2595 Clear 12 1020 46 10000 0.37 62 11:43 18.04.2022
2596 Clear 12 1020 43 10000 0.14 130 10:43 18.04.2022
2597 Clear 14 1020 47 10000 0.11 110 09:31 18.04.2022
2598 Clear 14 1020 47 10000 0.11 110 09:31 18.04.2022
2599 Clear 8 1015 42 10000 0.22 51 08:29 18.04.2022
2600 Clear 14 1021 53 10000 0.2 223 06:25 18.04.2022
2601 Clear 19 864 47 10000 0.73 233 02:22 18.04.2022
2602 Clouds 22 913 36 8000 3.09 270 22:53 17.04.2022
2603 Clouds 22 1017 35 8000 3.09 270 22:31 17.04.2022
2604 Clouds 23 1017 30 8000 2.57 250 21:32 17.04.2022
2605 Clouds 22 1018 31 10000 3.2 244 20:50 17.04.2022
2606 Clear 22 1017 29 8000 1.54 230 19:55 17.04.2022
2607 Clear 21 857 36 10000 1.54 180 18:34 17.04.2022
2608 Clear 18 857 43 10000 0 0 16:44 17.04.2022
2609 Clear 18 697 43 10000 1.76 250 15:33 17.04.2022
2610 Clear 18 697 41 10000 0.67 228 14:38 17.04.2022
2611 Clear 13 1016 49 10000 0.86 94 13:23 17.04.2022
2612 Clear 10 1016 47 10000 0.86 94 12:30 17.04.2022
2613 Clear 11 1015 47 10000 0.52 97 10:48 17.04.2022
2614 Clear 11 1015 47 10000 0.65 74 10:29 17.04.2022
2615 Clear 11 1015 47 10000 0.65 74 09:50 17.04.2022
2616 Clear 13 1021 44 10000 0.65 100 08:58 17.04.2022
2617 Clear 12 1016 46 10000 0.35 111 08:27 17.04.2022
2618 Clear 15 1022 45 10000 0.51 197 05:20 17.04.2022
2619 Clear 19 864 42 10000 1.05 212 01:40 17.04.2022
2620 Clear 22 913 36 7000 2.57 230 23:59 16.04.2022
2621 Clear 22 913 34 6000 2.57 270 22:56 16.04.2022
2622 Clear 22 915 36 6000 2.06 240 21:44 16.04.2022
2623 Clear 21 697 38 10000 2.76 247 20:54 16.04.2022
2624 Clear 20 857 40 7000 2.06 260 19:21 16.04.2022
2625 Clear 19 857 45 6000 1.54 0 18:33 16.04.2022
2626 Clear 16 858 54 10000 1.54 210 16:44 16.04.2022
2627 Clear 15 858 64 10000 0 0 15:46 16.04.2022
2628 Clear 10 1017 58 10000 0.77 249 14:57 16.04.2022
2629 Clear 9 1017 57 10000 0.23 81 14:30 16.04.2022
2630 Clear 12 1017 59 10000 0.35 82 13:41 16.04.2022
2631 Clear 11 1024 62 10000 0.23 33 12:35 16.04.2022
2632 Clear 12 1016 53 10000 0.19 146 11:26 16.04.2022
2633 Clear 12 1016 53 10000 0.2 200 10:25 16.04.2022
2634 Clear 12 1016 53 10000 0.2 200 09:32 16.04.2022
2635 Clear 12 1024 63 10000 0.49 195 08:41 16.04.2022
2636 Clear 13 1024 66 10000 0.68 220 06:59 16.04.2022
2637 Clear 14 1024 66 10000 0.82 223 04:36 16.04.2022
2638 Clouds 15 1021 63 7000 2.06 220 00:40 16.04.2022
2639 Clouds 18 858 50 7000 2.57 250 23:40 15.04.2022
2640 Haze 18 858 50 5000 2.06 230 22:45 15.04.2022
2641 Haze 18 858 50 5000 2.06 230 22:27 15.04.2022
2642 Haze 18 857 50 5000 2.57 220 21:20 15.04.2022
2643 Clouds 19 697 41 10000 3.09 241 20:36 15.04.2022
2644 Haze 16 858 56 5000 2.06 270 19:43 15.04.2022
2645 Haze 16 858 59 4000 1.54 230 18:57 15.04.2022
2646 Haze 15 858 59 4000 1.54 230 18:26 15.04.2022
2647 Haze 15 858 59 4000 2.57 260 17:56 15.04.2022
2648 Haze 11 1019 79 4000 2.57 260 17:23 15.04.2022
2649 Haze 10 1019 84 4000 1.54 230 16:24 15.04.2022
2650 Mist 10 1018 84 4000 1.54 210 15:40 15.04.2022
2651 Clouds 13 1024 65 10000 0.6 235 13:55 15.04.2022
2652 Clouds 13 1023 65 10000 0.43 204 12:50 15.04.2022
2653 Clouds 13 1023 64 10000 0.7 234 12:21 15.04.2022
2654 Clouds 13 1023 67 10000 0.7 234 11:42 15.04.2022
2655 Clouds 13 1023 63 10000 0.67 213 10:46 15.04.2022
2656 Clouds 14 1022 66 10000 0.6 235 09:59 15.04.2022
2657 Clouds 14 1022 66 10000 0.78 252 09:22 15.04.2022
2658 Clouds 13 1023 63 10000 0.78 252 08:37 15.04.2022
2659 Clouds 14 1022 60 10000 1.1 235 06:47 15.04.2022
2660 Clouds 16 1020 53 10000 1.18 238 04:42 15.04.2022
2661 Clear 20 862 40 10000 1.51 230 00:34 15.04.2022
2662 Clear 22 910 32 8000 2.57 240 23:22 14.04.2022
2663 Clear 23 910 30 10000 3.09 230 22:45 14.04.2022
2664 Clear 24 1014 25 10000 3.09 230 22:26 14.04.2022
2665 Clear 24 1014 26 10000 3.09 220 21:47 14.04.2022
2666 Clear 22 913 31 7000 2.57 250 19:24 14.04.2022
2667 Clear 21 856 31 7000 2.06 200 18:53 14.04.2022
2668 Clear 20 856 33 8000 1.54 200 17:45 14.04.2022
2669 Clear 20 856 35 10000 0 0 16:51 14.04.2022
2670 Clear 17 856 43 10000 0 0 15:51 14.04.2022
2671 Clear 14 1013 37 10000 0.44 82 13:53 14.04.2022
2672 Clear 14 1013 37 10000 0.81 95 13:20 14.04.2022
2673 Clear 14 1018 36 10000 0.81 95 12:32 14.04.2022
2674 Clear 15 1018 36 10000 0.87 99 11:43 14.04.2022
2675 Clear 15 1018 35 10000 0.77 96 11:18 14.04.2022
2676 Clear 16 1013 35 10000 0.77 96 10:31 14.04.2022
2677 Clear 17 1012 34 10000 0.89 87 09:30 14.04.2022
2678 Clear 21 697 40 10000 1.18 89 08:23 14.04.2022
2679 Clear 21 697 40 10000 0.8 108 05:52 14.04.2022
2680 Clear 24 913 27 10000 1.54 240 00:59 14.04.2022
2681 Clear 26 1014 17 10000 2.57 230 22:38 13.04.2022
2682 Clear 26 1014 15 10000 2.06 0 21:43 13.04.2022
2683 Clear 24 1016 17 10000 2.51 239 20:41 13.04.2022
2684 Clear 24 1015 19 10000 2.06 180 19:49 13.04.2022
2685 Clear 22 1015 28 10000 1.54 240 18:37 13.04.2022
2686 Clear 20 795 36 10000 1.54 230 17:25 13.04.2022
2687 Clear 19 795 39 10000 1.03 230 16:53 13.04.2022
2688 Clear 19 891 39 10000 1.03 230 16:18 13.04.2022
2689 Clear 16 946 47 10000 0 0 15:29 13.04.2022
2690 Clear 21 875 40 10000 0.43 238 14:40 13.04.2022
2691 Clear 13 1015 38 10000 1.44 62 13:43 13.04.2022
2692 Clear 13 1022 45 10000 1.03 89 12:57 13.04.2022
2693 Clear 13 1021 45 10000 1.23 54 11:58 13.04.2022
2694 Clear 13 1021 41 10000 1.08 70 10:34 13.04.2022
2695 Clear 13 1022 43 10000 0.6 73 08:49 13.04.2022
2696 Clouds 13 1022 42 10000 0.29 72 08:24 13.04.2022
2697 Clouds 14 1022 40 10000 0.38 71 06:50 13.04.2022
2698 Clouds 14 1022 43 10000 0.47 159 06:24 13.04.2022
2699 Clouds 17 1022 31 10000 0.78 230 02:27 13.04.2022
2700 Clouds 19 972 33 10000 2.06 240 00:20 13.04.2022
2701 Clouds 20 873 33 8000 2.57 220 22:36 12.04.2022
2702 Clouds 20 873 35 8000 2.57 230 21:56 12.04.2022
2703 Clouds 20 803 36 10000 2.92 232 20:48 12.04.2022
2704 Clouds 20 809 38 10000 2.77 248 20:22 12.04.2022
2705 Clouds 20 876 38 8000 0 0 19:40 12.04.2022
2706 Clouds 20 876 38 8000 0 0 19:18 12.04.2022
2707 Clear 18 936 40 10000 0 0 17:49 12.04.2022
2708 Clear 17 874 44 10000 1.54 0 16:48 12.04.2022
2709 Clouds 14 1021 51 10000 0 0 15:38 12.04.2022
2710 Clouds 14 1021 52 10000 0 0 15:20 12.04.2022
2711 Clouds 14 1023 49 10000 0.57 229 13:53 12.04.2022
2712 Clouds 14 1023 48 10000 0.8 226 13:27 12.04.2022
2713 Clouds 14 1022 48 10000 0.55 233 12:21 12.04.2022
2714 Clouds 14 1022 48 10000 0.55 233 11:39 12.04.2022
2715 Clouds 14 1021 52 10000 0.36 223 09:52 12.04.2022
2716 Clouds 15 1023 54 10000 0.27 229 08:51 12.04.2022
2717 Clouds 15 1022 53 10000 1.15 222 07:20 12.04.2022
2718 Clouds 15 1023 53 10000 0.74 237 05:41 12.04.2022
2719 Clouds 17 1022 47 10000 1.1 241 02:49 12.04.2022
2720 Clear 21 971 38 10000 3.6 250 23:25 11.04.2022
2721 Clear 21 872 38 10000 2.57 230 22:33 11.04.2022
2722 Clear 21 872 38 10000 2.57 270 21:23 11.04.2022
2723 Clear 20 802 40 10000 3.06 245 20:35 11.04.2022
2724 Clear 20 873 42 10000 2.06 210 19:59 11.04.2022
2725 Clear 19 873 43 10000 2.06 210 19:27 11.04.2022
2726 Clear 19 873 45 10000 1.54 0 18:54 11.04.2022
2727 Clear 18 973 48 10000 1.03 300 17:58 11.04.2022
2728 Clear 17 874 48 10000 1.03 300 17:39 11.04.2022
2729 Clear 17 874 48 10000 1.03 300 17:39 11.04.2022
2730 Clear 15 1021 55 10000 0 0 16:36 11.04.2022
2731 Clear 13 1023 54 10000 1.24 247 14:59 11.04.2022
2732 Clear 13 1024 61 10000 0.13 217 13:36 11.04.2022
2733 Clear 11 1023 60 10000 0.12 147 12:39 11.04.2022
2734 Clear 11 1023 60 10000 0.42 213 12:20 11.04.2022
2735 Clear 12 1023 59 10000 0.38 218 10:41 11.04.2022
2736 Clear 12 1023 60 10000 0.41 243 09:57 11.04.2022
2737 Clear 13 1024 59 10000 0.24 284 07:59 11.04.2022
2738 Clear 15 1024 56 10000 1.07 249 04:35 11.04.2022
2739 Clouds 20 873 43 10000 4.12 240 23:30 10.04.2022
2740 Clouds 20 873 40 10000 4.63 240 22:27 10.04.2022
2741 Clear 21 873 39 10000 2.57 250 21:49 10.04.2022
2742 Clear 21 808 40 10000 3.24 250 20:52 10.04.2022
2743 Clouds 20 936 45 10000 0 0 19:56 10.04.2022
2744 Clouds 19 873 46 10000 0 0 19:34 10.04.2022
2745 Clouds 18 874 49 10000 2.57 0 18:48 10.04.2022
2746 Clouds 18 874 49 10000 2.57 0 18:48 10.04.2022
2747 Clouds 17 1021 52 10000 2.57 0 18:24 10.04.2022
2748 Clouds 16 1021 55 8000 1.54 0 17:42 10.04.2022
2749 Clear 15 1021 59 10000 1.54 0 16:52 10.04.2022
2750 Clear 14 1020 60 8000 1.03 280 15:38 10.04.2022
2751 Clear 14 1023 54 10000 2.1 255 14:40 10.04.2022
2752 Clouds 13 1023 58 10000 0.63 265 12:58 10.04.2022
2753 Clouds 13 1022 56 10000 0.62 274 12:26 10.04.2022
2754 Clouds 13 1022 56 10000 0.62 274 11:36 10.04.2022
2755 Clouds 14 1021 55 10000 0.69 271 10:58 10.04.2022
2756 Clouds 14 1021 56 10000 0.89 267 10:23 10.04.2022
2757 Clouds 14 1021 56 10000 0.89 267 09:41 10.04.2022
2758 Clouds 14 1021 55 10000 0.83 266 08:26 10.04.2022
2759 Clouds 15 1021 55 10000 0.83 266 07:53 10.04.2022
2760 Clear 15 1021 56 10000 0.88 263 06:48 10.04.2022
2761 Clear 17 1021 52 10000 1.17 253 03:36 10.04.2022
2762 Clear 17 1021 52 10000 1.17 253 03:36 10.04.2022
2763 Clear 19 873 42 10000 2.06 240 01:29 10.04.2022
2764 Clouds 21 971 37 10000 3.6 210 23:52 09.04.2022
2765 Clouds 21 971 38 10000 3.09 230 22:52 09.04.2022
2766 Clouds 21 875 37 10000 2.57 240 21:51 09.04.2022
2767 Clouds 22 949 35 10000 3.14 245 20:58 09.04.2022
2768 Clouds 22 802 37 10000 3.15 250 20:26 09.04.2022
2769 Clear 21 873 41 10000 2.57 240 19:43 09.04.2022
2770 Clear 21 873 42 10000 2.57 240 19:21 09.04.2022
2771 Clear 20 874 45 10000 1.54 270 18:22 09.04.2022
2772 Clear 19 873 49 10000 0 0 17:42 09.04.2022
2773 Clear 18 873 49 10000 0 0 16:55 09.04.2022
2774 Clear 17 1019 52 10000 0 0 16:28 09.04.2022
2775 Clear 16 1021 51 10000 2.33 250 15:48 09.04.2022
2776 Clear 15 1021 49 10000 1.87 256 14:45 09.04.2022
2777 Clear 15 1021 48 10000 0.51 262 14:24 09.04.2022
2778 Clear 14 1021 51 10000 0.75 259 13:24 09.04.2022
2779 Clear 14 1020 50 10000 0.75 259 12:53 09.04.2022
2780 Clear 15 1020 48 10000 0.6 283 11:44 09.04.2022
2781 Clear 15 1019 49 10000 0.63 282 10:22 09.04.2022
2782 Clear 16 1019 48 10000 0.63 282 09:53 09.04.2022
2783 Clear 17 1018 46 10000 0.79 253 08:59 09.04.2022
2784 Clear 17 1018 46 10000 0.89 253 07:44 09.04.2022
2785 Clear 20 802 42 10000 1.46 246 03:22 09.04.2022
2786 Clear 24 1015 32 10000 2.57 240 00:32 09.04.2022
2787 Clear 27 1013 26 10000 3.09 240 22:58 08.04.2022
2788 Clear 27 1013 25 8000 2.57 250 21:35 08.04.2022
2789 Clear 26 1014 26 10000 3.11 248 20:41 08.04.2022
2790 Clear 26 1014 27 8000 2.06 270 19:41 08.04.2022
2791 Clear 24 1015 30 10000 0 0 18:34 08.04.2022
2792 Clear 23 1015 33 10000 1.54 280 17:59 08.04.2022
2793 Clear 22 874 36 10000 1.54 280 17:27 08.04.2022
2794 Clear 21 871 36 10000 0 0 16:52 08.04.2022
2795 Clear 20 970 37 10000 0 0 16:22 08.04.2022
2796 Clear 18 970 41 10000 0 0 15:28 08.04.2022
2797 Clear 19 875 40 10000 1.09 248 14:40 08.04.2022
2798 Clear 18 802 38 10000 0.14 43 13:55 08.04.2022
2799 Clear 16 1018 37 10000 0.38 34 13:30 08.04.2022
2800 Clear 16 1018 36 10000 0.7 56 12:42 08.04.2022
2801 Clear 18 802 38 10000 0.62 81 10:56 08.04.2022
2802 Clear 19 802 38 10000 0.47 81 09:41 08.04.2022
2803 Clear 19 802 38 10000 0.25 109 08:58 08.04.2022
2804 Clear 19 949 39 10000 0.16 145 07:42 08.04.2022
2805 Clear 19 802 38 10000 0.18 208 06:44 08.04.2022
2806 Clear 22 949 38 10000 0.91 200 02:29 08.04.2022
2807 Clear 26 1016 26 10000 2.57 220 00:28 08.04.2022
2808 Clear 27 1015 23 10000 3.6 240 23:41 07.04.2022
2809 Clear 28 1015 20 10000 2.57 240 22:41 07.04.2022
2810 Clear 28 1015 18 10000 2.57 240 22:22 07.04.2022
2811 Clear 27 1015 20 10000 1.54 180 21:56 07.04.2022
2812 Clear 27 1015 20 10000 1.54 180 21:28 07.04.2022
2813 Clear 25 1016 23 10000 3.11 246 20:42 07.04.2022
2814 Clear 25 1017 26 8000 2.06 270 19:25 07.04.2022
2815 Clear 22 876 35 10000 1.54 180 17:28 07.04.2022
2816 Clear 21 873 36 10000 0 0 16:51 07.04.2022
2817 Clear 20 796 36 10000 0 0 16:33 07.04.2022
2818 Clear 18 796 45 10000 0 0 15:40 07.04.2022
2819 Clear 18 897 39 10000 0.86 77 13:52 07.04.2022
2820 Clear 16 1022 37 10000 1.1 68 13:23 07.04.2022
2821 Clear 16 1021 37 10000 0.87 67 11:49 07.04.2022
2822 Clear 17 1021 37 10000 0.32 70 10:40 07.04.2022
2823 Clear 19 803 39 10000 0.16 38 08:43 07.04.2022
2824 Clear 19 803 41 10000 0.14 13 06:59 07.04.2022
2825 Clouds 19 950 45 10000 0.28 256 05:21 07.04.2022
2826 Clouds 21 802 39 10000 1.39 234 02:34 07.04.2022
2827 Clear 24 872 31 10000 3.09 240 00:43 07.04.2022
2828 Clear 26 1016 23 10000 3.6 140 23:28 06.04.2022
2829 Clear 27 1016 19 10000 2.57 220 22:44 06.04.2022
2830 Clear 28 1016 20 10000 2.57 220 22:19 06.04.2022
2831 Clear 26 1017 22 10000 3.02 247 20:47 06.04.2022
2832 Clear 25 1017 22 10000 1.54 0 19:59 06.04.2022
2833 Clear 25 1017 24 10000 1.54 0 19:20 06.04.2022
2834 Clear 24 1016 26 10000 2.06 0 18:48 06.04.2022
2835 Clear 23 1015 28 10000 2.42 244 17:36 06.04.2022
2836 Clear 20 795 36 10000 0 0 16:39 06.04.2022
2837 Clear 20 795 36 10000 0 0 16:19 06.04.2022
2838 Clear 19 795 40 10000 1.03 0 15:40 06.04.2022
2839 Clear 21 573 41 10000 0.35 171 13:34 06.04.2022
2840 Clear 21 573 41 10000 0.35 171 13:34 06.04.2022
2841 Clear 15 1020 40 10000 0.38 127 12:30 06.04.2022
2842 Clear 16 1020 38 10000 0.15 62 10:57 06.04.2022
2843 Clear 16 1020 37 10000 0.15 62 10:33 06.04.2022
2844 Clear 17 1020 38 10000 0.32 63 09:46 06.04.2022
2845 Clear 19 950 40 10000 0.14 68 08:59 06.04.2022
2846 Clear 19 803 40 10000 0.15 310 07:59 06.04.2022
2847 Clear 20 950 38 10000 0.35 246 05:45 06.04.2022
2848 Clear 25 970 30 10000 2.57 240 00:45 06.04.2022
2849 Clear 27 1016 20 10000 3.09 210 23:48 05.04.2022
2850 Clear 28 1016 18 10000 3.6 250 21:51 05.04.2022
2851 Clear 28 1016 19 10000 3.6 250 21:18 05.04.2022
2852 Clear 27 1016 21 10000 3.02 248 20:24 05.04.2022
2853 Clear 24 1017 26 10000 2.06 250 18:32 05.04.2022
2854 Clear 22 1017 31 10000 1.54 280 17:22 05.04.2022
2855 Clear 20 1016 33 10000 1.03 200 16:43 05.04.2022
2856 Clear 18 890 41 10000 0 0 15:51 05.04.2022
2857 Clear 18 872 40 10000 0 0 15:31 05.04.2022
2858 Clear 18 573 40 10000 0.67 58 13:49 05.04.2022
2859 Clear 16 1020 42 10000 0.86 65 12:33 05.04.2022
2860 Clear 15 1020 42 10000 0.64 72 11:43 05.04.2022
2861 Clear 16 1020 42 10000 0.45 86 11:25 05.04.2022
2862 Clear 16 1020 42 10000 0.45 86 11:25 05.04.2022
2863 Clear 16 1019 41 10000 0.26 84 09:40 05.04.2022
2864 Clear 18 949 42 10000 0.43 57 08:47 05.04.2022
2865 Clear 20 803 42 10000 0.9 224 04:19 05.04.2022
2866 Clear 26 1015 24 10000 4.12 240 23:45 04.04.2022
2867 Clear 23 1015 28 10000 2.57 0 22:38 04.04.2022
2868 Clear 27 1015 23 10000 3.09 190 21:51 04.04.2022
2869 Clear 27 1015 22 10000 3.09 190 21:20 04.04.2022
2870 Clear 25 1016 24 10000 3.06 248 20:48 04.04.2022
2871 Clear 24 1016 29 10000 1.03 190 19:38 04.04.2022
2872 Clear 22 1016 33 10000 1.54 330 18:46 04.04.2022
2873 Clear 20 1015 39 10000 1.03 150 17:33 04.04.2022
2874 Clear 19 946 44 10000 1.54 0 16:36 04.04.2022
2875 Clear 17 795 48 10000 0 0 15:34 04.04.2022
2876 Clear 18 573 40 10000 0.77 244 14:49 04.04.2022
2877 Clear 15 1020 46 10000 0.42 114 14:31 04.04.2022
2878 Clear 14 1020 47 10000 0.42 83 13:18 04.04.2022
2879 Clear 14 1020 48 10000 0.2 138 11:29 04.04.2022
2880 Clear 14 1020 47 10000 0.2 138 10:49 04.04.2022
2881 Clear 15 1021 55 10000 0.18 197 07:36 04.04.2022
2882 Clear 20 803 43 10000 1.3 224 03:19 04.04.2022
2883 Clear 22 872 38 10000 2.57 230 00:25 04.04.2022
2884 Clear 24 1017 34 8000 3.09 220 22:31 03.04.2022
2885 Clear 23 1017 33 8000 2.06 260 21:37 03.04.2022
2886 Clear 22 1019 35 10000 3.28 247 20:40 03.04.2022
2887 Clear 22 1019 37 8000 2.06 280 19:45 03.04.2022
2888 Clear 20 914 42 8000 1.54 250 18:29 03.04.2022
2889 Clear 19 796 44 8000 2.06 230 17:44 03.04.2022
2890 Clear 19 796 44 8000 2.06 230 17:44 03.04.2022
2891 Clear 18 937 47 10000 1.54 360 16:50 03.04.2022
2892 Clear 18 937 48 10000 1.54 360 16:21 03.04.2022
2893 Clear 14 1023 53 10000 1.62 237 14:32 03.04.2022
2894 Clouds 14 1023 55 10000 0.35 219 13:45 03.04.2022
2895 Clouds 14 1024 51 10000 0.02 3 12:21 03.04.2022
2896 Clouds 14 1023 55 10000 0.57 174 10:54 03.04.2022
2897 Clouds 15 1023 52 10000 1.01 227 09:23 03.04.2022
2898 Clouds 16 1022 46 10000 0.4 312 07:24 03.04.2022
2899 Clear 17 1022 44 10000 1.29 246 04:18 03.04.2022
2900 Clear 21 872 38 10000 3.6 240 00:41 03.04.2022
2901 Clear 24 1016 25 10000 2.57 220 22:54 02.04.2022
2902 Clear 24 1016 23 10000 2.57 210 21:57 02.04.2022
2903 Clear 24 1016 23 10000 2.57 210 21:33 02.04.2022
2904 Clear 24 1017 24 10000 3.42 248 20:52 02.04.2022
2905 Clear 23 1017 25 8000 1.54 200 19:32 02.04.2022
2906 Clear 23 1017 25 8000 1.54 200 19:32 02.04.2022
2907 Clear 21 875 35 8000 2.06 180 18:21 02.04.2022
2908 Clear 21 795 35 8000 2.06 0 17:52 02.04.2022
2909 Clear 20 795 36 10000 1.54 220 16:23 02.04.2022
2910 Clear 18 872 38 10000 1.03 220 15:21 02.04.2022
2911 Clear 18 802 36 10000 1.25 250 14:49 02.04.2022
2912 Clear 18 802 36 10000 1.25 250 14:49 02.04.2022
2913 Clear 16 876 45 10000 1.54 20 13:35 02.04.2022
2914 Clear 14 1020 36 10000 0.05 291 12:38 02.04.2022
2915 Clear 15 1020 36 10000 0.12 172 11:23 02.04.2022
2916 Clear 16 1019 36 10000 0.29 12 08:50 02.04.2022
2917 Clear 17 1020 38 10000 0.2 76 06:51 02.04.2022
2918 Clear 19 802 42 10000 0.76 239 03:52 02.04.2022
2919 Clear 26 1014 15 10000 3.09 220 23:57 01.04.2022
2920 Clear 26 1014 16 10000 3.09 220 23:22 01.04.2022
2921 Clear 27 1014 15 8000 2.57 0 21:42 01.04.2022
2922 Clear 26 1015 14 10000 2.78 249 20:51 01.04.2022
2923 Clear 26 1014 14 10000 2.81 247 20:28 01.04.2022
2924 Clear 25 1015 17 10000 1.54 200 19:34 01.04.2022
2925 Clear 24 1016 18 8000 2.06 240 18:48 01.04.2022
2926 Clear 22 1016 20 10000 1.54 0 17:47 01.04.2022
2927 Clear 21 871 28 10000 0 0 16:53 01.04.2022
2928 Clear 18 872 32 10000 0 0 15:41 01.04.2022
2929 Clear 18 802 31 10000 0.27 65 14:25 01.04.2022
2930 Clear 15 794 43 10000 1.03 50 13:34 01.04.2022
2931 Clear 14 1019 25 10000 0.39 98 12:32 01.04.2022
2932 Clear 14 1019 26 10000 0.35 87 11:41 01.04.2022
2933 Clear 15 1018 26 10000 0.57 74 10:19 01.04.2022
2934 Clear 15 1019 28 10000 0.35 96 09:19 01.04.2022
2935 Clear 16 1019 26 10000 0.25 183 06:54 01.04.2022
2936 Clear 20 802 32 10000 0.39 187 04:51 01.04.2022
2937 Clear 20 802 32 10000 0.39 187 04:33 01.04.2022
2938 Clear 22 872 26 10000 0 0 01:58 01.04.2022
2939 Clear 24 871 21 10000 2.57 220 00:44 01.04.2022
2940 Clear 26 1016 11 10000 2.57 230 21:54 31.03.2022
2941 Clear 26 1016 10 10000 2.57 230 21:32 31.03.2022
2942 Clear 25 1017 12 10000 2.67 242 20:29 31.03.2022
2943 Clear 24 1017 14 10000 2.06 260 19:50 31.03.2022
2944 Clear 22 1017 20 10000 1.54 240 18:51 31.03.2022
2945 Clear 21 1018 20 10000 1.03 0 17:50 31.03.2022
2946 Clear 20 795 29 10000 1.54 0 16:39 31.03.2022
2947 Clear 17 795 35 10000 0 0 15:46 31.03.2022
2948 Clear 17 873 31 10000 0 0 15:20 31.03.2022
2949 Clear 18 573 36 10000 0.93 235 14:37 31.03.2022
2950 Clear 13 1022 31 10000 0.48 120 12:19 31.03.2022
2951 Clear 14 1021 29 10000 0.64 73 11:22 31.03.2022
2952 Clear 15 1021 29 10000 0.33 88 09:47 31.03.2022
2953 Clouds 15 1022 35 10000 0.47 203 08:20 31.03.2022
2954 Clouds 19 864 34 10000 0.52 246 05:42 31.03.2022
2955 Clear 24 872 22 10000 3.09 260 23:58 30.03.2022
2956 Clear 25 1016 12 10000 2.57 240 22:44 30.03.2022
2957 Clear 24 1017 12 10000 3.19 247 21:39 30.03.2022
2958 Clear 24 1017 14 10000 3.26 245 20:54 30.03.2022
2959 Clear 23 1017 16 10000 2.99 249 20:20 30.03.2022
2960 Clear 23 1017 16 10000 2.99 249 20:20 30.03.2022
2961 Clear 22 1016 21 10000 2.06 220 19:28 30.03.2022
2962 Clear 20 1013 23 10000 2.66 257 18:28 30.03.2022
2963 Clear 18 1016 28 10000 1.54 190 17:47 30.03.2022
2964 Clear 18 795 38 10000 0 0 16:57 30.03.2022
2965 Clear 18 795 38 10000 0 0 16:33 30.03.2022
2966 Clear 18 573 38 10000 0.67 243 15:24 30.03.2022
2967 Clear 9 1016 57 10000 0 0 13:42 30.03.2022
2968 Clear 11 1022 37 10000 0.79 89 12:57 30.03.2022
2969 Clear 12 1021 38 10000 0.87 102 11:27 30.03.2022
2970 Clear 12 1021 38 10000 0.87 102 11:27 30.03.2022
2971 Clear 13 1020 43 10000 0.72 101 10:23 30.03.2022
2972 Clear 13 1022 42 10000 0.74 100 09:23 30.03.2022
2973 Clear 15 1022 44 10000 0.56 113 07:33 30.03.2022
2974 Clear 16 1023 41 10000 0.63 152 05:41 30.03.2022
2975 Clear 18 1023 37 10000 0.92 173 03:52 30.03.2022
2976 Clear 22 951 32 10000 1.97 211 00:41 30.03.2022
2977 Clear 24 1020 26 10000 3.09 0 22:25 29.03.2022
2978 Clear 23 1020 29 10000 3.09 230 21:44 29.03.2022
2979 Clear 22 1021 31 10000 3.66 235 20:52 29.03.2022
2980 Clear 22 1022 33 10000 3.26 240 20:18 29.03.2022
2981 Clear 20 937 39 10000 2.06 0 18:55 29.03.2022
2982 Clear 20 875 39 10000 2.06 0 18:19 29.03.2022
2983 Clear 19 876 42 10000 1.54 0 17:22 29.03.2022
2984 Clear 18 876 43 10000 1.54 250 16:56 29.03.2022
2985 Clear 18 876 43 10000 1.54 250 16:56 29.03.2022
2986 Clear 17 975 48 10000 0 0 15:57 29.03.2022
2987 Clear 15 1025 46 10000 1.77 231 14:50 29.03.2022
2988 Clear 13 1022 57 10000 0 0 13:56 29.03.2022
2989 Clear 14 1024 52 10000 0.08 31 12:51 29.03.2022
2990 Clear 14 1024 51 10000 0.23 207 11:43 29.03.2022
2991 Clear 14 1023 47 10000 0.59 214 10:28 29.03.2022
2992 Clear 15 1023 45 10000 0.59 214 09:33 29.03.2022
2993 Clear 17 1023 47 10000 1.15 243 06:56 29.03.2022
2994 Clear 20 951 40 10000 0.89 253 03:49 29.03.2022
2995 Clear 24 971 30 10000 4.12 240 23:54 28.03.2022
2996 Clear 25 1018 24 10000 4.12 240 23:19 28.03.2022
2997 Clear 26 1018 23 10000 4.12 144 22:47 28.03.2022
2998 Clear 26 1017 24 10000 4.12 144 22:22 28.03.2022
2999 Clear 26 1017 26 10000 3.4 246 20:54 28.03.2022
3000 Clear 25 1018 28 10000 2.06 190 19:59 28.03.2022
3001 Clear 25 1018 28 10000 2.06 190 19:41 28.03.2022
3002 Clear 24 1018 30 10000 1.54 330 18:54 28.03.2022
3003 Clear 23 1018 31 10000 1.54 330 18:20 28.03.2022
3004 Clear 22 1019 33 10000 2.57 300 17:32 28.03.2022
3005 Clear 20 864 37 10000 2.63 246 15:54 28.03.2022
3006 Clouds 19 864 40 10000 0.78 267 14:27 28.03.2022
3007 Clouds 21 697 41 10000 0.78 262 13:35 28.03.2022
3008 Clouds 17 1020 42 10000 0.36 264 11:57 28.03.2022
3009 Clouds 18 1018 39 10000 0.39 273 10:50 28.03.2022
3010 Clouds 19 863 41 10000 0.39 301 09:41 28.03.2022
3011 Clouds 19 863 41 10000 0.03 265 08:49 28.03.2022
3012 Clouds 19 863 44 10000 0.15 236 08:21 28.03.2022
3013 Clouds 19 863 44 10000 0.17 263 08:21 28.03.2022
3014 Clouds 19 863 42 10000 0.71 240 07:27 28.03.2022
3015 Clouds 21 863 46 10000 0.73 229 02:48 28.03.2022
3016 Clear 26 1015 29 10000 2.57 240 23:24 27.03.2022
3017 Clear 27 1015 26 10000 2.57 240 22:23 27.03.2022
3018 Clear 26 1016 27 10000 1.54 190 21:41 27.03.2022
3019 Clouds 25 1017 28 10000 3.29 245 20:53 27.03.2022
3020 Clear 22 1016 37 10000 1.03 0 19:44 27.03.2022
3021 Clouds 20 1017 44 6000 0 0 18:54 27.03.2022
3022 Clouds 20 1017 44 6000 0 0 18:26 27.03.2022
3023 Clouds 20 1017 44 6000 0 0 18:26 27.03.2022
3024 Clear 19 1018 47 10000 1.54 210 17:38 27.03.2022
3025 Clouds 17 858 55 10000 0 0 15:59 27.03.2022
3026 Clouds 18 697 44 10000 0.04 300 14:26 27.03.2022
3027 Clouds 15 858 61 10000 0 0 13:54 27.03.2022
3028 Clouds 15 1022 57 10000 0.28 212 11:52 27.03.2022
3029 Clouds 15 1021 56 10000 0.26 242 10:28 27.03.2022
3030 Clouds 15 1022 56 10000 0.31 262 08:21 27.03.2022
3031 Clear 17 1022 58 10000 0.34 229 05:19 27.03.2022
3032 Clear 20 914 46 10000 1.54 0 00:47 27.03.2022
3033 Clear 22 857 40 10000 2.57 240 23:30 26.03.2022
3034 Clear 23 1019 39 10000 3.09 240 22:29 26.03.2022
3035 Clear 23 1018 37 10000 3.09 240 21:32 26.03.2022
3036 Clear 22 1015 28 10000 3.75 242 19:46 26.03.2022
3037 Clear 22 1017 35 10000 2.06 0 18:58 26.03.2022
3038 Clear 19 1018 40 10000 1.54 290 17:44 26.03.2022
3039 Clear 20 1018 39 10000 1.54 290 17:22 26.03.2022
3040 Clear 19 795 43 10000 2.06 220 15:52 26.03.2022
3041 Clear 15 1016 50 10000 0 0 14:50 26.03.2022
3042 Clear 14 1016 43 10000 1.32 250 13:52 26.03.2022
3043 Clear 11 1016 60 10000 0 0 12:41 26.03.2022
3044 Clear 15 1020 40 10000 0.14 301 11:18 26.03.2022
3045 Clear 15 1019 45 10000 0.38 288 09:22 26.03.2022
3046 Clear 16 1018 43 10000 0.18 341 08:27 26.03.2022
3047 Clear 18 1018 38 10000 0.75 251 05:53 26.03.2022
3048 Clear 19 1017 40 10000 0.46 228 03:32 26.03.2022
3049 Clear 28 1013 21 10000 3.09 0 22:57 25.03.2022
3050 Clear 28 1013 16 10000 3.6 240 20:58 25.03.2022
3051 Clear 28 1013 16 10000 3.6 240 20:38 25.03.2022
3052 Clear 27 1013 17 10000 3.29 243 19:21 25.03.2022
3053 Clear 28 1013 15 10000 3.09 210 18:37 25.03.2022
3054 Clear 26 1013 17 10000 1.54 0 17:34 25.03.2022
3055 Clear 24 1013 19 10000 1.54 0 16:41 25.03.2022
3056 Clear 22 1012 21 10000 1.03 0 15:50 25.03.2022
3057 Clear 14 1011 30 10000 0.87 274 13:40 25.03.2022
3058 Clear 13 1011 34 10000 1.11 56 11:49 25.03.2022
3059 Clear 15 1016 33 10000 0.85 67 09:46 25.03.2022
3060 Clear 14 1010 32 10000 0.82 71 09:19 25.03.2022
3061 Clear 16 1017 31 10000 0.51 62 07:48 25.03.2022
3062 Clear 16 1017 32 10000 0.58 53 07:21 25.03.2022
3063 Clear 18 1018 27 10000 0.19 57 04:35 25.03.2022
3064 Clear 24 1017 20 10000 1.87 225 23:55 24.03.2022
3065 Clear 27 1016 48 10000 2.54 241 22:24 24.03.2022
3066 Clear 27 1015 17 10000 2.57 280 21:29 24.03.2022
3067 Clear 24 1012 19 10000 2.83 248 19:50 24.03.2022
3068 Clear 23 1013 25 10000 2.75 248 18:46 24.03.2022
3069 Clear 20 1016 34 10000 1.54 270 17:38 24.03.2022
3070 Clear 18 1017 41 10000 1.03 150 16:41 24.03.2022
3071 Clear 14 1017 53 10000 1.03 150 14:58 24.03.2022
3072 Clear 14 1017 54 10000 1.03 150 14:39 24.03.2022
3073 Clear 17 1015 40 10000 0.9 245 13:36 24.03.2022
3074 Clear 8 1017 77 10000 1.03 100 12:39 24.03.2022
3075 Clear 13 1023 57 10000 0.75 76 11:31 24.03.2022
3076 Clear 13 1023 56 10000 0.44 123 09:34 24.03.2022
3077 Clear 14 1022 56 10000 0.33 146 08:39 24.03.2022
3078 Clear 14 1024 56 10000 0.59 192 06:18 24.03.2022
3079 Clear 17 1024 49 10000 1.9 234 01:20 24.03.2022
3080 Clear 21 1020 32 10000 3.6 240 22:26 23.03.2022
3081 Clear 20 1020 31 10000 3.6 190 21:25 23.03.2022
3082 Clear 20 1021 31 10000 4.12 0 20:46 23.03.2022
3083 Clear 20 1022 36 10000 4.7 231 19:33 23.03.2022
3084 Clear 19 1021 40 10000 2.57 230 18:19 23.03.2022
3085 Clear 18 1021 44 10000 2.06 260 17:26 23.03.2022
3086 Clear 16 1022 52 10000 3.09 220 16:18 23.03.2022
3087 Clear 14 1021 59 10000 2.57 220 14:49 23.03.2022
3088 Clear 12 1017 52 10000 1.63 260 13:34 23.03.2022
3089 Clouds 14 1022 55 10000 0.59 330 11:38 23.03.2022
3090 Clear 14 1020 48 10000 0.37 287 08:51 23.03.2022
3091 Clear 16 1020 41 10000 0.76 277 06:26 23.03.2022
3092 Clear 18 1019 43 10000 1.45 235 03:52 23.03.2022
3093 Clear 22 1015 35 10000 2.57 270 00:28 23.03.2022
3094 Clear 22 1015 35 10000 2.57 270 00:28 23.03.2022
3095 Clear 26 1013 27 10000 3.09 230 21:56 22.03.2022
3096 Clear 27 1013 26 10000 3.09 230 21:26 22.03.2022
3097 Clear 26 1013 25 10000 3.09 0 20:30 22.03.2022
3098 Clear 25 1014 26 10000 3.21 247 19:27 22.03.2022
3099 Clear 25 1014 49 10000 2.57 250 18:50 22.03.2022
3100 Clear 22 1013 32 10000 2.06 170 17:44 22.03.2022
3101 Clear 22 1014 34 10000 2.06 170 17:18 22.03.2022
3102 Clear 18 1014 41 10000 1.54 180 15:49 22.03.2022
3103 Clear 18 1014 41 10000 1.54 180 15:21 22.03.2022
3104 Clear 17 1014 37 10000 0 0 14:45 22.03.2022
3105 Clear 18 1016 41 10000 0 0 14:24 22.03.2022
3106 Clear 10 1014 73 10000 1.54 40 12:40 22.03.2022
3107 Clear 14 1019 44 10000 0.2 160 11:26 22.03.2022
3108 Clear 14 1018 46 10000 0.23 158 09:55 22.03.2022
3109 Clear 15 1018 46 10000 0.32 214 07:48 22.03.2022
3110 Clear 18 1020 47 10000 0.64 235 04:36 22.03.2022
3111 Clouds 19 1020 50 10000 1.07 224 02:54 22.03.2022
3112 Clear 23 1017 28 10000 3.09 230 23:21 21.03.2022
3113 Clear 24 1017 24 10000 4.12 240 21:47 21.03.2022
3114 Clear 24 1018 24 10000 3.09 0 20:45 21.03.2022
3115 Clear 24 1017 23 10000 3.09 0 20:26 21.03.2022
3116 Clouds 23 1019 24 10000 3.48 244 19:53 21.03.2022
3117 Clouds 23 1019 26 10000 3.6 247 19:23 21.03.2022
3118 Clear 21 1019 29 10000 2.06 240 17:43 21.03.2022
3119 Clouds 21 1020 30 10000 2.9 254 17:00 21.03.2022
3120 Clouds 19 1019 32 10000 0 0 16:36 21.03.2022
3121 Clear 17 1020 40 10000 0 0 15:45 21.03.2022
3122 Clear 15 1017 43 10000 0 0 14:48 21.03.2022
3123 Clouds 15 1021 39 10000 1.7 250 13:35 21.03.2022
3124 Clear 10 1017 60 10000 0 0 12:31 21.03.2022
3125 Clouds 15 1021 45 10000 0.28 296 11:39 21.03.2022
3126 Clouds 15 1021 44 10000 0.43 253 09:54 21.03.2022
3127 Clouds 15 1020 42 10000 0.58 253 07:54 21.03.2022
3128 Clouds 16 1021 38 10000 0.55 260 06:31 21.03.2022
3129 Clear 20 863 33 10000 1.32 247 02:33 21.03.2022
3130 Clouds 22 913 33 10000 4.12 230 23:32 20.03.2022
3131 Clouds 23 912 32 10000 4.63 240 22:42 20.03.2022
3132 Clouds 25 1015 27 10000 4.12 230 21:44 20.03.2022
3133 Clouds 26 1015 25 10000 4.12 230 20:59 20.03.2022
3134 Clouds 26 1015 25 10000 4.12 230 20:59 20.03.2022
3135 Clouds 26 1015 24 10000 4.12 230 20:39 20.03.2022
3136 Clouds 26 1015 23 10000 4.3 240 19:56 20.03.2022
3137 Clouds 26 1015 23 10000 3.83 244 19:26 20.03.2022
3138 Clouds 25 1015 24 10000 1.54 0 17:51 20.03.2022
3139 Clouds 25 1015 24 10000 1.54 0 17:29 20.03.2022
3140 Clouds 24 1016 26 10000 1.54 0 16:46 20.03.2022
3141 Clouds 21 862 34 10000 2.26 262 14:54 20.03.2022
3142 Clouds 21 862 38 10000 1.66 258 13:46 20.03.2022
3143 Clouds 19 912 41 10000 0 0 12:21 20.03.2022
3144 Clouds 20 861 39 10000 0.38 294 10:42 20.03.2022
3145 Clouds 20 861 39 10000 0.27 251 08:37 20.03.2022
3146 Clouds 20 862 39 10000 0.34 283 06:55 20.03.2022
3147 Clouds 21 862 40 10000 0.94 240 03:59 20.03.2022
3148 Clouds 24 912 31 10000 1.03 0 00:59 20.03.2022
3149 Clouds 24 911 32 10000 1.03 0 00:36 20.03.2022
3150 Clouds 27 1015 23 10000 2.57 200 22:56 19.03.2022
3151 Clouds 27 1015 25 10000 2.57 0 21:27 19.03.2022
3152 Clouds 28 1015 22 10000 2.57 210 20:19 19.03.2022
3153 Clouds 26 1015 25 10000 1.03 0 18:44 19.03.2022
3154 Clouds 26 1012 26 10000 1.54 0 17:57 19.03.2022
3155 Clouds 26 1015 29 10000 1.54 0 17:34 19.03.2022
3156 Clouds 22 1016 37 10000 2.06 0 15:43 19.03.2022
3157 Clouds 20 912 42 10000 1.03 0 14:21 19.03.2022
3158 Clouds 19 912 43 10000 1.03 0 12:56 19.03.2022
3159 Clouds 19 912 43 10000 1.03 0 12:38 19.03.2022
3160 Clouds 20 862 38 10000 0.5 281 11:49 19.03.2022
3161 Clouds 20 862 39 10000 0.52 101 10:41 19.03.2022
3162 Clouds 20 863 38 10000 0.15 320 06:27 19.03.2022
3163 Clouds 20 863 49 10000 0.76 232 03:21 19.03.2022
3164 Clouds 22 863 38 10000 0.59 186 01:32 19.03.2022
3165 Clear 27 1017 23 10000 3.09 200 23:26 18.03.2022
3166 Clear 28 1017 23 10000 4.12 210 22:25 18.03.2022
3167 Clear 27 1017 25 10000 3.6 230 20:56 18.03.2022
3168 Clear 26 1018 27 10000 3.18 255 19:50 18.03.2022
3169 Clear 26 1018 28 10000 2.96 253 19:19 18.03.2022
3170 Haze 23 1019 42 4000 1.03 0 17:39 18.03.2022
3171 Haze 22 1020 52 4000 1.03 0 16:46 18.03.2022
3172 Haze 19 915 50 4000 0 0 14:45 18.03.2022
3173 Haze 19 915 52 4000 0 0 14:20 18.03.2022
3174 Haze 14 1022 82 4000 1.03 50 12:23 18.03.2022
3175 Clear 16 1024 68 10000 0.24 153 10:39 18.03.2022
3176 Clear 16 1023 68 10000 0.47 247 09:23 18.03.2022
3177 Clear 16 1024 69 10000 0.16 279 07:45 18.03.2022
3178 Clear 17 1023 67 10000 0.94 247 05:46 18.03.2022
3179 Clear 20 865 53 10000 0.98 250 02:50 18.03.2022
3180 Clouds 20 914 54 8000 0 0 00:22 18.03.2022
3181 Clouds 20 916 55 8000 2.57 200 23:20 17.03.2022
3182 Haze 21 1016 54 4000 2.57 260 22:23 17.03.2022
3183 Haze 21 1018 55 4000 2.57 260 21:47 17.03.2022
3184 Haze 22 1018 55 4000 2.57 260 21:19 17.03.2022
3185 Haze 22 1018 55 4000 2.06 240 20:32 17.03.2022
3186 Clouds 21 1019 55 10000 3.5 249 19:41 17.03.2022
3187 Haze 20 1019 61 4000 2.57 240 18:57 17.03.2022
3188 Haze 20 914 56 4000 2.57 230 17:56 17.03.2022
3189 Haze 19 858 55 4000 2.06 250 16:43 17.03.2022
3190 Haze 19 857 57 4000 2.57 250 15:44 17.03.2022
3191 Haze 19 857 56 4000 2.57 250 15:22 17.03.2022
3192 Clear 20 868 56 10000 1.78 253 13:50 17.03.2022
3193 Mist 16 1019 75 1500 1.54 0 12:49 17.03.2022
3194 Mist 15 1020 82 1500 1.54 0 12:21 17.03.2022
3195 Clear 16 1021 74 10000 1.05 268 11:25 17.03.2022
3196 Clear 16 1021 71 10000 1.09 239 09:48 17.03.2022
3197 Clear 16 1021 65 10000 0.65 268 08:31 17.03.2022
3198 Clear 17 1021 63 10000 0.98 276 07:32 17.03.2022
3199 Clouds 19 864 53 10000 1.06 251 05:47 17.03.2022
3200 Clear 21 913 52 8000 2.06 260 00:45 17.03.2022
3201 Clear 24 1016 45 7000 3.6 210 22:59 16.03.2022
3202 Clear 24 1016 44 7000 3.6 210 22:40 16.03.2022
3203 Clear 24 1016 44 7000 3.6 210 22:19 16.03.2022
3204 Clear 25 1016 45 7000 4.12 240 21:34 16.03.2022
3205 Clear 24 1016 43 10000 3.93 246 19:27 16.03.2022
3206 Haze 24 1016 47 4000 2.57 230 18:58 16.03.2022
3207 Haze 23 1015 49 4000 2.57 230 18:24 16.03.2022
3208 Haze 21 1016 56 4000 1.54 250 17:37 16.03.2022
3209 Haze 19 1016 60 4000 1.03 170 16:50 16.03.2022
3210 Haze 18 857 57 4000 1.54 0 15:41 16.03.2022
3211 Mist 18 913 64 3000 1.54 220 14:24 16.03.2022
3212 Clear 19 863 55 10000 1.07 252 13:22 16.03.2022
3213 Clear 19 863 53 10000 0.71 268 11:51 16.03.2022
3214 Clear 19 863 52 10000 0.61 284 11:19 16.03.2022
3215 Clear 19 862 51 10000 0.53 274 09:59 16.03.2022
3216 Clear 20 861 48 10000 0.79 255 08:37 16.03.2022
3217 Clear 21 862 48 10000 1.23 218 03:33 16.03.2022
3218 Clear 26 1017 40 10000 2.83 230 23:39 15.03.2022
3219 Clear 28 1016 33 10000 3.09 190 22:37 15.03.2022
3220 Clear 29 1016 29 10000 4.12 240 21:33 15.03.2022
3221 Clear 27 1017 30 10000 3.65 241 19:47 15.03.2022
3222 Clear 28 1017 31 7000 3.6 210 18:41 15.03.2022
3223 Clear 25 1018 39 7000 1.54 250 16:47 15.03.2022
3224 Clear 24 1018 40 7000 1.54 250 16:18 15.03.2022
3225 Clear 21 1018 46 10000 0 0 14:55 15.03.2022
3226 Clear 21 913 45 10000 0 0 14:30 15.03.2022
3227 Clear 20 863 42 10000 0.74 288 13:27 15.03.2022
3228 Clear 19 863 43 10000 0.41 281 11:56 15.03.2022
3229 Clear 19 863 43 10000 0.51 282 11:19 15.03.2022
3230 Clear 19 862 44 10000 0.32 297 09:31 15.03.2022
3231 Clouds 20 862 42 10000 0.15 291 08:32 15.03.2022
3232 Clouds 20 862 45 10000 0.33 282 07:50 15.03.2022
3233 Clouds 20 862 45 10000 0.43 255 06:35 15.03.2022
3234 Clouds 22 862 44 10000 1.15 230 02:36 15.03.2022
3235 Clear 27 1016 34 10000 2.57 260 23:36 14.03.2022
3236 Clear 27 1016 33 10000 2.57 260 23:18 14.03.2022
3237 Clear 29 1015 29 10000 4.12 230 21:59 14.03.2022
3238 Clear 30 1015 28 10000 4.12 230 21:20 14.03.2022
3239 Clear 30 1016 26 8000 3.6 230 20:34 14.03.2022
3240 Clear 29 1016 26 10000 3.77 244 19:47 14.03.2022
3241 Clear 29 1017 27 8000 2.06 0 18:23 14.03.2022
3242 Clear 27 1018 30 10000 1.54 200 17:43 14.03.2022
3243 Clear 26 1018 32 10000 1.54 0 16:54 14.03.2022
3244 Clear 24 1019 38 10000 0 0 15:20 14.03.2022
3245 Clear 21 863 39 10000 1.29 248 14:00 14.03.2022
3246 Clear 19 863 42 10000 0.4 86 11:27 14.03.2022
3247 Clear 19 863 42 10000 0.45 118 10:23 14.03.2022
3248 Clear 20 863 42 10000 0.45 118 09:38 14.03.2022
3249 Clear 20 863 43 10000 0.43 162 09:18 14.03.2022
3250 Clear 20 863 43 10000 0.43 162 08:46 14.03.2022
3251 Clear 20 864 45 10000 0.45 205 07:19 14.03.2022
3252 Clear 21 863 46 10000 0.67 222 04:22 14.03.2022
3253 Clear 22 863 43 10000 1.26 216 01:46 14.03.2022
3254 Clear 24 915 36 10000 1.54 270 00:35 14.03.2022
3255 Clear 29 1016 25 10000 3.6 230 21:55 13.03.2022
3256 Clear 29 1016 25 10000 3.6 230 21:26 13.03.2022
3257 Clear 29 1016 25 10000 3.09 0 20:46 13.03.2022
3258 Clear 29 1016 25 10000 3.09 0 20:23 13.03.2022
3259 Clear 29 1014 20 10000 3.61 243 19:42 13.03.2022
3260 Clear 28 1016 27 10000 3.41 245 19:23 13.03.2022
3261 Clear 28 1016 27 10000 3.41 245 19:23 13.03.2022
3262 Clear 28 1016 27 10000 3.41 245 19:23 13.03.2022
3263 Clear 28 1016 27 10000 1.54 0 18:45 13.03.2022
3264 Clear 28 1016 27 10000 1.54 0 18:26 13.03.2022
3265 Clear 26 1016 32 10000 2.06 210 17:39 13.03.2022
3266 Clear 24 1016 38 10000 1.54 230 16:46 13.03.2022
3267 Clear 24 1016 38 10000 1.54 230 16:25 13.03.2022
3268 Clear 22 1016 43 10000 1.54 250 15:42 13.03.2022
3269 Clear 20 1016 47 10000 0 0 14:49 13.03.2022
3270 Clear 20 697 42 10000 0.17 280 13:29 13.03.2022
3271 Clear 17 913 54 10000 1.03 60 12:25 13.03.2022
3272 Clear 18 863 46 10000 0.65 43 11:44 13.03.2022
3273 Clear 18 863 47 10000 0.42 72 10:50 13.03.2022
3274 Clear 18 863 48 10000 0.04 116 10:29 13.03.2022
3275 Clear 19 863 48 10000 0.04 116 09:42 13.03.2022
3276 Clear 18 863 48 10000 0.22 110 08:50 13.03.2022
3277 Clear 19 863 48 10000 0.22 110 08:30 13.03.2022
3278 Clear 19 863 48 10000 0.3 176 07:34 13.03.2022
3279 Clear 20 864 52 10000 0.64 205 04:59 13.03.2022
3280 Clear 21 863 45 10000 0.89 209 01:48 13.03.2022
3281 Clear 25 1017 37 10000 3.09 240 23:28 12.03.2022
3282 Clear 27 1017 32 10000 4.63 260 21:43 12.03.2022
3283 Clear 26 1017 33 10000 3.6 240 20:20 12.03.2022
3284 Clear 26 1017 31 10000 3.67 245 19:46 12.03.2022
3285 Clear 26 1017 31 8000 2.06 220 18:41 12.03.2022
3286 Clear 24 1018 32 10000 2.06 0 17:53 12.03.2022
3287 Clear 22 1018 38 10000 1.54 240 16:28 12.03.2022
3288 Clear 22 1018 38 10000 1.54 240 16:28 12.03.2022
3289 Clear 19 1017 50 10000 1.54 0 15:50 12.03.2022
3290 Clear 20 913 45 10000 1.54 0 15:21 12.03.2022
3291 Clear 20 863 40 10000 1.76 244 13:53 12.03.2022
3292 Clear 15 1018 59 10000 0.51 150 12:28 12.03.2022
3293 Clear 16 1019 46 10000 0.19 209 11:53 12.03.2022
3294 Clear 16 1019 46 10000 0.19 209 11:33 12.03.2022
3295 Clear 19 862 43 10000 0.08 343 10:24 12.03.2022
3296 Clear 19 862 43 10000 0.08 343 09:43 12.03.2022
3297 Clear 19 862 42 10000 0.85 241 07:58 12.03.2022
3298 Clear 20 862 43 10000 0.65 245 06:40 12.03.2022
3299 Clear 24 1014 29 10000 2.06 250 00:31 12.03.2022
3300 Clear 26 1014 26 10000 3.6 240 23:41 11.03.2022
3301 Clear 28 1013 24 10000 3.6 240 22:32 11.03.2022
3302 Clear 29 1013 24 10000 4.63 240 21:24 11.03.2022
3303 Clear 29 1013 24 10000 4.63 240 21:24 11.03.2022
3304 Clear 29 1013 24 10000 3.6 220 20:46 11.03.2022
3305 Clear 29 1013 24 10000 3.6 220 20:46 11.03.2022
3306 Clear 29 1013 24 10000 3.6 220 20:26 11.03.2022
3307 Clear 28 1013 22 10000 3.79 243 19:32 11.03.2022
3308 Clear 28 1014 23 10000 2.57 270 18:30 11.03.2022
3309 Clear 26 1014 25 10000 2.69 251 17:24 11.03.2022
3310 Clear 23 1015 32 10000 2.06 140 15:59 11.03.2022
3311 Clear 23 1014 33 10000 2.06 140 15:32 11.03.2022
3312 Clear 20 861 37 10000 1.43 264 13:42 11.03.2022
3313 Clear 17 855 53 10000 0 0 12:37 11.03.2022
3314 Clear 19 862 41 10000 0.65 52 11:57 11.03.2022
3315 Clear 19 861 43 10000 0.37 88 10:30 11.03.2022
3316 Clear 19 861 42 10000 0.3 141 09:34 11.03.2022
3317 Clear 19 861 42 10000 0.17 146 08:28 11.03.2022
3318 Clear 19 862 43 10000 0.17 146 07:48 11.03.2022
3319 Clear 20 862 43 10000 0.24 194 06:26 11.03.2022
3320 Clear 21 862 42 10000 0.55 224 04:28 11.03.2022
3321 Clear 23 861 37 10000 1.65 197 01:20 11.03.2022
3322 Clear 29 1014 21 10000 3.6 230 22:32 10.03.2022
3323 Clear 29 1013 22 10000 2.57 230 21:53 10.03.2022
3324 Clear 29 1014 21 10000 2.57 230 21:24 10.03.2022
3325 Clear 29 1013 21 10000 2.57 230 20:34 10.03.2022
3326 Clear 27 1015 23 10000 3.2 248 19:20 10.03.2022
3327 Clear 25 1016 30 10000 1.54 350 17:50 10.03.2022
3328 Clear 23 1017 36 10000 1.03 350 16:52 10.03.2022
3329 Clear 21 913 41 10000 2.06 0 15:27 10.03.2022
3330 Clear 20 863 43 10000 1.27 260 13:42 10.03.2022
3331 Clear 16 914 55 10000 0 0 12:38 10.03.2022
3332 Clear 16 1021 50 10000 0.24 70 11:28 10.03.2022
3333 Clear 17 1021 53 10000 0.43 225 09:28 10.03.2022
3334 Clear 17 1021 52 10000 0.34 195 07:47 10.03.2022
3335 Clear 21 697 41 10000 0.22 134 05:30 10.03.2022
3336 Clear 21 697 41 10000 1.58 221 01:56 10.03.2022
3337 Clear 24 857 32 10000 3.6 220 23:32 09.03.2022
3338 Clear 28 1016 24 10000 3.09 240 22:20 09.03.2022
3339 Clear 29 1016 26 10000 3.09 220 21:36 09.03.2022
3340 Clear 27 1015 28 10000 3.6 210 20:31 09.03.2022
3341 Clear 25 1016 33 10000 2.06 260 18:35 09.03.2022
3342 Clear 23 1016 35 10000 1.54 300 17:28 09.03.2022
3343 Clear 19 1016 24 10000 3.05 251 16:35 09.03.2022
3344 Clear 20 858 45 10000 2.06 170 15:31 09.03.2022
3345 Clear 21 697 41 10000 1.72 247 13:54 09.03.2022
3346 Clear 11 1017 76 10000 0 0 12:56 09.03.2022
3347 Clear 11 1017 76 10000 0 0 12:19 09.03.2022
3348 Clear 10 1016 44 10000 0.41 227 11:36 09.03.2022
3349 Clear 10 1015 44 10000 0.59 221 10:39 09.03.2022
3350 Clear 11 1015 44 10000 0.05 147 08:59 09.03.2022
3351 Clear 13 1016 45 10000 0.5 233 08:25 09.03.2022
3352 Clear 19 1022 44 10000 1.3 232 03:50 09.03.2022
3353 Clear 21 914 40 10000 2.57 240 00:47 09.03.2022
3354 Clear 23 914 35 10000 3.09 240 22:48 08.03.2022
3355 Clear 24 1019 31 10000 3.09 240 22:29 08.03.2022
3356 Clear 24 1020 32 10000 4.94 237 21:24 08.03.2022
3357 Clear 25 1019 32 10000 4.63 230 20:44 08.03.2022
3358 Clear 24 1021 32 10000 4.43 239 19:53 08.03.2022
3359 Clear 24 1019 30 10000 3.93 247 18:44 08.03.2022
3360 Clear 23 1019 32 10000 2.57 200 17:37 08.03.2022
3361 Clear 22 913 35 10000 2.57 0 16:26 08.03.2022
3362 Clear 20 914 40 10000 1.03 0 14:20 08.03.2022
3363 Clear 17 914 48 10000 1.54 40 12:44 08.03.2022
3364 Clear 17 1021 42 10000 0.37 263 11:45 08.03.2022
3365 Clear 17 1020 42 10000 0.31 322 10:50 08.03.2022
3366 Clear 17 1019 42 10000 0.28 311 09:57 08.03.2022
3367 Clear 18 1018 42 10000 0.54 249 07:33 08.03.2022
3368 Clear 20 863 43 10000 0.82 247 05:43 08.03.2022
3369 Clear 28 1014 19 10000 2.57 200 23:52 07.03.2022
3370 Clear 28 1014 19 10000 2.57 250 21:59 07.03.2022
3371 Clear 28 1014 20 10000 2.57 250 21:32 07.03.2022
3372 Clear 27 1014 21 10000 2.57 220 20:48 07.03.2022
3373 Clear 27 1015 21 10000 2.57 220 20:20 07.03.2022
3374 Clear 26 1016 23 10000 3.3 249 19:31 07.03.2022
3375 Clear 25 1015 24 10000 2.57 240 18:44 07.03.2022
3376 Clear 23 1015 25 10000 1.54 0 17:50 07.03.2022
3377 Clear 21 1017 30 10000 1.54 150 16:55 07.03.2022
3378 Clear 20 856 37 10000 1.54 240 15:50 07.03.2022
3379 Clear 19 697 37 10000 1.73 235 13:52 07.03.2022
3380 Clear 12 1018 55 10000 0 0 12:28 07.03.2022
3381 Clear 15 1021 45 10000 0.81 111 10:38 07.03.2022
3382 Clear 15 1021 44 10000 0.25 103 08:57 07.03.2022
3383 Clear 17 1022 38 10000 0.72 230 04:43 07.03.2022
3384 Clouds 22 913 32 10000 2.06 0 00:22 07.03.2022
3385 Clouds 22 912 32 10000 2.57 210 23:35 06.03.2022
3386 Clouds 23 912 32 10000 2.57 240 22:42 06.03.2022
3387 Clouds 23 912 33 10000 3.09 200 21:47 06.03.2022
3388 Clouds 23 1017 30 10000 4.12 220 20:38 06.03.2022
3389 Clouds 23 1017 30 10000 4.12 220 20:20 06.03.2022
3390 Clouds 23 1017 29 10000 2.06 180 18:56 06.03.2022
3391 Clouds 22 1016 29 10000 2.06 180 18:23 06.03.2022
3392 Clouds 22 913 34 10000 2.57 270 17:21 06.03.2022
3393 Clouds 21 913 34 10000 1.54 0 16:41 06.03.2022
3394 Clouds 20 913 38 10000 1.03 0 15:49 06.03.2022
3395 Clouds 19 913 40 10000 2.06 0 14:49 06.03.2022
3396 Clouds 19 913 43 10000 2.06 0 14:31 06.03.2022
3397 Clear 19 1018 41 10000 1.63 233 13:18 06.03.2022
3398 Clouds 17 1017 51 9000 0 0 12:31 06.03.2022
3399 Clear 18 1018 44 10000 0.56 342 10:53 06.03.2022
3400 Clear 18 1017 45 10000 0.58 231 10:22 06.03.2022
3401 Clear 19 1018 43 10000 1.06 273 08:29 06.03.2022
3402 Clear 19 1018 43 10000 1.06 273 08:29 06.03.2022
3403 Clear 19 1018 43 10000 1.06 273 08:29 06.03.2022
3404 Clear 19 1018 43 10000 1.06 273 08:29 06.03.2022
3405 Clear 19 1018 43 10000 1.06 273 08:29 06.03.2022
3406 Clear 19 1018 43 10000 1.06 273 07:34 06.03.2022
3407 Clear 21 862 40 10000 1.15 255 05:32 06.03.2022
3408 Clear 25 911 33 10000 3.09 240 00:49 06.03.2022
3409 Clear 25 911 33 10000 3.09 240 00:29 06.03.2022
3410 Clear 28 1014 27 10000 3.09 240 23:21 05.03.2022
3411 Clouds 28 1015 28 10000 3.09 0 22:43 05.03.2022
3412 Clouds 28 1015 28 10000 3.09 260 21:45 05.03.2022
3413 Clouds 28 1015 28 10000 3.09 260 21:20 05.03.2022
3414 Clouds 26 1017 33 10000 3.23 250 19:24 05.03.2022
3415 Clouds 25 1018 38 7000 2.06 0 18:53 05.03.2022
3416 Clouds 24 1018 39 7000 1.54 270 17:53 05.03.2022
3417 Clouds 23 1019 44 8000 1.03 0 16:32 05.03.2022
3418 Clouds 21 914 46 8000 0 0 15:31 05.03.2022
3419 Clouds 20 914 49 10000 0 0 14:44 05.03.2022
3420 Clouds 20 914 49 10000 0 0 14:26 05.03.2022
3421 Clouds 20 863 46 10000 0.9 246 13:20 05.03.2022
3422 Clouds 20 863 48 10000 0.78 261 11:46 05.03.2022
3423 Clouds 20 863 47 10000 0.65 262 11:18 05.03.2022
3424 Clouds 20 863 46 10000 0.73 255 09:58 05.03.2022
3425 Clouds 20 863 47 10000 1.05 247 08:59 05.03.2022
3426 Clouds 20 863 47 10000 0.78 268 07:37 05.03.2022
3427 Clouds 21 864 49 10000 0.82 247 05:42 05.03.2022
3428 Clouds 21 864 47 10000 2 230 02:20 05.03.2022
3429 Clouds 27 1017 35 10000 3.6 240 23:36 04.03.2022
3430 Haze 28 1017 32 4000 4.63 240 22:42 04.03.2022
3431 Clear 28 1017 29 10000 4.12 240 21:48 04.03.2022
3432 Clear 28 1017 30 10000 3.09 240 20:52 04.03.2022
3433 Clear 28 1018 31 10000 3.09 240 20:22 04.03.2022
3434 Clouds 27 1018 33 10000 3.92 242 19:35 04.03.2022
3435 Clouds 26 1018 37 9000 3.09 240 18:43 04.03.2022
3436 Clouds 26 1018 39 9000 2.57 220 17:31 04.03.2022
3437 Clear 24 1018 42 9000 1.54 240 16:43 04.03.2022
3438 Clear 22 886 45 9000 2.06 210 15:28 04.03.2022
3439 Clear 21 913 46 10000 2.06 240 14:19 04.03.2022
3440 Clear 20 863 45 10000 1.13 255 13:26 04.03.2022
3441 Clear 19 863 49 10000 0.3 306 11:41 04.03.2022
3442 Clear 19 863 49 10000 0.31 281 10:42 04.03.2022
3443 Clear 20 863 47 10000 0.39 246 09:40 04.03.2022
3444 Clear 20 863 48 10000 0.52 257 08:36 04.03.2022
3445 Clear 20 863 47 10000 0.73 243 07:23 04.03.2022
3446 Clear 21 863 44 10000 1.16 245 03:53 04.03.2022
3447 Clear 25 1016 41 10000 3.09 260 00:24 04.03.2022
3448 Clear 28 1016 31 10000 3.09 210 22:26 03.03.2022
3449 Clear 28 1016 31 10000 3.09 190 21:41 03.03.2022
3450 Clear 28 1016 31 10000 3.09 190 21:21 03.03.2022
3451 Clear 27 1017 30 10000 3.59 239 19:51 03.03.2022
3452 Clear 26 1017 34 8000 3.09 260 18:54 03.03.2022
3453 Clear 26 1017 36 8000 3.09 260 18:23 03.03.2022
3454 Clear 25 1017 38 7000 2.57 240 17:30 03.03.2022
3455 Clear 24 1017 38 8000 2.57 210 16:24 03.03.2022
3456 Clear 23 1017 42 10000 1.54 210 15:21 03.03.2022
3457 Clear 21 1017 44 10000 0 0 14:42 03.03.2022
3458 Clear 20 863 45 10000 0.81 285 13:19 03.03.2022
3459 Clouds 20 863 45 10000 0.37 309 11:54 03.03.2022
3460 Clouds 20 862 46 10000 0.26 323 10:42 03.03.2022
3461 Clouds 20 862 47 10000 0.51 278 08:57 03.03.2022
3462 Clear 20 862 47 10000 0.7 267 07:45 03.03.2022
3463 Clear 20 862 47 10000 0.68 265 06:35 03.03.2022
3464 Clear 22 861 41 10000 1.73 228 02:23 03.03.2022
3465 Clear 29 1012 28 10000 3.6 240 23:31 02.03.2022
3466 Clear 30 1012 25 10000 3.09 230 22:52 02.03.2022
3467 Clear 31 1012 21 8000 3.6 200 21:32 02.03.2022
3468 Clear 30 1011 21 10000 2.06 250 20:53 02.03.2022
3469 Clear 30 1011 21 10000 2.06 250 20:24 02.03.2022
3470 Clear 29 1012 21 10000 3.42 248 19:36 02.03.2022
3471 Clear 28 1013 21 8000 2.06 280 18:48 02.03.2022
3472 Clear 28 1013 21 8000 2.06 280 18:18 02.03.2022
3473 Clear 27 1012 21 10000 0 0 17:34 02.03.2022
3474 Clear 25 1013 23 10000 1.54 290 16:51 02.03.2022
3475 Clear 21 1013 32 10000 0 0 14:49 02.03.2022
3476 Clear 20 861 36 10000 0.47 259 13:29 02.03.2022
3477 Clear 17 855 49 10000 1.03 80 12:44 02.03.2022
3478 Clear 19 862 37 10000 0.46 74 11:53 02.03.2022
3479 Clear 19 862 40 10000 0.5 82 11:25 02.03.2022
3480 Clear 19 862 40 10000 0.15 21 09:47 02.03.2022
3481 Clear 19 862 40 10000 0.13 168 09:25 02.03.2022
3482 Clear 20 862 40 10000 0.17 163 07:52 02.03.2022
3483 Clear 20 863 41 10000 0.28 155 06:57 02.03.2022
3484 Clear 21 863 39 10000 1.06 209 03:46 02.03.2022
3485 Clear 25 1017 26 10000 1.58 217 00:39 02.03.2022
3486 Clear 30 1015 18 10000 3.6 240 22:50 01.03.2022
3487 Clear 30 1015 16 10000 3.6 240 22:31 01.03.2022
3488 Clear 30 1015 16 10000 4.12 190 21:25 01.03.2022
3489 Clear 29 1015 16 10000 3.09 240 20:33 01.03.2022
3490 Clear 28 1015 18 10000 3.76 243 19:50 01.03.2022
3491 Clear 27 1015 19 10000 2.57 180 18:51 01.03.2022
3492 Clear 27 1016 19 10000 2.57 180 18:21 01.03.2022
3493 Clear 26 1016 19 10000 2.06 280 17:37 01.03.2022
3494 Clear 24 1016 23 10000 0 0 16:35 01.03.2022
3495 Clear 22 1016 31 10000 0 0 15:47 01.03.2022
3496 Clear 19 1016 34 10000 1.54 190 14:41 01.03.2022
3497 Clear 20 857 37 10000 1.54 190 14:23 01.03.2022
3498 Clear 20 863 35 10000 0.15 227 13:26 01.03.2022
3499 Clear 16 857 50 10000 1.54 60 12:35 01.03.2022
3500 Clear 16 1019 38 10000 0.2 98 10:52 01.03.2022
3501 Clear 19 863 40 10000 0.26 152 09:27 01.03.2022
3502 Clear 19 862 39 10000 0.28 181 08:19 01.03.2022
3503 Clear 20 863 42 10000 0.41 188 06:28 01.03.2022
3504 Clear 21 863 46 10000 0.45 257 02:48 01.03.2022
3505 Clear 26 1016 23 10000 3.09 240 00:47 01.03.2022
3506 Clear 28 1016 19 10000 2.57 230 23:36 28.02.2022
3507 Clear 28 1015 18 10000 4.12 240 22:30 28.02.2022
3508 Clear 28 1015 19 10000 3.09 230 21:43 28.02.2022
3509 Clear 28 1016 21 10000 3.6 210 20:34 28.02.2022
3510 Clear 27 1016 22 10000 3.69 241 19:51 28.02.2022
3511 Clear 25 1017 28 10000 2.06 260 18:50 28.02.2022
3512 Clear 24 1016 31 10000 0 0 17:37 28.02.2022
3513 Clear 24 1017 33 10000 0 0 17:18 28.02.2022
3514 Clear 21 913 39 10000 0 0 15:59 28.02.2022
3515 Clear 19 914 43 10000 0 0 14:32 28.02.2022
3516 Clear 19 864 43 10000 1.73 236 13:52 28.02.2022
3517 Clear 19 864 43 10000 1.73 236 13:52 28.02.2022
3518 Clear 19 864 45 10000 1.33 225 13:18 28.02.2022
3519 Clear 16 1022 52 10000 0.17 174 11:59 28.02.2022
3520 Clear 16 1022 50 10000 0.18 161 11:19 28.02.2022
3521 Clear 17 1021 50 10000 0.59 207 10:22 28.02.2022
3522 Clear 17 1021 50 10000 0.59 207 09:44 28.02.2022
3523 Clear 17 1021 49 10000 0.56 207 08:54 28.02.2022
3524 Clear 17 1021 47 10000 0.58 219 07:59 28.02.2022
3525 Clear 19 1021 45 10000 0.82 221 06:31 28.02.2022
3526 Clear 20 864 42 10000 1.05 215 04:30 28.02.2022
3527 Clear 22 863 38 10000 2.93 228 00:53 28.02.2022
3528 Clear 27 1017 29 10000 3.09 210 22:53 27.02.2022
3529 Clear 27 1017 29 10000 3.09 210 22:32 27.02.2022
3530 Clear 27 1018 30 10000 3.6 230 21:42 27.02.2022
3531 Clear 26 1018 32 10000 3.09 230 20:44 27.02.2022
3532 Clear 26 1018 33 10000 3.09 230 20:18 27.02.2022
3533 Clear 25 1019 33 10000 3.89 246 19:48 27.02.2022
3534 Clear 25 1020 35 10000 3.79 246 19:21 27.02.2022
3535 Clear 24 1020 37 10000 2.06 270 18:33 27.02.2022
3536 Clear 23 1020 39 10000 1.54 240 17:49 27.02.2022
3537 Clear 21 916 44 10000 2.06 250 16:25 27.02.2022
3538 Clear 20 916 45 10000 2.06 260 15:21 27.02.2022
3539 Clear 15 1022 59 10000 2.06 240 12:37 27.02.2022
3540 Clear 16 1023 52 10000 0.5 255 11:54 27.02.2022
3541 Clear 17 1023 54 10000 0.3 214 10:37 27.02.2022
3542 Clear 17 1023 53 10000 0.99 244 09:58 27.02.2022
3543 Clear 17 1022 54 10000 0.61 251 09:24 27.02.2022
3544 Clear 17 1021 53 10000 0.61 251 08:48 27.02.2022
3545 Clear 19 1022 49 10000 1.54 249 06:30 27.02.2022
3546 Clear 21 864 44 10000 1.69 244 04:19 27.02.2022
3547 Clear 23 863 36 10000 2.56 230 00:31 27.02.2022
3548 Clear 28 1017 24 10000 4.12 230 22:48 26.02.2022
3549 Clear 27 1017 26 10000 4.12 250 21:29 26.02.2022
3550 Clear 27 1017 28 10000 4.63 260 20:43 26.02.2022
3551 Clear 27 1018 30 10000 3.86 244 19:58 26.02.2022
3552 Clear 26 1018 31 10000 3.86 244 19:33 26.02.2022
3553 Clear 26 1019 31 10000 2.06 280 18:40 26.02.2022
3554 Clear 24 1019 32 10000 1.54 0 17:38 26.02.2022
3555 Clear 23 1019 34 10000 1.54 240 16:39 26.02.2022
3556 Clear 21 858 39 10000 1.03 0 15:42 26.02.2022
3557 Clear 20 915 42 10000 1.03 0 15:19 26.02.2022
3558 Clear 19 858 42 10000 1.03 360 14:44 26.02.2022
3559 Clear 19 915 46 10000 1.03 360 14:24 26.02.2022
3560 Clear 17 915 52 10000 0 0 12:59 26.02.2022
3561 Clear 16 1022 52 10000 0.31 287 11:54 26.02.2022
3562 Clear 16 1022 52 10000 0.13 227 11:27 26.02.2022
3563 Clear 17 1022 53 10000 0.72 234 10:22 26.02.2022
3564 Clear 17 1021 50 10000 0.75 238 08:35 26.02.2022
3565 Clear 18 1022 48 10000 0.71 241 06:46 26.02.2022
3566 Clear 24 913 36 10000 4.12 240 00:26 26.02.2022
3567 Clear 28 1017 26 10000 3.6 230 22:45 25.02.2022
3568 Clear 29 1017 24 10000 3.09 230 21:37 25.02.2022
3569 Clear 29 1017 23 10000 3.09 230 21:18 25.02.2022
3570 Clear 28 1017 24 10000 3.09 240 20:31 25.02.2022
3571 Clear 26 1019 28 10000 2.57 0 18:35 25.02.2022
3572 Clear 25 1019 32 10000 2.57 0 17:23 25.02.2022
3573 Clear 22 914 37 10000 2.57 240 16:21 25.02.2022
3574 Clear 21 916 40 10000 0 0 15:42 25.02.2022
3575 Clear 21 914 39 10000 0 0 15:20 25.02.2022
3576 Clear 20 858 42 10000 1.54 0 14:41 25.02.2022
3577 Clear 19 697 40 10000 1.57 272 13:36 25.02.2022
3578 Clear 16 914 50 10000 1.54 50 12:45 25.02.2022
3579 Clear 15 1021 46 10000 0.24 319 11:28 25.02.2022
3580 Clear 15 1021 47 10000 0.26 257 10:29 25.02.2022
3581 Clear 16 1021 48 10000 0.26 257 09:53 25.02.2022
3582 Clear 16 1020 50 10000 0.37 247 08:46 25.02.2022
3583 Clear 16 1020 51 10000 0.36 246 07:37 25.02.2022
3584 Clear 19 864 46 10000 0.55 239 05:48 25.02.2022
3585 Clear 20 864 44 10000 0.9 239 03:34 25.02.2022
3586 Clear 25 1017 27 10000 3.09 210 23:42 24.02.2022
3587 Clouds 26 1017 25 10000 3.6 0 21:56 24.02.2022
3588 Clouds 26 1017 26 10000 3.6 0 21:38 24.02.2022
3589 Clouds 26 1017 26 10000 3.6 0 21:19 24.02.2022
3590 Clouds 24 1019 25 10000 3.2 250 19:38 24.02.2022
3591 Clouds 24 1019 31 10000 2.57 180 18:43 24.02.2022
3592 Clouds 23 1019 32 10000 2.57 180 18:18 24.02.2022
3593 Clouds 22 1018 38 10000 1.54 180 17:33 24.02.2022
3594 Clouds 22 1018 38 10000 1.54 180 17:33 24.02.2022
3595 Clear 20 914 45 10000 1.54 0 16:49 24.02.2022
3596 Clear 20 915 46 10000 1.54 0 16:23 24.02.2022
3597 Clouds 18 915 53 10000 0 0 14:54 24.02.2022
3598 Clouds 18 915 53 10000 0 0 14:35 24.02.2022
3599 Clear 18 865 50 10000 1.88 250 13:39 24.02.2022
3600 Clear 13 1022 74 10000 1.03 30 12:50 24.02.2022
3601 Clear 14 1024 65 10000 0.34 169 10:40 24.02.2022
3602 Clear 14 1024 68 10000 0.8 174 09:18 24.02.2022
3603 Clear 15 1024 68 10000 0.8 174 08:40 24.02.2022
3604 Clouds 16 1024 67 10000 0.88 251 05:53 24.02.2022
3605 Clouds 18 1024 57 10000 2.3 219 01:56 24.02.2022
3606 Clouds 20 917 40 10000 3.6 210 23:31 23.02.2022
3607 Clouds 21 916 38 10000 3.6 180 21:43 23.02.2022
3608 Clouds 22 916 36 10000 5.14 210 20:31 23.02.2022
3609 Clouds 22 867 35 10000 2.94 260 19:47 23.02.2022
3610 Clouds 21 914 43 10000 2.57 90 18:32 23.02.2022
3611 Clouds 21 914 43 10000 2.57 90 18:32 23.02.2022
3612 Clouds 21 1020 44 10000 0 0 17:44 23.02.2022
3613 Clouds 15 1020 58 10000 0 0 14:44 23.02.2022
3614 Clouds 14 1019 65 10000 0 0 12:50 23.02.2022
3615 Clouds 15 1021 59 10000 1.29 267 11:59 23.02.2022
3616 Clouds 15 1019 57 10000 0.85 285 10:35 23.02.2022
3617 Clouds 16 1018 57 10000 1.07 258 08:59 23.02.2022
3618 Clouds 16 1018 57 10000 1.07 258 08:59 23.02.2022
3619 Clouds 16 1018 56 10000 1.08 265 08:23 23.02.2022
3620 Clouds 17 1018 57 10000 1.06 252 05:49 23.02.2022
3621 Clouds 20 1016 45 10000 2.57 230 00:47 23.02.2022
3622 Clouds 23 1016 37 10000 3.6 250 23:39 22.02.2022
3623 Clouds 24 1016 34 10000 3.6 220 22:41 22.02.2022
3624 Clouds 25 1015 33 10000 3.6 190 21:49 22.02.2022
3625 Clouds 25 1015 32 10000 3.6 190 21:31 22.02.2022
3626 Clear 24 1016 34 10000 3.09 240 20:59 22.02.2022
3627 Clear 24 1016 34 10000 3.09 240 20:30 22.02.2022
3628 Clouds 24 1017 34 10000 3.86 242 19:47 22.02.2022
3629 Clouds 24 1017 36 10000 3.76 243 19:28 22.02.2022
3630 Clear 23 1018 39 10000 2.06 240 18:21 22.02.2022
3631 Clear 21 1018 47 10000 1.54 0 17:24 22.02.2022
3632 Clear 20 1018 49 10000 2.57 210 16:41 22.02.2022
3633 Clear 18 1018 53 10000 2.06 260 15:56 22.02.2022
3634 Clear 16 1018 58 10000 1.54 190 14:45 22.02.2022
3635 Clear 13 1018 74 10000 0 0 12:44 22.02.2022
3636 Clear 16 1019 61 10000 0.76 268 10:53 22.02.2022
3637 Clear 16 1020 61 10000 0.92 261 08:48 22.02.2022
3638 Clouds 16 1019 59 10000 0.84 264 07:27 22.02.2022
3639 Clouds 17 1019 58 10000 1.4 258 05:57 22.02.2022
3640 Clouds 19 1018 50 10000 1.72 240 02:45 22.02.2022
3641 Clear 26 1014 34 10000 3.6 240 22:53 21.02.2022
3642 Clear 26 1014 32 10000 4.12 210 21:46 21.02.2022
3643 Clear 26 1014 31 10000 3.09 210 20:36 21.02.2022
3644 Clear 25 1014 35 10000 3.09 210 18:46 21.02.2022
3645 Clear 23 1015 38 10000 2.06 240 17:39 21.02.2022
3646 Clear 20 1015 45 10000 2.06 190 15:25 21.02.2022
3647 Clouds 18 1015 50 10000 1.03 30 14:22 21.02.2022
3648 Clouds 18 1016 49 10000 1.87 259 13:30 21.02.2022
3649 Clear 14 1015 63 10000 0.51 0 12:24 21.02.2022
3650 Clouds 16 1017 52 10000 0.29 309 11:20 21.02.2022
3651 Clouds 17 1017 53 10000 0.39 322 09:50 21.02.2022
3652 Clear 18 1018 50 10000 0.92 247 05:35 21.02.2022
3653 Clouds 23 1016 34 10000 3.09 240 00:18 21.02.2022
3654 Clouds 26 1013 29 10000 4.12 240 22:27 20.02.2022
3655 Clouds 27 1013 29 10000 3.09 240 21:42 20.02.2022
3656 Clouds 27 1013 28 8000 3.09 190 20:59 20.02.2022
3657 Clouds 27 1014 28 8000 3.09 190 20:41 20.02.2022
3658 Clouds 27 1014 28 10000 4.13 241 19:36 20.02.2022
3659 Clear 27 1015 29 10000 3.09 160 18:51 20.02.2022
3660 Clear 26 1015 29 10000 3.09 160 18:31 20.02.2022
3661 Clouds 25 1015 31 8000 2.06 240 17:49 20.02.2022
3662 Clear 23 1015 36 10000 2.57 240 15:41 20.02.2022
3663 Clear 21 1018 38 10000 0 0 14:48 20.02.2022
3664 Clear 19 1018 37 10000 1.68 248 13:23 20.02.2022
3665 Clear 16 1017 52 10000 0 0 12:34 20.02.2022
3666 Clear 18 1019 39 10000 0.6 252 10:47 20.02.2022
3667 Clear 18 1018 38 10000 0.24 265 10:19 20.02.2022
3668 Clear 19 1018 36 10000 0.64 240 08:50 20.02.2022
3669 Clear 25 1017 27 10000 4.12 230 00:54 20.02.2022
3670 Clear 25 1017 25 10000 4.12 230 00:30 20.02.2022
3671 Clear 27 1014 22 10000 4.12 230 23:18 19.02.2022
3672 Clear 28 1014 19 10000 4.12 230 22:22 19.02.2022
3673 Clear 29 1013 18 10000 4.12 230 21:25 19.02.2022
3674 Clear 27 1015 22 10000 4.09 248 19:53 19.02.2022
3675 Clear 27 1015 23 10000 4.09 248 19:30 19.02.2022
3676 Clear 27 1016 25 8000 3.09 0 18:33 19.02.2022
3677 Clear 25 1016 25 8000 2.57 270 17:36 19.02.2022
3678 Clear 24 1017 27 10000 2.06 280 16:28 19.02.2022
3679 Clear 22 1017 28 10000 1.54 200 15:18 19.02.2022
3680 Clear 21 1017 31 10000 0 0 14:49 19.02.2022
3681 Clear 19 1019 33 10000 1.89 244 13:45 19.02.2022
3682 Clear 17 1020 39 10000 0.06 195 11:38 19.02.2022
3683 Clear 18 1019 37 10000 0.32 243 09:55 19.02.2022
3684 Clear 19 1020 34 10000 0.87 243 06:58 19.02.2022
3685 Clear 21 1020 32 10000 0.96 243 03:54 19.02.2022
3686 Clear 26 1016 23 10000 5.14 220 23:33 18.02.2022
3687 Clear 29 1013 23 10000 5.14 240 21:50 18.02.2022
3688 Clear 29 1012 23 10000 3.6 230 20:51 18.02.2022
3689 Clear 29 1012 24 10000 4.75 245 19:53 18.02.2022
3690 Clear 28 1013 25 8000 2.57 0 18:50 18.02.2022
3691 Clear 28 1013 26 8000 2.57 0 18:22 18.02.2022
3692 Clear 28 1013 27 7000 2.06 230 17:51 18.02.2022
3693 Clear 23 1014 32 10000 0 0 14:54 18.02.2022
3694 Clear 23 1014 32 10000 1.69 257 13:55 18.02.2022
3695 Clear 20 1013 41 10000 0 0 12:53 18.02.2022
3696 Clear 20 1013 42 10000 0 0 12:33 18.02.2022
3697 Clear 19 1016 38 10000 0.07 227 11:27 18.02.2022
3698 Clear 19 1015 34 10000 0.07 123 10:23 18.02.2022
3699 Clear 21 1015 37 10000 0.59 190 06:56 18.02.2022
3700 Clear 21 1016 38 10000 0.77 211 05:39 18.02.2022
3701 Clear 29 1012 22 10000 4.12 250 23:24 17.02.2022
3702 Clear 31 1014 20 10000 4.12 240 21:45 17.02.2022
3703 Clear 31 1012 21 10000 4.12 240 21:19 17.02.2022
3704 Clear 31 1012 22 10000 3.09 260 20:37 17.02.2022
3705 Clear 31 1012 24 10000 4.22 243 19:48 17.02.2022
3706 Clear 29 1015 26 10000 2.57 260 18:41 17.02.2022
3707 Clear 28 1015 27 10000 3.71 246 17:50 17.02.2022
3708 Clear 26 1016 31 10000 2.81 252 16:25 17.02.2022
3709 Clear 25 1014 34 10000 1.54 260 15:32 17.02.2022
3710 Clear 23 1014 38 10000 0 0 14:26 17.02.2022
3711 Clear 20 1013 49 10000 0 0 12:36 17.02.2022
3712 Clear 19 1017 33 10000 0.56 125 11:23 17.02.2022
3713 Clear 20 1017 36 10000 0.28 143 08:52 17.02.2022
3714 Clear 26 1016 36 10000 1.28 208 01:45 17.02.2022
3715 Clear 29 1015 27 10000 4.12 240 23:19 16.02.2022
3716 Clear 30 1015 26 10000 3.09 240 21:40 16.02.2022
3717 Clear 30 1014 23 10000 4.07 238 19:47 16.02.2022
3718 Clear 28 1015 28 10000 4.07 242 18:38 16.02.2022
3719 Clear 26 1017 35 6000 2.06 0 17:53 16.02.2022
3720 Clear 23 1017 45 10000 1.03 290 15:39 16.02.2022
3721 Clear 23 1017 47 10000 1.03 290 15:18 16.02.2022
3722 Clear 14 1017 73 10000 0 0 12:59 16.02.2022
3723 Clear 18 1022 65 10000 0.28 182 11:58 16.02.2022
3724 Clear 18 1022 66 10000 0.65 178 11:24 16.02.2022
3725 Clear 17 1021 64 10000 0.65 178 10:33 16.02.2022
3726 Clear 18 1021 64 10000 0.57 221 07:54 16.02.2022
3727 Clear 18 1021 63 10000 0.95 229 06:26 16.02.2022
3728 Clear 26 1017 42 10000 3.09 250 23:45 15.02.2022
3729 Clear 26 1017 37 10000 4.12 210 22:29 15.02.2022
3730 Clear 27 1017 38 7000 3.6 240 21:47 15.02.2022
3731 Clear 27 1016 35 7000 3.6 240 21:27 15.02.2022
3732 Clear 27 1016 36 7000 4.12 200 20:56 15.02.2022
3733 Clear 26 1014 34 10000 4.35 243 19:57 15.02.2022
3734 Haze 25 1017 47 5000 2.57 230 18:56 15.02.2022
3735 Haze 25 1017 44 5000 2.57 230 18:21 15.02.2022
3736 Haze 23 1017 48 5000 2.57 0 17:50 15.02.2022
3737 Haze 21 1017 54 5000 1.54 0 16:38 15.02.2022
3738 Haze 20 1019 57 5000 0 0 15:28 15.02.2022
3739 Clear 19 863 53 10000 1.15 252 13:27 15.02.2022
3740 Clear 17 913 62 10000 0 0 12:37 15.02.2022
3741 Clear 17 1020 66 10000 0.85 266 11:27 15.02.2022
3742 Clear 18 1019 63 10000 0.75 240 09:31 15.02.2022
3743 Clear 20 863 50 10000 1.06 265 06:52 15.02.2022
3744 Clear 20 863 48 10000 1.25 247 03:55 15.02.2022
3745 Clear 27 1016 38 10000 4.12 230 23:33 14.02.2022
3746 Clear 28 1016 33 10000 4.67 240 21:36 14.02.2022
3747 Clear 28 1016 34 8000 3.09 200 20:37 14.02.2022
3748 Clear 27 1017 35 10000 4.05 244 19:34 14.02.2022
3749 Clear 26 1017 38 8000 3.09 240 18:42 14.02.2022
3750 Clear 24 1016 42 8000 2.06 200 17:58 14.02.2022
3751 Clear 24 1017 43 8000 2.06 200 17:25 14.02.2022
3752 Clear 23 1017 47 8000 2.06 190 16:19 14.02.2022
3753 Clear 19 1019 55 10000 2.07 246 13:54 14.02.2022
3754 Clear 19 1019 57 10000 1.24 241 13:26 14.02.2022
3755 Clear 16 1018 69 10000 0 0 12:48 14.02.2022
3756 Clear 19 1020 61 10000 0.65 224 11:54 14.02.2022
3757 Clear 18 1019 63 10000 0.51 235 10:44 14.02.2022
3758 Clear 19 1019 60 10000 0.33 225 08:45 14.02.2022
3759 Clear 19 1019 59 10000 0.38 227 07:31 14.02.2022
3760 Clouds 22 1019 46 10000 2.49 227 01:18 14.02.2022
3761 Clouds 26 1015 38 10000 4.12 240 22:42 13.02.2022
3762 Clouds 27 1015 36 10000 4.12 240 22:24 13.02.2022
3763 Clouds 27 1015 33 10000 5.03 239 21:32 13.02.2022
3764 Clouds 28 1015 28 10000 4.12 230 20:36 13.02.2022
3765 Clear 28 1016 56 10000 4.56 240 19:45 13.02.2022
3766 Clear 26 1016 29 10000 3.6 270 18:49 13.02.2022
3767 Clear 26 1016 29 10000 3.6 270 18:28 13.02.2022
3768 Clear 22 1017 37 10000 0 0 15:54 13.02.2022
3769 Clear 22 1017 38 10000 0 0 15:24 13.02.2022
3770 Clear 20 1017 42 10000 1.03 200 14:31 13.02.2022
3771 Clear 17 1017 57 10000 0 0 12:51 13.02.2022
3772 Clear 19 1018 43 10000 0.49 274 11:44 13.02.2022
3773 Clear 19 1017 42 10000 0.39 250 10:34 13.02.2022
3774 Clear 20 1017 42 10000 0.56 260 09:46 13.02.2022
3775 Clear 20 1016 40 10000 0.72 255 07:49 13.02.2022
3776 Clear 25 1014 32 10000 3.09 240 00:35 13.02.2022
3777 Clear 28 1012 27 10000 4.12 250 23:42 12.02.2022
3778 Clouds 30 1012 25 10000 4.63 210 22:33 12.02.2022
3779 Clear 31 1012 21 10000 4.12 240 21:30 12.02.2022
3780 Clear 30 1011 42 10000 4.12 270 20:47 12.02.2022
3781 Clouds 30 1012 21 10000 4.76 238 19:35 12.02.2022
3782 Clear 29 1012 44 10000 2.06 260 18:53 12.02.2022
3783 Clear 29 1012 23 10000 2.06 260 18:35 12.02.2022
3784 Clear 27 1013 31 10000 2.57 240 17:20 12.02.2022
3785 Clear 25 1014 37 10000 2.06 0 16:29 12.02.2022
3786 Clear 25 1014 36 10000 1.54 190 15:51 12.02.2022
3787 Clear 23 1014 39 10000 1.03 230 14:44 12.02.2022
3788 Clear 22 1014 39 10000 1.03 230 14:24 12.02.2022
3789 Clouds 19 1016 41 10000 0.04 194 11:18 12.02.2022
3790 Clouds 19 1017 50 10000 0.07 306 10:23 12.02.2022
3791 Clouds 19 1016 49 10000 0.07 306 09:32 12.02.2022
3792 Clouds 19 1016 52 10000 0.17 353 08:45 12.02.2022
3793 Clouds 21 1017 51 10000 0.65 229 05:41 12.02.2022
3794 Clouds 21 1017 49 10000 0.88 231 04:36 12.02.2022
3795 Clear 23 1018 37 10000 1.27 209 02:19 12.02.2022
3796 Clouds 27 1015 36 10000 2.57 240 22:58 11.02.2022
3797 Clouds 28 1015 53 10000 2.57 240 22:20 11.02.2022
3798 Clouds 27 1015 38 7000 3.6 250 21:18 11.02.2022
3799 Clouds 26 1016 41 6000 2.57 250 20:21 11.02.2022
3800 Clouds 27 1013 34 10000 3.93 250 19:27 11.02.2022
3801 Clouds 24 1015 45 6000 2.06 240 18:29 11.02.2022
3802 Clouds 22 1016 52 6000 1.54 260 17:26 11.02.2022
3803 Clouds 20 1016 57 6000 2.06 240 16:26 11.02.2022
3804 Clear 18 1016 63 10000 0 0 14:59 11.02.2022
3805 Clear 19 1018 62 10000 0 0 14:37 11.02.2022
3806 Clear 19 1018 62 10000 0 0 14:18 11.02.2022
3807 Clouds 19 1020 58 10000 2.05 247 13:40 11.02.2022
3808 Clouds 17 1019 67 10000 1.54 190 12:37 11.02.2022
3809 Clouds 17 1021 67 10000 0.43 234 10:30 11.02.2022
3810 Clear 17 1019 65 10000 0.48 241 09:22 11.02.2022
3811 Clear 17 1019 65 10000 0.44 240 08:28 11.02.2022
3812 Clear 17 1020 64 10000 0.44 240 07:39 11.02.2022
3813 Clouds 19 1019 62 10000 1.56 238 02:40 11.02.2022
3814 Clouds 20 1020 55 10000 1.75 237 02:20 11.02.2022
3815 Clouds 22 912 48 7000 3.09 240 23:40 10.02.2022
3816 Clouds 23 1016 43 7000 3.6 200 21:55 10.02.2022
3817 Clouds 24 1014 36 7000 3.6 200 21:26 10.02.2022
3818 Clouds 25 1014 44 6000 4.12 240 20:48 10.02.2022
3819 Clouds 24 1011 39 10000 4.8 239 19:37 10.02.2022
3820 Clouds 24 1016 46 10000 4.26 242 19:18 10.02.2022
3821 Haze 21 1014 54 5000 2.06 250 17:39 10.02.2022
3822 Haze 22 1015 54 5000 2.06 250 17:19 10.02.2022
3823 Clouds 20 856 51 6000 2.57 240 16:23 10.02.2022
3824 Clouds 20 912 55 7000 1.54 0 15:34 10.02.2022
3825 Clouds 19 912 58 6000 0 0 14:49 10.02.2022
3826 Clouds 19 912 58 6000 0 0 14:30 10.02.2022
3827 Clouds 19 862 52 10000 2.31 259 13:33 10.02.2022
3828 Clouds 19 862 52 10000 2.31 259 13:33 10.02.2022
3829 Clouds 17 912 64 6000 0 0 12:51 10.02.2022
3830 Clear 19 862 52 10000 0.61 243 11:44 10.02.2022
3831 Clear 17 1017 64 10000 0.88 256 11:25 10.02.2022
3832 Clear 18 1016 60 10000 0.96 253 10:19 10.02.2022
3833 Clear 18 1016 58 10000 0.93 252 09:25 10.02.2022
3834 Clear 20 861 48 10000 0.79 262 07:57 10.02.2022
3835 Clear 20 862 48 10000 1.01 255 05:53 10.02.2022
3836 Clear 22 861 44 10000 2.1 231 01:58 10.02.2022
3837 Clear 23 910 42 10000 3.6 230 00:51 10.02.2022
3838 Clear 25 1014 39 10000 3.6 230 00:29 10.02.2022
3839 Clear 27 1013 35 10000 4.12 230 23:49 09.02.2022
3840 Clear 28 1012 29 10000 4.63 240 22:45 09.02.2022
3841 Clear 28 1012 29 10000 4.63 240 22:25 09.02.2022
3842 Clear 28 1012 29 10000 4.12 230 21:38 09.02.2022
3843 Clear 28 1012 29 10000 4.12 230 21:18 09.02.2022
3844 Clear 29 1013 27 8000 3.6 230 20:41 09.02.2022
3845 Clear 29 1012 27 8000 3.6 230 20:20 09.02.2022
3846 Clear 28 1013 27 10000 4.62 244 19:38 09.02.2022
3847 Clear 27 1014 51 8000 2.57 230 17:43 09.02.2022
3848 Clear 26 1014 33 10000 1.54 320 16:53 09.02.2022
3849 Clear 25 1014 40 10000 1.54 200 15:54 09.02.2022
3850 Clear 23 1015 41 10000 2.59 256 14:43 09.02.2022
3851 Clear 18 1015 59 10000 0 0 12:41 09.02.2022
3852 Clouds 20 1016 46 10000 0.51 237 11:19 09.02.2022
3853 Clouds 20 1016 48 10000 0.51 237 10:31 09.02.2022
3854 Clouds 20 1015 48 10000 0.14 241 09:42 09.02.2022
3855 Clouds 20 1015 48 10000 0.4 217 09:19 09.02.2022
3856 Clouds 21 1015 49 10000 0.5 213 07:56 09.02.2022
3857 Clouds 22 862 44 10000 0.62 237 05:30 09.02.2022
3858 Clouds 22 861 41 10000 0.92 234 03:50 09.02.2022
3859 Clear 25 1016 39 10000 2.16 221 01:28 09.02.2022
3860 Clear 29 1014 30 10000 3.6 240 23:39 08.02.2022
3861 Clear 30 1014 28 10000 4.63 250 22:51 08.02.2022
3862 Clear 30 1013 28 10000 4.63 250 22:22 08.02.2022
3863 Clear 31 1013 27 10000 3.6 230 21:50 08.02.2022
3864 Clear 31 1013 26 10000 3.6 230 21:21 08.02.2022
3865 Clear 31 1013 25 10000 3.6 240 20:45 08.02.2022
3866 Clear 30 1014 25 10000 3.97 246 19:52 08.02.2022
3867 Clear 29 1014 30 8000 3.09 210 18:52 08.02.2022
3868 Clear 27 1015 33 10000 2.06 270 17:50 08.02.2022
3869 Clear 26 1015 34 10000 0 0 16:34 08.02.2022
3870 Clear 23 1015 39 10000 1.03 30 15:39 08.02.2022
3871 Clear 21 1016 45 10000 1.03 250 14:44 08.02.2022
3872 Clear 21 862 44 10000 0.77 256 13:29 08.02.2022
3873 Clear 18 912 53 10000 0 0 12:18 08.02.2022
3874 Clear 19 863 46 10000 0.33 193 10:39 08.02.2022
3875 Clear 20 862 44 10000 0.37 165 09:45 08.02.2022
3876 Clear 20 863 45 10000 0.3 222 08:25 08.02.2022
3877 Clear 21 863 41 10000 0.73 224 05:41 08.02.2022
3878 Clear 21 863 41 10000 0.66 219 04:39 08.02.2022
3879 Clear 21 863 41 10000 1.2 219 04:21 08.02.2022
3880 Clear 21 863 41 10000 1.2 219 03:36 08.02.2022
3881 Clear 22 863 40 10000 1.75 232 03:18 08.02.2022
3882 Clear 22 863 41 10000 1.75 232 02:59 08.02.2022
3883 Clear 22 863 40 10000 1.75 232 02:36 08.02.2022
3884 Clear 22 863 39 10000 1.66 226 02:18 08.02.2022
3885 Clear 22 862 40 10000 1.66 226 01:44 08.02.2022
3886 Clear 24 1018 35 10000 2.57 226 01:24 08.02.2022
3887 Clear 26 1017 33 10000 3.09 280 00:55 08.02.2022
3888 Clear 28 1016 30 10000 4.12 240 23:58 07.02.2022
3889 Clear 28 1016 30 10000 4.12 240 23:40 07.02.2022
3890 Clear 28 1016 30 10000 4.12 240 23:40 07.02.2022
3891 Clear 28 1016 30 10000 4.12 240 23:18 07.02.2022
3892 Clear 29 1016 28 10000 4.63 250 22:54 07.02.2022
3893 Clear 29 1015 27 10000 4.63 250 22:18 07.02.2022
3894 Clear 29 1015 28 10000 4.12 240 21:44 07.02.2022
3895 Clear 29 1016 28 10000 4.12 240 21:25 07.02.2022
3896 Clear 30 1016 28 10000 3.09 240 20:41 07.02.2022
3897 Clear 29 1016 29 10000 4.85 240 19:56 07.02.2022
3898 Clear 28 1016 28 10000 4.85 240 19:38 07.02.2022
3899 Clear 29 1016 28 10000 3.09 250 18:21 07.02.2022
3900 Clear 26 1017 32 10000 2.06 240 16:53 07.02.2022
3901 Clear 25 1017 32 10000 2.06 240 16:20 07.02.2022
3902 Clear 24 1017 33 10000 1.54 160 15:48 07.02.2022
3903 Clear 22 1018 38 10000 1.92 259 13:37 07.02.2022
3904 Clear 21 862 39 10000 1.13 263 13:19 07.02.2022
3905 Clear 21 867 42 10000 0.45 258 11:58 07.02.2022
3906 Clear 21 867 42 10000 0.45 258 11:58 07.02.2022
3907 Clear 21 867 42 10000 0.45 258 11:58 07.02.2022
3908 Clear 21 866 42 10000 0.45 258 11:37 07.02.2022
3909 Clear 21 866 42 10000 0.32 230 10:52 07.02.2022
3910 Clear 21 866 42 10000 0.32 230 10:32 07.02.2022
3911 Clear 21 866 42 10000 0.38 225 09:53 07.02.2022
3912 Clear 21 866 41 10000 0.41 230 09:18 07.02.2022
3913 Clear 21 866 41 10000 0.41 230 08:43 07.02.2022
3914 Clear 22 866 42 10000 0.6 236 07:26 07.02.2022
3915 Clear 22 866 42 10000 0.6 238 06:34 07.02.2022
3916 Clear 22 862 44 10000 1.2 243 03:48 07.02.2022
3917 Clear 27 1015 30 10000 3.6 240 00:46 07.02.2022
3918 Clear 30 1014 26 10000 5.14 230 23:49 06.02.2022
3919 Clear 31 1014 23 10000 4.12 230 22:55 06.02.2022
3920 Clear 31 1013 22 10000 4.12 230 22:34 06.02.2022
3921 Clear 31 1013 22 10000 4.12 230 21:36 06.02.2022
3922 Clear 32 1013 22 10000 4.12 0 20:56 06.02.2022
3923 Clear 32 1013 22 10000 4.12 0 20:32 06.02.2022
3924 Clear 31 1012 21 10000 4.04 243 19:40 06.02.2022
3925 Clear 30 1013 24 10000 3.6 0 18:41 06.02.2022
3926 Clear 29 1014 28 10000 2.06 0 17:58 06.02.2022
3927 Clear 28 1014 30 10000 2.06 0 17:21 06.02.2022
3928 Clear 27 1015 32 10000 2.06 0 16:48 06.02.2022
3929 Clear 25 1016 35 10000 1.03 0 15:49 06.02.2022
3930 Clear 25 1016 36 10000 1.03 0 15:27 06.02.2022
3931 Clear 24 1016 38 10000 0 0 14:47 06.02.2022
3932 Clear 22 862 39 10000 1.16 249 13:28 06.02.2022
3933 Clear 20 912 46 10000 1.54 60 12:59 06.02.2022
3934 Clear 20 862 41 10000 0.33 175 11:38 06.02.2022
3935 Clear 20 862 43 10000 0.25 157 10:31 06.02.2022
3936 Clear 20 862 43 10000 0.25 157 10:31 06.02.2022
3937 Clear 20 862 42 10000 0.21 91 09:25 06.02.2022
3938 Clear 21 862 43 10000 0.21 91 08:40 06.02.2022
3939 Clear 22 862 42 10000 0.33 223 05:33 06.02.2022
3940 Clear 23 862 40 10000 1.41 222 03:18 06.02.2022
3941 Clear 23 862 39 10000 1.31 216 02:24 06.02.2022
3942 Clear 28 1015 30 10000 3.6 250 00:29 06.02.2022
3943 Clear 30 1014 24 10000 3.6 230 22:36 05.02.2022
3944 Clear 30 1014 23 10000 4.12 240 21:33 05.02.2022
3945 Clear 29 1015 25 10000 3.6 260 20:25 05.02.2022
3946 Clear 29 1015 25 10000 3.68 250 19:49 05.02.2022
3947 Clear 28 1016 25 10000 3.57 257 19:18 05.02.2022
3948 Clear 27 1017 32 10000 2.57 260 17:45 05.02.2022
3949 Clear 26 1017 34 10000 2.57 260 17:27 05.02.2022
3950 Clear 23 1018 41 10000 1.54 240 15:42 05.02.2022
3951 Clear 23 913 42 10000 1.54 240 15:22 05.02.2022
3952 Clear 18 914 52 10000 0 0 12:54 05.02.2022
3953 Clear 18 914 53 10000 0 0 12:33 05.02.2022
3954 Clouds 19 863 44 10000 0.39 346 10:53 05.02.2022
3955 Clouds 19 864 44 10000 0.07 305 10:25 05.02.2022
3956 Clouds 19 863 44 10000 0.07 305 09:46 05.02.2022
3957 Clear 20 863 44 10000 0.41 249 08:20 05.02.2022
3958 Clear 20 864 43 10000 0.67 223 06:57 05.02.2022
3959 Clear 21 864 45 10000 1.01 232 04:55 05.02.2022
3960 Clear 23 863 37 10000 2.49 216 01:19 05.02.2022
3961 Clear 24 914 34 10000 4.12 240 00:53 05.02.2022
3962 Clouds 25 857 33 10000 4.12 240 23:58 04.02.2022
3963 Clouds 27 1018 28 10000 4.12 240 23:30 04.02.2022
3964 Clouds 27 1018 28 10000 5.14 230 21:59 04.02.2022
3965 Clouds 28 1018 28 10000 5.14 230 21:36 04.02.2022
3966 Clouds 27 1018 29 10000 5.14 230 21:18 04.02.2022
3967 Clouds 27 1018 29 10000 4.12 200 20:20 04.02.2022
3968 Clouds 24 1019 39 10000 2.06 0 17:45 04.02.2022
3969 Clouds 21 1019 49 10000 3.09 260 15:55 04.02.2022
3970 Clouds 21 1019 49 10000 3.09 260 15:55 04.02.2022
3971 Clouds 20 913 50 10000 1.54 200 14:55 04.02.2022
3972 Clear 20 864 47 10000 2.09 253 13:55 04.02.2022
3973 Clear 18 914 59 10000 0 0 12:43 04.02.2022
3974 Clear 18 1021 61 10000 0.27 213 11:42 04.02.2022
3975 Clear 17 1021 62 10000 0.61 230 10:37 04.02.2022
3976 Clear 18 1020 60 10000 0.32 235 08:48 04.02.2022
3977 Clear 18 1021 58 10000 0.64 260 06:57 04.02.2022
3978 Clear 21 863 47 10000 1.71 247 02:48 04.02.2022
3979 Clear 21 863 46 10000 1.83 242 01:56 04.02.2022
3980 Clouds 25 1016 36 10000 3.6 210 23:29 03.02.2022
3981 Clouds 26 1016 36 10000 4.12 230 22:46 03.02.2022
3982 Clouds 26 1016 34 10000 3.6 220 21:49 03.02.2022
3983 Clouds 26 1016 33 10000 4.12 230 20:41 03.02.2022
3984 Clouds 26 1016 32 10000 4.12 230 20:19 03.02.2022
3985 Clouds 25 1017 35 10000 4.48 240 19:32 03.02.2022
3986 Clouds 25 1016 36 10000 3.6 230 18:40 03.02.2022
3987 Clouds 23 1016 41 8000 2.57 250 17:35 03.02.2022
3988 Clouds 22 1018 46 10000 2.06 250 16:35 03.02.2022
3989 Clear 20 913 50 10000 0 0 14:49 03.02.2022
3990 Clear 18 913 61 10000 0 0 12:58 03.02.2022
3991 Clear 18 1019 60 10000 0.67 244 11:23 03.02.2022
3992 Clear 19 1017 54 10000 0.86 229 08:37 03.02.2022
3993 Clear 21 862 46 10000 0.88 233 05:26 03.02.2022
3994 Clear 25 910 38 10000 4.12 240 00:32 03.02.2022
3995 Clear 25 856 37 10000 4.12 260 23:43 02.02.2022
3996 Clear 28 1015 31 10000 3.6 230 22:19 02.02.2022
3997 Clear 28 1016 31 10000 3.09 210 21:34 02.02.2022
3998 Clear 28 1016 32 10000 3.6 0 20:49 02.02.2022
3999 Clear 27 1017 31 10000 4.37 240 19:59 02.02.2022
4000 Clear 27 1017 33 10000 4.16 242 19:27 02.02.2022
4001 Clear 27 1017 35 8000 3.6 210 18:46 02.02.2022
4002 Clear 26 1018 37 8000 2.57 200 17:57 02.02.2022
4003 Clear 25 1018 38 8000 2.57 200 17:19 02.02.2022
4004 Clear 24 1018 39 8000 1.54 170 16:42 02.02.2022
4005 Clear 20 863 46 10000 1.52 256 13:28 02.02.2022
4006 Clear 18 914 58 10000 0 0 12:20 02.02.2022
4007 Clear 19 863 48 10000 0.51 262 11:34 02.02.2022
4008 Clear 18 1019 53 10000 0.6 254 10:22 02.02.2022
4009 Clear 19 1019 49 10000 0.8 243 07:37 02.02.2022
4010 Clouds 27 1016 34 8000 4.12 210 22:52 01.02.2022
4011 Clouds 27 1017 34 8000 4.12 210 21:51 01.02.2022
4012 Clouds 27 1017 33 8000 3.6 180 20:35 01.02.2022
4013 Clouds 25 1017 34 8000 2.06 260 17:44 01.02.2022
4014 Clear 24 1017 36 10000 2.06 240 16:40 01.02.2022
4015 Clouds 21 913 41 10000 0 0 14:47 01.02.2022
4016 Clear 18 913 49 10000 0 0 12:45 01.02.2022
4017 Clouds 19 862 43 10000 0.5 297 11:34 01.02.2022
4018 Clouds 21 862 44 10000 1.1 236 04:53 01.02.2022
4019 Clear 24 856 36 10000 4.12 230 23:42 31.01.2022
4020 Clear 24 856 36 10000 4.12 230 23:42 31.01.2022
4021 Clear 27 1015 30 10000 4.12 230 23:21 31.01.2022
4022 Clear 29 1015 26 10000 3.6 0 21:42 31.01.2022
4023 Clear 29 1015 25 10000 3.6 0 21:19 31.01.2022
4024 Clear 28 1016 26 10000 5.06 243 20:32 31.01.2022
4025 Clear 28 1016 28 10000 4.35 243 19:35 31.01.2022
4026 Clear 27 1016 31 10000 2.57 0 18:26 31.01.2022
4027 Clear 26 1017 34 10000 2.57 280 17:41 31.01.2022
4028 Clear 25 1018 38 10000 3.34 251 16:38 31.01.2022
4029 Clear 23 1018 44 10000 1.54 230 15:41 31.01.2022
4030 Clear 21 913 48 10000 1.54 0 14:22 31.01.2022
4031 Clear 18 913 58 10000 0 0 12:39 31.01.2022
4032 Clear 19 863 51 10000 0.44 284 11:56 31.01.2022
4033 Clear 18 1019 58 10000 0.33 252 10:50 31.01.2022
4034 Clear 18 1019 58 10000 0.33 252 10:30 31.01.2022
4035 Clear 19 1018 58 10000 0.35 246 09:27 31.01.2022
4036 Clear 19 1018 57 10000 0.34 245 08:51 31.01.2022
4037 Clear 20 862 50 10000 0.74 232 08:20 31.01.2022
4038 Clear 20 863 47 10000 0.75 229 06:18 31.01.2022
4039 Clear 22 863 46 10000 1.7 219 02:18 31.01.2022
4040 Clear 27 1017 38 10000 4.12 230 23:18 30.01.2022
4041 Clear 27 1017 35 10000 3.6 240 22:29 30.01.2022
4042 Clear 27 1018 34 10000 3.6 240 21:42 30.01.2022
4043 Clear 27 1018 33 10000 3.6 240 21:19 30.01.2022
4044 Clear 27 1018 35 10000 3.09 210 20:47 30.01.2022
4045 Clear 26 1018 36 10000 3.09 210 20:28 30.01.2022
4046 Clear 25 1019 37 10000 4.24 244 19:52 30.01.2022
4047 Clear 25 1019 44 10000 2.06 120 18:44 30.01.2022
4048 Clear 24 1019 45 10000 2.06 120 18:20 30.01.2022
4049 Clear 23 1020 50 10000 3.09 220 17:27 30.01.2022
4050 Clear 22 1020 54 10000 2.06 250 16:40 30.01.2022
4051 Clear 21 916 51 10000 2.06 250 16:22 30.01.2022
4052 Clear 21 916 53 10000 1.54 190 15:51 30.01.2022
4053 Clear 20 916 54 10000 1.54 190 15:32 30.01.2022
4054 Clear 20 917 56 10000 1.03 0 14:46 30.01.2022
4055 Clear 17 917 65 10000 1.54 230 12:47 30.01.2022
4056 Clear 15 1020 76 10000 1.54 230 12:25 30.01.2022
4057 Clear 17 1022 66 10000 0.23 286 10:36 30.01.2022
4058 Clear 16 1022 67 10000 0.48 208 09:56 30.01.2022
4059 Clear 17 1021 65 10000 1.08 224 08:58 30.01.2022
4060 Clear 17 1021 64 10000 1.02 232 07:55 30.01.2022
4061 Clear 20 864 50 10000 2.08 235 02:29 30.01.2022
4062 Clear 21 863 48 10000 2.08 235 01:39 30.01.2022
4063 Clear 24 1017 43 10000 4.12 230 23:21 29.01.2022
4064 Clear 25 1017 44 10000 4.63 240 21:59 29.01.2022
4065 Clear 25 1018 44 10000 4.63 240 21:26 29.01.2022
4066 Clear 25 1017 43 10000 4.63 240 20:36 29.01.2022
4067 Clear 26 1014 34 10000 4.63 240 19:36 29.01.2022
4068 Clear 25 1018 45 8000 3.6 240 18:59 29.01.2022
4069 Clear 25 1016 43 8000 3.6 240 18:30 29.01.2022
4070 Clear 24 1016 43 10000 3.09 240 17:41 29.01.2022
4071 Clear 21 1017 49 10000 2.06 270 16:42 29.01.2022
4072 Clear 19 914 55 10000 1.03 0 14:33 29.01.2022
4073 Clear 20 697 41 10000 2.27 248 13:45 29.01.2022
4074 Clear 19 864 52 10000 1.48 248 13:25 29.01.2022
4075 Clear 17 857 61 10000 1.03 230 12:36 29.01.2022
4076 Clear 19 868 54 10000 0.42 238 11:38 29.01.2022
4077 Clear 16 1021 63 10000 0.81 233 10:21 29.01.2022
4078 Clear 18 1019 61 10000 0.74 234 06:57 29.01.2022
4079 Clouds 23 912 44 10000 3.09 260 00:50 29.01.2022
4080 Clouds 23 912 43 10000 3.09 260 00:31 29.01.2022
4081 Clouds 26 1015 40 8000 4.12 240 22:52 28.01.2022
4082 Clouds 26 1015 39 8000 4.12 240 22:27 28.01.2022
4083 Clear 27 1015 39 10000 4.12 240 21:53 28.01.2022
4084 Clear 27 1015 39 10000 3.6 240 20:31 28.01.2022
4085 Clear 27 1013 31 10000 4.42 243 19:44 28.01.2022
4086 Clear 25 1015 43 8000 2.06 0 18:48 28.01.2022
4087 Clear 22 1016 47 8000 2.57 250 17:43 28.01.2022
4088 Clear 20 857 51 10000 1.54 230 15:28 28.01.2022
4089 Clear 19 863 51 10000 2.16 252 13:59 28.01.2022
4090 Clear 17 913 65 10000 0 0 12:32 28.01.2022
4091 Clear 19 867 53 10000 0.72 241 11:38 28.01.2022
4092 Clear 17 1019 63 10000 0.66 225 09:59 28.01.2022
4093 Clear 17 1019 63 10000 0.86 226 08:41 28.01.2022
4094 Clear 18 1019 62 10000 0.99 235 07:36 28.01.2022
4095 Clear 19 863 52 10000 1.18 250 05:23 28.01.2022
4096 Clear 20 863 50 10000 1.09 240 03:47 28.01.2022
4097 Clear 20 863 49 10000 1.99 239 02:23 28.01.2022
4098 Clear 21 863 48 10000 1.99 239 01:33 28.01.2022
4099 Clear 24 911 40 10000 3.6 250 23:30 27.01.2022
4100 Clear 26 1016 39 10000 4.63 250 21:49 27.01.2022
4101 Clear 26 1016 39 10000 4.63 250 21:29 27.01.2022
4102 Clear 27 1016 38 8000 3.6 220 20:44 27.01.2022
4103 Clear 27 1016 38 10000 4.24 243 19:21 27.01.2022
4104 Clear 24 1016 41 8000 3.09 240 17:56 27.01.2022
4105 Clear 21 913 47 10000 2.06 260 15:18 27.01.2022
4106 Clear 20 863 47 10000 2.13 249 13:36 27.01.2022
4107 Clear 18 913 59 10000 0 0 12:45 27.01.2022
4108 Clear 19 863 50 10000 0.2 244 10:24 27.01.2022
4109 Clear 19 862 49 10000 0.73 252 08:57 27.01.2022
4110 Clear 19 862 49 10000 0.73 252 08:34 27.01.2022
4111 Clear 20 863 48 10000 1.13 227 05:59 27.01.2022
4112 Clear 21 863 47 10000 1.59 236 02:43 27.01.2022
4113 Clear 28 1016 33 10000 3.6 240 23:32 26.01.2022
4114 Clear 29 1015 32 10000 4.63 240 21:59 26.01.2022
4115 Clear 29 1016 32 10000 4.63 240 21:35 26.01.2022
4116 Clear 28 1016 32 10000 4.12 230 20:36 26.01.2022
4117 Clear 28 1016 32 10000 4.12 230 20:36 26.01.2022
4118 Clear 28 1017 33 10000 4.74 239 19:59 26.01.2022
4119 Clear 28 1017 33 10000 4.03 242 19:20 26.01.2022
4120 Clear 27 1016 34 8000 3.6 0 18:45 26.01.2022
4121 Clear 25 1016 37 7000 2.06 230 17:50 26.01.2022
4122 Clear 25 1017 38 7000 2.06 230 17:23 26.01.2022
4123 Clear 23 1017 43 7000 2.06 0 16:31 26.01.2022
4124 Clear 21 1016 49 7000 2.57 250 15:49 26.01.2022
4125 Clear 20 862 45 10000 2.16 247 13:58 26.01.2022
4126 Clear 20 867 49 10000 0.38 220 11:48 26.01.2022
4127 Clear 18 1018 56 10000 0.49 243 10:28 26.01.2022
4128 Clear 18 1018 55 10000 0.49 243 09:46 26.01.2022
4129 Clear 20 862 46 10000 0.55 219 07:44 26.01.2022
4130 Clear 23 861 40 10000 1.67 237 01:54 26.01.2022
4131 Clear 27 1013 30 10000 3.6 240 23:56 25.01.2022
4132 Clear 29 1014 26 10000 5.14 230 22:57 25.01.2022
4133 Clear 29 1013 25 10000 5.14 230 22:21 25.01.2022
4134 Clear 29 1013 25 10000 4.12 230 21:58 25.01.2022
4135 Clear 29 1014 25 10000 3.6 230 20:46 25.01.2022
4136 Clear 29 1015 26 10000 3.6 230 20:23 25.01.2022
4137 Clear 29 1015 25 10000 4.09 241 19:50 25.01.2022
4138 Clear 28 1015 28 10000 2.57 0 18:32 25.01.2022
4139 Clear 26 1016 30 10000 2.57 0 17:43 25.01.2022
4140 Clear 25 1016 31 10000 2.06 0 16:35 25.01.2022
4141 Clear 24 1015 34 10000 1.54 0 15:49 25.01.2022
4142 Clear 23 1015 36 10000 1.54 0 15:31 25.01.2022
4143 Clear 23 1016 37 10000 1.03 290 14:57 25.01.2022
4144 Clear 21 861 40 10000 2.12 252 13:40 25.01.2022
4145 Clear 20 861 42 10000 0.5 224 10:42 25.01.2022
4146 Clear 20 861 42 10000 0.4 231 08:37 25.01.2022
4147 Clear 20 860 40 10000 0.63 231 07:29 25.01.2022
4148 Clear 21 861 41 10000 0.63 231 06:47 25.01.2022
4149 Clear 21 861 41 10000 0.74 244 05:22 25.01.2022
4150 Clear 30 1011 23 10000 4.63 240 23:37 24.01.2022
4151 Clear 30 1012 23 10000 4.63 240 23:18 24.01.2022
4152 Clear 31 1011 20 10000 4.63 260 22:59 24.01.2022
4153 Clear 31 1011 20 10000 4.63 260 22:41 24.01.2022
4154 Clear 31 1012 19 10000 4.12 250 21:52 24.01.2022
4155 Clear 31 1012 18 10000 4.12 250 21:28 24.01.2022
4156 Clear 30 1013 18 10000 3.6 240 20:29 24.01.2022
4157 Clear 30 1013 20 10000 4.18 242 19:44 24.01.2022
4158 Clear 30 1013 20 10000 3.71 244 19:24 24.01.2022
4159 Clear 28 1014 24 10000 2.57 200 17:59 24.01.2022
4160 Clear 27 1015 27 10000 2.57 200 17:23 24.01.2022
4161 Clear 26 1015 29 10000 0 0 16:41 24.01.2022
4162 Clear 26 1015 30 10000 0 0 16:18 24.01.2022
4163 Clear 23 1016 36 10000 0.51 120 14:35 24.01.2022
4164 Clear 19 912 46 10000 0 0 12:40 24.01.2022
4165 Clear 18 912 50 10000 0 0 12:22 24.01.2022
4166 Clear 20 862 43 10000 0.1 200 10:27 24.01.2022
4167 Clear 20 862 43 10000 0.1 200 09:48 24.01.2022
4168 Clear 20 862 43 10000 0.13 176 08:30 24.01.2022
4169 Clear 21 862 42 10000 0.68 202 06:19 24.01.2022
4170 Clear 23 862 38 10000 1.52 211 01:30 24.01.2022
4171 Clear 25 856 34 10000 0 0 00:35 24.01.2022
4172 Clear 30 1014 23 10000 4.12 240 23:49 23.01.2022
4173 Clear 30 1014 23 10000 4.12 240 23:49 23.01.2022
4174 Clear 30 1014 18 10000 3.6 250 22:28 23.01.2022
4175 Clear 30 1015 18 10000 3.09 250 21:46 23.01.2022
4176 Clear 30 1015 18 10000 3.09 250 21:25 23.01.2022
4177 Clear 30 1015 19 10000 3.6 220 20:44 23.01.2022
4178 Clear 28 1016 22 10000 4.16 242 19:43 23.01.2022
4179 Clear 27 1017 25 10000 3.09 240 18:50 23.01.2022
4180 Clear 26 1018 27 10000 1.54 240 17:34 23.01.2022
4181 Clear 24 1018 30 10000 0 0 16:47 23.01.2022
4182 Clear 21 914 41 10000 0 0 14:59 23.01.2022
4183 Clear 20 914 44 10000 0 0 14:25 23.01.2022
4184 Clear 20 914 44 10000 0 0 14:25 23.01.2022
4185 Clear 17 913 49 10000 0 0 12:54 23.01.2022
4186 Clear 17 913 49 10000 0 0 12:22 23.01.2022
4187 Clear 19 863 39 10000 0.51 251 11:52 23.01.2022
4188 Clear 17 1019 40 10000 0.51 234 11:18 23.01.2022
4189 Clear 18 1019 37 10000 0.48 218 10:27 23.01.2022
4190 Clear 18 1019 38 10000 0.48 218 09:51 23.01.2022
4191 Clear 18 1018 38 10000 0.54 228 08:53 23.01.2022
4192 Clear 20 863 40 10000 0.78 245 05:56 23.01.2022
4193 Clear 22 863 38 10000 1.77 212 01:52 23.01.2022
4194 Clear 22 862 36 10000 2.8 222 01:26 23.01.2022
4195 Clear 27 1015 21 10000 4.12 260 00:23 23.01.2022
4196 Clear 28 1015 14 10000 4.12 250 23:56 22.01.2022
4197 Clear 29 1015 16 10000 3.6 210 22:46 22.01.2022
4198 Clear 28 1015 16 10000 3.09 0 21:36 22.01.2022
4199 Clear 26 1018 21 10000 3.99 244 19:51 22.01.2022
4200 Clear 25 1018 24 10000 2.06 210 18:56 22.01.2022
4201 Clear 24 1018 26 10000 2.06 210 18:18 22.01.2022
4202 Clear 24 1018 27 10000 2.57 0 17:40 22.01.2022
4203 Clear 22 1019 31 10000 2.06 290 16:56 22.01.2022
4204 Clear 20 914 37 10000 2.57 250 15:53 22.01.2022
4205 Clear 20 914 37 10000 2.57 250 15:26 22.01.2022
4206 Clear 19 864 40 10000 2.65 243 13:46 22.01.2022
4207 Clear 17 913 44 10000 1.03 0 12:53 22.01.2022
4208 Clear 14 1018 49 10000 1.03 0 12:29 22.01.2022
4209 Clear 16 1020 43 10000 1.08 244 11:44 22.01.2022
4210 Clear 16 1020 43 10000 0.6 276 10:29 22.01.2022
4211 Clear 16 1020 41 10000 0.6 276 09:59 22.01.2022
4212 Clear 16 1019 40 10000 0.38 308 08:53 22.01.2022
4213 Clear 17 1020 39 10000 0.48 258 07:39 22.01.2022
4214 Clear 18 1020 33 10000 0.87 251 04:53 22.01.2022
4215 Clear 21 859 35 10000 2.41 236 01:49 22.01.2022
4216 Clear 25 855 32 10000 4.63 260 23:46 21.01.2022
4217 Clear 28 1013 21 10000 4.12 230 22:36 21.01.2022
4218 Clear 28 1011 19 10000 4.12 230 20:32 21.01.2022
4219 Clear 27 1014 21 10000 3.09 260 18:40 21.01.2022
4220 Clear 25 1015 23 10000 2.57 0 17:41 21.01.2022
4221 Clear 22 1015 24 10000 2.06 0 15:47 21.01.2022
4222 Clear 20 862 32 10000 2.18 256 13:55 21.01.2022
4223 Clear 14 1014 45 10000 1.03 20 12:39 21.01.2022
4224 Clear 16 1017 41 10000 0.61 262 11:28 21.01.2022
4225 Clear 16 1017 42 10000 0.49 266 10:20 21.01.2022
4226 Clear 17 1017 39 10000 0.46 260 08:25 21.01.2022
4227 Clear 17 1018 35 10000 0.81 244 07:19 21.01.2022
4228 Clear 25 912 28 10000 3.6 240 23:54 20.01.2022
4229 Clear 28 1014 17 10000 3.6 230 22:44 20.01.2022
4230 Clear 27 1016 18 10000 3.09 0 21:47 20.01.2022
4231 Clear 27 1016 20 10000 3.09 0 20:56 20.01.2022
4232 Clear 26 1017 23 10000 3.64 247 19:21 20.01.2022
4233 Clouds 25 1017 25 10000 3.6 230 18:51 20.01.2022
4234 Clouds 23 1017 25 10000 2.06 0 17:31 20.01.2022
4235 Clouds 20 857 32 10000 0 0 15:46 20.01.2022
4236 Clouds 20 913 32 10000 0 0 15:25 20.01.2022
4237 Clear 19 863 35 10000 2.29 250 13:53 20.01.2022
4238 Clear 16 913 46 10000 0 0 12:43 20.01.2022
4239 Clear 13 1018 48 10000 0 0 12:21 20.01.2022
4240 Clear 15 1020 44 10000 0.47 258 10:55 20.01.2022
4241 Clear 15 1020 38 10000 0.64 255 09:43 20.01.2022
4242 Clear 16 1020 39 10000 0.69 258 08:35 20.01.2022
4243 Clear 16 1020 39 10000 0.69 258 08:35 20.01.2022
4244 Clear 17 1020 29 10000 1.18 247 06:18 20.01.2022
4245 Clear 23 856 32 10000 4.63 240 23:52 19.01.2022
4246 Clear 26 1017 23 10000 4.12 210 22:37 19.01.2022
4247 Clear 26 1017 22 10000 4.36 241 21:24 19.01.2022
4248 Clear 26 1017 22 10000 4.63 240 20:53 19.01.2022
4249 Clear 26 1018 22 10000 4.63 240 20:24 19.01.2022
4250 Clear 25 1018 24 10000 3.6 240 18:49 19.01.2022
4251 Clear 25 1018 24 10000 3.6 240 18:49 19.01.2022
4252 Clear 24 1018 24 10000 3.6 230 17:50 19.01.2022
4253 Clear 22 913 30 10000 2.06 260 16:59 19.01.2022
4254 Clear 19 915 35 10000 1.03 210 14:43 19.01.2022
4255 Clear 17 1020 35 10000 1.9 259 13:20 19.01.2022
4256 Clear 15 1020 43 10000 0.87 281 11:54 19.01.2022
4257 Clear 14 1021 45 10000 0.71 268 10:52 19.01.2022
4258 Clear 15 1020 43 10000 0.57 266 09:35 19.01.2022
4259 Clear 17 1019 35 10000 0.92 262 07:34 19.01.2022
4260 Clear 17 1020 31 10000 1.19 253 05:19 19.01.2022
4261 Clouds 23 856 33 10000 4.12 250 23:53 18.01.2022
4262 Clouds 23 856 33 10000 4.12 250 23:53 18.01.2022
4263 Clouds 23 855 33 10000 4.12 250 23:18 18.01.2022
4264 Clouds 26 1013 26 10000 0.51 0 21:43 18.01.2022
4265 Clear 26 1015 26 10000 3.6 240 20:21 18.01.2022
4266 Clear 25 1016 28 10000 4.21 243 19:39 18.01.2022
4267 Clear 25 1016 28 10000 3.68 243 19:21 18.01.2022
4268 Clear 24 1016 31 10000 2.57 190 18:18 18.01.2022
4269 Clear 22 912 34 10000 2.06 180 17:29 18.01.2022
4270 Clear 20 912 39 10000 1.54 210 15:56 18.01.2022
4271 Clear 19 913 42 10000 1.54 210 15:24 18.01.2022
4272 Clear 18 913 44 10000 1.03 0 14:18 18.01.2022
4273 Clear 14 1020 54 10000 0.47 254 11:20 18.01.2022
4274 Clear 15 1019 53 10000 0.66 231 09:58 18.01.2022
4275 Clear 15 1019 51 10000 0.85 250 08:19 18.01.2022
4276 Clear 15 1020 48 10000 0.85 250 07:31 18.01.2022
4277 Clouds 21 857 36 10000 1.54 180 00:22 18.01.2022
4278 Clouds 22 913 39 10000 2.06 260 22:31 17.01.2022
4279 Clouds 21 914 39 10000 2.57 260 21:36 17.01.2022
4280 Smoke 21 914 44 4000 1.54 180 20:33 17.01.2022
4281 Clouds 20 915 46 10000 1.54 210 18:46 17.01.2022
4282 Clouds 20 915 46 10000 1.54 210 18:23 17.01.2022
4283 Clouds 19 915 52 10000 2.06 240 16:53 17.01.2022
4284 Haze 18 917 57 5000 1.54 210 15:31 17.01.2022
4285 Haze 16 1021 63 5000 1.54 190 14:58 17.01.2022
4286 Clouds 15 1023 65 10000 2.38 253 13:42 17.01.2022
4287 Haze 14 1021 73 1500 1.54 210 12:58 17.01.2022
4288 Clouds 15 1023 67 10000 1.54 252 11:51 17.01.2022
4289 Clouds 15 1022 66 10000 1.41 249 10:43 17.01.2022
4290 Clouds 15 1022 66 10000 1.45 253 09:35 17.01.2022
4291 Clouds 15 1022 62 10000 1.26 267 08:18 17.01.2022
4292 Clouds 15 1022 63 10000 1.2 250 07:19 17.01.2022
4293 Clouds 20 914 50 8000 3.6 250 00:57 17.01.2022
4294 Clouds 22 913 47 10000 2.57 210 22:53 16.01.2022
4295 Clouds 23 1018 48 10000 4.12 230 20:40 16.01.2022
4296 Clouds 22 1014 40 10000 4.34 242 19:44 16.01.2022
4297 Clouds 21 1017 54 8000 3.09 190 18:42 16.01.2022
4298 Clouds 20 1018 56 6000 2.06 190 17:45 16.01.2022
4299 Haze 18 1018 66 5000 1.54 190 16:48 16.01.2022
4300 Haze 18 914 59 5000 2.06 210 15:19 16.01.2022
4301 Haze 18 914 61 2000 2.06 250 14:28 16.01.2022
4302 Haze 17 914 65 1500 1.54 240 12:51 16.01.2022
4303 Clear 17 1021 67 10000 0.95 247 11:47 16.01.2022
4304 Clear 17 1020 66 10000 1.16 259 10:58 16.01.2022
4305 Clear 18 1021 65 10000 1.16 245 10:26 16.01.2022
4306 Clear 18 1020 65 10000 1.15 246 09:54 16.01.2022
4307 Clear 18 1020 65 10000 0.68 264 09:22 16.01.2022
4308 Clear 18 1021 64 10000 0.68 264 08:38 16.01.2022
4309 Clouds 20 864 50 10000 1.86 241 03:21 16.01.2022
4310 Clear 24 912 43 10000 4.12 230 23:50 15.01.2022
4311 Clear 27 1016 38 10000 4.12 230 22:19 15.01.2022
4312 Clear 27 1016 37 10000 4.63 250 21:19 15.01.2022
4313 Clear 28 1016 36 10000 4.63 230 20:40 15.01.2022
4314 Clouds 27 1017 35 10000 4.45 244 19:30 15.01.2022
4315 Clear 27 1017 37 10000 3.09 230 18:45 15.01.2022
4316 Clear 26 1018 39 10000 2.57 270 17:29 15.01.2022
4317 Clear 23 1018 46 10000 1.54 180 15:59 15.01.2022
4318 Clouds 21 862 44 10000 2.25 256 13:56 15.01.2022
4319 Clear 19 914 55 10000 0 0 12:18 15.01.2022
4320 Clouds 20 863 47 10000 0.53 298 10:38 15.01.2022
4321 Clouds 21 862 45 10000 0.84 265 08:31 15.01.2022
4322 Clear 27 1015 35 10000 4.12 230 00:28 15.01.2022
4323 Clouds 30 1014 32 10000 3.6 260 21:52 14.01.2022
4324 Clouds 29 1014 34 8000 3.09 210 20:40 14.01.2022
4325 Clouds 29 1015 34 8000 3.09 210 20:20 14.01.2022
4326 Clouds 28 1016 40 8000 3.09 260 18:49 14.01.2022
4327 Clouds 26 1016 42 8000 2.06 240 17:57 14.01.2022
4328 Clouds 23 1015 44 7000 2.06 240 16:48 14.01.2022
4329 Clouds 22 1015 44 8000 2.06 220 15:37 14.01.2022
4330 Clear 21 913 47 10000 0 0 14:42 14.01.2022
4331 Clouds 21 863 45 10000 2.49 244 13:35 14.01.2022
4332 Clear 19 913 54 10000 0 0 12:24 14.01.2022
4333 Clouds 20 862 53 10000 0.7 246 10:50 14.01.2022
4334 Clear 20 862 48 10000 0.64 234 08:54 14.01.2022
4335 Clear 20 862 48 10000 0.64 234 08:34 14.01.2022
4336 Clear 21 862 49 10000 1.06 225 05:29 14.01.2022
4337 Clouds 24 912 45 7000 3.6 260 00:59 14.01.2022
4338 Clear 27 1016 42 8000 3.6 250 22:46 13.01.2022
4339 Clear 27 1017 41 8000 4.12 240 21:31 13.01.2022
4340 Clear 27 1017 41 7000 3.6 230 20:57 13.01.2022
4341 Clear 27 1018 42 10000 4.24 242 19:40 13.01.2022
4342 Clouds 26 1018 42 10000 4.11 243 19:21 13.01.2022
4343 Clear 24 1017 46 7000 2.57 240 17:48 13.01.2022
4344 Clear 23 1019 51 7000 3.09 250 16:20 13.01.2022
4345 Clear 21 1017 55 8000 2.06 220 15:37 13.01.2022
4346 Clear 18 1017 60 8000 2.06 190 14:40 13.01.2022
4347 Clear 17 1019 67 10000 1.54 240 12:37 13.01.2022
4348 Clouds 19 1020 59 10000 0.6 243 10:23 13.01.2022
4349 Clouds 20 1019 58 10000 0.95 250 08:57 13.01.2022
4350 Clouds 20 1019 57 10000 1.03 241 08:26 13.01.2022
4351 Clear 20 1019 56 10000 0.77 243 07:22 13.01.2022
4352 Clear 21 1019 54 10000 1.3 255 05:59 13.01.2022
4353 Clear 21 1019 53 10000 1.49 250 05:19 13.01.2022
4354 Clear 23 1019 51 10000 1.9 237 01:56 13.01.2022
4355 Clear 26 1018 43 10000 3.09 250 00:49 13.01.2022
4356 Clear 28 1015 42 10000 4.12 0 23:46 12.01.2022
4357 Clear 29 1016 37 10000 4.12 240 22:59 12.01.2022
4358 Clear 29 1016 36 10000 4.12 240 21:57 12.01.2022
4359 Clear 29 1016 37 10000 4.12 240 21:22 12.01.2022
4360 Clear 29 1016 37 8000 4.12 240 20:56 12.01.2022
4361 Clear 28 1017 38 10000 4.7 241 19:41 12.01.2022
4362 Clear 27 1017 39 8000 2.57 0 18:30 12.01.2022
4363 Clear 27 1017 39 8000 2.57 0 18:30 12.01.2022
4364 Clear 26 1017 44 10000 3.09 270 16:59 12.01.2022
4365 Clear 25 1017 44 10000 3.09 270 16:26 12.01.2022
4366 Clear 23 1018 51 10000 2.06 200 14:48 12.01.2022
4367 Clear 19 1018 63 10000 0 0 12:58 12.01.2022
4368 Clear 19 1018 63 10000 0 0 12:58 12.01.2022
4369 Clear 20 1019 57 10000 0.72 228 10:38 12.01.2022
4370 Clouds 20 1019 55 10000 0.54 248 08:37 12.01.2022
4371 Clouds 21 1019 55 10000 0.8 250 07:36 12.01.2022
4372 Clouds 21 1019 54 10000 0.6 235 06:49 12.01.2022
4373 Clear 29 1015 34 10000 4.12 230 23:31 11.01.2022
4374 Clear 30 1016 32 10000 4.12 230 22:49 11.01.2022
4375 Clear 29 1016 32 10000 4.12 230 22:22 11.01.2022
4376 Clouds 29 1016 34 8000 3.09 0 20:51 11.01.2022
4377 Clouds 28 1017 33 10000 4.05 244 19:48 11.01.2022
4378 Clouds 28 1018 35 8000 2.57 220 18:31 11.01.2022
4379 Clouds 26 1018 38 8000 2.06 0 17:24 11.01.2022
4380 Clear 25 1019 41 10000 1.54 180 16:37 11.01.2022
4381 Clear 24 1019 41 10000 0 0 15:35 11.01.2022
4382 Clear 23 1019 45 10000 1.54 130 14:41 11.01.2022
4383 Clouds 22 1020 43 10000 2.33 256 13:55 11.01.2022
4384 Clouds 21 1021 48 10000 2.33 256 13:34 11.01.2022
4385 Clear 19 1020 54 10000 0 0 12:42 11.01.2022
4386 Clouds 19 1021 51 10000 0.97 241 11:40 11.01.2022
4387 Clouds 20 1020 46 10000 0.68 263 09:28 11.01.2022
4388 Clouds 21 1021 45 10000 0.84 264 06:36 11.01.2022
4389 Clear 26 1018 39 10000 3.6 230 00:31 11.01.2022
4390 Clear 27 1017 36 10000 4.12 230 23:41 10.01.2022
4391 Clear 29 1017 30 10000 3.6 240 22:51 10.01.2022
4392 Clear 29 1016 29 10000 3.6 240 22:19 10.01.2022
4393 Clear 29 1017 27 10000 3.09 230 21:52 10.01.2022
4394 Clear 29 1017 25 10000 3.09 230 21:19 10.01.2022
4395 Clear 29 1017 28 10000 3.09 210 20:56 10.01.2022
4396 Clear 29 1018 28 10000 3.09 210 20:27 10.01.2022
4397 Clouds 28 1018 29 10000 4.03 241 19:41 10.01.2022
4398 Clouds 28 1018 31 10000 4.1 243 19:20 10.01.2022
4399 Clear 28 1019 35 10000 3.09 240 18:48 10.01.2022
4400 Clear 26 1020 38 10000 3.09 0 17:40 10.01.2022
4401 Clouds 24 1020 42 10000 2.06 0 16:41 10.01.2022
4402 Clear 23 1020 47 10000 2.06 0 15:20 10.01.2022
4403 Clouds 21 1022 49 10000 2.34 257 13:41 10.01.2022
4404 Clouds 19 1022 57 10000 0.77 252 11:58 10.01.2022
4405 Clouds 18 1022 58 10000 0.11 112 11:24 10.01.2022
4406 Clouds 18 1021 56 10000 0.47 251 09:47 10.01.2022
4407 Clouds 19 1021 54 10000 0.74 237 06:47 10.01.2022
4408 Clouds 19 1021 54 10000 1.16 239 05:49 10.01.2022
4409 Clouds 23 1020 44 10000 1.94 231 01:30 10.01.2022
4410 Clear 25 1019 40 10000 3.09 230 00:24 10.01.2022
4411 Clear 27 1017 36 10000 3.09 230 23:29 09.01.2022
4412 Clouds 28 1017 34 8000 3.6 220 22:37 09.01.2022
4413 Clouds 28 1017 33 10000 3.09 220 21:46 09.01.2022
4414 Clouds 28 1017 33 10000 3.09 220 21:23 09.01.2022
4415 Clouds 28 1017 33 10000 3.09 220 21:23 09.01.2022
4416 Clouds 27 1018 35 7000 3.6 200 20:50 09.01.2022
4417 Clouds 27 1018 35 7000 3.6 200 20:32 09.01.2022
4418 Clouds 26 1018 35 10000 4.25 239 19:44 09.01.2022
4419 Clouds 26 1019 36 10000 4.01 241 19:23 09.01.2022
4420 Clouds 26 1019 41 7000 2.57 230 18:51 09.01.2022
4421 Clouds 25 1019 42 7000 2.57 230 18:33 09.01.2022
4422 Clouds 24 1020 46 7000 3.6 240 17:31 09.01.2022
4423 Clouds 22 1019 52 8000 2.57 200 16:51 09.01.2022
4424 Clear 21 1019 56 10000 2.57 240 15:57 09.01.2022
4425 Clear 20 1019 57 10000 2.57 240 15:35 09.01.2022
4426 Clear 19 1020 59 10000 2.06 240 14:40 09.01.2022
4427 Clouds 19 1023 58 10000 2.61 249 13:50 09.01.2022
4428 Clear 17 1021 68 10000 0 0 12:50 09.01.2022
4429 Clouds 19 1022 62 10000 1.23 255 11:51 09.01.2022
4430 Clouds 18 1021 57 10000 0.56 257 10:52 09.01.2022
4431 Clouds 19 1020 60 10000 0.7 285 09:42 09.01.2022
4432 Clouds 18 1021 61 10000 0.96 262 08:34 09.01.2022
4433 Clouds 19 1020 55 10000 1.34 234 05:21 09.01.2022
4434 Clouds 24 1017 44 10000 2.61 232 01:24 09.01.2022
4435 Clear 27 1015 35 10000 3.6 230 23:44 08.01.2022
4436 Clear 28 1015 34 10000 3.6 230 23:26 08.01.2022
4437 Clear 28 1015 34 10000 3.6 190 22:28 08.01.2022
4438 Clear 27 1016 36 10000 4.12 210 21:25 08.01.2022
4439 Clear 28 1016 35 10000 4.12 210 20:42 08.01.2022
4440 Clear 28 1015 34 10000 4.12 210 20:20 08.01.2022
4441 Clear 25 1016 42 10000 4.12 220 18:40 08.01.2022
4442 Clear 26 1016 39 10000 3.09 230 17:22 08.01.2022
4443 Clear 24 1016 42 10000 2.06 250 15:52 08.01.2022
4444 Clear 23 1016 44 10000 0 0 14:46 08.01.2022
4445 Clear 22 1017 46 10000 2.07 259 13:28 08.01.2022
4446 Clear 20 1016 42 10000 0.69 297 11:28 08.01.2022
4447 Clear 20 1015 47 10000 0.41 324 10:28 08.01.2022
4448 Clear 21 1015 48 10000 0.41 324 09:48 08.01.2022
4449 Clear 21 1014 48 10000 0.46 291 07:50 08.01.2022
4450 Clear 23 1016 45 10000 1.14 239 03:31 08.01.2022
4451 Clear 29 1013 26 10000 3.6 250 00:42 08.01.2022
4452 Clear 31 1012 22 10000 4.63 250 22:49 07.01.2022
4453 Clear 31 1012 22 10000 4.63 240 21:18 07.01.2022
4454 Clear 31 1013 23 10000 3.6 220 20:19 07.01.2022
4455 Clear 30 1013 25 10000 4.23 245 19:25 07.01.2022
4456 Clear 29 1013 29 10000 3.09 250 18:45 07.01.2022
4457 Clear 28 1014 33 8000 2.57 240 17:28 07.01.2022
4458 Clear 26 1014 35 10000 2.06 250 16:41 07.01.2022
4459 Clear 23 1015 43 10000 1.03 260 14:29 07.01.2022
4460 Clear 22 1017 42 10000 2.25 246 13:41 07.01.2022
4461 Clear 19 1016 60 10000 0 0 12:49 07.01.2022
4462 Clear 19 1016 60 10000 0 0 12:49 07.01.2022
4463 Clear 19 1017 52 10000 0.07 142 09:46 07.01.2022
4464 Clear 22 1017 45 10000 1.31 240 02:57 07.01.2022
4465 Clear 23 1017 43 10000 1.53 237 01:55 07.01.2022
4466 Clear 23 1016 42 10000 2.4 229 01:28 07.01.2022
4467 Clear 25 1013 38 10000 3.09 260 00:59 07.01.2022
4468 Clear 25 1013 38 10000 3.09 260 00:28 07.01.2022
4469 Clear 28 1014 33 8000 5.14 240 21:34 06.01.2022
4470 Clear 29 1014 33 8000 4.12 240 20:25 06.01.2022
4471 Clear 28 1014 34 10000 4.98 242 19:45 06.01.2022
4472 Clear 28 1015 35 8000 3.09 0 18:59 06.01.2022
4473 Clear 27 1016 38 8000 2.06 240 17:42 06.01.2022
4474 Clear 27 1016 38 8000 2.06 240 17:42 06.01.2022
4475 Clear 25 1016 40 8000 2.57 220 16:57 06.01.2022
4476 Clear 24 1016 44 10000 2.06 0 15:49 06.01.2022
4477 Clear 23 1016 47 10000 2.06 0 15:27 06.01.2022
4478 Clear 22 1016 48 10000 1.03 300 14:55 06.01.2022
4479 Clear 21 1016 52 10000 1.03 300 14:19 06.01.2022
4480 Clear 18 1016 62 10000 0 0 12:56 06.01.2022
4481 Clear 18 1017 55 10000 1.11 234 11:50 06.01.2022
4482 Clear 18 1017 56 10000 0.92 232 11:28 06.01.2022
4483 Clear 19 1016 53 10000 0.81 237 08:59 06.01.2022
4484 Clear 24 1016 44 10000 1.85 234 01:52 06.01.2022
4485 Clear 28 1012 36 10000 4.12 240 23:40 05.01.2022
4486 Clear 29 1013 33 10000 5.14 260 22:59 05.01.2022
4487 Clear 29 1013 33 10000 5.14 260 22:40 05.01.2022
4488 Clear 30 1012 30 10000 3.6 240 21:54 05.01.2022
4489 Clear 30 1013 30 10000 3.6 240 21:21 05.01.2022
4490 Clear 30 1013 30 10000 4.43 247 20:21 05.01.2022
4491 Clear 29 1013 31 10000 3.91 249 19:27 05.01.2022
4492 Clear 27 1014 36 10000 2.57 260 17:50 05.01.2022
4493 Clear 26 1015 40 10000 0 0 16:56 05.01.2022
4494 Clear 24 1016 44 10000 2.06 0 15:46 05.01.2022
4495 Clear 22 1017 45 10000 2.35 249 14:28 05.01.2022
4496 Clear 22 1017 47 10000 2.35 249 13:33 05.01.2022
4497 Clouds 20 1017 51 10000 1.03 229 11:46 05.01.2022
4498 Clouds 21 1016 50 10000 0.75 241 08:20 05.01.2022
4499 Clear 21 1017 48 10000 0.6 230 06:36 05.01.2022
4500 Clear 26 1015 38 10000 4.12 230 00:59 05.01.2022
4501 Clear 30 1012 30 10000 5.14 230 23:41 04.01.2022
4502 Clear 30 1013 28 10000 5.14 230 23:19 04.01.2022
4503 Clear 30 1013 26 10000 3.09 210 21:32 04.01.2022
4504 Clear 29 1014 28 10000 3.09 200 20:27 04.01.2022
4505 Clear 28 1014 32 10000 3.09 240 18:35 04.01.2022
4506 Clear 27 1016 35 10000 1.54 260 17:18 04.01.2022
4507 Clear 25 1015 42 10000 2.06 300 16:31 04.01.2022
4508 Clear 23 1017 45 10000 2.78 250 14:58 04.01.2022
4509 Clear 23 1018 42 10000 2.78 250 14:36 04.01.2022
4510 Clear 21 1019 48 10000 2.44 245 13:48 04.01.2022
4511 Clear 19 1020 54 10000 0.59 218 10:59 04.01.2022
4512 Clear 19 1020 52 10000 0.71 228 09:58 04.01.2022
4513 Clear 20 1019 50 10000 0.85 228 08:36 04.01.2022
4514 Clear 22 1020 43 10000 1.37 230 04:24 04.01.2022
4515 Clear 26 1017 34 10000 4.12 230 00:42 04.01.2022
4516 Clear 28 1016 28 10000 5.14 230 23:44 03.01.2022
4517 Clouds 30 1016 26 10000 4.12 240 22:21 03.01.2022
4518 Clouds 30 1017 25 10000 3.6 240 21:38 03.01.2022
4519 Clear 30 1017 23 10000 3.6 170 20:34 03.01.2022
4520 Clear 29 1018 25 10000 3.6 240 18:54 03.01.2022
4521 Clear 28 1018 26 10000 3.6 240 18:29 03.01.2022
4522 Clear 26 1019 29 10000 3.31 252 17:20 03.01.2022
4523 Clear 26 1018 32 10000 2.06 210 16:28 03.01.2022
4524 Clear 21 1020 40 10000 1.54 220 14:31 03.01.2022
4525 Clear 18 1019 49 10000 0 0 12:52 03.01.2022
4526 Clear 18 1021 37 10000 0.98 243 11:50 03.01.2022
4527 Clear 18 1021 38 10000 0.33 215 10:37 03.01.2022
4528 Clear 19 1020 39 10000 0.26 234 09:27 03.01.2022
4529 Clear 19 1020 41 10000 0.6 205 07:52 03.01.2022
4530 Clear 23 1021 36 10000 1.58 218 02:28 03.01.2022
4531 Clear 28 1015 21 10000 3.09 0 23:22 02.01.2022
4532 Clear 29 1015 20 10000 3.6 220 22:56 02.01.2022
4533 Clear 29 1016 19 10000 4.12 230 21:52 02.01.2022
4534 Clear 28 1016 20 10000 3.09 0 20:45 02.01.2022
4535 Clear 28 1016 20 10000 3.09 0 20:25 02.01.2022
4536 Clear 27 1017 23 10000 4.05 242 19:31 02.01.2022
4537 Clear 27 1017 25 10000 4.12 210 18:55 02.01.2022
4538 Clear 26 1017 29 10000 1.54 0 17:56 02.01.2022
4539 Clear 25 1017 29 10000 1.54 0 17:38 02.01.2022
4540 Clear 25 1017 29 10000 1.54 0 17:19 02.01.2022
4541 Clear 24 1017 33 10000 2.06 0 16:27 02.01.2022
4542 Clear 21 1016 35 10000 1.03 30 14:41 02.01.2022
4543 Clouds 18 1021 44 10000 1.94 250 13:25 02.01.2022
4544 Clear 16 1018 53 10000 0 0 12:31 02.01.2022
4545 Clear 17 1019 46 10000 1.11 258 11:36 02.01.2022
4546 Clear 17 1019 45 10000 0.27 312 10:50 02.01.2022
4547 Clear 17 1019 45 10000 0.28 301 09:55 02.01.2022
4548 Clear 18 1019 42 10000 0.94 242 07:29 02.01.2022
4549 Clear 21 1019 39 10000 1.68 229 02:20 02.01.2022
4550 Clear 27 1014 24 10000 4.12 240 23:41 01.01.2022
4551 Clear 27 1013 24 10000 4.12 240 23:22 01.01.2022
4552 Clear 28 1013 22 10000 4.12 240 22:24 01.01.2022
4553 Clear 28 1013 21 10000 4.63 250 21:44 01.01.2022
4554 Clear 28 1013 21 10000 4.12 0 20:56 01.01.2022
4555 Clear 28 1013 21 10000 4.12 0 20:19 01.01.2022
4556 Clear 27 1014 23 10000 4.45 241 19:32 01.01.2022
4557 Clear 26 1015 26 10000 3.09 260 18:29 01.01.2022
4558 Clear 24 1015 29 10000 1.54 270 16:51 01.01.2022
4559 Clear 24 1015 29 10000 1.54 270 16:29 01.01.2022
4560 Clear 23 1015 29 10000 2.57 0 15:33 01.01.2022
4561 Clear 21 1015 31 10000 1.54 190 14:22 01.01.2022
4562 Clear 17 1015 44 10000 0 0 12:50 01.01.2022
4563 Clear 19 1016 37 10000 0.7 290 11:59 01.01.2022
4564 Clear 17 1018 41 10000 0.58 325 11:24 01.01.2022
4565 Clear 17 1018 39 10000 0.58 325 10:43 01.01.2022
4566 Clear 17 1017 39 10000 0.18 195 09:47 01.01.2022
4567 Clear 18 1017 39 10000 1.05 235 08:27 01.01.2022
4568 Clear 18 1017 37 10000 1.05 235 07:56 01.01.2022
4569 Clear 18 1017 37 10000 1.05 235 07:37 01.01.2022
4570 Clear 19 1017 36 10000 0.46 267 06:42 01.01.2022
4571 Clear 20 1018 28 10000 0.46 251 04:38 01.01.2022
4572 Clear 20 1018 25 10000 1.92 235 03:48 01.01.2022
4573 Clear 29 1011 21 10000 4.12 260 23:53 31.12.2021
4574 Clear 29 1011 22 10000 3.6 240 21:55 31.12.2021
4575 Clear 29 1012 24 10000 4.63 220 20:49 31.12.2021
4576 Clear 28 1012 27 10000 4.75 245 19:43 31.12.2021
4577 Clear 28 1013 32 8000 3.6 230 18:47 31.12.2021
4578 Clear 26 1013 33 8000 2.06 200 17:49 31.12.2021
4579 Clear 26 1013 33 8000 2.06 200 17:22 31.12.2021
4580 Clear 26 1013 35 8000 1.54 220 16:46 31.12.2021
4581 Clear 25 1013 39 10000 1.54 280 15:59 31.12.2021
4582 Clear 24 1012 39 10000 1.54 280 15:41 31.12.2021
4583 Clear 24 1013 40 10000 1.54 280 15:19 31.12.2021
4584 Clear 23 1012 40 10000 1.54 0 14:37 31.12.2021
4585 Clear 22 1014 43 10000 2.28 247 13:45 31.12.2021
4586 Clear 20 1013 55 10000 0 0 12:50 31.12.2021
4587 Clear 19 1013 56 10000 0 0 12:19 31.12.2021
4588 Clear 20 1014 47 10000 0.94 229 11:41 31.12.2021
4589 Clear 18 1017 54 10000 0.41 136 10:48 31.12.2021
4590 Clear 18 1017 54 10000 0.47 197 10:25 31.12.2021
4591 Clear 19 1017 53 10000 0.47 197 09:34 31.12.2021
4592 Clear 19 1017 53 10000 0.22 192 08:50 31.12.2021
4593 Clear 19 1017 54 10000 0.54 203 07:53 31.12.2021
4594 Clear 23 1020 45 10000 1.86 236 02:36 31.12.2021
4595 Clear 28 1015 30 10000 4.12 230 23:18 30.12.2021
4596 Clear 29 1014 26 10000 4.63 240 22:27 30.12.2021
4597 Clear 29 1015 28 8000 4.12 250 21:39 30.12.2021
4598 Clear 29 1015 29 8000 3.6 230 20:59 30.12.2021
4599 Clear 29 1017 28 8000 3.6 230 20:38 30.12.2021
4600 Clear 28 1017 28 10000 4.14 244 19:53 30.12.2021
4601 Clear 27 1016 33 10000 4.14 244 19:31 30.12.2021
4602 Clear 27 1016 36 8000 3.09 210 18:26 30.12.2021
4603 Clear 27 1016 36 8000 3.09 210 18:26 30.12.2021
4604 Clear 24 1016 42 8000 0 0 16:53 30.12.2021
4605 Clear 23 1016 45 8000 1.54 250 15:53 30.12.2021
4606 Clear 21 1017 58 8000 0 0 14:55 30.12.2021
4607 Clear 21 1017 58 8000 0 0 14:36 30.12.2021
4608 Clear 21 1019 52 10000 1.77 252 13:25 30.12.2021
4609 Clear 19 1022 60 10000 0.27 233 11:57 30.12.2021
4610 Clear 18 1022 63 10000 0.44 165 10:35 30.12.2021
4611 Clear 18 1022 63 10000 1.15 213 09:47 30.12.2021
4612 Clear 18 1023 63 10000 0.77 239 06:58 30.12.2021
4613 Clear 17 1024 62 10000 1.6 241 05:20 30.12.2021
4614 Clear 19 1023 60 10000 1.32 241 03:40 30.12.2021
4615 Clear 19 1023 60 10000 2.2 234 02:28 30.12.2021
4616 Clear 22 1019 54 8000 3.09 210 23:37 29.12.2021
4617 Clear 25 1017 45 8000 3.09 210 22:42 29.12.2021
4618 Clear 24 1017 47 7000 3.09 210 21:56 29.12.2021
4619 Clear 23 1016 53 6000 3.6 250 20:58 29.12.2021
4620 Clear 23 1017 50 6000 3.6 250 20:29 29.12.2021
4621 Clear 25 1015 40 10000 4.9 236 19:31 29.12.2021
4622 Haze 23 1017 51 5000 3.6 250 18:42 29.12.2021
4623 Clear 25 1016 42 10000 4.81 243 17:49 29.12.2021
4624 Clear 25 1016 42 10000 4.31 245 17:26 29.12.2021
4625 Haze 22 1017 56 5000 2.57 220 16:22 29.12.2021
4626 Haze 20 1017 60 5000 2.57 210 15:21 29.12.2021
4627 Clear 22 1015 50 10000 2.6 253 13:31 29.12.2021
4628 Haze 18 1015 68 5000 0 0 12:35 29.12.2021
4629 Clear 18 1017 60 10000 0.84 243 11:25 29.12.2021
4630 Clear 18 1018 61 10000 0.98 256 09:38 29.12.2021
4631 Clear 19 1017 57 10000 0.81 243 07:47 29.12.2021
4632 Clear 20 1017 55 10000 1.04 260 06:36 29.12.2021
4633 Clear 20 1017 54 10000 1.18 254 05:57 29.12.2021
4634 Clear 20 1017 54 10000 1.18 254 05:30 29.12.2021
4635 Clear 23 1017 49 10000 1.84 237 01:45 29.12.2021
4636 Clear 26 1012 39 8000 4.63 250 23:59 28.12.2021
4637 Clear 27 1012 38 8000 4.63 250 23:18 28.12.2021
4638 Clear 28 1012 37 8000 4.63 250 22:26 28.12.2021
4639 Clear 28 1012 35 7000 4.63 210 21:57 28.12.2021
4640 Clear 28 1012 35 7000 4.63 210 21:35 28.12.2021
4641 Clear 29 1015 35 10000 3.6 190 20:33 28.12.2021
4642 Clear 28 1015 37 7000 3.09 270 18:56 28.12.2021
4643 Clear 28 1015 37 7000 3.09 270 18:29 28.12.2021
4644 Clear 27 1015 38 7000 3.09 250 17:48 28.12.2021
4645 Clear 26 1014 40 7000 2.57 240 16:29 28.12.2021
4646 Clear 25 1014 43 7000 2.06 250 15:45 28.12.2021
4647 Clear 24 1014 44 7000 2.06 250 15:19 28.12.2021
4648 Clear 24 1015 45 10000 1.54 230 14:45 28.12.2021
4649 Clear 24 1015 46 10000 1.54 230 14:20 28.12.2021
4650 Clear 24 1015 43 10000 2.55 248 13:38 28.12.2021
4651 Clear 24 1015 43 10000 2.55 248 13:38 28.12.2021
4652 Clear 20 1016 60 10000 0 0 12:57 28.12.2021
4653 Clear 19 1016 60 10000 0 0 12:38 28.12.2021
4654 Clear 20 1017 55 10000 0.3 205 10:52 28.12.2021
4655 Clear 21 1016 52 10000 0.35 307 07:39 28.12.2021
4656 Clear 21 1017 51 10000 0.41 272 06:40 28.12.2021
4657 Clouds 26 1014 38 7000 1.54 270 23:42 27.12.2021
4658 Clouds 28 1015 34 7000 2.57 270 22:53 27.12.2021
4659 Clouds 30 1015 30 7000 2.57 0 21:33 27.12.2021
4660 Clouds 30 1014 29 7000 4.12 240 20:45 27.12.2021
4661 Clear 30 1012 23 10000 4.51 244 19:57 27.12.2021
4662 Clear 29 1015 30 10000 4.51 244 19:39 27.12.2021
4663 Clear 27 1017 34 7000 3.09 0 17:55 27.12.2021
4664 Clear 27 1016 33 7000 3.09 0 17:37 27.12.2021
4665 Clear 26 1015 33 7000 2.57 210 16:36 27.12.2021
4666 Clouds 26 1015 36 7000 2.06 0 15:51 27.12.2021
4667 Clouds 24 1016 42 8000 1.03 0 14:30 27.12.2021
4668 Clouds 25 1016 38 10000 2.61 250 13:38 27.12.2021
4669 Clouds 20 1019 47 10000 0.53 275 11:41 27.12.2021
4670 Clouds 21 1018 46 10000 0.22 198 10:28 27.12.2021
4671 Clouds 21 1017 47 10000 0.22 198 09:38 27.12.2021
4672 Clouds 22 1017 41 10000 0.46 249 07:35 27.12.2021
4673 Clouds 23 1017 39 10000 0.22 204 06:38 27.12.2021
4674 Clouds 26 1016 26 10000 1.64 231 01:59 27.12.2021
4675 Clear 29 1012 25 10000 3.6 230 23:57 26.12.2021
4676 Clear 30 1012 25 10000 3.6 230 23:34 26.12.2021
4677 Clear 32 1012 19 10000 4.12 260 21:53 26.12.2021
4678 Clear 31 1013 21 10000 3.6 250 20:42 26.12.2021
4679 Clouds 31 1012 23 10000 4.58 244 19:46 26.12.2021
4680 Clear 30 1014 24 10000 3.09 260 18:23 26.12.2021
4681 Clear 28 1015 29 10000 2.06 240 15:57 26.12.2021
4682 Clear 26 1016 33 10000 0 0 14:27 26.12.2021
4683 Clouds 25 1016 31 10000 2.35 259 13:40 26.12.2021
4684 Clouds 25 1016 35 10000 1.54 268 13:18 26.12.2021
4685 Clear 22 1016 43 10000 0 0 12:27 26.12.2021
4686 Clouds 21 1017 38 10000 0.5 68 10:32 26.12.2021
4687 Clouds 21 1017 37 10000 0.06 79 09:19 26.12.2021
4688 Clouds 21 1017 38 10000 0.06 79 08:43 26.12.2021
4689 Clouds 22 1017 36 10000 0.38 61 07:34 26.12.2021
4690 Clouds 26 1016 21 10000 2.02 221 01:24 26.12.2021
4691 Clear 29 1012 26 10000 4.12 240 23:54 25.12.2021
4692 Clear 29 1012 24 10000 4.12 240 23:27 25.12.2021
4693 Clear 30 1012 24 10000 4.12 230 22:26 25.12.2021
4694 Clear 31 1012 24 10000 4.12 260 20:57 25.12.2021
4695 Clouds 30 1012 25 10000 4.07 245 19:26 25.12.2021
4696 Clear 30 1014 26 10000 3.6 250 18:55 25.12.2021
4697 Clear 29 1015 26 10000 2.57 200 17:33 25.12.2021
4698 Clear 28 1015 29 10000 1.54 200 16:36 25.12.2021
4699 Clear 26 1016 32 10000 1.03 220 15:18 25.12.2021
4700 Clouds 25 1017 35 10000 2 262 13:30 25.12.2021
4701 Clouds 22 1017 43 10000 0.41 291 11:51 25.12.2021
4702 Clouds 21 1019 49 10000 0.12 20 09:54 25.12.2021
4703 Clouds 21 1018 48 10000 0.12 20 09:34 25.12.2021
4704 Clouds 24 1017 43 10000 0.43 215 04:34 25.12.2021
4705 Clear 26 1013 33 10000 2.5 232 01:24 25.12.2021
4706 Clear 29 1012 33 10000 4.63 230 23:42 24.12.2021
4707 Clear 29 1015 28 10000 4.31 243 19:46 24.12.2021
4708 Clear 29 1016 29 10000 4.11 243 19:23 24.12.2021
4709 Clear 26 1018 38 10000 1.54 0 16:57 24.12.2021
4710 Clear 25 1016 39 10000 1.54 0 16:22 24.12.2021
4711 Clear 24 1017 40 10000 1.54 0 15:48 24.12.2021
4712 Clear 24 1017 41 10000 1.54 0 15:18 24.12.2021
4713 Clear 22 1017 46 10000 1.54 0 14:31 24.12.2021
4714 Clear 23 1018 42 10000 2.56 246 13:42 24.12.2021
4715 Clear 18 1020 61 10000 0 0 12:49 24.12.2021
4716 Clear 18 1020 61 10000 0 0 12:21 24.12.2021
4717 Clouds 18 1021 54 10000 1.12 242 11:30 24.12.2021
4718 Clouds 18 1020 52 10000 0.19 190 10:59 24.12.2021
4719 Clouds 19 1020 52 10000 0.19 190 10:33 24.12.2021
4720 Clouds 20 1020 53 10000 0.64 241 08:36 24.12.2021
4721 Clouds 20 1020 52 10000 0.43 214 07:58 24.12.2021
4722 Clouds 16 1017 52 10000 1.17 243 06:18 24.12.2021
4723 Clear 26 1017 36 10000 3.09 250 00:20 24.12.2021
4724 Clear 26 1016 34 10000 4.12 240 23:33 23.12.2021
4725 Clear 27 1017 35 10000 3.09 240 22:44 23.12.2021
4726 Clear 27 1018 34 10000 3.09 240 22:22 23.12.2021
4727 Clear 27 1017 34 10000 4.12 190 21:39 23.12.2021
4728 Clear 27 1019 33 8000 4.63 240 20:22 23.12.2021
4729 Clouds 26 1019 34 10000 4.26 244 19:28 23.12.2021
4730 Clouds 25 1017 38 8000 3.09 210 17:58 23.12.2021
4731 Clouds 25 1017 38 8000 3.09 210 17:18 23.12.2021
4732 Clouds 23 1018 41 10000 3.67 249 16:26 23.12.2021
4733 Clouds 22 1018 47 8000 1.54 180 15:32 23.12.2021
4734 Clouds 21 1018 49 8000 1.54 0 14:58 23.12.2021
4735 Clouds 20 1018 50 8000 1.54 0 14:38 23.12.2021
4736 Clouds 18 1023 56 10000 1.8 249 13:25 23.12.2021
4737 Clouds 18 1021 53 10000 0.63 233 11:27 23.12.2021
4738 Clouds 19 1020 44 10000 0.88 240 09:53 23.12.2021
4739 Clouds 19 1020 43 10000 0.88 240 09:33 23.12.2021
4740 Clear 20 1019 41 10000 0.81 260 08:28 23.12.2021
4741 Clear 22 1018 34 10000 1.04 257 05:30 23.12.2021
4742 Clear 27 1014 26 10000 3.6 260 00:40 23.12.2021
4743 Clear 28 1013 28 8000 3.6 230 22:51 22.12.2021
4744 Clear 29 1014 26 8000 4.12 230 21:59 22.12.2021
4745 Clear 29 1014 27 8000 4.12 230 21:30 22.12.2021
4746 Clear 28 1014 27 8000 4.63 240 20:59 22.12.2021
4747 Clear 28 1014 27 8000 4.63 240 20:40 22.12.2021
4748 Clear 29 1011 19 10000 4.8 240 19:50 22.12.2021
4749 Clouds 29 1014 26 8000 4.12 240 18:55 22.12.2021
4750 Clouds 28 1011 23 10000 4.42 243 17:38 22.12.2021
4751 Clouds 26 1013 34 8000 2.57 270 15:56 22.12.2021
4752 Clear 25 1014 37 10000 2.06 240 14:23 22.12.2021
4753 Clear 21 1013 46 10000 0 0 12:53 22.12.2021
4754 Clear 20 1016 42 10000 0.64 251 11:42 22.12.2021
4755 Clear 20 1015 42 10000 0.13 125 09:52 22.12.2021
4756 Clear 21 1014 47 10000 0.61 220 07:57 22.12.2021
4757 Clear 22 1014 46 10000 0.21 295 05:54 22.12.2021
4758 Clear 23 1014 47 10000 0.21 295 05:34 22.12.2021
4759 Clear 23 1015 45 10000 0.36 200 04:57 22.12.2021
4760 Clear 23 1015 43 10000 0.36 200 04:37 22.12.2021
4761 Clear 23 1015 42 10000 1.3 213 03:49 22.12.2021
4762 Clear 23 1015 41 10000 1.3 213 03:31 22.12.2021
4763 Clear 27 1011 32 10000 4.12 230 23:48 21.12.2021
4764 Clear 30 1012 25 10000 4.12 240 22:41 21.12.2021
4765 Clear 31 1012 24 10000 3.6 250 21:56 21.12.2021
4766 Clear 31 1013 25 10000 3.6 250 21:33 21.12.2021
4767 Clear 30 1013 23 8000 4.12 240 20:39 21.12.2021
4768 Clear 30 1013 23 8000 4.12 240 20:18 21.12.2021
4769 Clear 30 1013 23 10000 4.52 245 19:33 21.12.2021
4770 Clear 29 1013 22 10000 3.6 250 18:23 21.12.2021
4771 Clear 29 1013 26 8000 3.09 260 17:58 21.12.2021
4772 Clear 29 1013 28 8000 3.09 260 17:29 21.12.2021
4773 Clear 26 1013 35 8000 1.54 230 15:39 21.12.2021
4774 Clear 24 1014 43 10000 0 0 14:21 21.12.2021
4775 Clear 24 1014 41 10000 2.53 239 13:42 21.12.2021
4776 Clear 19 1015 55 10000 0 0 12:26 21.12.2021
4777 Clear 20 1016 47 10000 0.48 188 10:38 21.12.2021
4778 Clear 20 1016 48 10000 0.41 184 09:50 21.12.2021
4779 Clear 20 1016 48 10000 0.39 175 08:55 21.12.2021
4780 Clear 21 1016 48 10000 0.69 210 07:43 21.12.2021
4781 Clear 21 1016 46 10000 0.72 210 07:20 21.12.2021
4782 Clear 24 1016 38 10000 1.5 226 03:24 21.12.2021
4783 Clear 26 1014 35 10000 1.99 224 01:25 21.12.2021
4784 Clear 27 1012 33 10000 4.63 250 23:54 20.12.2021
4785 Clear 31 1012 28 10000 4.63 250 22:35 20.12.2021
4786 Clear 31 1013 25 10000 4.63 240 21:52 20.12.2021
4787 Clear 31 1013 24 10000 4.63 240 21:24 20.12.2021
4788 Clear 32 1012 24 10000 4.12 0 20:54 20.12.2021
4789 Clear 31 1013 23 10000 4.12 0 20:19 20.12.2021
4790 Clear 31 1014 23 10000 4.46 244 19:36 20.12.2021
4791 Clear 31 1014 22 10000 4.23 242 19:18 20.12.2021
4792 Clear 30 1014 21 10000 3.09 250 18:30 20.12.2021
4793 Clear 30 1015 23 10000 2.57 0 17:49 20.12.2021
4794 Clear 30 1015 23 10000 2.57 0 17:49 20.12.2021
4795 Clear 27 1015 29 10000 2.06 0 16:46 20.12.2021
4796 Clear 25 1015 35 10000 2.06 220 15:57 20.12.2021
4797 Clear 25 1015 35 10000 2.06 220 15:31 20.12.2021
4798 Clear 24 1015 38 10000 2.21 240 13:32 20.12.2021
4799 Clear 24 1015 38 10000 2.21 240 13:32 20.12.2021
4800 Clear 19 1016 57 10000 0 0 12:30 20.12.2021
4801 Clouds 20 1017 46 10000 0.47 198 10:36 20.12.2021
4802 Clouds 20 1016 47 10000 0.5 208 09:39 20.12.2021
4803 Clouds 21 1016 45 10000 0.33 166 08:49 20.12.2021
4804 Clouds 21 1016 46 10000 0.33 166 08:31 20.12.2021
4805 Clouds 21 1016 44 10000 0.4 210 07:32 20.12.2021
4806 Clear 22 1016 44 10000 0.55 226 06:39 20.12.2021
4807 Clear 28 1012 29 10000 2.57 250 00:20 20.12.2021
4808 Clear 30 1011 26 10000 4.63 250 22:56 19.12.2021
4809 Clear 30 1011 26 10000 4.63 250 22:32 19.12.2021
4810 Clear 32 1013 23 10000 4.12 220 21:32 19.12.2021
4811 Clear 32 1013 22 10000 3.6 220 20:42 19.12.2021
4812 Clear 32 1013 22 10000 3.6 220 20:23 19.12.2021
4813 Clear 30 1013 24 10000 4.33 244 19:41 19.12.2021
4814 Clear 31 1014 23 10000 2.57 260 18:37 19.12.2021
4815 Clear 30 1014 24 10000 2.06 260 17:53 19.12.2021
4816 Clear 30 1013 25 10000 2.06 260 17:28 19.12.2021
4817 Clear 27 1013 32 10000 2.06 160 16:27 19.12.2021
4818 Clear 26 1013 34 10000 2.06 240 15:51 19.12.2021
4819 Clear 26 1014 34 10000 2.06 240 15:23 19.12.2021
4820 Clear 25 1014 37 10000 1.54 220 14:45 19.12.2021
4821 Clear 23 1015 39 10000 1.34 252 13:26 19.12.2021
4822 Clear 21 1015 49 10000 0 0 12:52 19.12.2021
4823 Clear 18 1016 56 10000 0 0 12:28 19.12.2021
4824 Clear 19 1017 45 10000 0.37 246 11:33 19.12.2021
4825 Clear 19 1017 46 10000 0.16 189 10:48 19.12.2021
4826 Clear 19 1018 46 10000 0.2 191 10:21 19.12.2021
4827 Clear 20 1017 46 10000 0.19 204 08:46 19.12.2021
4828 Clear 21 1017 47 10000 0.42 226 05:37 19.12.2021
4829 Clear 25 1017 37 10000 1.4 227 01:45 19.12.2021
4830 Clear 27 1014 30 10000 2.06 250 00:54 19.12.2021
4831 Clear 29 1013 25 10000 4.63 230 22:51 18.12.2021
4832 Clear 31 1015 23 10000 4.63 230 22:24 18.12.2021
4833 Clear 30 1014 22 10000 3.09 190 21:41 18.12.2021
4834 Clear 30 1014 21 10000 3.09 190 21:22 18.12.2021
4835 Clear 30 1015 24 10000 3.6 220 20:25 18.12.2021
4836 Clear 29 1016 26 10000 3.89 246 19:27 18.12.2021
4837 Clear 28 1016 28 10000 2.57 270 18:23 18.12.2021
4838 Clear 27 1016 27 10000 2.57 210 17:49 18.12.2021
4839 Clear 25 1016 35 10000 2.57 260 16:27 18.12.2021
4840 Clear 24 1015 36 10000 2.06 250 15:48 18.12.2021
4841 Clear 22 1015 38 10000 1.03 240 14:53 18.12.2021
4842 Clear 23 1014 34 10000 2.41 246 13:42 18.12.2021
4843 Clear 18 1018 49 10000 0.71 246 11:48 18.12.2021
4844 Clear 18 1019 51 10000 0.25 229 09:53 18.12.2021
4845 Clear 18 1018 50 10000 0.25 229 09:30 18.12.2021
4846 Clear 18 1019 51 10000 0.24 178 08:35 18.12.2021
4847 Clear 19 1019 47 10000 0.73 236 06:27 18.12.2021
4848 Clear 25 1016 32 10000 3.09 270 00:42 18.12.2021
4849 Clear 27 1013 31 10000 4.12 270 23:46 17.12.2021
4850 Clear 28 1013 27 10000 3.09 230 22:18 17.12.2021
4851 Clear 28 1014 25 10000 3.6 220 21:28 17.12.2021
4852 Clear 28 1014 26 10000 4.12 210 20:42 17.12.2021
4853 Clear 27 1014 29 10000 4.23 242 19:50 17.12.2021
4854 Clear 26 1015 36 10000 2.57 0 18:39 17.12.2021
4855 Clear 25 1017 37 10000 2.06 250 17:46 17.12.2021
4856 Clear 24 1016 38 10000 1.54 210 16:50 17.12.2021
4857 Clear 23 1017 40 10000 1.54 210 16:26 17.12.2021
4858 Clear 21 1017 45 10000 1.03 270 15:25 17.12.2021
4859 Clear 20 1016 48 10000 1.54 0 14:41 17.12.2021
4860 Clear 20 1018 48 10000 2.49 251 13:30 17.12.2021
4861 Clear 14 984 70 10000 0 0 12:28 17.12.2021
4862 Clear 16 1022 61 10000 0.37 232 10:39 17.12.2021
4863 Clear 16 1021 60 10000 0.82 242 09:44 17.12.2021
4864 Clear 16 1021 59 10000 0.57 239 08:31 17.12.2021
4865 Clear 16 1021 59 10000 1.11 246 07:20 17.12.2021
4866 Clear 18 1022 54 10000 1.21 249 04:40 17.12.2021
4867 Clear 25 1014 37 10000 4.12 250 23:58 16.12.2021
4868 Clear 25 1014 36 10000 5.14 250 22:24 16.12.2021
4869 Clear 25 1014 36 10000 5.14 250 22:24 16.12.2021
4870 Clear 25 1014 36 10000 5.14 250 22:23 16.12.2021
4871 Clear 25 1014 36 10000 5.14 250 22:23 16.12.2021
4872 Clear 26 1014 33 10000 4.12 230 21:45 16.12.2021
4873 Clear 27 1014 31 10000 4.12 220 20:57 16.12.2021
4874 Clear 28 1015 28 10000 4.12 220 20:27 16.12.2021
4875 Clear 26 1015 29 10000 4.59 239 19:35 16.12.2021
4876 Clear 26 1014 32 10000 3.09 230 18:37 16.12.2021
4877 Clear 25 1014 32 10000 2.06 0 17:49 16.12.2021
4878 Clear 24 1015 34 10000 2.06 280 16:55 16.12.2021
4879 Clear 23 1015 34 10000 2.06 280 16:20 16.12.2021
4880 Clear 21 1014 38 10000 0 0 14:32 16.12.2021
4881 Clear 18 1015 50 10000 0 0 12:34 16.12.2021
4882 Clear 18 1018 52 10000 0.46 226 11:19 16.12.2021
4883 Clear 18 1018 52 10000 0.46 226 11:19 16.12.2021
4884 Clear 18 1018 51 10000 0.46 226 10:45 16.12.2021
4885 Clear 18 1018 52 10000 0.78 244 09:51 16.12.2021
4886 Clear 19 1017 46 10000 0.35 233 07:19 16.12.2021
4887 Clear 20 1017 47 10000 0.78 253 06:19 16.12.2021
4888 Clear 26 1014 31 10000 3.6 240 00:44 16.12.2021
4889 Clear 26 1013 31 10000 4.12 240 23:21 15.12.2021
4890 Clear 29 1015 25 10000 4.12 220 22:22 15.12.2021
4891 Clear 29 1014 23 10000 4.12 210 21:46 15.12.2021
4892 Clear 29 1015 23 10000 4.12 210 21:26 15.12.2021
4893 Clear 28 1016 23 10000 4.44 238 19:55 15.12.2021
4894 Clear 28 1016 25 10000 4.06 241 19:19 15.12.2021
4895 Clear 28 1016 24 10000 3.6 180 18:26 15.12.2021
4896 Clear 27 1017 25 10000 2.06 0 17:47 15.12.2021
4897 Clear 26 1015 28 10000 2.06 0 17:21 15.12.2021
4898 Clear 23 1016 33 10000 2.06 0 15:59 15.12.2021
4899 Clear 23 1017 34 10000 2.06 0 15:41 15.12.2021
4900 Clear 23 1017 35 10000 2.06 0 15:23 15.12.2021
4901 Clear 20 1017 40 10000 0 0 13:48 15.12.2021
4902 Clear 18 1020 47 10000 0.88 246 11:52 15.12.2021
4903 Clear 16 1020 51 10000 0.5 258 10:22 15.12.2021
4904 Clear 18 1019 49 10000 0.33 225 08:34 15.12.2021
4905 Clear 19 1020 45 10000 0.79 234 05:59 15.12.2021
4906 Clear 25 1016 27 10000 3.6 250 00:45 15.12.2021
4907 Clear 25 1015 29 10000 3.09 220 23:32 14.12.2021
4908 Clear 26 1015 26 10000 3.09 230 22:45 14.12.2021
4909 Clear 26 1016 28 10000 3.6 220 21:47 14.12.2021
4910 Clear 24 1017 30 10000 4.23 236 20:23 14.12.2021
4911 Clear 25 1017 28 10000 3.6 170 19:39 14.12.2021
4912 Clear 24 1018 30 10000 3.6 200 18:39 14.12.2021
4913 Clear 23 1018 33 10000 2.57 0 17:57 14.12.2021
4914 Clear 22 1019 36 10000 2.06 0 16:49 14.12.2021
4915 Clear 22 1019 36 10000 2.06 0 16:30 14.12.2021
4916 Clear 19 1020 41 10000 2.57 170 14:33 14.12.2021
4917 Clear 16 1021 47 10000 0 0 13:22 14.12.2021
4918 Clear 16 1023 51 10000 1.06 258 11:51 14.12.2021
4919 Clear 15 1023 53 10000 0.17 325 11:22 14.12.2021
4920 Clear 15 1023 53 10000 0.55 243 09:55 14.12.2021
4921 Clear 15 1023 52 10000 0.63 240 09:22 14.12.2021
4922 Clear 16 1023 51 10000 0.84 249 08:22 14.12.2021
4923 Clear 16 1022 50 10000 0.84 249 07:42 14.12.2021
4924 Clouds 21 1016 40 10000 3.6 260 00:35 14.12.2021
4925 Clouds 24 1014 34 10000 4.63 230 22:33 13.12.2021
4926 Clouds 24 1015 33 10000 4.12 230 21:49 13.12.2021
4927 Clear 24 1015 32 10000 3.6 240 20:58 13.12.2021
4928 Clear 24 1015 32 10000 3.6 240 20:29 13.12.2021
4929 Clear 23 1015 34 10000 4.55 242 19:51 13.12.2021
4930 Clear 22 1016 37 10000 2.57 200 17:55 13.12.2021
4931 Clear 22 1017 38 10000 2.57 200 17:19 13.12.2021
4932 Clear 20 1018 43 10000 2.06 210 15:49 13.12.2021
4933 Clear 18 1018 47 10000 1.54 150 14:55 13.12.2021
4934 Clear 17 1018 51 10000 0 0 13:37 13.12.2021
4935 Clear 15 1018 57 10000 0 0 12:41 13.12.2021
4936 Clear 16 1021 55 10000 1.01 260 11:54 13.12.2021
4937 Clear 15 1021 56 10000 1.01 260 11:34 13.12.2021
4938 Clear 15 1022 57 10000 0.43 280 10:41 13.12.2021
4939 Clear 15 1021 57 10000 0.71 255 08:45 13.12.2021
4940 Clear 16 1021 54 10000 0.89 257 06:56 13.12.2021
4941 Clear 16 1021 51 10000 1.16 253 05:19 13.12.2021
4942 Clouds 21 1014 39 10000 3.09 230 00:41 13.12.2021
4943 Clouds 22 1015 39 10000 3.6 240 21:59 12.12.2021
4944 Clouds 22 1015 40 10000 3.6 240 21:30 12.12.2021
4945 Clouds 21 1017 45 10000 3.6 0 19:38 12.12.2021
4946 Clouds 19 1018 49 10000 3.09 0 18:24 12.12.2021
4947 Clouds 18 1019 57 8000 3.24 254 16:47 12.12.2021
4948 Clouds 17 1019 58 8000 3.13 252 16:22 12.12.2021
4949 Clouds 16 1019 67 8000 2.06 220 15:28 12.12.2021
4950 Clouds 15 1020 71 7000 2.06 180 14:54 12.12.2021
4951 Clouds 14 1020 73 7000 2.06 180 14:22 12.12.2021
4952 Haze 14 1019 77 700 2.06 210 12:51 12.12.2021
4953 Haze 14 1019 76 700 2.06 210 12:23 12.12.2021
4954 Clouds 15 1021 70 10000 2 245 11:43 12.12.2021
4955 Clouds 15 1021 71 10000 1.58 248 10:44 12.12.2021
4956 Clouds 15 1021 72 10000 1.45 251 10:21 12.12.2021
4957 Clouds 15 1021 69 10000 1.33 255 08:50 12.12.2021
4958 Clouds 16 1020 67 9274 1.33 253 07:30 12.12.2021
4959 Clouds 15 1021 70 10000 1.35 258 05:56 12.12.2021
4960 Clouds 16 1021 64 10000 1.55 245 04:55 12.12.2021
4961 Clouds 16 1022 65 10000 2.43 240 02:52 12.12.2021
4962 Clouds 20 915 50 8000 2.57 220 23:28 11.12.2021
4963 Clouds 20 857 47 8000 3.09 220 22:21 11.12.2021
4964 Clouds 21 915 49 8000 4.63 250 21:50 11.12.2021
4965 Clouds 22 1015 48 7000 3.6 230 20:21 11.12.2021
4966 Haze 21 1016 35 5000 1.54 240 19:21 11.12.2021
4967 Haze 21 1016 35 5000 1.54 240 19:21 11.12.2021
4968 Haze 19 1016 34 5000 1.54 290 18:49 11.12.2021
4969 Haze 16 1017 34 5000 1.54 0 17:56 11.12.2021
4970 Haze 18 858 41 5000 2.06 240 16:40 11.12.2021
4971 Mist 18 858 41 4000 2.06 210 15:46 11.12.2021
4972 Mist 17 858 42 2500 1.54 230 14:54 11.12.2021
4973 Mist 15 1020 75 2000 2.06 220 12:41 11.12.2021
4974 Clear 16 1022 68 10000 0.67 258 11:24 11.12.2021
4975 Clear 16 1021 67 10000 1.32 245 09:45 11.12.2021
4976 Clear 16 1021 68 10000 1.45 251 07:30 11.12.2021
4977 Clear 21 915 51 7000 3.09 260 00:50 11.12.2021
4978 Clear 21 856 47 7000 3.6 260 23:45 10.12.2021
4979 Clear 24 1015 47 7000 3.6 260 23:18 10.12.2021
4980 Clear 25 1015 41 7000 4.12 240 21:52 10.12.2021
4981 Clear 24 1014 33 7000 4.12 240 20:56 10.12.2021
4982 Clear 23 1015 33 6000 4.63 240 19:20 10.12.2021
4983 Clear 22 1015 51 6000 4.12 240 17:54 10.12.2021
4984 Clear 21 1014 54 7000 3.6 250 16:55 10.12.2021
4985 Clear 19 1014 61 6000 3.09 0 15:47 10.12.2021
4986 Clear 21 914 52 6000 3.09 0 15:29 10.12.2021
4987 Clear 20 914 53 6000 1.54 280 14:57 10.12.2021
4988 Clear 19 913 54 8000 0 0 13:50 10.12.2021
4989 Clear 19 914 56 8000 0 0 13:20 10.12.2021
4990 Clear 19 913 57 10000 0 0 12:23 10.12.2021
4991 Clear 19 1016 57 10000 0.56 282 11:27 10.12.2021
4992 Clear 19 1015 56 10000 0.48 264 09:54 10.12.2021
4993 Clear 19 1015 56 10000 0.48 264 09:54 10.12.2021
4994 Clear 20 864 48 10000 0.58 228 08:30 10.12.2021
4995 Clear 21 864 46 10000 0.68 236 05:56 10.12.2021
4996 Clear 21 864 44 10000 1.05 229 02:47 10.12.2021
4997 Clear 25 1011 41 10000 4.12 240 23:44 09.12.2021
4998 Clear 27 1012 34 10000 4.63 240 22:59 09.12.2021
4999 Clear 28 1011 33 10000 4.63 240 22:24 09.12.2021
5000 Clear 28 1011 31 10000 4.63 250 21:49 09.12.2021
5001 Clear 28 1011 31 10000 4.63 0 20:41 09.12.2021
5002 Clear 28 1011 29 10000 4.63 0 20:20 09.12.2021
5003 Clear 28 1012 29 10000 3.6 250 19:21 09.12.2021
5004 Clear 28 1012 30 10000 3.09 220 18:35 09.12.2021
5005 Clear 27 1012 31 10000 2.57 0 17:51 09.12.2021
5006 Clear 27 1012 31 10000 2.57 0 17:25 09.12.2021
5007 Clear 27 1012 31 10000 2.57 0 17:25 09.12.2021
5008 Clear 26 1013 32 10000 2.06 0 16:53 09.12.2021
5009 Clear 24 1013 39 10000 2.06 220 15:31 09.12.2021
5010 Clear 23 1013 43 10000 0 0 14:44 09.12.2021
5011 Clear 21 912 46 10000 0 0 13:18 09.12.2021
5012 Clear 19 912 52 10000 0 0 12:34 09.12.2021
5013 Clear 20 864 45 10000 0.64 19 10:58 09.12.2021
5014 Clear 19 1014 50 10000 0.28 61 08:49 09.12.2021
5015 Clear 21 864 44 10000 0.41 233 06:19 09.12.2021
5016 Clear 21 866 42 10000 1.45 240 02:49 09.12.2021
5017 Clear 23 856 38 10000 4.12 240 23:42 08.12.2021
5018 Clear 27 1014 33 10000 4.12 240 23:20 08.12.2021
5019 Clear 27 1014 33 10000 4.63 210 22:45 08.12.2021
5020 Clear 28 1014 31 10000 4.63 220 21:40 08.12.2021
5021 Clear 29 1014 27 10000 4.12 240 20:59 08.12.2021
5022 Clear 28 1014 27 10000 1.54 220 19:58 08.12.2021
5023 Clear 28 1014 28 10000 1.54 220 19:33 08.12.2021
5024 Clear 28 1015 33 8000 3.09 220 18:31 08.12.2021
5025 Clear 26 1016 33 8000 3.09 210 17:26 08.12.2021
5026 Clear 23 1015 41 10000 2.06 240 15:47 08.12.2021
5027 Clear 23 1016 43 10000 2.06 240 15:26 08.12.2021
5028 Clear 21 914 48 10000 1.03 230 14:28 08.12.2021
5029 Clear 17 1019 56 10000 0.2 200 10:54 08.12.2021
5030 Clear 17 1020 57 10000 0.22 230 10:28 08.12.2021
5031 Clear 18 1020 55 10000 0.32 216 08:54 08.12.2021
5032 Clear 18 1019 54 10000 0.35 224 07:21 08.12.2021
5033 Clear 21 915 43 10000 3.09 230 01:40 08.12.2021
5034 Clear 26 1016 31 10000 3.09 200 23:33 07.12.2021
5035 Clear 27 1017 35 10000 3.6 210 21:40 07.12.2021
5036 Clear 26 1017 36 10000 3.6 210 21:18 07.12.2021
5037 Clear 25 1016 25 8000 2.57 190 20:19 07.12.2021
5038 Clear 22 1017 28 8000 1.54 200 18:42 07.12.2021
5039 Clear 23 1017 40 7000 3.09 240 17:27 07.12.2021
5040 Clear 20 1017 40 7000 3.09 250 16:58 07.12.2021
5041 Clear 20 1017 40 7000 3.09 250 16:28 07.12.2021
5042 Clear 18 858 41 8000 2.06 0 14:57 07.12.2021
5043 Clear 18 858 41 8000 0 0 13:49 07.12.2021
5044 Clear 21 697 41 10000 2.16 253 12:49 07.12.2021
5045 Clear 16 1021 64 10000 0.6 240 11:25 07.12.2021
5046 Clear 16 1020 61 10000 0.65 272 09:55 07.12.2021
5047 Clear 19 1018 56 10000 1.04 240 07:55 07.12.2021
5048 Clear 20 866 48 10000 0.92 273 05:59 07.12.2021
5049 Clear 20 866 48 10000 1.04 265 05:33 07.12.2021
5050 Clear 26 1013 33 10000 3.08 233 23:45 06.12.2021
5051 Clear 26 1013 35 10000 4.21 236 22:44 06.12.2021
5052 Clear 29 1014 33 10000 4.74 237 22:22 06.12.2021
5053 Clear 28 1013 35 10000 4.74 237 21:46 06.12.2021
5054 Clear 27 1015 36 10000 4.97 239 20:33 06.12.2021
5055 Clear 26 1015 37 10000 4.13 245 19:27 06.12.2021
5056 Clear 26 1015 37 10000 4.13 245 18:59 06.12.2021
5057 Clear 27 1012 32 10000 3.79 246 17:56 06.12.2021
5058 Clear 26 1012 32 10000 3.79 246 17:37 06.12.2021
5059 Clear 25 1012 36 10000 3.62 247 16:22 06.12.2021
5060 Clear 24 1012 36 10000 3.62 247 15:38 06.12.2021
5061 Clear 23 1015 41 10000 2.77 250 13:46 06.12.2021
5062 Clear 22 1015 43 10000 2.23 252 12:39 06.12.2021
5063 Clear 21 1015 44 10000 0.5 254 10:38 06.12.2021
5064 Clear 21 1014 45 10000 0.15 257 08:45 06.12.2021
5065 Clear 24 1015 38 10000 0.7 236 04:56 06.12.2021
5066 Clear 30 1011 23 10000 4.63 240 22:52 05.12.2021
5067 Clear 32 1013 18 10000 4.63 250 21:26 05.12.2021
5068 Clear 33 1013 17 10000 3.6 230 20:59 05.12.2021
5069 Clear 33 1013 17 10000 3.6 230 20:19 05.12.2021
5070 Clear 32 1013 19 10000 3.09 210 19:33 05.12.2021
5071 Clear 31 1013 20 10000 3.09 0 18:43 05.12.2021
5072 Clear 31 1014 20 10000 3.09 0 18:19 05.12.2021
5073 Clear 30 1014 21 10000 2.57 240 17:48 05.12.2021
5074 Clear 29 1014 22 10000 2.57 0 16:45 05.12.2021
5075 Clear 28 1015 25 10000 2.57 0 16:26 05.12.2021
5076 Clear 26 1015 25 10000 1.54 250 14:49 05.12.2021
5077 Clear 25 1014 27 10000 1.54 250 14:31 05.12.2021
5078 Clear 23 1013 33 10000 0 0 13:50 05.12.2021
5079 Clear 23 1014 32 10000 0 0 13:22 05.12.2021
5080 Clear 20 1013 41 10000 0 0 12:40 05.12.2021
5081 Clear 21 1014 37 10000 0 0 12:18 05.12.2021
5082 Clear 20 1017 34 10000 0.53 82 11:20 05.12.2021
5083 Clear 20 1016 33 10000 0.56 79 09:59 05.12.2021
5084 Clear 21 1016 35 10000 0.47 58 07:55 05.12.2021
5085 Clear 25 1015 30 10000 0.94 192 02:28 05.12.2021
5086 Clear 29 1012 22 10000 3.6 140 23:34 04.12.2021
5087 Clear 31 1013 17 10000 3.6 240 21:54 04.12.2021
5088 Clear 30 1014 19 10000 2.57 240 20:55 04.12.2021
5089 Clear 29 1014 21 10000 2.57 190 19:55 04.12.2021
5090 Clear 29 1015 21 10000 2.57 190 19:31 04.12.2021
5091 Clear 27 1014 25 8000 0 0 17:59 04.12.2021
5092 Clear 27 1014 25 8000 0 0 17:38 04.12.2021
5093 Clear 25 1015 28 8000 2.06 240 16:48 04.12.2021
5094 Clear 25 1014 30 8000 2.06 240 16:30 04.12.2021
5095 Clear 23 1015 33 10000 0 0 15:18 04.12.2021
5096 Clear 21 1014 34 10000 0.83 234 11:50 04.12.2021
5097 Clear 12 1014 31 10000 0.83 234 11:32 04.12.2021
5098 Clear 12 1014 31 10000 0.83 234 11:32 04.12.2021
5099 Clear 16 1020 52 10000 0.3 146 10:43 04.12.2021
5100 Clear 18 1019 47 10000 0.33 223 08:47 04.12.2021
5101 Clear 19 1019 45 10000 0.62 242 06:26 04.12.2021
5102 Clear 19 1020 39 10000 0.72 246 04:42 04.12.2021
5103 Clear 23 1016 32 10000 3.09 240 00:18 04.12.2021
5104 Clear 26 1015 31 10000 4.29 234 23:20 03.12.2021
5105 Clear 26 1015 31 10000 4.63 230 22:41 03.12.2021
5106 Clear 26 1014 30 10000 4.12 230 21:25 03.12.2021
5107 Clear 26 1015 31 10000 4.12 220 20:48 03.12.2021
5108 Clear 25 1016 33 10000 4.12 240 19:50 03.12.2021
5109 Clear 25 1016 33 10000 3.09 220 18:34 03.12.2021
5110 Clear 24 1017 35 8000 2.57 230 17:59 03.12.2021
5111 Clear 22 1017 40 10000 1.54 240 15:36 03.12.2021
5112 Clear 16 1019 58 10000 0 0 12:54 03.12.2021
5113 Clear 18 1021 52 10000 1.36 255 11:39 03.12.2021
5114 Clear 17 1020 54 10000 0.59 268 10:51 03.12.2021
5115 Clear 18 1019 50 10000 0.58 250 08:25 03.12.2021
5116 Clear 18 1020 50 10000 0.58 250 07:42 03.12.2021
5117 Clear 20 1020 45 10000 1.28 243 04:26 03.12.2021
5118 Clear 23 1017 34 10000 3.09 230 00:48 03.12.2021
5119 Clouds 25 1013 33 10000 4.12 250 23:47 02.12.2021
5120 Clear 26 1014 31 10000 4.63 230 21:57 02.12.2021
5121 Clear 26 1013 30 10000 4.63 230 21:30 02.12.2021
5122 Clear 26 1014 31 10000 4.12 230 20:40 02.12.2021
5123 Clear 26 1014 31 10000 4.12 230 19:43 02.12.2021
5124 Clouds 25 1014 31 8000 4.12 220 18:33 02.12.2021
5125 Clouds 25 1014 31 8000 4.12 220 18:33 02.12.2021
5126 Clear 23 1015 37 8000 1.54 180 15:52 02.12.2021
5127 Clear 23 1015 37 8000 1.54 180 15:28 02.12.2021
5128 Clear 21 1016 41 10000 1.54 240 14:48 02.12.2021
5129 Clear 16 1018 58 10000 0 0 12:53 02.12.2021
5130 Clear 15 1018 59 10000 0 0 12:19 02.12.2021
5131 Clear 16 1020 56 10000 0.4 256 10:38 02.12.2021
5132 Clear 16 1020 55 10000 0.44 296 08:59 02.12.2021
5133 Clear 18 1020 51 10000 0.9 252 05:34 02.12.2021
5134 Clear 23 1017 33 10000 3.09 230 00:53 02.12.2021
5135 Clear 25 1014 29 10000 4.12 230 23:30 01.12.2021
5136 Clear 26 1014 26 10000 3.6 250 22:25 01.12.2021
5137 Clear 26 1014 26 10000 3.6 220 21:36 01.12.2021
5138 Clear 24 1015 31 10000 3.6 240 19:58 01.12.2021
5139 Clear 24 1016 32 10000 3.6 240 19:36 01.12.2021
5140 Clear 22 1016 39 10000 2.06 210 17:50 01.12.2021
5141 Clear 21 1016 42 10000 2.57 200 16:58 01.12.2021
5142 Clear 23 1015 36 10000 3.44 249 15:20 01.12.2021
5143 Clear 16 1017 57 10000 1.54 0 13:49 01.12.2021
5144 Clear 16 1017 57 10000 1.54 0 13:30 01.12.2021
5145 Clouds 14 1022 60 10000 0.27 279 10:43 01.12.2021
5146 Clouds 14 1021 60 10000 0.53 256 09:56 01.12.2021
5147 Clear 15 1021 57 10000 0.55 242 08:50 01.12.2021
5148 Clear 15 1020 53 10000 0.84 259 07:54 01.12.2021
5149 Clear 15 1020 53 10000 0.96 257 07:19 01.12.2021
5150 Clear 18 1020 45 10000 1.42 246 03:50 01.12.2021
5151 Clear 18 1020 45 10000 1.43 244 02:34 01.12.2021
5152 Clear 22 857 38 10000 4.12 240 23:59 30.11.2021
5153 Clear 23 1014 35 10000 4.12 240 23:28 30.11.2021
5154 Clear 25 1016 31 10000 4.12 230 22:28 30.11.2021
5155 Clear 24 1016 27 10000 3.6 190 20:46 30.11.2021
5156 Clear 24 1016 27 10000 3.6 190 20:24 30.11.2021
5157 Clouds 23 1016 29 10000 3.6 220 19:39 30.11.2021
5158 Clear 24 1017 27 10000 4.63 240 18:51 30.11.2021
5159 Clear 23 1016 25 10000 2.57 230 17:23 30.11.2021
5160 Clear 21 1017 25 10000 0 0 15:54 30.11.2021
5161 Clouds 20 1018 29 10000 3.21 254 14:31 30.11.2021
5162 Clear 17 1018 33 10000 0 0 13:40 30.11.2021
5163 Clear 15 1018 35 10000 0 0 12:54 30.11.2021
5164 Clear 17 1020 30 10000 1.3 254 11:55 30.11.2021
5165 Clear 16 1020 32 10000 0.43 270 11:25 30.11.2021
5166 Clear 16 1020 31 10000 0.43 270 10:36 30.11.2021
5167 Clear 16 1020 29 10000 0.52 279 08:56 30.11.2021
5168 Clear 17 1019 27 10000 0.52 279 08:32 30.11.2021
5169 Clear 17 1019 30 10000 0.71 255 07:50 30.11.2021
5170 Clear 18 1020 29 10000 0.81 251 06:36 30.11.2021
5171 Clear 21 1018 19 10000 2.57 220 01:47 30.11.2021
5172 Clear 21 1018 19 10000 2.57 220 01:27 30.11.2021
5173 Clear 25 1015 18 10000 3.6 230 23:36 29.11.2021
5174 Clear 26 1014 17 10000 3.6 230 23:18 29.11.2021
5175 Clear 26 1014 17 10000 3.6 230 23:18 29.11.2021
5176 Clear 27 1015 21 10000 5.14 220 22:38 29.11.2021
5177 Clear 27 1015 22 10000 4.63 230 21:54 29.11.2021
5178 Clear 27 1015 23 10000 4.63 230 21:20 29.11.2021
5179 Clear 27 1015 24 10000 4.63 240 20:46 29.11.2021
5180 Clear 27 1015 24 10000 4.63 240 19:58 29.11.2021
5181 Clear 27 1015 23 10000 4.63 240 19:40 29.11.2021
5182 Clear 27 1015 24 10000 3.6 230 18:59 29.11.2021
5183 Clear 28 1012 14 10000 4.66 243 18:40 29.11.2021
5184 Clear 27 1013 15 10000 3.76 252 17:21 29.11.2021
5185 Clear 27 1013 15 10000 3.76 252 16:44 29.11.2021
5186 Clear 26 1013 15 10000 3.29 253 16:22 29.11.2021
5187 Clear 25 1013 17 10000 2.94 252 14:45 29.11.2021
5188 Clear 23 1013 18 10000 2.42 255 13:52 29.11.2021
5189 Clear 22 1013 20 10000 1.58 252 12:58 29.11.2021
5190 Clear 20 1013 22 10000 0.81 250 12:19 29.11.2021
5191 Clear 18 1013 27 10000 0.36 329 11:22 29.11.2021
5192 Clear 13 1012 28 10000 0.34 22 09:58 29.11.2021
5193 Clear 15 1013 29 10000 0.24 247 07:26 29.11.2021
5194 Clouds 17 1013 29 10000 0.42 220 05:51 29.11.2021
5195 Clear 24 1014 29 10000 2.57 270 01:22 29.11.2021
5196 Clear 28 1014 20 10000 4.12 220 23:47 28.11.2021
5197 Clear 28 1014 20 10000 4.12 220 23:29 28.11.2021
5198 Clear 29 1014 18 10000 4.12 240 21:57 28.11.2021
5199 Clear 29 1014 18 10000 4.12 240 21:38 28.11.2021
5200 Clear 29 1014 18 10000 2.57 230 20:40 28.11.2021
5201 Clear 27 1015 22 10000 2.57 270 19:44 28.11.2021
5202 Clear 25 1016 27 10000 2.57 210 18:40 28.11.2021
5203 Clear 24 1017 31 10000 1.54 0 17:58 28.11.2021
5204 Clear 24 1017 31 10000 1.54 0 17:34 28.11.2021
5205 Clear 21 1017 40 10000 2.06 160 16:47 28.11.2021
5206 Clear 21 1017 40 10000 2.06 160 16:47 28.11.2021
5207 Clear 21 1017 40 10000 2.06 160 16:27 28.11.2021
5208 Clear 20 1018 42 10000 0 0 15:48 28.11.2021
5209 Clear 18 1018 45 10000 1.54 170 14:55 28.11.2021
5210 Clear 18 1018 45 10000 1.54 170 14:28 28.11.2021
5211 Clear 10 1018 81 10000 0 0 12:54 28.11.2021
5212 Clear 10 1016 36 10000 0.47 228 11:38 28.11.2021
5213 Clear 9 1016 44 10000 0.32 126 10:31 28.11.2021
5214 Clear 11 1017 47 10000 0.39 147 09:46 28.11.2021
5215 Clear 11 1017 50 10000 0.45 155 09:27 28.11.2021
5216 Clouds 19 1019 49 10000 2.72 231 00:52 28.11.2021
5217 Clouds 22 1018 43 8000 3.09 240 21:54 27.11.2021
5218 Clouds 21 1019 49 7000 3.09 210 19:50 27.11.2021
5219 Clouds 19 1019 59 7000 2.57 180 18:26 27.11.2021
5220 Clouds 17 1019 67 6000 4.12 150 16:18 27.11.2021
5221 Haze 14 1019 82 5000 2.06 240 14:51 27.11.2021
5222 Haze 14 1018 82 5000 0 0 13:39 27.11.2021
5223 Clear 12 1017 77 10000 1.46 247 11:37 27.11.2021
5224 Clear 12 1015 79 10000 1.72 252 10:19 27.11.2021
5225 Clear 11 1015 75 10000 0.9 281 08:54 27.11.2021
5226 Clear 12 1015 73 10000 0.87 262 06:59 27.11.2021
5227 Clear 13 1016 72 10000 0.94 251 04:53 27.11.2021
5228 Clear 21 1016 49 10000 2.57 0 00:25 27.11.2021
5229 Clouds 25 1015 36 8000 0 0 22:51 26.11.2021
5230 Clouds 25 1015 36 8000 0 0 22:24 26.11.2021
5231 Clear 25 1015 36 10000 4.63 240 21:31 26.11.2021
5232 Clouds 26 1015 34 8000 4.63 240 20:41 26.11.2021
5233 Clear 26 1015 34 10000 4.63 260 19:56 26.11.2021
5234 Clear 26 1015 34 10000 4.63 260 19:18 26.11.2021
5235 Clear 25 1015 38 10000 3.6 240 17:46 26.11.2021
5236 Clear 25 1015 38 10000 3.6 240 17:21 26.11.2021
5237 Clear 24 1015 35 10000 0 0 15:23 26.11.2021
5238 Clear 21 1016 42 10000 0 0 13:35 26.11.2021
5239 Clear 21 1016 42 10000 0 0 13:35 26.11.2021
5240 Clouds 19 1017 36 10000 0.48 317 10:46 26.11.2021
5241 Clouds 20 1016 36 10000 0.3 357 09:55 26.11.2021
5242 Clouds 20 1015 37 10000 0.38 273 08:56 26.11.2021
5243 Clouds 20 1015 40 10000 0.21 321 08:21 26.11.2021
5244 Clear 21 1015 38 10000 0.27 246 07:24 26.11.2021
5245 Clear 21 1016 41 10000 0.38 245 06:25 26.11.2021
5246 Clear 23 1017 42 10000 0.92 237 03:54 26.11.2021
5247 Clear 26 1015 33 10000 1.03 240 01:27 26.11.2021
5248 Clear 26 1015 33 10000 1.03 240 01:27 26.11.2021
5249 Clear 32 1013 13 10000 3.6 200 22:46 25.11.2021
5250 Clear 30 1015 16 10000 4.12 240 21:24 25.11.2021
5251 Clear 30 1015 15 10000 3.6 230 19:55 25.11.2021
5252 Clear 28 1017 19 10000 2.57 240 18:45 25.11.2021
5253 Clear 28 1016 20 10000 2.06 240 17:41 25.11.2021
5254 Clear 27 1017 21 10000 2.06 240 17:18 25.11.2021
5255 Clear 25 1018 28 10000 2.06 240 16:30 25.11.2021
5256 Clear 20 1018 52 10000 0 0 14:59 25.11.2021
5257 Clear 18 1020 53 10000 0 0 13:25 25.11.2021
5258 Clear 15 1020 61 10000 0 0 12:20 25.11.2021
5259 Clear 19 1016 44 10000 0.42 144 11:48 25.11.2021
5260 Clear 16 1023 57 10000 0.58 114 09:25 25.11.2021
5261 Clear 18 1023 57 10000 0.56 223 05:27 25.11.2021
5262 Clear 20 1024 52 10000 0.73 237 02:48 25.11.2021
5263 Clear 25 1019 35 10000 2.57 240 22:45 24.11.2021
5264 Clear 25 1019 36 10000 2.57 240 22:23 24.11.2021
5265 Clear 23 1019 41 10000 3.09 190 21:28 24.11.2021
5266 Clouds 22 1020 44 8000 2.57 0 20:46 24.11.2021
5267 Clouds 22 1020 44 8000 2.57 0 20:46 24.11.2021
5268 Clouds 22 1019 45 8000 2.57 0 20:18 24.11.2021
5269 Clouds 23 1017 36 10000 3.5 233 18:30 24.11.2021
5270 Clouds 23 1017 36 10000 3.5 233 18:30 24.11.2021
5271 Clouds 23 1017 39 10000 3.72 246 17:24 24.11.2021
5272 Clouds 19 1018 48 10000 2.8 264 15:23 24.11.2021
5273 Haze 15 1019 74 2500 2.06 250 14:47 24.11.2021
5274 Haze 16 1022 71 2500 2.06 250 14:19 24.11.2021
5275 Haze 16 1022 71 2500 2.06 250 14:19 24.11.2021
5276 Clear 17 1023 64 10000 1.72 261 11:51 24.11.2021
5277 Clear 16 1023 65 10000 0.94 261 11:20 24.11.2021
5278 Clear 16 1022 65 10000 0.94 261 10:47 24.11.2021
5279 Clear 16 1022 65 10000 1.18 263 10:21 24.11.2021
5280 Clear 18 1019 59 10000 1.28 250 07:46 24.11.2021
5281 Clear 19 1019 57 10000 1.35 251 06:54 24.11.2021
5282 Clear 21 1018 51 10000 1.4 244 03:50 24.11.2021
5283 Clear 24 1015 43 10000 3.09 250 00:32 24.11.2021
5284 Clear 27 1014 38 8000 2.06 210 22:39 23.11.2021
5285 Clear 27 1014 37 7000 3.09 240 21:54 23.11.2021
5286 Clear 26 1014 37 7000 3.09 240 21:35 23.11.2021
5287 Clear 27 1014 34 7000 3.6 220 19:37 23.11.2021
5288 Clear 26 1014 37 7000 3.6 270 18:40 23.11.2021
5289 Clear 26 1014 37 7000 3.6 270 18:18 23.11.2021
5290 Clear 25 1015 36 8000 3.09 210 16:57 23.11.2021
5291 Clear 24 1015 37 10000 2.57 220 15:59 23.11.2021
5292 Clear 24 1016 37 10000 3.13 254 15:19 23.11.2021
5293 Clear 22 1016 42 10000 0 0 13:46 23.11.2021
5294 Clear 20 1016 43 10000 0.67 259 11:40 23.11.2021
5295 Clear 20 1016 45 10000 0.25 15 09:59 23.11.2021
5296 Clear 20 1016 44 10000 0.22 300 08:44 23.11.2021
5297 Clear 21 1016 42 10000 0.35 209 05:57 23.11.2021
5298 Clear 23 1016 49 10000 0.73 230 03:45 23.11.2021
5299 Clear 27 1014 27 10000 3.09 250 00:54 23.11.2021
5300 Clear 30 1012 22 10000 4.12 210 23:20 22.11.2021
5301 Clear 32 1011 20 10000 4.63 240 22:33 22.11.2021
5302 Clear 32 1011 18 10000 3.6 220 21:48 22.11.2021
5303 Clear 31 1011 18 10000 3.6 220 21:29 22.11.2021
5304 Clear 32 1011 17 10000 4.12 220 20:50 22.11.2021
5305 Clear 32 1012 18 10000 3.09 210 19:31 22.11.2021
5306 Clear 31 1013 21 10000 2.57 0 18:58 22.11.2021
5307 Clear 30 1013 22 10000 2.57 0 18:35 22.11.2021
5308 Clear 27 1014 28 10000 2.06 190 16:56 22.11.2021
5309 Clear 25 1015 33 10000 1.54 0 15:43 22.11.2021
5310 Clear 22 1015 39 10000 0 0 13:57 22.11.2021
5311 Clear 20 1017 40 10000 0.39 255 11:41 22.11.2021
5312 Clear 20 1017 41 10000 0.32 137 10:38 22.11.2021
5313 Clear 20 1016 38 10000 0.03 182 09:24 22.11.2021
5314 Clear 20 1017 39 10000 0.03 182 08:36 22.11.2021
5315 Clear 22 1017 44 10000 0.33 259 04:32 22.11.2021
5316 Clear 29 1013 23 10000 4.12 250 23:23 21.11.2021
5317 Clear 30 1014 21 10000 4.63 240 22:46 21.11.2021
5318 Clear 31 1014 21 10000 4.63 240 21:40 21.11.2021
5319 Clear 30 1013 20 10000 3.09 300 20:41 21.11.2021
5320 Clear 30 1014 24 10000 4.63 180 19:45 21.11.2021
5321 Clear 28 1015 29 10000 2.57 180 17:59 21.11.2021
5322 Clear 27 1016 31 10000 2.57 180 17:37 21.11.2021
5323 Clear 27 1016 30 10000 2.57 180 17:37 21.11.2021
5324 Clear 24 1017 38 10000 2.06 0 15:25 21.11.2021
5325 Clear 23 1018 40 10000 1.54 0 14:44 21.11.2021
5326 Clear 21 1018 43 10000 0 0 13:40 21.11.2021
5327 Clear 18 1018 55 10000 0 0 12:32 21.11.2021
5328 Clouds 19 1019 45 10000 0.6 236 11:42 21.11.2021
5329 Clouds 18 1020 49 10000 0.24 100 10:20 21.11.2021
5330 Clouds 19 1020 48 10000 0.24 100 09:59 21.11.2021
5331 Clear 19 1019 48 10000 0.28 58 08:35 21.11.2021
5332 Clear 19 1019 49 10000 0.18 89 07:57 21.11.2021
5333 Clear 19 1019 46 10000 0.18 89 07:39 21.11.2021
5334 Clear 20 1020 48 10000 0.53 248 05:48 21.11.2021
5335 Clear 21 1020 49 10000 0.58 252 04:37 21.11.2021
5336 Clear 22 1019 44 10000 1.2 237 03:18 21.11.2021
5337 Clear 22 1019 43 10000 1.2 237 02:48 21.11.2021
5338 Clear 25 1018 33 10000 3.09 250 00:54 21.11.2021
5339 Clear 28 1015 26 10000 4.12 230 23:41 20.11.2021
5340 Clear 29 1016 23 10000 3.6 230 21:39 20.11.2021
5341 Clear 29 1016 25 10000 3.6 230 20:50 20.11.2021
5342 Clear 27 1018 30 10000 3.6 250 18:46 20.11.2021
5343 Clear 27 1018 31 10000 3.6 250 18:26 20.11.2021
5344 Clear 25 1018 36 10000 2.57 270 17:22 20.11.2021
5345 Clear 25 1018 36 10000 2.57 270 17:22 20.11.2021
5346 Clear 24 1017 39 10000 1.54 270 16:41 20.11.2021
5347 Clear 19 1017 50 10000 1.54 230 14:40 20.11.2021
5348 Clear 20 1019 50 10000 1.54 230 14:21 20.11.2021
5349 Clear 18 1021 54 10000 0.82 242 11:56 20.11.2021
5350 Clear 17 1021 59 10000 0.29 193 10:29 20.11.2021
5351 Clear 18 1021 56 10000 0.47 236 08:57 20.11.2021
5352 Clear 18 1021 53 10000 0.53 254 07:20 20.11.2021
5353 Clear 19 1021 49 10000 0.85 243 05:26 20.11.2021
5354 Clear 20 1021 48 10000 0.85 243 04:50 20.11.2021
5355 Clear 21 1020 46 10000 1.57 234 01:48 20.11.2021
5356 Clear 24 1016 38 10000 2.57 270 00:40 20.11.2021
5357 Clear 27 1016 32 10000 4.63 250 22:55 19.11.2021
5358 Clear 27 1016 31 10000 4.63 230 21:58 19.11.2021
5359 Clear 27 1016 32 10000 4.63 240 20:57 19.11.2021
5360 Clear 27 1016 31 10000 4.63 240 20:36 19.11.2021
5361 Clear 26 1016 32 10000 4.12 250 19:50 19.11.2021
5362 Clear 26 1017 33 10000 2.57 250 18:53 19.11.2021
5363 Clear 26 1017 33 10000 2.57 250 18:22 19.11.2021
5364 Clear 25 1017 34 10000 2.06 250 17:26 19.11.2021
5365 Clear 22 1018 44 10000 0 0 15:32 19.11.2021
5366 Clear 18 1019 56 10000 0 0 13:25 19.11.2021
5367 Clear 18 1020 54 10000 0.13 335 10:27 19.11.2021
5368 Clear 18 1019 52 10000 0.13 335 09:37 19.11.2021
5369 Clear 19 1018 50 10000 0.28 282 07:41 19.11.2021
5370 Clear 20 1018 45 10000 0.85 261 04:29 19.11.2021
5371 Clear 21 1018 40 10000 1.4 234 02:27 19.11.2021
5372 Clear 27 1014 29 10000 4.12 250 23:51 18.11.2021
5373 Clouds 28 1014 25 10000 4.12 240 21:55 18.11.2021
5374 Clear 28 1014 23 10000 4.12 230 20:49 18.11.2021
5375 Clear 28 1015 23 10000 4.12 230 20:30 18.11.2021
5376 Clear 28 1015 24 10000 4.12 240 19:49 18.11.2021
5377 Clear 28 1015 25 10000 4.12 240 19:29 18.11.2021
5378 Clear 26 1016 26 10000 2.06 0 18:28 18.11.2021
5379 Clouds 25 1017 27 8000 2.57 0 17:51 18.11.2021
5380 Clear 24 1017 33 8000 2.06 0 16:44 18.11.2021
5381 Clear 22 1017 35 10000 0 0 15:32 18.11.2021
5382 Clear 19 1019 40 10000 0 0 13:31 18.11.2021
5383 Clear 16 1019 56 10000 0 0 12:33 18.11.2021
5384 Clear 17 1022 49 10000 0.27 287 11:42 18.11.2021
5385 Clear 16 1022 50 10000 0.25 118 11:24 18.11.2021
5386 Clear 16 1021 51 10000 0.26 136 09:37 18.11.2021
5387 Clear 17 1021 55 10000 0.29 159 07:35 18.11.2021
5388 Clear 18 1022 55 10000 0.71 212 05:55 18.11.2021
5389 Clear 18 1022 55 10000 0.71 212 05:36 18.11.2021
5390 Clear 21 1020 31 10000 1.54 215 01:23 18.11.2021
5391 Clear 28 1016 23 10000 4.63 260 22:49 17.11.2021
5392 Clear 28 1016 23 10000 4.63 260 22:21 17.11.2021
5393 Clear 28 1016 21 10000 4.12 230 21:39 17.11.2021
5394 Clear 27 1016 22 10000 4.12 240 20:58 17.11.2021
5395 Clear 26 1016 24 10000 2.06 250 18:34 17.11.2021
5396 Clear 25 1016 24 10000 2.57 240 17:28 17.11.2021
5397 Clear 20 1018 35 10000 0 0 14:51 17.11.2021
5398 Clear 15 1019 50 10000 0 0 12:41 17.11.2021
5399 Clear 17 1020 40 10000 0.33 185 11:49 17.11.2021
5400 Clear 16 1020 42 10000 0.27 203 10:31 17.11.2021
5401 Clear 16 1020 41 10000 0.41 38 09:25 17.11.2021
5402 Clear 17 1020 44 10000 0.27 68 07:44 17.11.2021
5403 Clear 19 1020 36 10000 0.69 222 04:47 17.11.2021
5404 Clear 21 1018 30 10000 1 223 01:45 17.11.2021
5405 Clear 27 1014 21 10000 4.63 240 23:26 16.11.2021
5406 Clear 27 1015 18 10000 4.12 250 21:27 16.11.2021
5407 Clear 26 1016 20 10000 3.94 243 20:18 16.11.2021
5408 Clear 25 1016 25 10000 2.57 230 18:54 16.11.2021
5409 Clear 27 1015 23 10000 2.57 230 18:35 16.11.2021
5410 Clear 27 1015 23 10000 2.57 230 18:35 16.11.2021
5411 Clear 25 1015 26 10000 2.57 240 17:43 16.11.2021
5412 Clear 22 1015 34 10000 2.06 260 16:52 16.11.2021
5413 Clear 22 1015 35 10000 2.06 260 16:18 16.11.2021
5414 Clear 20 1015 40 10000 0 0 15:40 16.11.2021
5415 Clear 14 1018 57 10000 0 0 12:34 16.11.2021
5416 Clear 15 1020 52 10000 0.19 136 09:49 16.11.2021
5417 Clear 15 1020 52 10000 0.27 159 08:48 16.11.2021
5418 Clear 16 1021 50 10000 0.28 133 07:34 16.11.2021
5419 Clear 18 1022 46 10000 0.64 238 04:45 16.11.2021
5420 Clear 24 1016 25 10000 3.6 210 23:23 15.11.2021
5421 Clear 25 1017 24 10000 4.12 240 22:39 15.11.2021
5422 Clear 25 1018 24 10000 4.45 243 21:54 15.11.2021
5423 Clear 25 1018 23 10000 4.07 246 21:29 15.11.2021
5424 Clear 25 1018 22 10000 3.6 240 20:26 15.11.2021
5425 Clear 23 1019 28 10000 2.57 160 18:49 15.11.2021
5426 Clear 21 1020 31 10000 3.09 240 16:56 15.11.2021
5427 Clear 20 1021 34 10000 0 0 15:44 15.11.2021
5428 Clear 19 1021 36 10000 0 0 15:25 15.11.2021
5429 Clear 15 1021 46 10000 2.06 210 13:35 15.11.2021
5430 Clouds 14 1020 49 10000 0 0 12:18 15.11.2021
5431 Clouds 14 1023 45 10000 0.74 247 09:30 15.11.2021
5432 Clouds 16 1020 47 10000 0.9 243 07:59 15.11.2021
5433 Clouds 17 1021 43 10000 0.71 242 05:25 15.11.2021
5434 Clear 22 1015 28 10000 3.09 240 00:32 15.11.2021
5435 Clear 25 1015 20 10000 4.63 240 22:38 14.11.2021
5436 Clear 27 1015 19 10000 3.6 210 20:51 14.11.2021
5437 Clear 26 1015 20 10000 2.57 0 19:18 14.11.2021
5438 Clear 25 1016 21 10000 2.57 0 18:54 14.11.2021
5439 Clear 25 1016 22 10000 2.57 0 18:36 14.11.2021
5440 Clear 24 1016 22 10000 2.57 0 18:18 14.11.2021
5441 Clear 24 1017 27 10000 3.09 230 17:57 14.11.2021
5442 Clear 24 1016 26 10000 3.09 230 17:39 14.11.2021
5443 Clear 23 1017 28 10000 3.09 230 17:21 14.11.2021
5444 Clear 23 1016 29 10000 2.06 220 16:50 14.11.2021
5445 Clear 22 1018 34 10000 2.06 220 16:21 14.11.2021
5446 Clear 20 1016 40 10000 0 0 15:51 14.11.2021
5447 Clear 20 1018 39 10000 0 0 15:19 14.11.2021
5448 Clear 18 1017 45 10000 1.54 0 14:33 14.11.2021
5449 Clear 16 1018 50 10000 0 0 13:59 14.11.2021
5450 Clear 15 1016 55 10000 0 0 13:40 14.11.2021
5451 Clear 13 1018 60 10000 0 0 12:45 14.11.2021
5452 Clear 13 1018 62 10000 0 0 12:20 14.11.2021
5453 Clear 14 1021 46 10000 0.54 125 10:52 14.11.2021
5454 Clear 14 1021 46 10000 0.39 176 10:27 14.11.2021
5455 Clear 14 1021 48 10000 0.27 160 08:58 14.11.2021
5456 Clear 14 1021 50 10000 0.2 57 08:23 14.11.2021
5457 Clear 17 1023 49 10000 0.83 199 04:46 14.11.2021
5458 Clear 23 1020 26 10000 3.6 240 22:28 13.11.2021
5459 Clear 23 1020 26 10000 3.6 240 22:28 13.11.2021
5460 Clear 23 1020 28 10000 3.6 230 21:58 13.11.2021
5461 Clear 22 1021 29 10000 3.6 230 21:27 13.11.2021
5462 Clouds 22 1022 29 10000 3.09 230 20:25 13.11.2021
5463 Clouds 21 1022 36 10000 2.57 250 18:53 13.11.2021
5464 Clouds 20 1022 39 10000 2.57 250 18:26 13.11.2021
5465 Clouds 19 1025 42 10000 3.55 256 17:23 13.11.2021
5466 Clouds 16 1024 54 10000 0 0 15:42 13.11.2021
5467 Clouds 14 1024 63 10000 0 0 14:39 13.11.2021
5468 Clouds 13 1025 64 8000 0 0 13:46 13.11.2021
5469 Clouds 12 1024 67 8000 2.06 210 12:40 13.11.2021
5470 Clouds 13 1027 61 10000 1.45 255 11:45 13.11.2021
5471 Clouds 14 1025 59 10000 0.86 271 10:48 13.11.2021
5472 Clouds 11 1020 78 10000 1.6 235 10:29 13.11.2021
5473 Clouds 12 1020 78 10000 1.6 235 09:42 13.11.2021
5474 Clouds 12 1020 78 10000 1.6 235 09:42 13.11.2021
5475 Clouds 12 1019 76 10000 1.74 239 09:19 13.11.2021
5476 Clouds 12 1019 76 10000 1.74 239 08:41 13.11.2021
5477 Clouds 15 1023 56 10000 1.34 265 07:25 13.11.2021
5478 Clear 16 1024 53 10000 1.19 261 04:36 13.11.2021
5479 Clear 17 1023 48 10000 2.18 233 02:27 13.11.2021
5480 Clear 21 1017 40 10000 4.63 230 23:27 12.11.2021
5481 Clouds 24 1018 38 10000 5.66 240 21:51 12.11.2021
5482 Clear 25 1017 35 10000 4.63 220 20:20 12.11.2021
5483 Clear 25 1017 33 10000 4.12 250 19:31 12.11.2021
5484 Clear 24 1018 37 10000 2.06 250 18:53 12.11.2021
5485 Clouds 23 1019 40 10000 2.06 210 17:34 12.11.2021
5486 Clouds 20 1020 52 8000 2.57 240 15:51 12.11.2021
5487 Clear 16 1020 60 10000 0 0 13:25 12.11.2021
5488 Clouds 14 1022 63 10000 0.66 247 11:21 12.11.2021
5489 Clouds 15 1022 61 10000 0.83 251 09:45 12.11.2021
5490 Clear 15 1022 61 10000 0.11 229 08:45 12.11.2021
5491 Clouds 16 1023 57 10000 0.68 229 06:34 12.11.2021
5492 Clear 22 1018 46 10000 4.12 240 23:43 11.11.2021
5493 Clear 22 1018 46 10000 4.12 240 23:43 11.11.2021
5494 Clear 22 1018 46 10000 4.12 240 23:43 11.11.2021
5495 Clouds 24 1020 40 10000 4.12 230 22:46 11.11.2021
5496 Clouds 24 1020 40 10000 4.12 230 22:46 11.11.2021
5497 Clouds 24 1019 38 10000 5.14 240 21:29 11.11.2021
5498 Clouds 25 1018 37 10000 5.14 240 20:48 11.11.2021
5499 Clear 25 1019 37 10000 4.12 250 19:36 11.11.2021
5500 Clear 24 1018 39 10000 4.12 240 18:25 11.11.2021
5501 Clouds 23 1019 41 8000 4.12 240 17:37 11.11.2021
5502 Clouds 21 1019 48 8000 2.57 230 15:20 11.11.2021
5503 Clear 20 1019 52 10000 1.54 190 14:36 11.11.2021
5504 Clear 20 1019 53 10000 1.54 190 14:18 11.11.2021
5505 Clear 18 1018 59 10000 0 0 13:34 11.11.2021
5506 Clear 15 1019 69 10000 0 0 12:23 11.11.2021
5507 Clouds 15 1020 61 10000 0.18 86 09:54 11.11.2021
5508 Clouds 16 1019 59 10000 0.19 291 08:28 11.11.2021
5509 Clouds 17 1020 58 10000 0.37 264 06:44 11.11.2021
5510 Clear 22 1019 46 10000 2.57 240 00:37 11.11.2021
5511 Clear 25 1018 37 10000 3.6 230 22:38 10.11.2021
5512 Clear 25 1018 37 10000 2.57 200 21:46 10.11.2021
5513 Clear 25 1018 38 10000 4.12 210 20:53 10.11.2021
5514 Haze 24 1019 40 5000 3.09 250 19:50 10.11.2021
5515 Haze 24 1019 41 5000 3.09 250 19:32 10.11.2021
5516 Haze 20 1018 52 5000 2.57 0 16:50 10.11.2021
5517 Clear 14 1016 39 10000 3.34 252 15:46 10.11.2021
5518 Haze 16 1021 61 5000 1.03 270 14:23 10.11.2021
5519 Haze 14 1021 72 4000 0.51 0 13:27 10.11.2021
5520 Clear 13 1023 68 10000 1.33 248 11:40 10.11.2021
5521 Clear 14 1022 63 10000 1.11 238 09:18 10.11.2021
5522 Clear 14 1022 62 10000 1.11 238 08:40 10.11.2021
5523 Clear 15 1021 59 10000 0.32 341 06:44 10.11.2021
5524 Clear 15 1022 59 10000 0.48 236 05:57 10.11.2021
5525 Clear 18 1022 55 10000 1.54 244 01:44 10.11.2021
5526 Clear 24 1018 40 10000 4.12 240 21:59 09.11.2021
5527 Clear 24 1017 38 10000 4.12 250 20:34 09.11.2021
5528 Clear 24 1018 38 10000 4.12 240 19:28 09.11.2021
5529 Clear 24 1018 38 10000 4.63 240 18:47 09.11.2021
5530 Clear 23 1018 38 10000 2.57 250 16:29 09.11.2021
5531 Clear 20 1019 46 10000 0 0 14:59 09.11.2021
5532 Clear 19 1019 50 10000 0 0 13:25 09.11.2021
5533 Clear 16 1018 56 10000 0 0 12:24 09.11.2021
5534 Clear 17 1020 46 10000 0.3 295 10:53 09.11.2021
5535 Clear 17 1019 47 10000 0.31 293 09:43 09.11.2021
5536 Clear 18 1018 45 10000 0.25 278 08:42 09.11.2021
5537 Clear 19 1018 42 10000 0.33 251 06:51 09.11.2021
5538 Clear 23 1018 40 10000 0.93 244 02:32 09.11.2021
5539 Clear 23 1018 37 10000 1.14 236 01:50 09.11.2021
5540 Clear 25 1016 29 10000 3.6 260 00:22 09.11.2021
5541 Clear 27 1015 27 10000 4.12 260 23:28 08.11.2021
5542 Clear 29 1014 22 10000 3.6 230 22:35 08.11.2021
5543 Clear 29 1014 19 10000 4.12 210 21:22 08.11.2021
5544 Clear 28 1015 18 10000 3.09 190 20:31 08.11.2021
5545 Clear 27 1016 20 10000 2.57 240 19:18 08.11.2021
5546 Clear 25 1016 27 8000 0 0 17:35 08.11.2021
5547 Clear 21 1016 37 10000 0 0 15:38 08.11.2021
5548 Clear 20 1017 40 10000 0 0 14:55 08.11.2021
5549 Clear 18 1019 45 10000 0 0 13:59 08.11.2021
5550 Clear 15 1019 51 10000 0 0 12:48 08.11.2021
5551 Clear 15 1021 45 10000 0.24 255 11:37 08.11.2021
5552 Clear 15 1021 42 10000 0.29 82 10:35 08.11.2021
5553 Clear 16 1020 41 10000 0.22 139 08:56 08.11.2021
5554 Clear 16 1020 42 10000 0.33 166 07:47 08.11.2021
5555 Clear 17 1020 44 10000 0.26 178 06:54 08.11.2021
5556 Clear 20 1021 45 10000 0.61 226 03:35 08.11.2021
5557 Clear 26 1015 21 10000 4.12 240 23:51 07.11.2021
5558 Clear 27 1016 22 10000 3.09 190 22:48 07.11.2021
5559 Clear 26 1017 20 10000 3.6 180 21:24 07.11.2021
5560 Clear 25 1017 21 10000 3.6 190 19:56 07.11.2021
5561 Clear 24 1018 27 10000 3.09 210 18:28 07.11.2021
5562 Clear 23 1018 28 10000 2.57 230 17:38 07.11.2021
5563 Clear 21 1019 31 10000 1.54 150 16:20 07.11.2021
5564 Clear 16 1018 48 10000 1.54 230 14:42 07.11.2021
5565 Clear 17 1020 45 10000 1.54 230 14:24 07.11.2021
5566 Clear 13 1023 45 10000 0.67 234 11:58 07.11.2021
5567 Clear 13 1024 48 10000 0.28 147 11:18 07.11.2021
5568 Clear 13 1024 50 10000 0.2 186 08:58 07.11.2021
5569 Clear 17 1025 42 10000 1.27 247 02:49 07.11.2021
5570 Clear 21 1021 26 10000 3.09 250 00:25 07.11.2021
5571 Clear 25 1020 20 10000 4.12 230 22:55 06.11.2021
5572 Clear 25 1019 20 10000 3.6 240 21:49 06.11.2021
5573 Clear 25 1019 19 10000 3.6 200 20:54 06.11.2021
5574 Clear 24 1021 22 10000 4.12 220 19:40 06.11.2021
5575 Clear 20 1017 23 10000 3.84 248 17:30 06.11.2021
5576 Clear 19 1022 39 10000 2.57 260 16:21 06.11.2021
5577 Clear 11 1020 66 10000 0 0 13:39 06.11.2021
5578 Clear 11 1023 63 10000 0 0 12:52 06.11.2021
5579 Clear 12 1025 54 10000 0.19 183 10:35 06.11.2021
5580 Clear 13 1025 50 10000 0.56 249 08:36 06.11.2021
5581 Clear 15 1024 43 10000 0.71 253 04:50 06.11.2021
5582 Clear 23 1015 28 10000 3.6 250 23:41 05.11.2021
5583 Clear 23 1017 29 10000 3.6 250 23:19 05.11.2021
5584 Clear 25 1016 26 10000 5.14 240 22:33 05.11.2021
5585 Clear 25 1015 24 10000 3.6 210 20:26 05.11.2021
5586 Clear 25 1016 26 10000 3.09 0 19:51 05.11.2021
5587 Clear 23 1016 29 8000 2.57 0 18:43 05.11.2021
5588 Clear 22 1015 30 10000 2.06 190 17:45 05.11.2021
5589 Clear 20 1016 34 10000 2.06 240 16:37 05.11.2021
5590 Clear 16 1016 41 10000 1.54 0 14:21 05.11.2021
5591 Clear 12 1019 62 10000 0 0 12:26 05.11.2021
5592 Clear 12 1022 52 10000 0.18 170 09:27 05.11.2021
5593 Clear 14 1022 46 10000 0.18 204 07:48 05.11.2021
5594 Clear 15 1022 48 10000 0.8 245 05:40 05.11.2021
5595 Clear 17 1022 36 10000 0.85 259 02:37 05.11.2021
5596 Clear 18 1021 36 10000 1.24 235 02:18 05.11.2021
5597 Clear 21 1018 34 10000 2.57 210 23:56 04.11.2021
5598 Clouds 21 1018 34 8000 2.57 240 22:21 04.11.2021
5599 Clouds 21 1017 37 8000 1.03 130 21:56 04.11.2021
5600 Clouds 20 1018 39 8000 1.03 130 21:27 04.11.2021
5601 Clouds 19 1017 42 8000 2.57 250 20:28 04.11.2021
5602 Clouds 19 1017 48 7000 2.06 200 19:49 04.11.2021
5603 Clouds 19 1017 48 7000 2.06 200 19:25 04.11.2021
5604 Clouds 17 1018 51 8000 1.03 230 18:23 04.11.2021
5605 Clouds 17 1021 55 7000 2.06 0 17:26 04.11.2021
5606 Clouds 15 1023 61 7000 2.06 290 15:42 04.11.2021
5607 Clouds 13 1023 69 6000 0 0 13:45 04.11.2021
5608 Clouds 13 1025 74 10000 1.31 240 10:35 04.11.2021
5609 Clouds 14 1023 69 10000 1.3 232 08:41 04.11.2021
5610 Clouds 14 1023 68 10000 1.43 237 07:36 04.11.2021
5611 Clouds 14 1023 65 10000 1.57 246 06:59 04.11.2021
5612 Clouds 20 1019 41 10000 3.09 220 23:18 03.11.2021
5613 Clouds 20 1019 39 8000 3.6 240 22:22 03.11.2021
5614 Clouds 21 1019 36 8000 4.12 240 21:37 03.11.2021
5615 Clouds 21 1019 38 8000 4.12 240 20:44 03.11.2021
5616 Clouds 22 1017 40 8000 4.12 240 20:25 03.11.2021
5617 Clouds 22 1019 41 8000 3.6 230 19:29 03.11.2021
5618 Clouds 21 1019 44 10000 3.6 230 18:26 03.11.2021
5619 Clouds 21 1019 44 10000 3.09 260 17:41 03.11.2021
5620 Clear 21 1019 44 10000 3.09 250 16:46 03.11.2021
5621 Clear 19 1020 49 10000 0 0 15:49 03.11.2021
5622 Clear 19 1019 49 10000 0 0 15:29 03.11.2021
5623 Clear 16 1021 64 10000 0 0 13:29 03.11.2021
5624 Clouds 16 1022 58 10000 0.66 257 11:34 03.11.2021
5625 Clouds 16 1021 56 10000 0.72 248 10:50 03.11.2021
5626 Clouds 17 1020 55 10000 0.8 258 09:40 03.11.2021
5627 Clouds 17 1020 58 10000 0.11 327 08:49 03.11.2021
5628 Clouds 18 1020 56 10000 0.82 254 07:40 03.11.2021
5629 Clear 18 1020 55 10000 0.8 259 06:32 03.11.2021
5630 Clear 20 1020 51 10000 1.16 247 04:22 03.11.2021
5631 Clear 23 1018 38 10000 2.57 240 00:57 03.11.2021
5632 Clouds 28 1016 21 10000 4.12 240 22:52 02.11.2021
5633 Clouds 29 1016 19 10000 3.6 230 21:54 02.11.2021
5634 Clear 28 1016 20 10000 4.12 220 20:36 02.11.2021
5635 Clear 28 1016 25 10000 2.06 210 19:56 02.11.2021
5636 Clear 28 1016 25 10000 2.06 210 19:26 02.11.2021
5637 Clear 26 1017 30 8000 0 0 18:34 02.11.2021
5638 Clear 25 1018 37 10000 2.57 230 17:44 02.11.2021
5639 Clear 23 1017 46 10000 1.54 170 16:34 02.11.2021
5640 Clear 20 1018 56 10000 0 0 15:49 02.11.2021
5641 Clear 15 1018 67 10000 0 0 14:51 02.11.2021
5642 Clear 16 1021 66 10000 0 0 13:29 02.11.2021
5643 Clear 15 1021 71 10000 0 0 12:46 02.11.2021
5644 Clear 15 1021 71 10000 0 0 12:46 02.11.2021
5645 Clear 15 1021 71 10000 0 0 12:46 02.11.2021
5646 Clouds 16 1023 64 10000 0.03 142 11:38 02.11.2021
5647 Clouds 16 1023 64 10000 0.53 211 10:55 02.11.2021
5648 Clouds 16 1022 65 10000 0.53 211 10:32 02.11.2021
5649 Clouds 16 1023 63 10000 0.67 206 09:40 02.11.2021
5650 Clouds 17 1022 62 10000 0.22 119 07:46 02.11.2021
5651 Clouds 17 1023 59 10000 0.93 229 04:58 02.11.2021
5652 Clouds 18 1023 58 10000 1.17 254 03:20 02.11.2021
5653 Clouds 20 1020 54 10000 2.06 260 23:42 01.11.2021
5654 Clouds 22 1019 46 10000 2.57 0 21:46 01.11.2021
5655 Clouds 23 1018 42 10000 3.09 200 20:44 01.11.2021
5656 Clouds 23 1019 43 8000 3.6 0 19:58 01.11.2021
5657 Clouds 23 1019 43 8000 3.6 0 19:38 01.11.2021
5658 Clouds 24 1019 40 10000 3.09 240 18:23 01.11.2021
5659 Clear 23 1018 39 10000 1.54 220 17:43 01.11.2021
5660 Clear 22 1019 43 10000 1.54 190 16:52 01.11.2021
5661 Clear 21 1019 45 10000 1.54 190 16:20 01.11.2021
5662 Clear 19 1019 50 10000 1.54 230 15:29 01.11.2021
5663 Clear 17 1017 59 10000 1.03 330 14:45 01.11.2021
5664 Clear 18 1020 56 10000 1.03 330 14:23 01.11.2021
5665 Clear 13 1017 71 10000 0 0 13:50 01.11.2021
5666 Clear 14 1020 72 10000 0 0 12:34 01.11.2021
5667 Clouds 16 1022 62 10000 0.72 218 11:27 01.11.2021
5668 Clouds 16 1022 59 10000 0.55 227 10:19 01.11.2021
5669 Clouds 17 1020 57 10000 0.72 248 08:18 01.11.2021
5670 Clouds 16 1021 57 10000 0.72 248 07:45 01.11.2021
5671 Clouds 18 1021 53 10000 0.85 250 03:49 01.11.2021
5672 Clouds 19 1021 50 10000 1.1 243 01:43 01.11.2021
5673 Clouds 20 1019 47 10000 2.57 230 22:42 31.10.2021
5674 Clouds 24 1018 36 10000 4.12 250 20:50 31.10.2021
5675 Clouds 25 1017 34 10000 4.63 250 19:22 31.10.2021
5676 Clouds 26 1016 32 10000 3.6 250 18:41 31.10.2021
5677 Clear 26 1016 30 10000 1.54 260 17:52 31.10.2021
5678 Clouds 24 1018 32 10000 2.88 251 15:51 31.10.2021
5679 Clear 21 1016 39 10000 0 0 14:24 31.10.2021
5680 Clear 19 1016 48 10000 0 0 12:50 31.10.2021
5681 Clouds 20 1017 40 10000 0.73 241 11:41 31.10.2021
5682 Clouds 20 1018 41 10000 0.25 260 10:44 31.10.2021
5683 Clouds 20 1017 40 10000 0.22 15 09:22 31.10.2021
5684 Clouds 21 1016 40 10000 0.22 15 08:37 31.10.2021
5685 Clear 26 1014 23 10000 3.09 240 01:57 31.10.2021
5686 Clear 31 1011 21 10000 4.12 240 22:47 30.10.2021
5687 Clear 30 1012 18 10000 3.6 0 21:35 30.10.2021
5688 Clouds 29 1012 24 10000 3.88 242 20:50 30.10.2021
5689 Clear 28 1013 23 10000 3.66 246 19:19 30.10.2021
5690 Clear 26 1015 29 10000 1.54 190 17:27 30.10.2021
5691 Clear 22 1016 36 10000 0 0 15:21 30.10.2021
5692 Clear 17 1017 52 10000 0 0 13:40 30.10.2021
5693 Clear 17 1017 54 10000 0 0 13:21 30.10.2021
5694 Clouds 20 1019 42 10000 0.05 340 12:51 30.10.2021
5695 Clouds 20 1017 38 10000 0.75 75 11:44 30.10.2021
5696 Clouds 19 1018 42 10000 0.41 96 10:32 30.10.2021
5697 Clouds 20 1018 44 10000 0.02 33 08:53 30.10.2021
5698 Clouds 21 1018 42 10000 0.29 177 07:29 30.10.2021
5699 Clouds 21 1020 41 10000 0.48 177 05:39 30.10.2021
5700 Clear 27 1018 27 10000 4.12 240 00:56 30.10.2021
5701 Clear 29 1017 23 10000 3.6 210 22:50 29.10.2021
5702 Clear 29 1017 23 10000 3.6 210 22:30 29.10.2021
5703 Clear 29 1017 24 8000 2.06 240 20:46 29.10.2021
5704 Clear 29 1017 24 8000 2.06 240 20:18 29.10.2021
5705 Clear 27 1018 25 10000 1.54 220 18:33 29.10.2021
5706 Clear 25 1019 29 10000 2.06 240 16:54 29.10.2021
5707 Clear 21 1019 39 10000 0 0 14:38 29.10.2021
5708 Clear 19 1020 43 10000 0.37 95 12:24 29.10.2021
5709 Clear 19 1021 44 10000 0.46 163 10:46 29.10.2021
5710 Clear 20 1019 41 10000 0.61 189 08:41 29.10.2021
5711 Clear 30 1016 20 10000 3.6 230 00:37 29.10.2021
5712 Clear 31 1016 20 10000 3.6 220 23:27 28.10.2021
5713 Clear 31 1016 20 10000 3.6 220 22:18 28.10.2021
5714 Clear 30 1016 21 8000 2.57 240 20:54 28.10.2021
5715 Clear 29 1017 25 6000 2.57 0 19:51 28.10.2021
5716 Clear 27 1018 30 8000 1.03 110 18:27 28.10.2021
5717 Clear 25 1019 34 10000 1.03 0 17:19 28.10.2021
5718 Clear 23 1020 39 10000 1.54 220 16:19 28.10.2021
5719 Clear 19 1021 51 10000 0 0 14:25 28.10.2021
5720 Clear 16 1021 61 10000 0 0 13:29 28.10.2021
5721 Clouds 10 1017 45 10000 0.22 163 12:41 28.10.2021
5722 Clear 17 1023 57 10000 0.38 90 10:57 28.10.2021
5723 Clear 18 1023 56 10000 0.35 121 09:40 28.10.2021
5724 Clear 18 1022 56 10000 0.34 135 09:22 28.10.2021
5725 Clear 18 1022 55 10000 0.34 135 08:35 28.10.2021
5726 Clouds 19 1023 53 10000 0.44 139 07:40 28.10.2021
5727 Clear 27 1018 26 10000 2.57 240 00:33 28.10.2021
5728 Clear 26 1019 32 10000 4.12 200 22:36 27.10.2021
5729 Clear 26 1019 36 10000 4.12 250 21:34 27.10.2021
5730 Clear 26 1019 36 8000 3.6 220 20:57 27.10.2021
5731 Clear 26 1019 36 8000 3.6 220 20:38 27.10.2021
5732 Clear 25 1019 39 8000 4.12 240 19:42 27.10.2021
5733 Clear 25 1019 37 8000 3.09 220 18:54 27.10.2021
5734 Clear 22 1020 42 10000 1.54 0 16:38 27.10.2021
5735 Clear 22 1020 43 10000 1.54 0 16:20 27.10.2021
5736 Clear 19 1021 50 10000 1.03 0 15:23 27.10.2021
5737 Clear 17 1022 55 10000 0.38 308 12:57 27.10.2021
5738 Clear 18 1021 54 10000 0.43 258 10:59 27.10.2021
5739 Clear 18 1021 53 10000 0.43 258 10:36 27.10.2021
5740 Clear 18 1021 54 10000 0.52 210 08:58 27.10.2021
5741 Clouds 18 1021 53 10000 0.52 215 07:37 27.10.2021
5742 Clouds 19 1021 48 10000 0.77 232 05:36 27.10.2021
5743 Clear 22 1019 40 10000 2.57 200 01:18 27.10.2021
5744 Clear 25 1017 34 10000 3.09 240 00:33 27.10.2021
5745 Clear 26 1017 30 10000 1.54 240 23:51 26.10.2021
5746 Clear 26 1016 30 10000 3.6 220 22:42 26.10.2021
5747 Clear 26 1016 29 10000 3.6 220 22:20 26.10.2021
5748 Clouds 26 1016 33 8000 3.09 190 20:59 26.10.2021
5749 Clouds 26 1016 31 8000 2.06 210 19:33 26.10.2021
5750 Clouds 23 1016 38 8000 1.54 270 18:53 26.10.2021
5751 Clear 21 1018 42 10000 1.54 200 16:58 26.10.2021
5752 Clear 20 1017 45 10000 2.06 260 15:40 26.10.2021
5753 Clear 16 1021 47 10000 0.5 235 11:50 26.10.2021
5754 Clouds 17 1020 45 10000 0.44 239 10:46 26.10.2021
5755 Clouds 18 1019 42 10000 0.38 233 08:24 26.10.2021
5756 Clear 18 1019 42 10000 0.42 235 07:21 26.10.2021
5757 Clear 28 1015 20 10000 3.6 190 23:53 25.10.2021
5758 Clear 28 1015 18 10000 3.6 190 23:20 25.10.2021
5759 Clouds 29 1015 19 10000 4.13 237 22:21 25.10.2021
5760 Clear 29 1015 17 10000 2.57 190 21:40 25.10.2021
5761 Clear 30 1016 15 10000 3.09 210 20:19 25.10.2021
5762 Clear 28 1016 21 10000 1.54 240 19:43 25.10.2021
5763 Clear 28 1016 21 10000 1.54 240 19:21 25.10.2021
5764 Clear 26 1017 22 10000 2.06 250 18:33 25.10.2021
5765 Clear 20 1019 37 10000 1.54 180 16:38 25.10.2021
5766 Clear 17 1019 39 10000 0 0 14:45 25.10.2021
5767 Clear 10 1017 28 10000 0.73 82 12:31 25.10.2021
5768 Clear 16 1022 35 10000 0.73 97 10:30 25.10.2021
5769 Clear 17 1022 34 10000 0.56 107 08:54 25.10.2021
5770 Clear 18 1022 36 10000 0.42 160 06:26 25.10.2021
5771 Clear 21 1021 29 10000 0.58 218 02:44 25.10.2021
5772 Clear 26 1019 19 10000 2.57 200 00:48 25.10.2021
5773 Clear 28 1018 16 10000 3.6 210 23:47 24.10.2021
5774 Clear 28 1018 15 10000 3.6 210 23:19 24.10.2021
5775 Clear 27 1018 16 10000 3.09 0 22:37 24.10.2021
5776 Clear 27 1018 16 10000 3.09 0 22:18 24.10.2021
5777 Clear 26 1019 19 10000 2.06 190 20:46 24.10.2021
5778 Clear 27 1018 18 10000 2.06 190 20:27 24.10.2021
5779 Clear 26 1019 22 10000 2.57 220 19:22 24.10.2021
5780 Clear 23 1020 28 10000 2.06 0 18:27 24.10.2021
5781 Clear 21 1020 30 10000 2.06 0 17:35 24.10.2021
5782 Clear 17 1021 42 10000 1.54 0 15:49 24.10.2021
5783 Clear 15 1024 47 10000 0.51 0 14:25 24.10.2021
5784 Clear 14 1026 50 10000 0.45 131 12:57 24.10.2021
5785 Clear 13 1027 54 10000 0.56 140 11:44 24.10.2021
5786 Clear 13 1027 53 10000 0.76 94 10:55 24.10.2021
5787 Clear 14 1027 49 10000 0.29 126 09:59 24.10.2021
5788 Clear 14 1027 51 10000 0.29 126 07:41 24.10.2021
5789 Clear 21 1023 29 10000 2.57 250 00:57 24.10.2021
5790 Clear 23 1021 23 10000 2.06 0 23:34 23.10.2021
5791 Clear 21 1022 28 10000 3.09 0 21:58 23.10.2021
5792 Clear 20 1023 36 10000 2.06 190 19:54 23.10.2021
5793 Clear 18 1024 40 8000 0 0 18:59 23.10.2021
5794 Clear 18 1024 43 8000 0 0 18:26 23.10.2021
5795 Clear 17 1024 47 8000 0 0 17:43 23.10.2021
5796 Clear 15 1025 51 10000 1.54 0 16:22 23.10.2021
5797 Clear 11 1025 61 8000 0 0 14:22 23.10.2021
5798 Clear 14 1025 54 10000 1.5 240 03:34 23.10.2021
5799 Clouds 18 1020 44 7000 3.6 240 00:19 23.10.2021
5800 Clouds 20 1019 37 10000 4.12 230 22:53 22.10.2021
5801 Haze 20 1019 46 5000 2.06 0 19:53 22.10.2021
5802 Haze 17 1020 58 5000 1.03 0 18:41 22.10.2021
5803 Clouds 17 1020 60 6000 2.06 0 17:40 22.10.2021
5804 Haze 14 1021 69 5000 1.54 230 15:25 22.10.2021
5805 Mist 13 1021 71 5000 1.54 230 13:35 22.10.2021
5806 Clouds 15 1023 65 10000 0.75 264 11:18 22.10.2021
5807 Clouds 15 1023 64 10000 0.76 262 10:38 22.10.2021
5808 Clouds 15 1023 63 10000 0.74 249 09:44 22.10.2021
5809 Clouds 15 1023 64 10000 0.67 251 08:31 22.10.2021
5810 Clouds 15 1024 62 10000 0.82 264 07:22 22.10.2021
5811 Clouds 18 1023 52 10000 1.41 247 02:56 22.10.2021
5812 Clear 22 1019 33 10000 3.09 190 23:54 21.10.2021
5813 Clear 23 1019 31 10000 3.09 190 23:21 21.10.2021
5814 Clear 23 1019 28 7000 3.6 210 21:39 21.10.2021
5815 Clear 22 1018 37 7000 3.09 200 20:27 21.10.2021
5816 Haze 20 1018 42 5000 2.06 250 19:57 21.10.2021
5817 Haze 20 1018 42 5000 2.06 250 19:28 21.10.2021
5818 Haze 18 1018 55 4000 1.54 270 18:43 21.10.2021
5819 Haze 16 1019 63 4000 2.06 140 17:54 21.10.2021
5820 Haze 16 1019 63 4000 2.06 140 17:32 21.10.2021
5821 Mist 11 1020 82 3000 0 0 15:34 21.10.2021
5822 Haze 11 1020 82 3000 0 0 14:57 21.10.2021
5823 Haze 11 1020 82 3000 0 0 14:37 21.10.2021
5824 Haze 11 1020 82 3000 0 0 14:37 21.10.2021
5825 Clear 13 1024 62 10000 0.23 253 12:44 21.10.2021
5826 Clear 13 1025 67 10000 0.8 241 09:58 21.10.2021
5827 Clear 14 1025 66 10000 0.46 214 08:21 21.10.2021
5828 Clear 14 1025 68 10000 0.86 254 07:23 21.10.2021
5829 Clear 17 1024 57 8000 2.57 240 00:58 21.10.2021
5830 Clear 18 1021 55 10000 2.57 230 23:20 20.10.2021
5831 Clear 18 1021 55 7000 3.6 250 21:51 20.10.2021
5832 Clear 18 1021 55 7000 3.6 250 21:27 20.10.2021
5833 Clear 17 1021 59 10000 3.6 230 20:46 20.10.2021
5834 Clear 17 1021 59 10000 3.6 230 20:26 20.10.2021
5835 Clear 17 1021 59 10000 3.6 230 20:26 20.10.2021
5836 Clear 17 1021 55 6000 4.63 240 19:32 20.10.2021
5837 Haze 16 1021 59 5000 1.54 240 18:49 20.10.2021
5838 Haze 14 1021 67 4000 1.54 90 17:40 20.10.2021
5839 Haze 13 1023 70 2500 0 0 15:26 20.10.2021
5840 Clear 14 1023 66 10000 0.69 237 10:23 20.10.2021
5841 Clear 15 1022 55 10000 0.51 277 07:43 20.10.2021
5842 Clear 20 1020 41 10000 1.45 236 02:41 20.10.2021
5843 Clear 26 1014 29 10000 4.12 240 00:35 20.10.2021
5844 Clear 28 1014 24 10000 5.14 230 23:32 19.10.2021
5845 Clear 29 1014 19 10000 3.6 230 21:40 19.10.2021
5846 Clear 28 1014 16 10000 3.09 260 20:36 19.10.2021
5847 Clear 28 1014 17 10000 3.09 260 20:18 19.10.2021
5848 Clear 27 1015 17 8000 2.57 190 19:37 19.10.2021
5849 Clear 27 1014 17 8000 0 0 18:45 19.10.2021
5850 Clear 24 1013 14 10000 3.07 247 17:56 19.10.2021
5851 Clear 21 1015 28 10000 0 0 15:31 19.10.2021
5852 Clear 14 1014 18 10000 1.78 257 14:46 19.10.2021
5853 Clear 14 1014 18 10000 1.78 257 14:46 19.10.2021
5854 Clear 16 1017 39 10000 0 0 13:57 19.10.2021
5855 Clear 16 1019 29 10000 1.45 73 12:24 19.10.2021
5856 Clear 16 1019 32 10000 1.45 73 11:31 19.10.2021
5857 Clear 16 1019 31 10000 1.44 85 09:55 19.10.2021
5858 Clear 17 1019 30 10000 1.32 89 08:57 19.10.2021
5859 Clear 20 1020 29 10000 0.37 148 04:25 19.10.2021
5860 Clear 26 1017 18 10000 3.54 233 00:22 19.10.2021
5861 Clear 28 1016 12 10000 3.54 233 23:49 18.10.2021
5862 Clear 28 1016 11 10000 3.6 230 22:59 18.10.2021
5863 Clear 28 1016 12 10000 3.6 230 22:31 18.10.2021
5864 Clear 27 1017 13 10000 2.57 0 20:53 18.10.2021
5865 Clear 26 1017 11 10000 2.57 0 20:32 18.10.2021
5866 Clear 25 1017 12 10000 3.09 230 19:49 18.10.2021
5867 Clear 25 1017 15 10000 3.09 230 19:22 18.10.2021
5868 Clear 25 1017 14 10000 1.54 190 18:49 18.10.2021
5869 Clear 15 1019 38 10000 1.03 0 14:59 18.10.2021
5870 Clear 6 1018 18 10000 1.89 76 12:53 18.10.2021
5871 Clear 13 1024 42 10000 1.91 86 10:26 18.10.2021
5872 Clear 13 1024 42 10000 1.67 87 09:26 18.10.2021
5873 Clear 19 1025 35 10000 0.91 168 02:28 18.10.2021
5874 Clear 24 1021 18 10000 3.09 220 23:20 17.10.2021
5875 Clear 24 1021 21 10000 3.6 180 21:46 17.10.2021
5876 Clear 22 1021 27 10000 2.57 210 20:59 17.10.2021
5877 Clear 22 1022 26 10000 2.57 210 20:31 17.10.2021
5878 Clear 22 1022 26 10000 2.57 240 19:39 17.10.2021
5879 Clear 20 1023 29 10000 3.25 249 18:54 17.10.2021
5880 Clear 19 1021 34 10000 0 0 17:32 17.10.2021
5881 Clear 13 1025 51 10000 0 0 14:58 17.10.2021
5882 Clear 13 1025 52 10000 0 0 14:24 17.10.2021
5883 Clouds 7 1021 31 10000 1.03 235 13:34 17.10.2021
5884 Clouds 11 1027 54 10000 0.64 62 11:54 17.10.2021
5885 Clouds 12 1027 53 10000 0.44 198 10:23 17.10.2021
5886 Clouds 13 1027 56 10000 0.49 238 09:23 17.10.2021
5887 Clouds 14 1026 49 10000 0.25 250 06:58 17.10.2021
5888 Clear 20 1023 27 10000 0 0 00:52 17.10.2021
5889 Clear 21 1022 25 10000 0 0 00:21 17.10.2021
5890 Clear 22 1022 24 10000 3.09 210 21:30 16.10.2021
5891 Clear 21 1023 23 10000 2.57 230 20:31 16.10.2021
5892 Clear 21 1021 24 10000 0 0 19:44 16.10.2021
5893 Clear 21 1021 24 10000 0 0 19:21 16.10.2021
5894 Clear 19 1022 32 10000 0 0 18:53 16.10.2021
5895 Clear 19 1022 32 10000 0 0 18:29 16.10.2021
5896 Clear 18 1022 34 10000 0 0 17:54 16.10.2021
5897 Clear 18 1022 34 10000 0 0 17:22 16.10.2021
5898 Clear 10 1022 57 10000 0 0 14:48 16.10.2021
5899 Clear 10 1028 49 10000 0.71 93 11:52 16.10.2021
5900 Clear 10 1027 49 10000 0.65 97 10:36 16.10.2021
5901 Clear 11 1028 52 10000 0.3 123 07:50 16.10.2021
5902 Clear 17 1023 37 10000 3.09 240 01:25 16.10.2021
5903 Clear 20 1022 26 10000 0 0 23:53 15.10.2021
5904 Clear 20 1022 26 10000 3.6 230 22:38 15.10.2021
5905 Clear 20 1022 26 10000 3.6 230 22:18 15.10.2021
5906 Clear 19 1022 28 10000 4.12 200 21:26 15.10.2021
5907 Clear 18 1022 29 10000 2.57 0 20:46 15.10.2021
5908 Clear 17 1023 35 6000 2.57 0 19:26 15.10.2021
5909 Haze 16 1021 41 5000 2.06 0 18:40 15.10.2021
5910 Clear 13 1025 51 10000 0 0 16:28 15.10.2021
5911 Clear 11 1025 54 10000 0 0 15:36 15.10.2021
5912 Clear 9 1029 64 10000 0.1 207 12:42 15.10.2021
5913 Clear 8 1029 64 10000 0.12 83 11:31 15.10.2021
5914 Clear 9 1028 62 10000 0.19 31 10:46 15.10.2021
5915 Clear 9 1029 60 10000 0.06 329 09:46 15.10.2021
5916 Clear 11 1028 60 10000 0.56 238 05:32 15.10.2021
5917 Clouds 14 1025 47 10000 3.09 250 01:45 15.10.2021
5918 Clouds 15 1024 46 10000 1.54 190 00:21 15.10.2021
5919 Clouds 14 1024 54 10000 0 0 22:51 14.10.2021
5920 Clouds 14 1024 54 10000 0 0 22:51 14.10.2021
5921 Clouds 14 1027 57 10000 3.63 228 21:44 14.10.2021
5922 Clouds 13 1025 63 8000 0 0 20:48 14.10.2021
5923 Clouds 13 1025 64 8000 0 0 20:18 14.10.2021
5924 Clouds 12 1025 67 8000 0 0 19:33 14.10.2021
5925 Clouds 11 1025 76 8000 0 0 17:30 14.10.2021
5926 Clouds 9 1026 82 4000 0 0 16:49 14.10.2021
5927 Clouds 9 1026 82 8000 3.6 230 15:44 14.10.2021
5928 Clouds 10 1024 81 6000 2.57 200 14:41 14.10.2021
5929 Clouds 10 1023 76 10000 2.57 200 13:39 14.10.2021
5930 Clouds 11 1024 72 10000 1.12 265 11:44 14.10.2021
5931 Clouds 13 1023 70 10000 1.29 250 09:55 14.10.2021
5932 Clouds 13 1024 68 10000 0.78 355 06:55 14.10.2021
5933 Clouds 15 1023 56 10000 3.16 231 00:59 14.10.2021
5934 Clouds 16 1022 54 10000 4.37 237 00:25 14.10.2021
5935 Clear 20 1018 35 10000 3.09 250 21:58 13.10.2021
5936 Clear 20 1017 35 10000 3.09 250 21:32 13.10.2021
5937 Clear 19 1019 40 10000 3.09 230 19:59 13.10.2021
5938 Clear 18 1018 45 10000 2.06 160 18:54 13.10.2021
5939 Clear 18 1018 45 10000 2.06 160 18:34 13.10.2021
5940 Clear 13 1020 58 10000 1.03 140 15:32 13.10.2021
5941 Clouds 12 1023 60 10000 0 0 14:45 13.10.2021
5942 Clouds 12 1023 61 10000 0 0 14:21 13.10.2021
5943 Clear 10 1021 80 10000 0.34 106 12:22 13.10.2021
5944 Clear 10 1021 80 10000 0.34 106 11:34 13.10.2021
5945 Clear 13 1026 62 10000 0.54 244 08:41 13.10.2021
5946 Clouds 11 1026 65 10000 1.29 251 06:42 13.10.2021
5947 Clouds 13 1025 61 10000 1.46 230 02:27 13.10.2021
5948 Clouds 14 1021 59 10000 3.6 190 01:37 13.10.2021
5949 Clouds 18 1019 43 8000 4.12 240 23:30 12.10.2021
5950 Clouds 19 1019 41 8000 1.54 250 22:45 12.10.2021
5951 Clouds 19 982 41 8000 2.06 250 21:30 12.10.2021
5952 Clouds 18 1020 46 8000 0 0 20:34 12.10.2021
5953 Clouds 18 1020 46 8000 0 0 20:34 12.10.2021
5954 Clouds 16 1021 54 8000 1.54 300 19:57 12.10.2021
5955 Clouds 16 1021 58 8000 1.03 0 18:36 12.10.2021
5956 Clouds 13 1022 68 8000 0 0 17:51 12.10.2021
5957 Mist 10 1019 83 3000 2.06 180 16:39 12.10.2021
5958 Mist 10 1018 83 2000 3.09 210 15:58 12.10.2021
5959 Mist 11 1017 79 3000 2.06 200 14:39 12.10.2021
5960 Mist 12 1021 76 2000 2.57 210 13:43 12.10.2021
5961 Clouds 12 1022 71 10000 0.98 267 12:35 12.10.2021
5962 Clouds 12 1021 70 10000 1.1 271 09:42 12.10.2021
5963 Clouds 12 1021 69 10000 1.07 273 08:43 12.10.2021
5964 Clouds 12 1021 68 10000 1.03 264 07:25 12.10.2021
5965 Clouds 13 1020 63 10000 0.37 306 05:29 12.10.2021
5966 Clouds 14 1020 60 10000 0.37 306 04:32 12.10.2021
5967 Clear 22 1016 34 10000 3.6 200 00:28 12.10.2021
5968 Clear 24 1016 30 10000 4.12 240 23:40 11.10.2021
5969 Clear 24 1016 30 10000 4.12 240 23:40 11.10.2021
5970 Clear 24 1016 32 10000 4.44 231 22:57 11.10.2021
5971 Clear 26 1014 22 10000 3.09 230 21:46 11.10.2021
5972 Clear 26 1014 22 10000 2.57 0 20:39 11.10.2021
5973 Clear 25 1015 22 10000 3.09 0 19:44 11.10.2021
5974 Clear 24 1014 24 10000 2.57 240 18:42 11.10.2021
5975 Clear 22 1015 31 10000 1.54 200 17:46 11.10.2021
5976 Clear 20 1015 37 10000 1.03 270 16:31 11.10.2021
5977 Clear 18 1015 43 10000 1.03 230 15:50 11.10.2021
5978 Clear 13 1014 59 10000 0 0 14:55 11.10.2021
5979 Clear 12 1014 61 10000 0 0 14:30 11.10.2021
5980 Clear 10 1014 68 10000 1.54 30 13:36 11.10.2021
5981 Clouds 11 1020 55 10000 1.93 68 11:39 11.10.2021
5982 Clouds 13 1020 48 10000 1.5 75 10:31 11.10.2021
5983 Clouds 13 1020 48 10000 1.5 75 10:31 11.10.2021
5984 Clear 12 1021 52 10000 1.38 63 09:22 11.10.2021
5985 Clear 14 1022 60 10000 1.04 90 06:30 11.10.2021
5986 Clear 19 1021 45 10000 1.54 210 01:38 11.10.2021
5987 Clear 21 1020 41 10000 2.57 190 00:46 11.10.2021
5988 Clear 20 1022 39 10000 2.96 220 23:57 10.10.2021
5989 Clouds 20 1020 37 10000 3.6 210 21:52 10.10.2021
5990 Clouds 21 1020 38 10000 3.6 210 21:31 10.10.2021
5991 Clouds 19 1021 40 10000 1.54 200 20:43 10.10.2021
5992 Clouds 19 1021 40 10000 1.54 200 20:21 10.10.2021
5993 Clouds 18 1021 43 10000 2.06 230 19:58 10.10.2021
5994 Clouds 18 1021 44 10000 2.06 230 19:35 10.10.2021
5995 Clouds 15 1022 58 10000 2.06 0 18:33 10.10.2021
5996 Clouds 13 1026 65 8000 1.03 0 16:46 10.10.2021
5997 Clouds 12 1026 69 8000 1.03 0 15:44 10.10.2021
5998 Clouds 10 1026 74 8000 1.03 200 13:53 10.10.2021
5999 Clouds 10 1025 74 8000 1.03 200 13:32 10.10.2021
6000 Clouds 10 1029 68 10000 0.95 237 12:33 10.10.2021
6001 Clouds 11 1027 70 10000 1.28 215 10:43 10.10.2021
6002 Clouds 11 1027 69 10000 1.49 240 09:29 10.10.2021
6003 Clouds 11 1027 69 10000 1.49 240 08:53 10.10.2021
6004 Clouds 12 1027 68 10000 1.68 244 07:27 10.10.2021
6005 Clouds 13 1019 80 10000 1.6 243 02:42 10.10.2021
6006 Clouds 17 1020 53 10000 4.12 220 00:55 10.10.2021
6007 Clouds 19 1018 45 10000 5.14 250 23:57 09.10.2021
6008 Clear 20 1017 37 10000 4.63 240 22:45 09.10.2021
6009 Clear 20 1017 36 10000 4.63 250 21:39 09.10.2021
6010 Clear 21 1017 35 10000 4.63 250 21:20 09.10.2021
6011 Clear 19 1018 37 8000 3.6 230 19:44 09.10.2021
6012 Clear 18 1018 41 8000 1.54 280 18:57 09.10.2021
6013 Clear 18 1019 42 8000 1.54 280 18:32 09.10.2021
6014 Clear 15 1019 53 10000 0 0 16:29 09.10.2021
6015 Clear 13 1018 60 10000 0 0 15:28 09.10.2021
6016 Clear 8 1018 76 10000 1.03 50 13:43 09.10.2021
6017 Clear 9 1021 65 10000 0.1 296 12:38 09.10.2021
6018 Clear 9 1020 65 10000 0.4 322 11:47 09.10.2021
6019 Clear 9 1020 64 10000 0.11 219 10:42 09.10.2021
6020 Clear 9 1020 64 10000 0.11 219 10:41 09.10.2021
6021 Clear 10 1021 63 10000 0.28 162 09:36 09.10.2021
6022 Clear 10 1021 63 10000 0.29 222 08:29 09.10.2021
6023 Clear 11 1021 64 10000 0.32 217 07:46 09.10.2021
6024 Clear 12 1022 62 10000 0.68 243 05:28 09.10.2021
6025 Clear 14 1023 60 10000 0.81 188 02:49 09.10.2021
6026 Clouds 13 1023 59 10000 1.55 220 02:21 09.10.2021
6027 Clouds 15 1016 58 10000 2.25 212 23:36 08.10.2021
6028 Clouds 15 1021 54 10000 1.54 0 22:53 08.10.2021
6029 Clouds 15 1020 55 10000 1.54 0 22:22 08.10.2021
6030 Clouds 14 1021 58 10000 2.57 0 20:49 08.10.2021
6031 Clouds 12 1022 67 10000 2.06 180 18:51 08.10.2021
6032 Clouds 12 1022 72 10000 1.54 230 17:28 08.10.2021
6033 Clouds 12 1022 72 10000 2.06 240 16:50 08.10.2021
6034 Clouds 11 1022 72 10000 2.06 240 16:22 08.10.2021
6035 Clouds 10 1021 77 8000 0 0 13:56 08.10.2021
6036 Clouds 11 1025 73 10000 1.21 204 12:48 08.10.2021
6037 Clouds 11 1023 72 10000 1.05 231 11:31 08.10.2021
6038 Clouds 11 1023 73 6972 1.47 245 10:35 08.10.2021
6039 Clouds 8 1018 86 10000 1.54 256 07:34 08.10.2021
6040 Clear 21 1014 36 10000 4.12 240 23:33 07.10.2021
6041 Clear 21 1014 36 10000 4.12 260 22:59 07.10.2021
6042 Clear 22 1014 30 10000 3.09 230 21:34 07.10.2021
6043 Clear 22 1015 30 10000 3.09 220 20:58 07.10.2021
6044 Clear 21 1015 30 10000 3.6 220 19:45 07.10.2021
6045 Clear 21 1015 30 10000 3.6 220 19:27 07.10.2021
6046 Clear 20 1016 31 10000 1.54 230 17:49 07.10.2021
6047 Clear 18 1016 32 10000 1.54 210 16:43 07.10.2021
6048 Clear 16 1016 39 10000 1.54 230 15:24 07.10.2021
6049 Clear 12 1015 52 10000 0 0 13:45 07.10.2021
6050 Clear 11 1016 57 10000 0 0 13:27 07.10.2021
6051 Clear 14 1018 44 10000 0.38 243 12:39 07.10.2021
6052 Clear 13 1017 44 10000 0.29 86 10:49 07.10.2021
6053 Clear 13 1017 47 10000 0.05 284 10:19 07.10.2021
6054 Clear 14 1017 46 10000 0.16 347 08:56 07.10.2021
6055 Clear 14 1017 44 10000 0.16 347 08:35 07.10.2021
6056 Clear 14 1017 43 10000 0.13 330 07:41 07.10.2021
6057 Clear 15 1016 41 10000 0.18 51 06:57 07.10.2021
6058 Clear 20 1015 35 10000 0.85 209 02:23 07.10.2021
6059 Clear 25 1013 20 10000 2.57 230 23:39 06.10.2021
6060 Clear 25 1013 18 10000 2.57 0 22:45 06.10.2021
6061 Clear 25 1014 18 10000 2.57 230 21:46 06.10.2021
6062 Clear 24 1015 19 10000 2.57 220 20:34 06.10.2021
6063 Clear 23 1015 20 8000 2.57 230 19:46 06.10.2021
6064 Clear 22 1014 23 8000 2.06 210 18:34 06.10.2021
6065 Clear 18 1015 31 10000 2.06 210 16:54 06.10.2021
6066 Clear 16 1018 36 10000 0 0 15:26 06.10.2021
6067 Clear 11 1018 51 10000 1.03 50 13:51 06.10.2021
6068 Clear 13 1021 47 10000 1.24 70 12:55 06.10.2021
6069 Clear 13 1021 48 10000 1.24 70 12:31 06.10.2021
6070 Clear 11 1020 47 10000 1.34 72 11:49 06.10.2021
6071 Clear 12 1020 50 10000 0.94 78 09:57 06.10.2021
6072 Clear 12 1020 50 10000 0.94 78 09:38 06.10.2021
6073 Clear 12 1020 49 10000 0.55 60 08:42 06.10.2021
6074 Clear 14 1021 46 10000 0.71 49 06:48 06.10.2021
6075 Clear 15 1021 44 10000 0.09 99 05:19 06.10.2021
6076 Clear 20 1017 28 10000 3.09 220 00:26 06.10.2021
6077 Clear 21 1017 27 10000 4.12 240 23:52 05.10.2021
6078 Clear 21 1017 27 10000 4.12 240 23:52 05.10.2021
6079 Clear 22 1017 27 10000 4.12 240 23:32 05.10.2021
6080 Clear 22 1017 27 10000 4.12 240 22:44 05.10.2021
6081 Clear 22 1018 30 10000 4.4 233 21:58 05.10.2021
6082 Clear 22 1018 30 10000 4.4 233 21:58 05.10.2021
6083 Clear 22 1018 30 10000 4.4 233 21:36 05.10.2021
6084 Clear 22 1017 26 8000 3.6 230 20:39 05.10.2021
6085 Clear 22 1017 27 8000 3.6 230 20:20 05.10.2021
6086 Clear 21 1017 26 10000 2.57 190 19:27 05.10.2021
6087 Clear 20 1018 29 8000 2.06 0 18:46 05.10.2021
6088 Clear 17 1016 37 10000 0 0 16:35 05.10.2021
6089 Clear 11 1019 56 10000 0 0 14:30 05.10.2021
6090 Clear 10 1018 56 10000 0 0 13:33 05.10.2021
6091 Clear 11 1020 46 10000 0.53 51 12:36 05.10.2021
6092 Clear 11 1020 49 10000 0.91 62 11:59 05.10.2021
6093 Clear 11 1020 50 10000 0.56 61 10:39 05.10.2021
6094 Clear 13 1019 45 10000 0.6 64 08:44 05.10.2021
6095 Clear 16 1020 41 10000 0.52 253 03:55 05.10.2021
6096 Clear 22 1015 25 10000 3.09 210 23:53 04.10.2021
6097 Clear 23 1015 21 10000 4.63 240 21:58 04.10.2021
6098 Clear 22 1015 21 10000 2.06 0 18:55 04.10.2021
6099 Clear 20 1015 26 10000 2.06 0 17:59 04.10.2021
6100 Clear 17 1015 32 10000 1.03 0 16:22 04.10.2021
6101 Clear 15 1015 37 10000 1.54 230 15:31 04.10.2021
6102 Clear 12 1018 44 10000 0 0 14:42 04.10.2021
6103 Clear 7 1016 58 10000 1.03 0 13:48 04.10.2021
6104 Clear 9 1019 57 10000 1.03 0 13:24 04.10.2021
6105 Clear 10 1022 47 10000 1.89 83 11:35 04.10.2021
6106 Clear 10 1022 48 10000 1.31 82 10:48 04.10.2021
6107 Clear 11 1022 49 10000 1.11 77 09:51 04.10.2021
6108 Clear 11 1023 49 10000 0.93 85 08:39 04.10.2021
6109 Clear 12 1024 50 10000 0.67 83 06:56 04.10.2021
6110 Clear 19 1020 28 10000 3.09 200 00:28 04.10.2021
6111 Clear 21 1019 26 10000 3.09 0 22:33 03.10.2021
6112 Clear 20 1019 24 10000 3.09 210 21:38 03.10.2021
6113 Clear 20 1019 26 10000 3.09 0 20:55 03.10.2021
6114 Clear 19 1020 29 10000 2.06 260 19:56 03.10.2021
6115 Clear 17 1018 34 8000 2.57 200 18:33 03.10.2021
6116 Clear 16 1018 38 10000 1.54 270 17:43 03.10.2021
6117 Clear 12 1022 47 10000 0 0 15:51 03.10.2021
6118 Clear 10 1022 54 10000 0 0 14:45 03.10.2021
6119 Clear 7 1021 70 10000 0 0 13:57 03.10.2021
6120 Clear 7 1021 70 10000 0 0 13:20 03.10.2021
6121 Clear 9 1024 56 10000 0.45 78 12:28 03.10.2021
6122 Clear 9 1024 57 10000 0.46 74 10:36 03.10.2021
6123 Clear 10 1024 54 10000 0.27 176 08:36 03.10.2021
6124 Clear 17 1021 37 10000 2.57 200 00:41 03.10.2021
6125 Clouds 17 1021 34 10000 3.6 220 22:34 02.10.2021
6126 Clouds 17 1021 39 10000 3.09 250 20:55 02.10.2021
6127 Clouds 16 1023 41 8000 3.09 190 19:32 02.10.2021
6128 Clouds 15 1022 42 10000 1.54 270 18:50 02.10.2021
6129 Clear 14 1024 45 10000 1.54 320 17:39 02.10.2021
6130 Clouds 12 1024 55 10000 1.54 220 16:54 02.10.2021
6131 Clear 10 1024 65 10000 1.03 270 14:42 02.10.2021
6132 Clear 12 1024 32 10000 1.03 180 15:49 30.09.2021
6133 Clear 10 1024 38 10000 0 0 14:46 30.09.2021
6134 Clouds 11 1027 41 10000 0.8 83 12:27 30.09.2021
6135 Clouds 12 1026 28 10000 0.8 83 11:34 30.09.2021
6136 Clouds 11 1026 31 10000 0.7 184 10:40 30.09.2021
6137 Clouds 11 1025 27 10000 2.25 240 08:55 30.09.2021
6138 Clouds 12 1025 28 10000 1.99 254 08:27 30.09.2021
6139 Clouds 13 1022 27 10000 1.35 273 05:53 30.09.2021
6140 Clouds 15 1021 16 10000 1.89 209 02:59 30.09.2021
6141 Clouds 16 1018 22 10000 2.57 190 00:40 30.09.2021
6142 Clouds 18 1017 29 10000 4.12 250 23:21 29.09.2021
6143 Clouds 20 1016 24 10000 3.09 200 21:55 29.09.2021
6144 Clouds 22 1016 19 10000 3.09 260 20:57 29.09.2021
6145 Clouds 23 1016 17 10000 3.09 260 20:22 29.09.2021
6146 Clouds 24 1016 15 10000 2.57 260 19:28 29.09.2021
6147 Clear 23 1016 19 10000 0 0 18:19 29.09.2021
6148 Clear 20 1018 22 10000 0 0 16:56 29.09.2021
6149 Clear 19 1018 25 10000 0 0 16:32 29.09.2021
6150 Clear 17 1018 27 10000 0 0 15:43 29.09.2021
6151 Clear 13 1018 36 10000 0 0 14:38 29.09.2021
6152 Clouds 14 1020 32 10000 0.49 309 13:34 29.09.2021
6153 Clouds 13 1021 37 10000 0.96 28 12:40 29.09.2021
6154 Clear 13 1020 40 10000 0.8 35 11:24 29.09.2021
6155 Clear 13 1020 40 10000 0.8 35 10:34 29.09.2021
6156 Clear 13 1020 39 10000 0.82 27 09:44 29.09.2021
6157 Clear 14 1021 38 10000 0.68 59 08:24 29.09.2021
6158 Clear 15 1021 37 10000 0.64 61 06:53 29.09.2021
6159 Clear 25 1017 19 10000 3.09 210 00:43 29.09.2021
6160 Clear 26 1018 17 10000 3.09 210 22:52 28.09.2021
6161 Clear 26 1018 17 10000 3.09 210 22:22 28.09.2021
6162 Clear 25 1018 17 10000 4.04 241 21:23 28.09.2021
6163 Clear 25 1018 17 10000 3.6 240 20:24 28.09.2021
6164 Clear 25 1019 18 10000 1.54 270 19:40 28.09.2021
6165 Clear 24 1020 21 10000 2.57 170 18:42 28.09.2021
6166 Clear 21 1021 28 10000 2.06 250 16:58 28.09.2021
6167 Clear 19 1021 34 10000 0 0 15:21 28.09.2021
6168 Clear 12 1021 57 10000 1.54 40 13:28 28.09.2021
6169 Clear 14 1022 42 10000 1.67 60 12:26 28.09.2021
6170 Clear 14 1022 42 10000 1.67 60 11:52 28.09.2021
6171 Clear 14 1022 43 10000 1.67 60 11:34 28.09.2021
6172 Clear 14 1023 44 10000 1.44 56 10:30 28.09.2021
6173 Clear 15 1023 43 10000 1.2 50 09:29 28.09.2021
6174 Clear 15 1023 42 10000 1.2 50 08:44 28.09.2021
6175 Clear 15 1023 43 10000 1.03 50 08:25 28.09.2021
6176 Clear 16 1024 44 10000 0.81 46 06:46 28.09.2021
6177 Clear 17 1024 42 10000 0.53 33 04:39 28.09.2021
6178 Clear 23 1019 27 10000 2.57 220 00:51 28.09.2021
6179 Clear 24 1019 24 10000 3.6 230 23:52 27.09.2021
6180 Clear 24 1019 25 10000 3.6 230 23:27 27.09.2021
6181 Clear 25 1019 24 10000 3.09 220 22:44 27.09.2021
6182 Clear 25 1018 23 10000 3.09 220 21:39 27.09.2021
6183 Clear 24 1019 24 10000 3.09 230 20:33 27.09.2021
6184 Clear 23 1020 28 10000 2.06 240 19:40 27.09.2021
6185 Clear 21 1021 34 10000 2.06 240 18:55 27.09.2021
6186 Clear 21 1019 34 10000 2.06 240 18:24 27.09.2021
6187 Clear 20 1019 39 10000 2.06 180 17:22 27.09.2021
6188 Clear 17 1019 46 10000 0 0 16:37 27.09.2021
6189 Clear 17 1019 46 10000 0 0 16:37 27.09.2021
6190 Clear 15 1019 54 10000 0 0 15:39 27.09.2021
6191 Clear 9 1019 72 10000 1.03 120 13:58 27.09.2021
6192 Clouds 13 1025 61 10000 0.66 56 12:53 27.09.2021
6193 Clouds 13 1024 60 10000 0.41 40 10:51 27.09.2021
6194 Clouds 13 1024 60 10000 0.33 44 09:46 27.09.2021
6195 Clouds 14 1024 59 10000 0.25 336 08:26 27.09.2021
6196 Clouds 15 1024 56 10000 0.43 264 04:51 27.09.2021
6197 Clear 21 1019 36 10000 3.09 250 00:39 27.09.2021
6198 Clear 23 1018 30 10000 3.6 250 22:27 26.09.2021
6199 Clear 23 1018 31 10000 2.57 200 21:31 26.09.2021
6200 Clouds 23 1016 32 8000 2.57 180 20:45 26.09.2021
6201 Clouds 23 1016 32 8000 2.57 180 20:18 26.09.2021
6202 Clear 21 1017 36 10000 2.57 250 19:36 26.09.2021
6203 Clear 19 1016 42 10000 1.03 350 18:45 26.09.2021
6204 Clear 17 1018 51 8000 1.54 230 17:50 26.09.2021
6205 Clear 16 1018 59 8000 1.54 230 17:20 26.09.2021
6206 Clear 15 1019 63 10000 1.03 180 16:28 26.09.2021
6207 Clear 13 1019 61 8000 1.03 120 15:56 26.09.2021
6208 Clear 11 1022 73 8000 1.03 60 14:26 26.09.2021
6209 Clear 7 1019 78 10000 1.03 50 13:45 26.09.2021
6210 Clear 10 1025 65 10000 0.37 52 12:32 26.09.2021
6211 Clear 10 1025 65 10000 0.31 90 11:59 26.09.2021
6212 Clear 10 1025 64 10000 0.31 90 11:36 26.09.2021
6213 Clear 11 1025 64 10000 0.23 35 10:21 26.09.2021
6214 Clear 12 1025 65 10000 0.12 96 08:55 26.09.2021
6215 Clouds 15 1026 60 10000 1.11 242 03:24 26.09.2021
6216 Clear 17 1024 51 10000 3.09 240 00:20 26.09.2021
6217 Clear 19 1023 45 10000 4.63 240 23:22 25.09.2021
6218 Clear 20 1022 41 10000 4.12 210 22:36 25.09.2021
6219 Clear 20 1022 42 7000 3.09 190 21:55 25.09.2021
6220 Clear 20 1021 39 7000 3.09 190 21:19 25.09.2021
6221 Clear 20 1022 42 7000 3.6 170 20:37 25.09.2021
6222 Clouds 15 1022 67 10000 1.54 0 18:40 25.09.2021
6223 Haze 13 1023 76 5000 0 0 17:47 25.09.2021
6224 Mist 11 1025 81 1000 0 0 15:35 25.09.2021
6225 Fog 12 1023 82 800 3.09 150 13:56 25.09.2021
6226 Clear 12 1025 72 10000 2.04 248 12:48 25.09.2021
6227 Clear 13 1023 70 10000 0.54 299 11:40 25.09.2021
6228 Clear 13 1023 68 10000 0.49 277 10:24 25.09.2021
6229 Clear 12 1025 69 10000 0.39 278 09:25 25.09.2021
6230 Clear 13 1022 65 10000 0.45 290 07:52 25.09.2021
6231 Clear 22 1016 34 10000 0 0 01:34 25.09.2021
6232 Clear 28 1014 17 10000 3.6 200 23:33 24.09.2021
6233 Clear 29 1013 13 10000 3.09 230 21:41 24.09.2021
6234 Clear 29 1014 10 10000 2.57 180 20:33 24.09.2021
6235 Clear 28 1014 11 10000 0 0 19:44 24.09.2021
6236 Clear 28 1014 11 10000 0 0 18:32 24.09.2021
6237 Clear 26 1015 18 10000 1.54 250 17:53 24.09.2021
6238 Clear 26 1015 17 10000 1.54 250 17:35 24.09.2021
6239 Clear 23 1014 21 10000 0 0 16:45 24.09.2021
6240 Clear 9 1014 52 10000 1.03 20 13:55 24.09.2021
6241 Clear 13 1019 33 10000 2.67 76 12:45 24.09.2021
6242 Clear 13 1019 32 10000 2.74 78 12:27 24.09.2021
6243 Clear 13 1018 32 10000 2.74 78 11:50 24.09.2021
6244 Clear 8 1013 19 10000 2.72 78 10:24 24.09.2021
6245 Clear 9 1013 22 10000 2.42 79 08:25 24.09.2021
6246 Clear 11 1013 22 10000 2.42 79 07:32 24.09.2021
6247 Clear 11 1014 25 10000 2.09 80 06:44 24.09.2021
6248 Clear 15 1014 27 10000 1.65 84 04:53 24.09.2021
6249 Clear 27 1016 12 10000 3.09 240 22:46 23.09.2021
6250 Clear 27 1016 12 10000 3.09 240 22:19 23.09.2021
6251 Clear 26 1016 19 10000 2.06 210 21:44 23.09.2021
6252 Clear 25 1017 19 10000 0 0 20:33 23.09.2021
6253 Clear 23 1017 21 10000 0 0 19:18 23.09.2021
6254 Clear 23 1017 21 10000 0 0 19:18 23.09.2021
6255 Clear 23 1017 21 10000 0 0 19:18 23.09.2021
6256 Clear 18 1018 39 10000 0 0 17:18 23.09.2021
6257 Clear 13 1020 58 10000 0 0 15:21 23.09.2021
6258 Clear 7 1018 23 10000 0.72 198 14:59 23.09.2021
6259 Clear 6 1020 81 10000 0 0 13:45 23.09.2021
6260 Clear 6 1020 81 10000 0 0 13:18 23.09.2021
6261 Clouds 3 1019 32 10000 1.71 80 12:47 23.09.2021
6262 Clouds 3 1019 34 10000 1.67 84 12:22 23.09.2021
6263 Clouds 5 1019 36 10000 1.3 99 11:20 23.09.2021
6264 Clouds 8 1019 36 10000 1.51 95 10:19 23.09.2021
6265 Clouds 7 1019 36 10000 1.51 95 09:48 23.09.2021
6266 Clouds 8 1020 44 10000 1.34 95 06:49 23.09.2021
6267 Clear 16 1023 51 10000 0 0 01:18 23.09.2021
6268 Clear 20 1022 32 9000 2.06 210 22:58 22.09.2021
6269 Clear 20 1022 32 9000 2.06 210 22:23 22.09.2021
6270 Clear 18 1022 42 10000 1.54 0 21:46 22.09.2021
6271 Clear 18 1022 42 10000 1.54 0 21:46 22.09.2021
6272 Clear 18 1021 38 10000 3.2 247 20:59 22.09.2021
6273 Clear 18 1021 38 10000 3.2 247 20:38 22.09.2021
6274 Clouds 14 1024 58 7000 2.06 40 19:27 22.09.2021
6275 Clouds 13 1025 62 7000 1.54 180 18:36 22.09.2021
6276 Clouds 16 1022 53 10000 2.18 253 17:39 22.09.2021
6277 Clouds 14 1023 63 10000 2.07 245 16:36 22.09.2021
6278 Mist 9 1024 87 1500 1.54 210 14:37 22.09.2021
6279 Mist 9 1023 87 1500 1.54 0 13:25 22.09.2021
6280 Clouds 9 1021 85 10000 1.02 252 11:34 22.09.2021
6281 Clouds 9 1020 85 10000 0.76 264 10:18 22.09.2021
6282 Clouds 9 1020 84 10000 0.83 269 08:52 22.09.2021
6283 Clouds 9 1020 86 10000 0.92 260 07:49 22.09.2021
6284 Clouds 10 1020 86 10000 0.92 260 06:57 22.09.2021
6285 Clouds 10 1020 86 10000 1.03 247 05:51 22.09.2021
6286 Clouds 10 1020 85 10000 1.23 243 05:23 22.09.2021
6287 Clouds 10 1020 83 10000 1.49 247 03:43 22.09.2021
6288 Clouds 14 1019 67 7000 3.6 260 00:20 22.09.2021
6289 Clear 17 1017 55 10000 3.09 220 22:43 21.09.2021
6290 Clear 19 1017 48 10000 4.63 240 21:31 21.09.2021
6291 Clear 21 1015 34 10000 3.81 238 19:42 21.09.2021
6292 Clear 21 1015 33 10000 3.33 240 19:20 21.09.2021
6293 Clear 16 1017 44 10000 1.03 0 16:59 21.09.2021
6294 Clear 16 1017 44 10000 1.03 0 16:29 21.09.2021
6295 Clear 14 1017 47 10000 0 0 15:31 21.09.2021
6296 Clear 8 1016 76 10000 0.51 150 14:56 21.09.2021
6297 Clear 8 1016 76 10000 0.51 150 14:56 21.09.2021
6298 Clear 6 1015 81 10000 1.03 20 13:40 21.09.2021
6299 Clear 6 1015 81 10000 1.03 20 13:19 21.09.2021
6300 Clear 13 1012 32 10000 1.59 78 11:21 21.09.2021
6301 Clear 8 1012 31 10000 1.67 83 09:54 21.09.2021
6302 Clear 8 1012 32 10000 1.73 83 07:51 21.09.2021
6303 Clear 8 1013 34 10000 1.95 86 06:18 21.09.2021
6304 Clear 21 1016 32 10000 1.54 180 23:58 20.09.2021
6305 Clear 20 1017 37 10000 2.57 180 21:58 20.09.2021
6306 Clear 20 1017 37 10000 2.57 180 21:32 20.09.2021
6307 Clear 19 1018 39 8000 2.57 230 20:27 20.09.2021
6308 Clear 16 1019 48 10000 3.09 160 19:24 20.09.2021
6309 Clear 14 1021 58 6000 1.54 200 17:39 20.09.2021
6310 Clouds 12 1022 66 10000 1.54 230 16:33 20.09.2021
6311 Clear 11 1022 66 10000 1.03 150 15:47 20.09.2021
6312 Clear 11 1022 66 10000 1.03 150 15:18 20.09.2021
6313 Clear 6 1022 87 10000 0 0 13:43 20.09.2021
6314 Clear 8 1020 65 10000 0.38 106 12:35 20.09.2021
6315 Clear 8 1020 76 10000 0.22 84 11:19 20.09.2021
6316 Clear 9 1021 79 10000 0.09 182 09:55 20.09.2021
6317 Clear 9 1021 79 10000 0.09 182 09:34 20.09.2021
6318 Clear 9 1021 80 10000 0.32 216 08:56 20.09.2021
6319 Clouds 9 1021 82 10000 0.62 239 06:47 20.09.2021
6320 Clouds 17 1020 48 10000 4.12 230 23:45 19.09.2021
6321 Clouds 17 1020 45 10000 2.06 0 21:56 19.09.2021
6322 Clouds 17 1020 45 10000 2.06 0 21:34 19.09.2021
6323 Clouds 16 1020 48 10000 2.06 270 20:34 19.09.2021
6324 Clouds 14 1020 58 10000 0 0 19:18 19.09.2021
6325 Clouds 12 1020 66 10000 0 0 18:25 19.09.2021
6326 Clouds 12 1020 71 10000 0 0 17:22 19.09.2021
6327 Haze 10 1020 81 4000 1.03 190 15:55 19.09.2021
6328 Clouds 9 1019 87 10000 0 0 14:50 19.09.2021
6329 Clouds 9 1019 87 10000 0 0 14:30 19.09.2021
6330 Mist 8 1019 87 2500 0 0 13:20 19.09.2021
6331 Clear 6 1018 75 10000 0.51 252 12:47 19.09.2021
6332 Clear 6 1016 77 10000 0.5 256 11:27 19.09.2021
6333 Clear 6 1016 78 10000 0.48 267 10:24 19.09.2021
6334 Clear 7 1016 78 10000 0.48 267 09:38 19.09.2021
6335 Clear 8 1017 81 10000 0.65 259 07:31 19.09.2021
6336 Clear 10 1017 81 10000 0.98 250 05:55 19.09.2021
6337 Clear 19 1016 45 10000 3.09 220 23:36 18.09.2021
6338 Clear 20 1016 49 7000 3.6 240 21:59 18.09.2021
6339 Clear 19 1017 48 7000 2.57 240 20:51 18.09.2021
6340 Clear 19 1017 48 7000 2.57 240 20:27 18.09.2021
6341 Clear 18 1017 55 7000 2.57 220 19:39 18.09.2021
6342 Clear 18 1017 55 7000 2.57 220 19:39 18.09.2021
6343 Clear 18 1017 55 7000 2.57 220 19:20 18.09.2021
6344 Clear 17 1018 59 7000 2.06 240 18:31 18.09.2021
6345 Clear 14 1018 67 8000 1.54 230 17:25 18.09.2021
6346 Clear 11 1018 76 8000 0 0 15:48 18.09.2021
6347 Clear 7 1018 87 8000 1.03 30 13:46 18.09.2021
6348 Clear 7 1018 87 8000 1.03 30 13:27 18.09.2021
6349 Clear 7 1016 64 10000 0.25 78 12:48 18.09.2021
6350 Clear 6 1016 66 10000 0.27 80 11:37 18.09.2021
6351 Clear 7 1016 67 10000 0.25 41 10:31 18.09.2021
6352 Clear 9 1017 72 10000 0.23 282 09:26 18.09.2021
6353 Clear 9 1017 72 10000 0.23 282 08:48 18.09.2021
6354 Clear 17 1017 60 10000 1.84 233 00:59 18.09.2021
6355 Clear 17 1017 60 10000 1.84 233 00:41 18.09.2021
6356 Clear 18 1017 51 10000 2.34 233 23:44 17.09.2021
6357 Clear 20 1016 43 10000 3.15 237 22:33 17.09.2021
6358 Clear 22 1017 30 8000 2.06 240 21:48 17.09.2021
6359 Clouds 21 1018 35 8000 0 0 20:25 17.09.2021
6360 Clouds 18 1020 48 8000 1.03 240 18:51 17.09.2021
6361 Clear 14 1020 58 10000 0 0 16:50 17.09.2021
6362 Clear 14 1020 58 10000 0 0 16:18 17.09.2021
6363 Clear 5 1018 42 10000 1.36 60 12:36 17.09.2021
6364 Clear 7 1018 43 10000 1.22 85 10:41 17.09.2021
6365 Clear 9 1019 50 10000 1.02 76 08:19 17.09.2021
6366 Clear 10 1019 51 10000 0.2 212 06:43 17.09.2021
6367 Clear 22 1017 28 10000 3.09 230 00:39 17.09.2021
6368 Clear 24 1017 20 10000 3.6 230 22:50 16.09.2021
6369 Clear 24 1017 20 10000 3.6 230 22:24 16.09.2021
6370 Clear 24 1017 20 10000 3.09 230 21:39 16.09.2021
6371 Clear 23 1017 20 8000 2.57 270 20:43 16.09.2021
6372 Clear 22 1018 23 10000 1.54 220 19:36 16.09.2021
6373 Clear 20 1019 26 10000 1.54 230 18:19 16.09.2021
6374 Clear 18 1019 34 10000 1.54 0 17:22 16.09.2021
6375 Clear 6 1019 70 10000 1.03 30 14:53 16.09.2021
6376 Clear 5 1019 75 10000 1.03 90 13:48 16.09.2021
6377 Clear 3 1019 23 10000 2.7 76 12:47 16.09.2021
6378 Clear 3 1019 24 10000 2.72 75 12:26 16.09.2021
6379 Clear 5 1019 25 10000 2.6 77 11:24 16.09.2021
6380 Clear 5 1019 25 10000 2.6 77 10:30 16.09.2021
6381 Clear 5 1019 26 10000 2.58 79 09:39 16.09.2021
6382 Clear 8 1019 27 10000 2.5 78 08:32 16.09.2021
6383 Clear 9 1020 30 10000 2.15 82 06:59 16.09.2021
6384 Clear 9 1020 30 10000 2.15 82 06:39 16.09.2021
6385 Clear 13 1021 33 10000 1.88 88 04:31 16.09.2021
6386 Clear 21 1021 23 10000 0 0 00:59 16.09.2021
6387 Clear 22 1021 18 10000 3.09 210 23:32 15.09.2021
6388 Clear 22 1021 18 10000 3.09 210 23:32 15.09.2021
6389 Clear 22 1021 18 10000 2.57 240 22:45 15.09.2021
6390 Clouds 20 1020 21 10000 3.17 233 21:37 15.09.2021
6391 Clear 20 1022 26 10000 2.06 0 20:54 15.09.2021
6392 Clear 19 1022 27 10000 0 0 19:35 15.09.2021
6393 Clouds 17 1021 17 10000 2.61 240 18:59 15.09.2021
6394 Clear 15 1023 36 10000 0 0 17:46 15.09.2021
6395 Clear 13 1023 41 10000 0 0 16:44 15.09.2021
6396 Clear 10 1023 50 10000 0 0 15:29 15.09.2021
6397 Clear 5 1022 75 10000 0 0 14:44 15.09.2021
6398 Clear 4 1022 75 10000 0 0 13:51 15.09.2021
6399 Clear 4 1022 75 10000 0 0 13:29 15.09.2021
6400 Clear 2 1021 30 10000 1.86 83 12:34 15.09.2021
6401 Clear 2 1021 30 10000 1.83 81 11:51 15.09.2021
6402 Clear 3 1021 31 10000 1.68 83 10:58 15.09.2021
6403 Clear 3 1021 31 10000 1.68 83 10:35 15.09.2021
6404 Clear 3 1021 31 10000 1.71 81 09:23 15.09.2021
6405 Clear 7 1020 32 10000 1.64 81 07:30 15.09.2021
6406 Clear 7 1020 32 10000 1.64 81 07:30 15.09.2021
6407 Clear 13 1020 32 10000 1.38 82 02:50 15.09.2021
6408 Clear 21 1019 18 10000 2.57 230 22:36 14.09.2021
6409 Clear 19 1017 17 10000 2.87 241 21:34 14.09.2021
6410 Clear 19 1019 22 10000 1.54 180 20:25 14.09.2021
6411 Clear 16 1020 31 10000 2.06 180 19:41 14.09.2021
6412 Clear 12 1021 43 10000 0 0 17:34 14.09.2021
6413 Clear 9 1022 57 10000 0 0 16:49 14.09.2021
6414 Clear 5 1022 21 10000 0.92 137 15:25 14.09.2021
6415 Clear 1 1023 86 10000 0 0 14:19 14.09.2021
6416 Clear 1 1023 34 10000 2.12 94 11:48 14.09.2021
6417 Clear 0 1023 37 10000 2.03 82 10:47 14.09.2021
6418 Clear 2 1024 40 10000 1.79 80 09:49 14.09.2021
6419 Clear 2 1025 45 10000 1.75 95 07:58 14.09.2021
6420 Clear 7 1027 61 10000 1.01 102 02:55 14.09.2021
6421 Clouds 12 1026 50 10000 3.09 160 23:34 13.09.2021
6422 Clouds 12 1026 50 10000 2.57 230 22:28 13.09.2021
6423 Clouds 11 1026 54 10000 1.54 0 21:56 13.09.2021
6424 Clouds 11 1026 54 10000 1.54 0 21:56 13.09.2021
6425 Clouds 11 1026 54 10000 1.54 0 21:33 13.09.2021
6426 Clouds 7 1027 76 10000 3.09 150 19:38 13.09.2021
6427 Clouds 7 1026 81 7000 2.57 150 18:45 13.09.2021
6428 Clouds 7 1026 81 10000 3.6 190 17:38 13.09.2021
6429 Clouds 8 1025 76 10000 3.09 210 16:49 13.09.2021
6430 Clouds 8 1023 76 10000 1.54 210 14:45 13.09.2021
6431 Clouds 4 1022 85 10000 1.48 253 11:44 13.09.2021
6432 Clouds 4 1022 83 10000 1.31 250 10:42 13.09.2021
6433 Clouds 5 1022 82 10000 0.53 203 08:41 13.09.2021
6434 Clouds 12 1021 71 10000 2.57 180 00:38 13.09.2021
6435 Clouds 13 1020 67 10000 3.09 250 22:51 12.09.2021
6436 Clouds 13 1020 67 10000 3.09 250 22:22 12.09.2021
6437 Clouds 14 1020 58 10000 1.54 240 20:57 12.09.2021
6438 Clouds 14 1020 58 10000 1.54 240 20:19 12.09.2021
6439 Clouds 14 1021 51 10000 3.6 320 19:36 12.09.2021
6440 Clouds 14 1021 51 10000 3.6 320 19:18 12.09.2021
6441 Clouds 12 1021 54 10000 1.54 0 17:50 12.09.2021
6442 Clouds 10 1021 66 10000 0 0 15:56 12.09.2021
6443 Clouds 10 1021 66 10000 2.06 0 14:47 12.09.2021
6444 Clouds 9 1022 93 3749 1.74 340 12:42 12.09.2021
6445 Clouds 8 1022 93 6042 0.91 336 10:30 12.09.2021
6446 Rain 8 1021 94 2475 3 302 08:39 12.09.2021
6447 Rain 8 1019 94 1567 2.85 280 07:26 12.09.2021
6448 Rain 11 1018 71 7000 2.06 150 00:47 12.09.2021
6449 Rain 12 1015 66 7000 0 0 22:39 11.09.2021
6450 Clouds 11 1015 71 7000 2.06 180 21:39 11.09.2021
6451 Haze 10 1014 81 3000 2.57 180 19:39 11.09.2021
6452 Mist 9 1014 93 2000 0 0 17:57 11.09.2021
6453 Mist 9 1014 93 2000 0 0 17:27 11.09.2021
6454 Mist 9 1013 93 1500 1.03 210 15:35 11.09.2021
6455 Mist 8 1012 100 1500 2.06 0 13:23 11.09.2021
6456 Clouds 9 1010 66 10000 0.4 338 11:42 11.09.2021
6457 Clouds 8 1010 63 10000 0.66 352 10:27 11.09.2021
6458 Clouds 8 1011 67 10000 0.25 347 08:42 11.09.2021
6459 Clouds 8 1011 64 10000 0.76 274 07:43 11.09.2021
6460 Clouds 11 1012 60 10000 0.58 278 04:23 11.09.2021
6461 Clouds 23 1012 28 7000 4.63 240 22:37 10.09.2021
6462 Clouds 24 1012 29 6000 3.6 230 21:57 10.09.2021
6463 Clouds 24 1012 29 6000 3.6 230 21:36 10.09.2021
6464 Haze 23 1013 25 5000 1.54 0 19:30 10.09.2021
6465 Haze 23 1013 25 5000 1.54 0 19:30 10.09.2021
6466 Clear 19 1014 34 10000 1.54 230 17:56 10.09.2021
6467 Clear 16 1015 41 10000 0 0 16:27 10.09.2021
6468 Clear 7 1014 70 10000 0 0 13:26 10.09.2021
6469 Clouds 5 1014 35 10000 1.67 74 10:32 10.09.2021
6470 Clear 8 1015 40 10000 1.22 72 07:52 10.09.2021
6471 Clear 10 1015 43 10000 0.79 98 06:37 10.09.2021
6472 Clear 24 1015 19 10000 2.57 240 23:59 09.09.2021
6473 Clear 23 1015 20 10000 2.06 190 21:48 09.09.2021
6474 Clouds 22 1016 21 6000 2.57 190 20:48 09.09.2021
6475 Clear 22 1016 21 6000 2.57 190 20:26 09.09.2021
6476 Clear 17 1015 16 10000 2.42 245 18:41 09.09.2021
6477 Clear 16 1017 33 10000 1.03 270 17:41 09.09.2021
6478 Clear 13 1017 38 10000 0 0 16:27 09.09.2021
6479 Clear 3 1017 75 10000 1.03 0 13:38 09.09.2021
6480 Clear 3 1016 27 10000 2.42 79 11:57 09.09.2021
6481 Clear 3 1016 27 10000 2.34 82 11:22 09.09.2021
6482 Clear 3 1016 27 10000 2.34 82 11:22 09.09.2021
6483 Clear 3 1017 29 10000 2.28 85 09:34 09.09.2021
6484 Clear 4 1017 30 10000 2.13 80 07:43 09.09.2021
6485 Clear 10 1018 34 10000 1.79 87 05:40 09.09.2021
6486 Clear 18 1020 27 10000 0 0 23:54 08.09.2021
6487 Clear 16 1022 33 10000 0 0 21:47 08.09.2021
6488 Clear 14 1023 41 10000 1.54 30 20:37 08.09.2021
6489 Clear 12 1023 47 10000 1.54 0 19:44 08.09.2021
6490 Clear 10 1023 53 10000 1.54 210 18:47 08.09.2021
6491 Clear 10 1024 57 10000 1.54 180 17:59 08.09.2021
6492 Clear 10 1024 57 10000 1.54 180 17:39 08.09.2021
6493 Clear 1 1025 93 10000 0 0 14:57 08.09.2021
6494 Clear 1 1025 100 10000 1.54 50 13:25 08.09.2021
6495 Clear 0 1026 55 10000 1.65 88 12:41 08.09.2021
6496 Clear 0 1026 58 10000 1.44 84 12:22 08.09.2021
6497 Clear 1 1026 61 10000 1.15 86 11:23 08.09.2021
6498 Clear 1 1026 63 10000 1.11 91 10:29 08.09.2021
6499 Clear 2 1026 63 10000 1.11 91 09:37 08.09.2021
6500 Clouds 3 1028 68 10000 0.73 101 07:44 08.09.2021
6501 Clouds 6 1028 70 10000 0.76 108 06:40 08.09.2021
6502 Clouds 12 1025 47 8000 3.09 270 23:18 07.09.2021
6503 Clouds 13 1024 41 10000 2.06 0 22:19 07.09.2021
6504 Clouds 10 1025 62 10000 2.06 150 20:40 07.09.2021
6505 Clouds 9 1025 71 10000 1.54 200 18:52 07.09.2021
6506 Clouds 9 1025 71 10000 1.54 200 18:24 07.09.2021
6507 Clouds 8 1025 76 8000 0 0 17:22 07.09.2021
6508 Clouds 7 1024 81 7000 1.03 210 15:56 07.09.2021
6509 Clouds 7 1023 81 8000 1.03 230 14:47 07.09.2021
6510 Clouds 7 1022 76 10000 2.06 180 13:50 07.09.2021
6511 Clouds 7 1023 80 10000 1.07 247 11:58 07.09.2021
6512 Clouds 7 1022 75 10000 1.31 265 10:45 07.09.2021
6513 Clouds 8 1023 76 10000 1.15 250 08:47 07.09.2021
6514 Clouds 8 1022 75 10000 1.09 249 07:45 07.09.2021
6515 Clouds 8 1022 71 10000 0.89 268 06:19 07.09.2021
6516 Clouds 10 1022 66 10000 1.8 247 02:38 07.09.2021
6517 Clouds 13 1020 50 10000 3.09 220 00:55 07.09.2021
6518 Clouds 14 1020 51 8000 2.57 230 23:43 06.09.2021
6519 Clouds 14 1020 51 8000 2.57 230 23:21 06.09.2021
6520 Clouds 14 1020 54 10000 3.09 220 22:46 06.09.2021
6521 Clouds 13 1021 58 10000 2.57 180 21:52 06.09.2021
6522 Clouds 11 1022 71 7000 1.54 190 19:44 06.09.2021
6523 Clouds 11 1022 71 7000 1.54 190 19:18 06.09.2021
6524 Clouds 11 1022 71 7000 0 0 18:33 06.09.2021
6525 Clouds 10 1020 59 10000 2.95 251 17:37 06.09.2021
6526 Clouds 9 1021 81 7000 0 0 15:59 06.09.2021
6527 Clouds 8 1021 87 7000 0 0 14:37 06.09.2021
6528 Clouds 8 1020 84 10000 0.69 271 12:48 06.09.2021
6529 Clouds 8 1020 84 10000 0.77 275 11:43 06.09.2021
6530 Clouds 8 1019 83 10000 1.06 259 09:59 06.09.2021
6531 Clouds 7 1020 84 10000 1.07 247 07:35 06.09.2021
6532 Clouds 10 1019 73 10000 0.96 263 02:54 06.09.2021
6533 Clouds 19 1017 34 10000 2.57 210 23:20 05.09.2021
6534 Clear 19 1017 34 10000 3.6 200 22:32 05.09.2021
6535 Clouds 20 1017 34 8000 4.12 250 21:55 05.09.2021
6536 Clouds 20 1017 34 8000 4.12 250 21:19 05.09.2021
6537 Clouds 18 1017 36 7000 2.06 180 19:23 05.09.2021
6538 Clouds 14 1018 51 7000 0 0 17:51 05.09.2021
6539 Clouds 6 1017 39 10000 2.07 268 15:42 05.09.2021
6540 Clear 4 1018 87 10000 1.03 0 14:56 05.09.2021
6541 Clouds 3 1017 52 10000 0.35 65 12:43 05.09.2021
6542 Clouds 4 1016 53 10000 0.47 38 11:22 05.09.2021
6543 Clouds 4 1016 53 10000 0.47 38 10:34 05.09.2021
6544 Clouds 5 1017 55 10000 0.02 27 09:26 05.09.2021
6545 Clouds 8 1017 56 10000 0.38 64 08:23 05.09.2021
6546 Clear 12 1019 51 10000 0.49 206 03:21 05.09.2021
6547 Clear 19 1019 30 10000 3.09 250 00:34 05.09.2021
6548 Clear 20 1018 24 10000 3.09 260 23:46 04.09.2021
6549 Clear 20 1018 40 10000 2.57 220 22:55 04.09.2021
6550 Clear 20 1018 40 10000 2.57 220 22:34 04.09.2021
6551 Clear 16 1019 48 10000 1.54 0 19:58 04.09.2021
6552 Clear 16 1019 48 10000 1.54 0 19:32 04.09.2021
6553 Clear 10 1021 71 6000 0 0 16:47 04.09.2021
6554 Clouds 5 1021 60 10000 0.62 76 13:49 04.09.2021
6555 Clouds 7 1021 76 10000 0.25 11 11:22 04.09.2021
6556 Clouds 7 1021 83 10000 0.33 112 09:39 04.09.2021
6557 Clouds 8 1021 82 10000 1.05 278 07:28 04.09.2021
6558 Clouds 11 1018 71 6000 0 0 00:30 04.09.2021
6559 Haze 11 1018 76 4000 2.57 190 23:32 03.09.2021
6560 Haze 11 1018 76 4000 2.57 190 23:32 03.09.2021
6561 Haze 11 1018 76 3000 1.54 190 22:57 03.09.2021
6562 Haze 11 1018 76 2000 2.57 240 21:37 03.09.2021
6563 Haze 11 1018 76 2000 2.06 260 20:53 03.09.2021
6564 Haze 12 1018 76 2000 1.54 0 19:57 03.09.2021
6565 Haze 12 1018 76 2000 1.54 0 19:30 03.09.2021
6566 Haze 10 1018 87 2000 0 0 17:58 03.09.2021
6567 Mist 9 1018 87 1500 0 0 16:45 03.09.2021
6568 Mist 9 1019 93 1500 1.54 160 15:38 03.09.2021
6569 Clear 8 1017 59 10000 0.53 72 13:24 03.09.2021
6570 Clear 8 1017 59 10000 0.55 58 10:43 03.09.2021
6571 Clear 8 1017 59 10000 0.5 65 09:20 03.09.2021
6572 Clear 9 1017 62 10000 0.55 62 07:54 03.09.2021
6573 Clear 9 1018 68 10000 0.23 48 06:26 03.09.2021
6574 Clear 20 1017 45 8000 3.09 250 23:56 02.09.2021
6575 Haze 21 1017 43 5000 2.57 260 21:49 02.09.2021
6576 Haze 20 1017 49 5000 2.06 240 20:25 02.09.2021
6577 Haze 15 1019 63 5000 0 0 17:33 02.09.2021
6578 Haze 13 1020 71 4000 0 0 16:20 02.09.2021
6579 Clear 6 1020 93 7000 0 0 15:29 02.09.2021
6580 Clear 5 1019 62 10000 2.08 75 13:23 02.09.2021
6581 Clear 6 1019 65 10000 1.65 81 11:41 02.09.2021
6582 Clear 6 1019 68 10000 1.35 91 10:52 02.09.2021
6583 Clouds 9 1019 75 10000 0.79 79 08:49 02.09.2021
6584 Clouds 10 1018 67 10000 1.23 60 07:22 02.09.2021
6585 Clouds 12 1018 70 10000 1.22 71 05:31 02.09.2021
6586 Clouds 12 1018 70 10000 1.22 71 05:31 02.09.2021
6587 Clouds 15 1019 70 10000 0.82 140 02:35 02.09.2021
6588 Clouds 16 1018 68 10000 0.37 70 01:36 02.09.2021
6589 Haze 17 1016 51 5000 1.03 230 23:40 01.09.2021
6590 Clouds 17 1015 51 7000 1.03 180 22:42 01.09.2021
6591 Clouds 16 1016 59 6000 0 0 21:41 01.09.2021
6592 Clouds 17 1016 77 10000 0.3 88 20:54 01.09.2021
6593 Clouds 13 1017 62 7000 0 0 19:24 01.09.2021
6594 Clouds 12 1018 71 6000 0 0 17:50 01.09.2021
6595 Haze 11 1018 71 5000 0 0 16:55 01.09.2021
6596 Haze 11 1018 71 5000 0 0 16:33 01.09.2021
6597 Clouds 2 1018 61 10000 0.92 51 13:57 01.09.2021
6598 Clouds 4 1016 63 10000 0.69 110 11:47 01.09.2021
6599 Clear 5 1017 65 10000 0.16 128 09:35 01.09.2021
6600 Clear 6 1017 67 10000 0.29 93 07:57 01.09.2021
6601 Clear 8 1018 67 10000 0.04 187 06:42 01.09.2021
6602 Clear 19 1018 39 8000 2.57 230 23:20 31.08.2021
6603 Clear 18 1018 36 6000 2.57 0 21:41 31.08.2021
6604 Clouds 14 1019 62 6000 2.06 210 19:49 31.08.2021
6605 Haze 13 1019 67 5000 2.57 240 18:45 31.08.2021
6606 Haze 12 1020 66 5000 0 0 17:39 31.08.2021
6607 Haze 12 1020 66 5000 0 0 17:21 31.08.2021
6608 Haze 10 1020 76 5000 0 0 16:24 31.08.2021
6609 Haze 9 1019 81 4000 1.03 150 14:28 31.08.2021
6610 Clouds 8 1018 72 10000 0.32 277 11:36 31.08.2021
6611 Clear 8 1017 74 10000 0.31 297 10:56 31.08.2021
6612 Clear 8 1017 73 10000 0.31 281 09:45 31.08.2021
6613 Clear 8 1017 75 10000 0.33 291 08:41 31.08.2021
6614 Clear 8 1018 79 10000 0.75 259 07:39 31.08.2021
6615 Clear 6 1018 77 10000 0.57 246 05:55 31.08.2021
6616 Clear 14 1017 67 10000 1.54 240 23:35 30.08.2021
6617 Haze 15 1017 66 5000 2.57 230 21:53 30.08.2021
6618 Haze 15 1017 66 5000 2.57 230 21:35 30.08.2021
6619 Haze 15 1017 66 5000 2.57 270 20:35 30.08.2021
6620 Haze 14 1017 69 5000 1.54 210 19:30 30.08.2021
6621 Haze 12 1018 72 3500 2.57 210 18:57 30.08.2021
6622 Haze 10 1018 81 3000 2.06 220 17:48 30.08.2021
6623 Haze 9 1018 87 2000 0 0 16:25 30.08.2021
6624 Mist 8 1018 93 2000 0 0 15:40 30.08.2021
6625 Clear 8 1017 53 10000 0.99 68 13:51 30.08.2021
6626 Clear 8 1017 57 10000 1.3 72 12:49 30.08.2021
6627 Clear 8 1016 59 10000 0.71 77 10:41 30.08.2021
6628 Clear 11 1017 62 10000 0.87 238 03:24 30.08.2021
6629 Clear 25 1014 36 6000 2.57 260 21:33 29.08.2021
6630 Clear 25 1014 35 10000 2.57 260 20:44 29.08.2021
6631 Clear 25 1014 35 7000 1.54 0 19:26 29.08.2021
6632 Clear 20 1015 44 10000 1.03 300 17:58 29.08.2021
6633 Clear 12 1016 72 10000 0 0 15:50 29.08.2021
6634 Clear 8 1016 76 10000 0 0 14:27 29.08.2021
6635 Clear 7 1016 41 10000 2.16 72 13:47 29.08.2021
6636 Clouds 6 1016 43 10000 2.58 72 12:42 29.08.2021
6637 Clouds 4 1015 44 10000 2.75 72 11:53 29.08.2021
6638 Clouds 4 1015 45 10000 2.68 72 11:28 29.08.2021
6639 Clouds 5 1015 45 10000 2.68 72 10:46 29.08.2021
6640 Clear 5 1016 45 10000 2.9 74 10:27 29.08.2021
6641 Clear 6 1017 46 10000 2.59 77 09:21 29.08.2021
6642 Clouds 21 1019 40 8000 1.54 230 00:40 29.08.2021
6643 Clouds 23 1019 37 7000 1.03 180 22:25 28.08.2021
6644 Clouds 21 1019 40 10000 0 0 20:30 28.08.2021
6645 Clouds 17 1021 49 10000 1.03 350 18:51 28.08.2021
6646 Rain 17 1021 49 10000 1.03 350 18:21 28.08.2021
6647 Clouds 17 1021 45 10000 1.03 180 17:27 28.08.2021
6648 Clouds 12 1022 62 10000 0 0 15:57 28.08.2021
6649 Clouds 11 1022 66 10000 2.06 20 14:42 28.08.2021
6650 Clouds 8 1023 51 10000 2.99 76 13:46 28.08.2021
6651 Clouds 8 1023 53 10000 2.54 82 12:45 28.08.2021
6652 Clouds 7 1023 56 10000 2.17 65 11:57 28.08.2021
6653 Clouds 8 1022 57 10000 2.08 60 10:43 28.08.2021
6654 Clouds 8 1022 58 10000 1.69 82 09:24 28.08.2021
6655 Clouds 8 1021 59 10000 1.21 89 07:25 28.08.2021
6656 Clouds 14 1020 54 7000 1.54 230 22:48 27.08.2021
6657 Clouds 15 1020 47 7000 2.06 230 21:24 27.08.2021
6658 Clouds 15 1020 51 6000 1.54 270 20:33 27.08.2021
6659 Clouds 14 1019 54 7000 2.06 350 19:26 27.08.2021
6660 Clouds 12 1020 58 7000 0 0 18:38 27.08.2021
6661 Clouds 12 1020 58 10000 0 0 17:27 27.08.2021
6662 Clouds 9 1020 76 10000 0 0 15:57 27.08.2021
6663 Clouds 7 1020 81 10000 0 0 14:44 27.08.2021
6664 Clouds 5 1017 44 10000 0.72 56 12:55 27.08.2021
6665 Clouds 4 1017 44 10000 1.05 59 11:37 27.08.2021
6666 Clouds 5 1017 45 10000 0.9 60 10:44 27.08.2021
6667 Clouds 7 1017 47 10000 1 59 09:47 27.08.2021
6668 Clouds 6 1018 46 10000 0.63 73 08:48 27.08.2021
6669 Clouds 7 1018 46 10000 0.84 87 06:58 27.08.2021
6670 Clouds 7 1019 47 10000 1.2 74 05:28 27.08.2021
6671 Clear 15 1019 41 9000 2.57 230 00:35 27.08.2021
6672 Clear 16 1020 39 8000 3.09 220 22:49 26.08.2021
6673 Clear 16 1020 39 8000 3.09 220 22:19 26.08.2021
6674 Clear 14 1020 47 8000 0 0 20:37 26.08.2021
6675 Clear 11 1023 58 8000 1.54 190 18:51 26.08.2021
6676 Clear 10 1023 62 10000 1.03 240 17:45 26.08.2021
6677 Clear 9 1024 66 10000 1.03 0 16:33 26.08.2021
6678 Clear 6 1024 81 10000 1.03 200 15:55 26.08.2021
6679 Clouds 3 1024 54 10000 1.28 80 13:48 26.08.2021
6680 Clouds 4 1025 58 10000 1.27 84 12:54 26.08.2021
6681 Clouds 4 1025 61 10000 0.96 97 12:24 26.08.2021
6682 Clouds 5 1025 63 10000 0.43 105 10:18 26.08.2021
6683 Clouds 5 1025 60 10000 0.67 68 08:34 26.08.2021
6684 Clouds 6 1026 64 10000 0.64 68 06:18 26.08.2021
6685 Clouds 14 1025 47 9000 2.57 220 22:50 25.08.2021
6686 Clouds 14 1025 47 9000 2.57 220 22:32 25.08.2021
6687 Clouds 14 1025 47 10000 1.54 260 21:41 25.08.2021
6688 Clouds 12 1025 58 10000 1.54 270 20:46 25.08.2021